<?xml version="1.0" encoding="UTF-8" standalone="no" ?>
<gpx xmlns="http://www.topografix.com/GPX/1/1" xmlns:xsi="http://www.w3.org/2001/XMLSchema-instance" xsi:schemaLocation="http://www.topografix.com/GPX/1/1 http://www.topografix.com/GPX/1/1/gpx.xsd" version="1.1" creator="VisuGPX - https://www.visugpx.com">
  <metadata>
    <name>jours 1 et 2</name>
    <desc><![CDATA[Voici les 2 premiers jours]]></desc>
  </metadata>
  <trk>
    <name><![CDATA[2014-07-03 18:56:24]]></name>
    <trkseg>
      <trkpt lat="46.06358" lon="6.23988">
        <ele>800.44</ele>
        <time>2014-07-02T13:50:34Z</time>
      </trkpt>
      <trkpt lat="46.06362" lon="6.23976">
        <ele>800.44</ele>
        <time>2014-07-02T13:50:35Z</time>
      </trkpt>
      <trkpt lat="46.06362" lon="6.23977">
        <ele>888.4</ele>
        <time>2014-07-02T13:50:37Z</time>
      </trkpt>
      <trkpt lat="46.06362" lon="6.23977">
        <ele>888.4</ele>
        <time>2014-07-02T13:50:38Z</time>
      </trkpt>
      <trkpt lat="46.06359" lon="6.23982">
        <ele>888.4</ele>
        <time>2014-07-02T13:50:59Z</time>
      </trkpt>
      <trkpt lat="46.06357" lon="6.2398">
        <ele>888.4</ele>
        <time>2014-07-02T13:51:10Z</time>
      </trkpt>
      <trkpt lat="46.06354" lon="6.23973">
        <ele>887.91</ele>
        <time>2014-07-02T13:51:14Z</time>
      </trkpt>
      <trkpt lat="46.06352" lon="6.23942">
        <ele>886.95</ele>
        <time>2014-07-02T13:51:26Z</time>
      </trkpt>
      <trkpt lat="46.06334" lon="6.23927">
        <ele>885.03</ele>
        <time>2014-07-02T13:51:34Z</time>
      </trkpt>
      <trkpt lat="46.06318" lon="6.23917">
        <ele>883.59</ele>
        <time>2014-07-02T13:51:38Z</time>
      </trkpt>
      <trkpt lat="46.06294" lon="6.23903">
        <ele>883.11</ele>
        <time>2014-07-02T13:51:43Z</time>
      </trkpt>
      <trkpt lat="46.06291" lon="6.23892">
        <ele>883.59</ele>
        <time>2014-07-02T13:51:46Z</time>
      </trkpt>
      <trkpt lat="46.06305" lon="6.23871">
        <ele>886.47</ele>
        <time>2014-07-02T13:51:59Z</time>
      </trkpt>
      <trkpt lat="46.06315" lon="6.2385">
        <ele>888.88</ele>
        <time>2014-07-02T13:52:14Z</time>
      </trkpt>
      <trkpt lat="46.06318" lon="6.23847">
        <ele>889.36</ele>
        <time>2014-07-02T13:52:17Z</time>
      </trkpt>
      <trkpt lat="46.06321" lon="6.2384">
        <ele>890.32</ele>
        <time>2014-07-02T13:52:21Z</time>
      </trkpt>
      <trkpt lat="46.06327" lon="6.23825">
        <ele>891.76</ele>
        <time>2014-07-02T13:52:30Z</time>
      </trkpt>
      <trkpt lat="46.0633" lon="6.23814">
        <ele>892.72</ele>
        <time>2014-07-02T13:52:37Z</time>
      </trkpt>
      <trkpt lat="46.06339" lon="6.23804">
        <ele>894.16</ele>
        <time>2014-07-02T13:52:46Z</time>
      </trkpt>
      <trkpt lat="46.06366" lon="6.23799">
        <ele>896.57</ele>
        <time>2014-07-02T13:53:04Z</time>
      </trkpt>
      <trkpt lat="46.06381" lon="6.23803">
        <ele>897.05</ele>
        <time>2014-07-02T13:53:16Z</time>
      </trkpt>
      <trkpt lat="46.06382" lon="6.23802">
        <ele>897.05</ele>
        <time>2014-07-02T13:53:17Z</time>
      </trkpt>
      <trkpt lat="46.06402" lon="6.23808">
        <ele>899.93</ele>
        <time>2014-07-02T13:53:31Z</time>
      </trkpt>
      <trkpt lat="46.06421" lon="6.23818">
        <ele>901.85</ele>
        <time>2014-07-02T13:53:46Z</time>
      </trkpt>
      <trkpt lat="46.06441" lon="6.23834">
        <ele>904.74</ele>
        <time>2014-07-02T13:54:01Z</time>
      </trkpt>
      <trkpt lat="46.0645" lon="6.23842">
        <ele>905.7</ele>
        <time>2014-07-02T13:54:08Z</time>
      </trkpt>
      <trkpt lat="46.06472" lon="6.2384">
        <ele>908.58</ele>
        <time>2014-07-02T13:54:24Z</time>
      </trkpt>
      <trkpt lat="46.06476" lon="6.23839">
        <ele>908.58</ele>
        <time>2014-07-02T13:54:26Z</time>
      </trkpt>
      <trkpt lat="46.06495" lon="6.23822">
        <ele>910.03</ele>
        <time>2014-07-02T13:54:39Z</time>
      </trkpt>
      <trkpt lat="46.06498" lon="6.23822">
        <ele>910.03</ele>
        <time>2014-07-02T13:54:41Z</time>
      </trkpt>
      <trkpt lat="46.06508" lon="6.23819">
        <ele>910.51</ele>
        <time>2014-07-02T13:54:48Z</time>
      </trkpt>
      <trkpt lat="46.06533" lon="6.2383">
        <ele>911.47</ele>
        <time>2014-07-02T13:55:04Z</time>
      </trkpt>
      <trkpt lat="46.06563" lon="6.23854">
        <ele>912.91</ele>
        <time>2014-07-02T13:55:19Z</time>
      </trkpt>
      <trkpt lat="46.06595" lon="6.23881">
        <ele>915.31</ele>
        <time>2014-07-02T13:55:40Z</time>
      </trkpt>
      <trkpt lat="46.06623" lon="6.23905">
        <ele>917.72</ele>
        <time>2014-07-02T13:55:58Z</time>
      </trkpt>
      <trkpt lat="46.06643" lon="6.2392">
        <ele>919.16</ele>
        <time>2014-07-02T13:56:11Z</time>
      </trkpt>
      <trkpt lat="46.06659" lon="6.23934">
        <ele>920.6</ele>
        <time>2014-07-02T13:56:21Z</time>
      </trkpt>
      <trkpt lat="46.06709" lon="6.23965">
        <ele>923</ele>
        <time>2014-07-02T13:56:39Z</time>
      </trkpt>
      <trkpt lat="46.0675" lon="6.23982">
        <ele>924.93</ele>
        <time>2014-07-02T13:56:56Z</time>
      </trkpt>
      <trkpt lat="46.06772" lon="6.23958">
        <ele>926.37</ele>
        <time>2014-07-02T13:57:08Z</time>
      </trkpt>
      <trkpt lat="46.06801" lon="6.2392">
        <ele>928.29</ele>
        <time>2014-07-02T13:57:25Z</time>
      </trkpt>
      <trkpt lat="46.06822" lon="6.23906">
        <ele>931.17</ele>
        <time>2014-07-02T13:57:41Z</time>
      </trkpt>
      <trkpt lat="46.06826" lon="6.23905">
        <ele>931.65</ele>
        <time>2014-07-02T13:57:44Z</time>
      </trkpt>
      <trkpt lat="46.06832" lon="6.23905">
        <ele>932.14</ele>
        <time>2014-07-02T13:57:48Z</time>
      </trkpt>
      <trkpt lat="46.06866" lon="6.23909">
        <ele>934.54</ele>
        <time>2014-07-02T13:58:04Z</time>
      </trkpt>
      <trkpt lat="46.06891" lon="6.23904">
        <ele>936.94</ele>
        <time>2014-07-02T13:58:20Z</time>
      </trkpt>
      <trkpt lat="46.0691" lon="6.23884">
        <ele>938.38</ele>
        <time>2014-07-02T13:58:32Z</time>
      </trkpt>
      <trkpt lat="46.06931" lon="6.23854">
        <ele>939.35</ele>
        <time>2014-07-02T13:58:46Z</time>
      </trkpt>
      <trkpt lat="46.06938" lon="6.23793">
        <ele>939.83</ele>
        <time>2014-07-02T13:59:00Z</time>
      </trkpt>
      <trkpt lat="46.06925" lon="6.2374">
        <ele>939.83</ele>
        <time>2014-07-02T13:59:11Z</time>
      </trkpt>
      <trkpt lat="46.06933" lon="6.23703">
        <ele>941.27</ele>
        <time>2014-07-02T13:59:22Z</time>
      </trkpt>
      <trkpt lat="46.06963" lon="6.23653">
        <ele>941.27</ele>
        <time>2014-07-02T13:59:37Z</time>
      </trkpt>
      <trkpt lat="46.06999" lon="6.23617">
        <ele>941.75</ele>
        <time>2014-07-02T13:59:53Z</time>
      </trkpt>
      <trkpt lat="46.0704" lon="6.23631">
        <ele>943.19</ele>
        <time>2014-07-02T14:00:07Z</time>
      </trkpt>
      <trkpt lat="46.07051" lon="6.23674">
        <ele>944.15</ele>
        <time>2014-07-02T14:00:18Z</time>
      </trkpt>
      <trkpt lat="46.0708" lon="6.23745">
        <ele>945.59</ele>
        <time>2014-07-02T14:00:35Z</time>
      </trkpt>
      <trkpt lat="46.0713" lon="6.23795">
        <ele>947.52</ele>
        <time>2014-07-02T14:00:53Z</time>
      </trkpt>
      <trkpt lat="46.07144" lon="6.23862">
        <ele>949.44</ele>
        <time>2014-07-02T14:01:09Z</time>
      </trkpt>
      <trkpt lat="46.07143" lon="6.23941">
        <ele>950.88</ele>
        <time>2014-07-02T14:01:26Z</time>
      </trkpt>
      <trkpt lat="46.07152" lon="6.23976">
        <ele>950.88</ele>
        <time>2014-07-02T14:01:36Z</time>
      </trkpt>
      <trkpt lat="46.07196" lon="6.23998">
        <ele>949.44</ele>
        <time>2014-07-02T14:01:46Z</time>
      </trkpt>
      <trkpt lat="46.07206" lon="6.24001">
        <ele>948.96</ele>
        <time>2014-07-02T14:01:48Z</time>
      </trkpt>
      <trkpt lat="46.07248" lon="6.24016">
        <ele>948.96</ele>
        <time>2014-07-02T14:01:57Z</time>
      </trkpt>
      <trkpt lat="46.07298" lon="6.24024">
        <ele>948.48</ele>
        <time>2014-07-02T14:02:08Z</time>
      </trkpt>
      <trkpt lat="46.07312" lon="6.24024">
        <ele>948.96</ele>
        <time>2014-07-02T14:02:11Z</time>
      </trkpt>
      <trkpt lat="46.07363" lon="6.23994">
        <ele>945.11</ele>
        <time>2014-07-02T14:02:20Z</time>
      </trkpt>
      <trkpt lat="46.07369" lon="6.23993">
        <ele>944.63</ele>
        <time>2014-07-02T14:02:21Z</time>
      </trkpt>
      <trkpt lat="46.07376" lon="6.23992">
        <ele>943.67</ele>
        <time>2014-07-02T14:02:22Z</time>
      </trkpt>
      <trkpt lat="46.07405" lon="6.2399">
        <ele>939.83</ele>
        <time>2014-07-02T14:02:26Z</time>
      </trkpt>
      <trkpt lat="46.07436" lon="6.23989">
        <ele>935.5</ele>
        <time>2014-07-02T14:02:30Z</time>
      </trkpt>
      <trkpt lat="46.0746" lon="6.23988">
        <ele>932.14</ele>
        <time>2014-07-02T14:02:33Z</time>
      </trkpt>
      <trkpt lat="46.07486" lon="6.23987">
        <ele>929.25</ele>
        <time>2014-07-02T14:02:36Z</time>
      </trkpt>
      <trkpt lat="46.07514" lon="6.23988">
        <ele>925.89</ele>
        <time>2014-07-02T14:02:39Z</time>
      </trkpt>
      <trkpt lat="46.07523" lon="6.23989">
        <ele>924.93</ele>
        <time>2014-07-02T14:02:40Z</time>
      </trkpt>
      <trkpt lat="46.07543" lon="6.2399">
        <ele>923</ele>
        <time>2014-07-02T14:02:42Z</time>
      </trkpt>
      <trkpt lat="46.07551" lon="6.2399">
        <ele>922.52</ele>
        <time>2014-07-02T14:02:43Z</time>
      </trkpt>
      <trkpt lat="46.07577" lon="6.23993">
        <ele>920.6</ele>
        <time>2014-07-02T14:02:46Z</time>
      </trkpt>
      <trkpt lat="46.07586" lon="6.23996">
        <ele>920.6</ele>
        <time>2014-07-02T14:02:47Z</time>
      </trkpt>
      <trkpt lat="46.07633" lon="6.24023">
        <ele>919.64</ele>
        <time>2014-07-02T14:02:52Z</time>
      </trkpt>
      <trkpt lat="46.07651" lon="6.24039">
        <ele>918.68</ele>
        <time>2014-07-02T14:02:54Z</time>
      </trkpt>
      <trkpt lat="46.07673" lon="6.24078">
        <ele>916.27</ele>
        <time>2014-07-02T14:02:58Z</time>
      </trkpt>
      <trkpt lat="46.07688" lon="6.24145">
        <ele>912.91</ele>
        <time>2014-07-02T14:03:03Z</time>
      </trkpt>
      <trkpt lat="46.07674" lon="6.24243">
        <ele>909.54</ele>
        <time>2014-07-02T14:03:08Z</time>
      </trkpt>
      <trkpt lat="46.07676" lon="6.2429">
        <ele>907.62</ele>
        <time>2014-07-02T14:03:12Z</time>
      </trkpt>
      <trkpt lat="46.07678" lon="6.24316">
        <ele>907.14</ele>
        <time>2014-07-02T14:03:15Z</time>
      </trkpt>
      <trkpt lat="46.07696" lon="6.24331">
        <ele>906.18</ele>
        <time>2014-07-02T14:03:19Z</time>
      </trkpt>
      <trkpt lat="46.07772" lon="6.2435">
        <ele>909.06</ele>
        <time>2014-07-02T14:03:31Z</time>
      </trkpt>
      <trkpt lat="46.07777" lon="6.24351">
        <ele>909.54</ele>
        <time>2014-07-02T14:03:32Z</time>
      </trkpt>
      <trkpt lat="46.07804" lon="6.24351">
        <ele>910.99</ele>
        <time>2014-07-02T14:03:39Z</time>
      </trkpt>
      <trkpt lat="46.0783" lon="6.24343">
        <ele>911.95</ele>
        <time>2014-07-02T14:03:53Z</time>
      </trkpt>
      <trkpt lat="46.07859" lon="6.24337">
        <ele>911.95</ele>
        <time>2014-07-02T14:04:07Z</time>
      </trkpt>
      <trkpt lat="46.07906" lon="6.24333">
        <ele>910.99</ele>
        <time>2014-07-02T14:04:18Z</time>
      </trkpt>
      <trkpt lat="46.07981" lon="6.2432">
        <ele>907.62</ele>
        <time>2014-07-02T14:04:31Z</time>
      </trkpt>
      <trkpt lat="46.0802" lon="6.2431">
        <ele>904.26</ele>
        <time>2014-07-02T14:04:36Z</time>
      </trkpt>
      <trkpt lat="46.08129" lon="6.24312">
        <ele>901.37</ele>
        <time>2014-07-02T14:04:47Z</time>
      </trkpt>
      <trkpt lat="46.08192" lon="6.24324">
        <ele>901.37</ele>
        <time>2014-07-02T14:04:55Z</time>
      </trkpt>
      <trkpt lat="46.08294" lon="6.24345">
        <ele>898.01</ele>
        <time>2014-07-02T14:05:10Z</time>
      </trkpt>
      <trkpt lat="46.08347" lon="6.24348">
        <ele>894.64</ele>
        <time>2014-07-02T14:05:16Z</time>
      </trkpt>
      <trkpt lat="46.08413" lon="6.24352">
        <ele>891.28</ele>
        <time>2014-07-02T14:05:23Z</time>
      </trkpt>
      <trkpt lat="46.08431" lon="6.24352">
        <ele>890.32</ele>
        <time>2014-07-02T14:05:25Z</time>
      </trkpt>
      <trkpt lat="46.0851" lon="6.24386">
        <ele>888.4</ele>
        <time>2014-07-02T14:05:35Z</time>
      </trkpt>
      <trkpt lat="46.08603" lon="6.24422">
        <ele>888.88</ele>
        <time>2014-07-02T14:05:49Z</time>
      </trkpt>
      <trkpt lat="46.0869" lon="6.24444">
        <ele>887.43</ele>
        <time>2014-07-02T14:06:04Z</time>
      </trkpt>
      <trkpt lat="46.08695" lon="6.24446">
        <ele>887.43</ele>
        <time>2014-07-02T14:06:05Z</time>
      </trkpt>
      <trkpt lat="46.08756" lon="6.245">
        <ele>886.95</ele>
        <time>2014-07-02T14:06:18Z</time>
      </trkpt>
      <trkpt lat="46.08816" lon="6.24589">
        <ele>887.91</ele>
        <time>2014-07-02T14:06:34Z</time>
      </trkpt>
      <trkpt lat="46.08828" lon="6.24605">
        <ele>887.43</ele>
        <time>2014-07-02T14:06:37Z</time>
      </trkpt>
      <trkpt lat="46.08846" lon="6.24627">
        <ele>886.47</ele>
        <time>2014-07-02T14:06:41Z</time>
      </trkpt>
      <trkpt lat="46.08898" lon="6.24658">
        <ele>883.11</ele>
        <time>2014-07-02T14:06:49Z</time>
      </trkpt>
      <trkpt lat="46.08922" lon="6.24668">
        <ele>881.19</ele>
        <time>2014-07-02T14:06:52Z</time>
      </trkpt>
      <trkpt lat="46.08962" lon="6.24684">
        <ele>879.74</ele>
        <time>2014-07-02T14:06:57Z</time>
      </trkpt>
      <trkpt lat="46.08992" lon="6.24713">
        <ele>876.86</ele>
        <time>2014-07-02T14:07:01Z</time>
      </trkpt>
      <trkpt lat="46.0902" lon="6.24772">
        <ele>872.53</ele>
        <time>2014-07-02T14:07:06Z</time>
      </trkpt>
      <trkpt lat="46.09048" lon="6.24826">
        <ele>868.69</ele>
        <time>2014-07-02T14:07:11Z</time>
      </trkpt>
      <trkpt lat="46.09079" lon="6.24888">
        <ele>866.29</ele>
        <time>2014-07-02T14:07:18Z</time>
      </trkpt>
      <trkpt lat="46.09082" lon="6.24894">
        <ele>865.8</ele>
        <time>2014-07-02T14:07:19Z</time>
      </trkpt>
      <trkpt lat="46.09085" lon="6.24905">
        <ele>865.32</ele>
        <time>2014-07-02T14:07:21Z</time>
      </trkpt>
      <trkpt lat="46.09091" lon="6.24941">
        <ele>864.36</ele>
        <time>2014-07-02T14:07:26Z</time>
      </trkpt>
      <trkpt lat="46.09139" lon="6.25036">
        <ele>861.96</ele>
        <time>2014-07-02T14:07:40Z</time>
      </trkpt>
      <trkpt lat="46.09171" lon="6.2507">
        <ele>859.08</ele>
        <time>2014-07-02T14:07:45Z</time>
      </trkpt>
      <trkpt lat="46.09206" lon="6.25094">
        <ele>854.75</ele>
        <time>2014-07-02T14:07:49Z</time>
      </trkpt>
      <trkpt lat="46.09254" lon="6.25128">
        <ele>851.38</ele>
        <time>2014-07-02T14:07:54Z</time>
      </trkpt>
      <trkpt lat="46.09264" lon="6.25135">
        <ele>850.9</ele>
        <time>2014-07-02T14:07:55Z</time>
      </trkpt>
      <trkpt lat="46.09282" lon="6.25149">
        <ele>849.94</ele>
        <time>2014-07-02T14:07:57Z</time>
      </trkpt>
      <trkpt lat="46.09352" lon="6.25248">
        <ele>846.1</ele>
        <time>2014-07-02T14:08:07Z</time>
      </trkpt>
      <trkpt lat="46.09384" lon="6.25289">
        <ele>842.73</ele>
        <time>2014-07-02T14:08:11Z</time>
      </trkpt>
      <trkpt lat="46.09411" lon="6.2532">
        <ele>838.89</ele>
        <time>2014-07-02T14:08:14Z</time>
      </trkpt>
      <trkpt lat="46.09438" lon="6.25354">
        <ele>834.56</ele>
        <time>2014-07-02T14:08:17Z</time>
      </trkpt>
      <trkpt lat="46.09474" lon="6.25402">
        <ele>831.2</ele>
        <time>2014-07-02T14:08:21Z</time>
      </trkpt>
      <trkpt lat="46.09517" lon="6.25462">
        <ele>827.35</ele>
        <time>2014-07-02T14:08:26Z</time>
      </trkpt>
      <trkpt lat="46.09548" lon="6.25515">
        <ele>823.03</ele>
        <time>2014-07-02T14:08:30Z</time>
      </trkpt>
      <trkpt lat="46.09567" lon="6.25561">
        <ele>819.66</ele>
        <time>2014-07-02T14:08:33Z</time>
      </trkpt>
      <trkpt lat="46.09584" lon="6.25606">
        <ele>815.82</ele>
        <time>2014-07-02T14:08:36Z</time>
      </trkpt>
      <trkpt lat="46.09598" lon="6.25651">
        <ele>811.97</ele>
        <time>2014-07-02T14:08:39Z</time>
      </trkpt>
      <trkpt lat="46.09612" lon="6.25694">
        <ele>808.13</ele>
        <time>2014-07-02T14:08:42Z</time>
      </trkpt>
      <trkpt lat="46.0963" lon="6.25735">
        <ele>804.28</ele>
        <time>2014-07-02T14:08:45Z</time>
      </trkpt>
      <trkpt lat="46.09651" lon="6.25774">
        <ele>800.44</ele>
        <time>2014-07-02T14:08:48Z</time>
      </trkpt>
      <trkpt lat="46.09672" lon="6.25812">
        <ele>797.07</ele>
        <time>2014-07-02T14:08:51Z</time>
      </trkpt>
      <trkpt lat="46.0969" lon="6.25847">
        <ele>793.22</ele>
        <time>2014-07-02T14:08:54Z</time>
      </trkpt>
      <trkpt lat="46.09706" lon="6.25879">
        <ele>790.34</ele>
        <time>2014-07-02T14:08:57Z</time>
      </trkpt>
      <trkpt lat="46.09742" lon="6.25912">
        <ele>786.02</ele>
        <time>2014-07-02T14:09:02Z</time>
      </trkpt>
      <trkpt lat="46.09771" lon="6.25907">
        <ele>783.13</ele>
        <time>2014-07-02T14:09:05Z</time>
      </trkpt>
      <trkpt lat="46.09803" lon="6.25889">
        <ele>779.77</ele>
        <time>2014-07-02T14:09:09Z</time>
      </trkpt>
      <trkpt lat="46.09834" lon="6.25895">
        <ele>775.92</ele>
        <time>2014-07-02T14:09:14Z</time>
      </trkpt>
      <trkpt lat="46.09826" lon="6.25944">
        <ele>772.08</ele>
        <time>2014-07-02T14:09:19Z</time>
      </trkpt>
      <trkpt lat="46.09796" lon="6.25999">
        <ele>767.27</ele>
        <time>2014-07-02T14:09:24Z</time>
      </trkpt>
      <trkpt lat="46.09775" lon="6.2603">
        <ele>764.39</ele>
        <time>2014-07-02T14:09:27Z</time>
      </trkpt>
      <trkpt lat="46.09727" lon="6.26054">
        <ele>760.54</ele>
        <time>2014-07-02T14:09:32Z</time>
      </trkpt>
      <trkpt lat="46.09679" lon="6.26066">
        <ele>756.69</ele>
        <time>2014-07-02T14:09:37Z</time>
      </trkpt>
      <trkpt lat="46.0967" lon="6.26071">
        <ele>756.21</ele>
        <time>2014-07-02T14:09:38Z</time>
      </trkpt>
      <trkpt lat="46.09631" lon="6.26101">
        <ele>752.37</ele>
        <time>2014-07-02T14:09:43Z</time>
      </trkpt>
      <trkpt lat="46.09615" lon="6.26111">
        <ele>750.45</ele>
        <time>2014-07-02T14:09:45Z</time>
      </trkpt>
      <trkpt lat="46.09574" lon="6.26109">
        <ele>745.64</ele>
        <time>2014-07-02T14:09:50Z</time>
      </trkpt>
      <trkpt lat="46.09553" lon="6.26106">
        <ele>743.72</ele>
        <time>2014-07-02T14:09:53Z</time>
      </trkpt>
      <trkpt lat="46.09535" lon="6.26139">
        <ele>740.35</ele>
        <time>2014-07-02T14:09:59Z</time>
      </trkpt>
      <trkpt lat="46.09538" lon="6.26148">
        <ele>739.87</ele>
        <time>2014-07-02T14:10:00Z</time>
      </trkpt>
      <trkpt lat="46.09553" lon="6.26185">
        <ele>736.99</ele>
        <time>2014-07-02T14:10:04Z</time>
      </trkpt>
      <trkpt lat="46.09583" lon="6.26211">
        <ele>734.1</ele>
        <time>2014-07-02T14:10:08Z</time>
      </trkpt>
      <trkpt lat="46.09625" lon="6.26225">
        <ele>729.3</ele>
        <time>2014-07-02T14:10:12Z</time>
      </trkpt>
      <trkpt lat="46.09668" lon="6.26243">
        <ele>726.41</ele>
        <time>2014-07-02T14:10:16Z</time>
      </trkpt>
      <trkpt lat="46.09726" lon="6.26292">
        <ele>722.57</ele>
        <time>2014-07-02T14:10:22Z</time>
      </trkpt>
      <trkpt lat="46.09765" lon="6.26329">
        <ele>718.72</ele>
        <time>2014-07-02T14:10:26Z</time>
      </trkpt>
      <trkpt lat="46.09797" lon="6.26359">
        <ele>715.36</ele>
        <time>2014-07-02T14:10:29Z</time>
      </trkpt>
      <trkpt lat="46.0985" lon="6.26402">
        <ele>711.51</ele>
        <time>2014-07-02T14:10:34Z</time>
      </trkpt>
      <trkpt lat="46.09902" lon="6.26431">
        <ele>708.15</ele>
        <time>2014-07-02T14:10:39Z</time>
      </trkpt>
      <trkpt lat="46.09933" lon="6.26447">
        <ele>706.71</ele>
        <time>2014-07-02T14:10:42Z</time>
      </trkpt>
      <trkpt lat="46.09955" lon="6.26458">
        <ele>705.75</ele>
        <time>2014-07-02T14:10:44Z</time>
      </trkpt>
      <trkpt lat="46.1" lon="6.26474">
        <ele>701.9</ele>
        <time>2014-07-02T14:10:48Z</time>
      </trkpt>
      <trkpt lat="46.10046" lon="6.26481">
        <ele>698.05</ele>
        <time>2014-07-02T14:10:52Z</time>
      </trkpt>
      <trkpt lat="46.10078" lon="6.26483">
        <ele>694.69</ele>
        <time>2014-07-02T14:10:55Z</time>
      </trkpt>
      <trkpt lat="46.1012" lon="6.26462">
        <ele>691.33</ele>
        <time>2014-07-02T14:10:59Z</time>
      </trkpt>
      <trkpt lat="46.10157" lon="6.2643">
        <ele>687.48</ele>
        <time>2014-07-02T14:11:03Z</time>
      </trkpt>
      <trkpt lat="46.10211" lon="6.26416">
        <ele>683.15</ele>
        <time>2014-07-02T14:11:08Z</time>
      </trkpt>
      <trkpt lat="46.10256" lon="6.26419">
        <ele>679.31</ele>
        <time>2014-07-02T14:11:12Z</time>
      </trkpt>
      <trkpt lat="46.10292" lon="6.2642">
        <ele>675.94</ele>
        <time>2014-07-02T14:11:15Z</time>
      </trkpt>
      <trkpt lat="46.10315" lon="6.2642">
        <ele>674.02</ele>
        <time>2014-07-02T14:11:17Z</time>
      </trkpt>
      <trkpt lat="46.10362" lon="6.26417">
        <ele>669.22</ele>
        <time>2014-07-02T14:11:22Z</time>
      </trkpt>
      <trkpt lat="46.10399" lon="6.26419">
        <ele>665.85</ele>
        <time>2014-07-02T14:11:27Z</time>
      </trkpt>
      <trkpt lat="46.10415" lon="6.26421">
        <ele>663.93</ele>
        <time>2014-07-02T14:11:31Z</time>
      </trkpt>
      <trkpt lat="46.10421" lon="6.26437">
        <ele>662.01</ele>
        <time>2014-07-02T14:11:35Z</time>
      </trkpt>
      <trkpt lat="46.10415" lon="6.26444">
        <ele>662.01</ele>
        <time>2014-07-02T14:11:37Z</time>
      </trkpt>
      <trkpt lat="46.10407" lon="6.2645">
        <ele>661.04</ele>
        <time>2014-07-02T14:11:39Z</time>
      </trkpt>
      <trkpt lat="46.10365" lon="6.26472">
        <ele>658.64</ele>
        <time>2014-07-02T14:11:47Z</time>
      </trkpt>
      <trkpt lat="46.10334" lon="6.26512">
        <ele>656.72</ele>
        <time>2014-07-02T14:11:53Z</time>
      </trkpt>
      <trkpt lat="46.10321" lon="6.26547">
        <ele>655.28</ele>
        <time>2014-07-02T14:11:57Z</time>
      </trkpt>
      <trkpt lat="46.10339" lon="6.26594">
        <ele>653.83</ele>
        <time>2014-07-02T14:12:04Z</time>
      </trkpt>
      <trkpt lat="46.10353" lon="6.26594">
        <ele>653.35</ele>
        <time>2014-07-02T14:12:06Z</time>
      </trkpt>
      <trkpt lat="46.10374" lon="6.26586">
        <ele>651.91</ele>
        <time>2014-07-02T14:12:09Z</time>
      </trkpt>
      <trkpt lat="46.10405" lon="6.26577">
        <ele>649.99</ele>
        <time>2014-07-02T14:12:13Z</time>
      </trkpt>
      <trkpt lat="46.10479" lon="6.26589">
        <ele>647.1</ele>
        <time>2014-07-02T14:12:22Z</time>
      </trkpt>
      <trkpt lat="46.10528" lon="6.26607">
        <ele>643.26</ele>
        <time>2014-07-02T14:12:27Z</time>
      </trkpt>
      <trkpt lat="46.10571" lon="6.26621">
        <ele>639.89</ele>
        <time>2014-07-02T14:12:31Z</time>
      </trkpt>
      <trkpt lat="46.10594" lon="6.26625">
        <ele>637.49</ele>
        <time>2014-07-02T14:12:33Z</time>
      </trkpt>
      <trkpt lat="46.10641" lon="6.26618">
        <ele>634.13</ele>
        <time>2014-07-02T14:12:37Z</time>
      </trkpt>
      <trkpt lat="46.10687" lon="6.2659">
        <ele>629.8</ele>
        <time>2014-07-02T14:12:41Z</time>
      </trkpt>
      <trkpt lat="46.1072" lon="6.26564">
        <ele>626.44</ele>
        <time>2014-07-02T14:12:44Z</time>
      </trkpt>
      <trkpt lat="46.1076" lon="6.26534">
        <ele>623.07</ele>
        <time>2014-07-02T14:12:48Z</time>
      </trkpt>
      <trkpt lat="46.10795" lon="6.26507">
        <ele>618.75</ele>
        <time>2014-07-02T14:12:52Z</time>
      </trkpt>
      <trkpt lat="46.10829" lon="6.26477">
        <ele>615.38</ele>
        <time>2014-07-02T14:12:57Z</time>
      </trkpt>
      <trkpt lat="46.10853" lon="6.26449">
        <ele>612.5</ele>
        <time>2014-07-02T14:13:02Z</time>
      </trkpt>
      <trkpt lat="46.10858" lon="6.26444">
        <ele>612.02</ele>
        <time>2014-07-02T14:13:03Z</time>
      </trkpt>
      <trkpt lat="46.10879" lon="6.26435">
        <ele>610.09</ele>
        <time>2014-07-02T14:13:07Z</time>
      </trkpt>
      <trkpt lat="46.10914" lon="6.26438">
        <ele>607.69</ele>
        <time>2014-07-02T14:13:14Z</time>
      </trkpt>
      <trkpt lat="46.10966" lon="6.26426">
        <ele>607.21</ele>
        <time>2014-07-02T14:13:26Z</time>
      </trkpt>
      <trkpt lat="46.11017" lon="6.26418">
        <ele>605.77</ele>
        <time>2014-07-02T14:13:36Z</time>
      </trkpt>
      <trkpt lat="46.11096" lon="6.26375">
        <ele>602.4</ele>
        <time>2014-07-02T14:13:48Z</time>
      </trkpt>
      <trkpt lat="46.11139" lon="6.26337">
        <ele>600.48</ele>
        <time>2014-07-02T14:13:55Z</time>
      </trkpt>
      <trkpt lat="46.11157" lon="6.26325">
        <ele>600</ele>
        <time>2014-07-02T14:13:58Z</time>
      </trkpt>
      <trkpt lat="46.11235" lon="6.263">
        <ele>596.64</ele>
        <time>2014-07-02T14:14:08Z</time>
      </trkpt>
      <trkpt lat="46.11274" lon="6.26264">
        <ele>593.75</ele>
        <time>2014-07-02T14:14:13Z</time>
      </trkpt>
      <trkpt lat="46.11341" lon="6.26216">
        <ele>588.95</ele>
        <time>2014-07-02T14:14:20Z</time>
      </trkpt>
      <trkpt lat="46.11391" lon="6.2618">
        <ele>586.06</ele>
        <time>2014-07-02T14:14:25Z</time>
      </trkpt>
      <trkpt lat="46.1141" lon="6.26163">
        <ele>584.62</ele>
        <time>2014-07-02T14:14:27Z</time>
      </trkpt>
      <trkpt lat="46.11461" lon="6.26099">
        <ele>580.29</ele>
        <time>2014-07-02T14:14:33Z</time>
      </trkpt>
      <trkpt lat="46.11504" lon="6.26035">
        <ele>576.93</ele>
        <time>2014-07-02T14:14:39Z</time>
      </trkpt>
      <trkpt lat="46.11522" lon="6.25987">
        <ele>574.53</ele>
        <time>2014-07-02T14:14:43Z</time>
      </trkpt>
      <trkpt lat="46.11571" lon="6.25947">
        <ele>570.2</ele>
        <time>2014-07-02T14:14:49Z</time>
      </trkpt>
      <trkpt lat="46.11613" lon="6.25949">
        <ele>567.8</ele>
        <time>2014-07-02T14:14:53Z</time>
      </trkpt>
      <trkpt lat="46.11658" lon="6.25975">
        <ele>563.47</ele>
        <time>2014-07-02T14:14:58Z</time>
      </trkpt>
      <trkpt lat="46.11664" lon="6.25985">
        <ele>563.47</ele>
        <time>2014-07-02T14:14:59Z</time>
      </trkpt>
      <trkpt lat="46.11676" lon="6.26026">
        <ele>561.07</ele>
        <time>2014-07-02T14:15:02Z</time>
      </trkpt>
      <trkpt lat="46.11689" lon="6.26129">
        <ele>557.22</ele>
        <time>2014-07-02T14:15:09Z</time>
      </trkpt>
      <trkpt lat="46.11696" lon="6.26159">
        <ele>556.26</ele>
        <time>2014-07-02T14:15:11Z</time>
      </trkpt>
      <trkpt lat="46.11714" lon="6.26213">
        <ele>553.86</ele>
        <time>2014-07-02T14:15:15Z</time>
      </trkpt>
      <trkpt lat="46.11742" lon="6.26371">
        <ele>550.49</ele>
        <time>2014-07-02T14:15:27Z</time>
      </trkpt>
      <trkpt lat="46.11762" lon="6.26507">
        <ele>547.13</ele>
        <time>2014-07-02T14:15:38Z</time>
      </trkpt>
      <trkpt lat="46.11778" lon="6.26601">
        <ele>545.2</ele>
        <time>2014-07-02T14:15:46Z</time>
      </trkpt>
      <trkpt lat="46.11812" lon="6.26665">
        <ele>542.32</ele>
        <time>2014-07-02T14:15:53Z</time>
      </trkpt>
      <trkpt lat="46.11891" lon="6.26744">
        <ele>539.44</ele>
        <time>2014-07-02T14:16:04Z</time>
      </trkpt>
      <trkpt lat="46.11998" lon="6.26853">
        <ele>538.48</ele>
        <time>2014-07-02T14:16:21Z</time>
      </trkpt>
      <trkpt lat="46.12057" lon="6.26904">
        <ele>540.4</ele>
        <time>2014-07-02T14:16:34Z</time>
      </trkpt>
      <trkpt lat="46.12069" lon="6.26925">
        <ele>541.84</ele>
        <time>2014-07-02T14:16:40Z</time>
      </trkpt>
      <trkpt lat="46.12087" lon="6.26967">
        <ele>542.32</ele>
        <time>2014-07-02T14:16:51Z</time>
      </trkpt>
      <trkpt lat="46.12111" lon="6.26956">
        <ele>541.84</ele>
        <time>2014-07-02T14:16:57Z</time>
      </trkpt>
      <trkpt lat="46.12117" lon="6.26946">
        <ele>541.84</ele>
        <time>2014-07-02T14:16:59Z</time>
      </trkpt>
      <trkpt lat="46.12168" lon="6.26898">
        <ele>541.36</ele>
        <time>2014-07-02T14:17:12Z</time>
      </trkpt>
      <trkpt lat="46.12245" lon="6.26858">
        <ele>537.51</ele>
        <time>2014-07-02T14:17:25Z</time>
      </trkpt>
      <trkpt lat="46.12305" lon="6.2685">
        <ele>534.63</ele>
        <time>2014-07-02T14:17:32Z</time>
      </trkpt>
      <trkpt lat="46.12323" lon="6.26848">
        <ele>533.19</ele>
        <time>2014-07-02T14:17:34Z</time>
      </trkpt>
      <trkpt lat="46.12385" lon="6.26816">
        <ele>530.79</ele>
        <time>2014-07-02T14:17:41Z</time>
      </trkpt>
      <trkpt lat="46.12485" lon="6.26711">
        <ele>528.86</ele>
        <time>2014-07-02T14:17:56Z</time>
      </trkpt>
      <trkpt lat="46.12567" lon="6.26634">
        <ele>525.5</ele>
        <time>2014-07-02T14:18:09Z</time>
      </trkpt>
      <trkpt lat="46.12574" lon="6.2663">
        <ele>525.5</ele>
        <time>2014-07-02T14:18:10Z</time>
      </trkpt>
      <trkpt lat="46.12594" lon="6.26622">
        <ele>524.06</ele>
        <time>2014-07-02T14:18:13Z</time>
      </trkpt>
      <trkpt lat="46.12649" lon="6.26621">
        <ele>522.13</ele>
        <time>2014-07-02T14:18:24Z</time>
      </trkpt>
      <trkpt lat="46.12711" lon="6.26632">
        <ele>518.29</ele>
        <time>2014-07-02T14:18:33Z</time>
      </trkpt>
      <trkpt lat="46.12818" lon="6.2667">
        <ele>515.4</ele>
        <time>2014-07-02T14:18:46Z</time>
      </trkpt>
      <trkpt lat="46.12886" lon="6.26668">
        <ele>512.04</ele>
        <time>2014-07-02T14:18:54Z</time>
      </trkpt>
      <trkpt lat="46.12922" lon="6.26667">
        <ele>509.64</ele>
        <time>2014-07-02T14:18:58Z</time>
      </trkpt>
      <trkpt lat="46.12977" lon="6.26689">
        <ele>506.27</ele>
        <time>2014-07-02T14:19:04Z</time>
      </trkpt>
      <trkpt lat="46.13065" lon="6.26755">
        <ele>502.91</ele>
        <time>2014-07-02T14:19:14Z</time>
      </trkpt>
      <trkpt lat="46.13073" lon="6.2676">
        <ele>502.91</ele>
        <time>2014-07-02T14:19:15Z</time>
      </trkpt>
      <trkpt lat="46.13106" lon="6.26776">
        <ele>501.46</ele>
        <time>2014-07-02T14:19:19Z</time>
      </trkpt>
      <trkpt lat="46.13218" lon="6.26782">
        <ele>498.58</ele>
        <time>2014-07-02T14:19:33Z</time>
      </trkpt>
      <trkpt lat="46.13282" lon="6.26802">
        <ele>498.1</ele>
        <time>2014-07-02T14:19:44Z</time>
      </trkpt>
      <trkpt lat="46.13289" lon="6.26803">
        <ele>497.62</ele>
        <time>2014-07-02T14:19:52Z</time>
      </trkpt>
      <trkpt lat="46.13289" lon="6.26802">
        <ele>497.62</ele>
        <time>2014-07-02T14:19:54Z</time>
      </trkpt>
      <trkpt lat="46.13312" lon="6.26813">
        <ele>497.14</ele>
        <time>2014-07-02T14:20:04Z</time>
      </trkpt>
      <trkpt lat="46.13334" lon="6.26818">
        <ele>496.66</ele>
        <time>2014-07-02T14:20:09Z</time>
      </trkpt>
      <trkpt lat="46.13429" lon="6.26846">
        <ele>494.26</ele>
        <time>2014-07-02T14:20:27Z</time>
      </trkpt>
      <trkpt lat="46.1345" lon="6.26856">
        <ele>493.77</ele>
        <time>2014-07-02T14:20:35Z</time>
      </trkpt>
      <trkpt lat="46.1346" lon="6.26861">
        <ele>494.26</ele>
        <time>2014-07-02T14:20:47Z</time>
      </trkpt>
      <trkpt lat="46.13482" lon="6.2687">
        <ele>493.77</ele>
        <time>2014-07-02T14:20:59Z</time>
      </trkpt>
      <trkpt lat="46.13487" lon="6.26868">
        <ele>493.77</ele>
        <time>2014-07-02T14:21:14Z</time>
      </trkpt>
      <trkpt lat="46.13493" lon="6.26861">
        <ele>493.29</ele>
        <time>2014-07-02T14:21:18Z</time>
      </trkpt>
      <trkpt lat="46.13504" lon="6.26827">
        <ele>493.29</ele>
        <time>2014-07-02T14:21:28Z</time>
      </trkpt>
      <trkpt lat="46.13505" lon="6.26807">
        <ele>493.77</ele>
        <time>2014-07-02T14:21:39Z</time>
      </trkpt>
      <trkpt lat="46.1351" lon="6.26811">
        <ele>493.77</ele>
        <time>2014-07-02T14:21:58Z</time>
      </trkpt>
      <trkpt lat="46.13513" lon="6.26812">
        <ele>493.77</ele>
        <time>2014-07-02T14:22:29Z</time>
      </trkpt>
      <trkpt lat="46.13514" lon="6.26815">
        <ele>493.29</ele>
        <time>2014-07-02T14:23:00Z</time>
      </trkpt>
      <trkpt lat="46.13516" lon="6.26815">
        <ele>493.77</ele>
        <time>2014-07-02T14:23:30Z</time>
      </trkpt>
      <trkpt lat="46.13517" lon="6.26815">
        <ele>493.29</ele>
        <time>2014-07-02T14:24:07Z</time>
      </trkpt>
      <trkpt lat="46.13515" lon="6.26816">
        <ele>493.29</ele>
        <time>2014-07-02T14:24:33Z</time>
      </trkpt>
      <trkpt lat="46.13513" lon="6.26811">
        <ele>492.81</ele>
        <time>2014-07-02T14:25:12Z</time>
      </trkpt>
      <trkpt lat="46.13513" lon="6.2681">
        <ele>492.81</ele>
        <time>2014-07-02T14:25:23Z</time>
      </trkpt>
      <trkpt lat="46.13511" lon="6.26813">
        <ele>492.81</ele>
        <time>2014-07-02T14:25:28Z</time>
      </trkpt>
      <trkpt lat="46.13495" lon="6.26847">
        <ele>492.81</ele>
        <time>2014-07-02T14:25:40Z</time>
      </trkpt>
      <trkpt lat="46.13494" lon="6.2685">
        <ele>492.33</ele>
        <time>2014-07-02T14:25:41Z</time>
      </trkpt>
      <trkpt lat="46.13498" lon="6.2686">
        <ele>492.33</ele>
        <time>2014-07-02T14:25:46Z</time>
      </trkpt>
      <trkpt lat="46.13509" lon="6.26866">
        <ele>492.33</ele>
        <time>2014-07-02T14:25:52Z</time>
      </trkpt>
      <trkpt lat="46.13508" lon="6.26878">
        <ele>491.85</ele>
        <time>2014-07-02T14:26:00Z</time>
      </trkpt>
      <trkpt lat="46.13512" lon="6.26887">
        <ele>491.85</ele>
        <time>2014-07-02T14:26:05Z</time>
      </trkpt>
      <trkpt lat="46.13548" lon="6.26901">
        <ele>491.37</ele>
        <time>2014-07-02T14:26:17Z</time>
      </trkpt>
      <trkpt lat="46.13615" lon="6.26943">
        <ele>490.41</ele>
        <time>2014-07-02T14:26:34Z</time>
      </trkpt>
      <trkpt lat="46.13678" lon="6.26981">
        <ele>488.97</ele>
        <time>2014-07-02T14:26:49Z</time>
      </trkpt>
      <trkpt lat="46.13684" lon="6.26985">
        <ele>488.97</ele>
        <time>2014-07-02T14:26:59Z</time>
      </trkpt>
      <trkpt lat="46.13686" lon="6.26984">
        <ele>488.97</ele>
        <time>2014-07-02T14:27:03Z</time>
      </trkpt>
      <trkpt lat="46.13691" lon="6.26985">
        <ele>488.97</ele>
        <time>2014-07-02T14:27:07Z</time>
      </trkpt>
      <trkpt lat="46.13732" lon="6.27014">
        <ele>488.49</ele>
        <time>2014-07-02T14:27:21Z</time>
      </trkpt>
      <trkpt lat="46.13793" lon="6.27038">
        <ele>488.01</ele>
        <time>2014-07-02T14:27:35Z</time>
      </trkpt>
      <trkpt lat="46.13798" lon="6.27041">
        <ele>487.53</ele>
        <time>2014-07-02T14:27:36Z</time>
      </trkpt>
      <trkpt lat="46.13822" lon="6.2705">
        <ele>487.53</ele>
        <time>2014-07-02T14:27:41Z</time>
      </trkpt>
      <trkpt lat="46.13842" lon="6.27052">
        <ele>487.53</ele>
        <time>2014-07-02T14:27:45Z</time>
      </trkpt>
      <trkpt lat="46.13875" lon="6.27048">
        <ele>487.05</ele>
        <time>2014-07-02T14:27:52Z</time>
      </trkpt>
      <trkpt lat="46.13894" lon="6.27037">
        <ele>486.56</ele>
        <time>2014-07-02T14:27:56Z</time>
      </trkpt>
      <trkpt lat="46.13925" lon="6.2696">
        <ele>483.68</ele>
        <time>2014-07-02T14:28:06Z</time>
      </trkpt>
      <trkpt lat="46.13921" lon="6.2694">
        <ele>483.68</ele>
        <time>2014-07-02T14:28:08Z</time>
      </trkpt>
      <trkpt lat="46.13915" lon="6.26912">
        <ele>481.76</ele>
        <time>2014-07-02T14:28:11Z</time>
      </trkpt>
      <trkpt lat="46.13913" lon="6.26903">
        <ele>480.8</ele>
        <time>2014-07-02T14:28:12Z</time>
      </trkpt>
      <trkpt lat="46.13926" lon="6.26853">
        <ele>477.43</ele>
        <time>2014-07-02T14:28:18Z</time>
      </trkpt>
      <trkpt lat="46.13932" lon="6.26848">
        <ele>476.95</ele>
        <time>2014-07-02T14:28:19Z</time>
      </trkpt>
      <trkpt lat="46.13979" lon="6.26855">
        <ele>474.55</ele>
        <time>2014-07-02T14:28:25Z</time>
      </trkpt>
      <trkpt lat="46.14036" lon="6.26888">
        <ele>471.18</ele>
        <time>2014-07-02T14:28:32Z</time>
      </trkpt>
      <trkpt lat="46.14044" lon="6.26893">
        <ele>470.7</ele>
        <time>2014-07-02T14:28:33Z</time>
      </trkpt>
      <trkpt lat="46.14094" lon="6.26924">
        <ele>467.82</ele>
        <time>2014-07-02T14:28:39Z</time>
      </trkpt>
      <trkpt lat="46.14145" lon="6.26957">
        <ele>464.45</ele>
        <time>2014-07-02T14:28:45Z</time>
      </trkpt>
      <trkpt lat="46.14193" lon="6.26984">
        <ele>461.57</ele>
        <time>2014-07-02T14:28:51Z</time>
      </trkpt>
      <trkpt lat="46.14234" lon="6.2698">
        <ele>459.17</ele>
        <time>2014-07-02T14:28:56Z</time>
      </trkpt>
      <trkpt lat="46.14298" lon="6.26951">
        <ele>455.32</ele>
        <time>2014-07-02T14:29:03Z</time>
      </trkpt>
      <trkpt lat="46.14319" lon="6.26946">
        <ele>453.88</ele>
        <time>2014-07-02T14:29:05Z</time>
      </trkpt>
      <trkpt lat="46.1438" lon="6.26954">
        <ele>451</ele>
        <time>2014-07-02T14:29:11Z</time>
      </trkpt>
      <trkpt lat="46.14454" lon="6.2693">
        <ele>447.15</ele>
        <time>2014-07-02T14:29:18Z</time>
      </trkpt>
      <trkpt lat="46.14463" lon="6.26922">
        <ele>446.67</ele>
        <time>2014-07-02T14:29:19Z</time>
      </trkpt>
      <trkpt lat="46.14516" lon="6.26866">
        <ele>442.34</ele>
        <time>2014-07-02T14:29:26Z</time>
      </trkpt>
      <trkpt lat="46.14528" lon="6.26854">
        <ele>441.38</ele>
        <time>2014-07-02T14:29:28Z</time>
      </trkpt>
      <trkpt lat="46.14545" lon="6.26843">
        <ele>439.94</ele>
        <time>2014-07-02T14:29:31Z</time>
      </trkpt>
      <trkpt lat="46.14557" lon="6.26815">
        <ele>439.94</ele>
        <time>2014-07-02T14:29:36Z</time>
      </trkpt>
      <trkpt lat="46.14554" lon="6.26694">
        <ele>438.02</ele>
        <time>2014-07-02T14:29:50Z</time>
      </trkpt>
      <trkpt lat="46.14556" lon="6.26518">
        <ele>437.54</ele>
        <time>2014-07-02T14:30:09Z</time>
      </trkpt>
      <trkpt lat="46.1456" lon="6.26423">
        <ele>438.02</ele>
        <time>2014-07-02T14:30:21Z</time>
      </trkpt>
      <trkpt lat="46.14576" lon="6.26375">
        <ele>438.98</ele>
        <time>2014-07-02T14:30:29Z</time>
      </trkpt>
      <trkpt lat="46.14624" lon="6.26302">
        <ele>440.9</ele>
        <time>2014-07-02T14:30:48Z</time>
      </trkpt>
      <trkpt lat="46.14675" lon="6.2625">
        <ele>443.31</ele>
        <time>2014-07-02T14:31:06Z</time>
      </trkpt>
      <trkpt lat="46.1473" lon="6.26214">
        <ele>445.71</ele>
        <time>2014-07-02T14:31:24Z</time>
      </trkpt>
      <trkpt lat="46.14788" lon="6.26164">
        <ele>448.11</ele>
        <time>2014-07-02T14:31:44Z</time>
      </trkpt>
      <trkpt lat="46.1482" lon="6.2608">
        <ele>450.03</ele>
        <time>2014-07-02T14:32:02Z</time>
      </trkpt>
      <trkpt lat="46.1485" lon="6.25975">
        <ele>449.07</ele>
        <time>2014-07-02T14:32:18Z</time>
      </trkpt>
      <trkpt lat="46.14881" lon="6.25859">
        <ele>445.71</ele>
        <time>2014-07-02T14:32:31Z</time>
      </trkpt>
      <trkpt lat="46.14934" lon="6.25732">
        <ele>445.23</ele>
        <time>2014-07-02T14:32:45Z</time>
      </trkpt>
      <trkpt lat="46.14981" lon="6.25661">
        <ele>447.63</ele>
        <time>2014-07-02T14:32:59Z</time>
      </trkpt>
      <trkpt lat="46.15055" lon="6.25544">
        <ele>449.55</ele>
        <time>2014-07-02T14:33:23Z</time>
      </trkpt>
      <trkpt lat="46.15115" lon="6.25436">
        <ele>450.52</ele>
        <time>2014-07-02T14:33:45Z</time>
      </trkpt>
      <trkpt lat="46.1517" lon="6.25334">
        <ele>451.96</ele>
        <time>2014-07-02T14:34:06Z</time>
      </trkpt>
      <trkpt lat="46.15209" lon="6.25266">
        <ele>453.4</ele>
        <time>2014-07-02T14:34:22Z</time>
      </trkpt>
      <trkpt lat="46.15246" lon="6.25199">
        <ele>454.84</ele>
        <time>2014-07-02T14:34:39Z</time>
      </trkpt>
      <trkpt lat="46.15283" lon="6.25129">
        <ele>456.28</ele>
        <time>2014-07-02T14:34:56Z</time>
      </trkpt>
      <trkpt lat="46.15318" lon="6.25065">
        <ele>457.24</ele>
        <time>2014-07-02T14:35:12Z</time>
      </trkpt>
      <trkpt lat="46.15372" lon="6.24994">
        <ele>458.69</ele>
        <time>2014-07-02T14:35:29Z</time>
      </trkpt>
      <trkpt lat="46.15441" lon="6.24914">
        <ele>459.17</ele>
        <time>2014-07-02T14:35:47Z</time>
      </trkpt>
      <trkpt lat="46.15515" lon="6.24819">
        <ele>459.65</ele>
        <time>2014-07-02T14:36:07Z</time>
      </trkpt>
      <trkpt lat="46.15588" lon="6.24726">
        <ele>460.61</ele>
        <time>2014-07-02T14:36:27Z</time>
      </trkpt>
      <trkpt lat="46.15661" lon="6.24685">
        <ele>462.05</ele>
        <time>2014-07-02T14:36:43Z</time>
      </trkpt>
      <trkpt lat="46.15721" lon="6.24635">
        <ele>464.93</ele>
        <time>2014-07-02T14:36:59Z</time>
      </trkpt>
      <trkpt lat="46.1577" lon="6.24558">
        <ele>467.34</ele>
        <time>2014-07-02T14:37:18Z</time>
      </trkpt>
      <trkpt lat="46.15827" lon="6.24489">
        <ele>467.82</ele>
        <time>2014-07-02T14:37:36Z</time>
      </trkpt>
      <trkpt lat="46.15916" lon="6.24409">
        <ele>466.86</ele>
        <time>2014-07-02T14:37:55Z</time>
      </trkpt>
      <trkpt lat="46.16006" lon="6.24329">
        <ele>465.9</ele>
        <time>2014-07-02T14:38:13Z</time>
      </trkpt>
      <trkpt lat="46.16102" lon="6.24255">
        <ele>464.93</ele>
        <time>2014-07-02T14:38:31Z</time>
      </trkpt>
      <trkpt lat="46.16161" lon="6.24209">
        <ele>464.45</ele>
        <time>2014-07-02T14:38:45Z</time>
      </trkpt>
      <trkpt lat="46.16179" lon="6.24172">
        <ele>463.49</ele>
        <time>2014-07-02T14:38:56Z</time>
      </trkpt>
      <trkpt lat="46.16179" lon="6.24171">
        <ele>463.49</ele>
        <time>2014-07-02T14:39:12Z</time>
      </trkpt>
      <trkpt lat="46.16178" lon="6.2417">
        <ele>463.49</ele>
        <time>2014-07-02T14:39:38Z</time>
      </trkpt>
      <trkpt lat="46.16178" lon="6.2417">
        <ele>463.49</ele>
        <time>2014-07-02T14:40:08Z</time>
      </trkpt>
      <trkpt lat="46.1618" lon="6.24172">
        <ele>463.49</ele>
        <time>2014-07-02T14:40:36Z</time>
      </trkpt>
      <trkpt lat="46.1618" lon="6.24171">
        <ele>463.49</ele>
        <time>2014-07-02T14:41:01Z</time>
      </trkpt>
      <trkpt lat="46.16179" lon="6.2417">
        <ele>463.49</ele>
        <time>2014-07-02T14:41:14Z</time>
      </trkpt>
      <trkpt lat="46.1618" lon="6.24159">
        <ele>463.49</ele>
        <time>2014-07-02T14:41:18Z</time>
      </trkpt>
      <trkpt lat="46.16185" lon="6.24078">
        <ele>460.61</ele>
        <time>2014-07-02T14:41:32Z</time>
      </trkpt>
      <trkpt lat="46.16189" lon="6.23972">
        <ele>459.65</ele>
        <time>2014-07-02T14:41:44Z</time>
      </trkpt>
      <trkpt lat="46.16218" lon="6.23934">
        <ele>462.05</ele>
        <time>2014-07-02T14:41:55Z</time>
      </trkpt>
      <trkpt lat="46.1625" lon="6.23956">
        <ele>463.97</ele>
        <time>2014-07-02T14:42:08Z</time>
      </trkpt>
      <trkpt lat="46.16294" lon="6.2399">
        <ele>466.38</ele>
        <time>2014-07-02T14:42:27Z</time>
      </trkpt>
      <trkpt lat="46.1633" lon="6.24014">
        <ele>468.3</ele>
        <time>2014-07-02T14:42:43Z</time>
      </trkpt>
      <trkpt lat="46.16372" lon="6.24025">
        <ele>470.7</ele>
        <time>2014-07-02T14:42:59Z</time>
      </trkpt>
      <trkpt lat="46.16419" lon="6.24037">
        <ele>473.11</ele>
        <time>2014-07-02T14:43:18Z</time>
      </trkpt>
      <trkpt lat="46.16456" lon="6.24052">
        <ele>475.03</ele>
        <time>2014-07-02T14:43:33Z</time>
      </trkpt>
      <trkpt lat="46.16496" lon="6.24065">
        <ele>477.43</ele>
        <time>2014-07-02T14:43:50Z</time>
      </trkpt>
      <trkpt lat="46.16541" lon="6.24075">
        <ele>478.87</ele>
        <time>2014-07-02T14:44:06Z</time>
      </trkpt>
      <trkpt lat="46.16597" lon="6.24094">
        <ele>478.87</ele>
        <time>2014-07-02T14:44:21Z</time>
      </trkpt>
      <trkpt lat="46.16678" lon="6.24127">
        <ele>475.51</ele>
        <time>2014-07-02T14:44:33Z</time>
      </trkpt>
      <trkpt lat="46.16753" lon="6.24172">
        <ele>472.63</ele>
        <time>2014-07-02T14:44:43Z</time>
      </trkpt>
      <trkpt lat="46.16815" lon="6.24147">
        <ele>470.22</ele>
        <time>2014-07-02T14:44:51Z</time>
      </trkpt>
      <trkpt lat="46.16821" lon="6.24139">
        <ele>470.22</ele>
        <time>2014-07-02T14:44:52Z</time>
      </trkpt>
      <trkpt lat="46.16869" lon="6.24068">
        <ele>467.34</ele>
        <time>2014-07-02T14:45:00Z</time>
      </trkpt>
      <trkpt lat="46.16907" lon="6.24048">
        <ele>466.38</ele>
        <time>2014-07-02T14:45:05Z</time>
      </trkpt>
      <trkpt lat="46.17017" lon="6.24052">
        <ele>462.53</ele>
        <time>2014-07-02T14:45:18Z</time>
      </trkpt>
      <trkpt lat="46.17118" lon="6.24038">
        <ele>459.17</ele>
        <time>2014-07-02T14:45:31Z</time>
      </trkpt>
      <trkpt lat="46.17214" lon="6.23996">
        <ele>455.8</ele>
        <time>2014-07-02T14:45:44Z</time>
      </trkpt>
      <trkpt lat="46.17316" lon="6.23919">
        <ele>452.44</ele>
        <time>2014-07-02T14:45:58Z</time>
      </trkpt>
      <trkpt lat="46.17421" lon="6.23784">
        <ele>449.07</ele>
        <time>2014-07-02T14:46:15Z</time>
      </trkpt>
      <trkpt lat="46.17496" lon="6.23666">
        <ele>446.19</ele>
        <time>2014-07-02T14:46:28Z</time>
      </trkpt>
      <trkpt lat="46.17582" lon="6.23589">
        <ele>442.34</ele>
        <time>2014-07-02T14:46:40Z</time>
      </trkpt>
      <trkpt lat="46.17621" lon="6.23556">
        <ele>440.9</ele>
        <time>2014-07-02T14:46:46Z</time>
      </trkpt>
      <trkpt lat="46.17646" lon="6.2355">
        <ele>439.46</ele>
        <time>2014-07-02T14:46:50Z</time>
      </trkpt>
      <trkpt lat="46.17664" lon="6.23554">
        <ele>438.98</ele>
        <time>2014-07-02T14:46:53Z</time>
      </trkpt>
      <trkpt lat="46.17724" lon="6.23512">
        <ele>436.58</ele>
        <time>2014-07-02T14:47:03Z</time>
      </trkpt>
      <trkpt lat="46.17795" lon="6.23455">
        <ele>433.21</ele>
        <time>2014-07-02T14:47:13Z</time>
      </trkpt>
      <trkpt lat="46.17824" lon="6.23428">
        <ele>431.77</ele>
        <time>2014-07-02T14:47:17Z</time>
      </trkpt>
      <trkpt lat="46.17851" lon="6.23394">
        <ele>430.33</ele>
        <time>2014-07-02T14:47:21Z</time>
      </trkpt>
      <trkpt lat="46.17883" lon="6.23342">
        <ele>427.92</ele>
        <time>2014-07-02T14:47:26Z</time>
      </trkpt>
      <trkpt lat="46.1792" lon="6.2326">
        <ele>425.04</ele>
        <time>2014-07-02T14:47:33Z</time>
      </trkpt>
      <trkpt lat="46.17957" lon="6.23162">
        <ele>421.68</ele>
        <time>2014-07-02T14:47:42Z</time>
      </trkpt>
      <trkpt lat="46.17966" lon="6.23138">
        <ele>421.68</ele>
        <time>2014-07-02T14:47:45Z</time>
      </trkpt>
      <trkpt lat="46.1799" lon="6.2309">
        <ele>420.23</ele>
        <time>2014-07-02T14:47:56Z</time>
      </trkpt>
      <trkpt lat="46.17992" lon="6.23074">
        <ele>420.23</ele>
        <time>2014-07-02T14:47:59Z</time>
      </trkpt>
      <trkpt lat="46.18001" lon="6.23053">
        <ele>420.23</ele>
        <time>2014-07-02T14:48:03Z</time>
      </trkpt>
      <trkpt lat="46.18039" lon="6.22993">
        <ele>419.27</ele>
        <time>2014-07-02T14:48:16Z</time>
      </trkpt>
      <trkpt lat="46.18061" lon="6.2298">
        <ele>420.23</ele>
        <time>2014-07-02T14:48:25Z</time>
      </trkpt>
      <trkpt lat="46.18075" lon="6.22978">
        <ele>421.19</ele>
        <time>2014-07-02T14:48:37Z</time>
      </trkpt>
      <trkpt lat="46.18107" lon="6.22979">
        <ele>422.64</ele>
        <time>2014-07-02T14:48:51Z</time>
      </trkpt>
      <trkpt lat="46.18156" lon="6.22985">
        <ele>423.6</ele>
        <time>2014-07-02T14:49:06Z</time>
      </trkpt>
      <trkpt lat="46.18192" lon="6.22992">
        <ele>422.64</ele>
        <time>2014-07-02T14:49:14Z</time>
      </trkpt>
      <trkpt lat="46.18208" lon="6.23">
        <ele>422.16</ele>
        <time>2014-07-02T14:49:17Z</time>
      </trkpt>
      <trkpt lat="46.18287" lon="6.23065">
        <ele>420.71</ele>
        <time>2014-07-02T14:49:31Z</time>
      </trkpt>
      <trkpt lat="46.18365" lon="6.23097">
        <ele>423.12</ele>
        <time>2014-07-02T14:49:47Z</time>
      </trkpt>
      <trkpt lat="46.1837" lon="6.23099">
        <ele>423.12</ele>
        <time>2014-07-02T14:49:48Z</time>
      </trkpt>
      <trkpt lat="46.18386" lon="6.23111">
        <ele>423.12</ele>
        <time>2014-07-02T14:49:52Z</time>
      </trkpt>
      <trkpt lat="46.18392" lon="6.2312">
        <ele>422.64</ele>
        <time>2014-07-02T14:49:54Z</time>
      </trkpt>
      <trkpt lat="46.18381" lon="6.23157">
        <ele>419.27</ele>
        <time>2014-07-02T14:50:01Z</time>
      </trkpt>
      <trkpt lat="46.18363" lon="6.23147">
        <ele>417.83</ele>
        <time>2014-07-02T14:50:06Z</time>
      </trkpt>
      <trkpt lat="46.18361" lon="6.2314">
        <ele>417.83</ele>
        <time>2014-07-02T14:50:15Z</time>
      </trkpt>
      <trkpt lat="46.18361" lon="6.23118">
        <ele>417.83</ele>
        <time>2014-07-02T14:50:21Z</time>
      </trkpt>
      <trkpt lat="46.18374" lon="6.23085">
        <ele>417.35</ele>
        <time>2014-07-02T14:50:27Z</time>
      </trkpt>
      <trkpt lat="46.18379" lon="6.23072">
        <ele>417.35</ele>
        <time>2014-07-02T14:50:29Z</time>
      </trkpt>
      <trkpt lat="46.18385" lon="6.23054">
        <ele>418.31</ele>
        <time>2014-07-02T14:50:32Z</time>
      </trkpt>
      <trkpt lat="46.18417" lon="6.22953">
        <ele>418.79</ele>
        <time>2014-07-02T14:50:48Z</time>
      </trkpt>
      <trkpt lat="46.1847" lon="6.22829">
        <ele>418.79</ele>
        <time>2014-07-02T14:51:07Z</time>
      </trkpt>
      <trkpt lat="46.18526" lon="6.2266">
        <ele>418.31</ele>
        <time>2014-07-02T14:51:30Z</time>
      </trkpt>
      <trkpt lat="46.18545" lon="6.22579">
        <ele>418.31</ele>
        <time>2014-07-02T14:51:43Z</time>
      </trkpt>
      <trkpt lat="46.1857" lon="6.22454">
        <ele>418.79</ele>
        <time>2014-07-02T14:52:01Z</time>
      </trkpt>
      <trkpt lat="46.18606" lon="6.22311">
        <ele>418.79</ele>
        <time>2014-07-02T14:52:21Z</time>
      </trkpt>
      <trkpt lat="46.18649" lon="6.22236">
        <ele>419.27</ele>
        <time>2014-07-02T14:52:36Z</time>
      </trkpt>
      <trkpt lat="46.18652" lon="6.22234">
        <ele>419.27</ele>
        <time>2014-07-02T14:52:37Z</time>
      </trkpt>
      <trkpt lat="46.1867" lon="6.22208">
        <ele>419.75</ele>
        <time>2014-07-02T14:52:43Z</time>
      </trkpt>
      <trkpt lat="46.1871" lon="6.22134">
        <ele>420.23</ele>
        <time>2014-07-02T14:52:56Z</time>
      </trkpt>
      <trkpt lat="46.18737" lon="6.22076">
        <ele>420.71</ele>
        <time>2014-07-02T14:53:07Z</time>
      </trkpt>
      <trkpt lat="46.18771" lon="6.21971">
        <ele>421.68</ele>
        <time>2014-07-02T14:53:25Z</time>
      </trkpt>
      <trkpt lat="46.1878" lon="6.21922">
        <ele>421.68</ele>
        <time>2014-07-02T14:53:33Z</time>
      </trkpt>
      <trkpt lat="46.18799" lon="6.2179">
        <ele>422.16</ele>
        <time>2014-07-02T14:53:52Z</time>
      </trkpt>
      <trkpt lat="46.18808" lon="6.21687">
        <ele>423.6</ele>
        <time>2014-07-02T14:54:08Z</time>
      </trkpt>
      <trkpt lat="46.18818" lon="6.21636">
        <ele>426.96</ele>
        <time>2014-07-02T14:54:20Z</time>
      </trkpt>
      <trkpt lat="46.18844" lon="6.21599">
        <ele>430.33</ele>
        <time>2014-07-02T14:54:33Z</time>
      </trkpt>
      <trkpt lat="46.18861" lon="6.2158">
        <ele>431.29</ele>
        <time>2014-07-02T14:54:46Z</time>
      </trkpt>
      <trkpt lat="46.18866" lon="6.2157">
        <ele>431.77</ele>
        <time>2014-07-02T14:55:06Z</time>
      </trkpt>
      <trkpt lat="46.18886" lon="6.21521">
        <ele>433.21</ele>
        <time>2014-07-02T14:55:19Z</time>
      </trkpt>
      <trkpt lat="46.18914" lon="6.21464">
        <ele>435.13</ele>
        <time>2014-07-02T14:55:34Z</time>
      </trkpt>
      <trkpt lat="46.18944" lon="6.21398">
        <ele>435.13</ele>
        <time>2014-07-02T14:55:49Z</time>
      </trkpt>
      <trkpt lat="46.1898" lon="6.21313">
        <ele>435.13</ele>
        <time>2014-07-02T14:56:07Z</time>
      </trkpt>
      <trkpt lat="46.19021" lon="6.21225">
        <ele>434.17</ele>
        <time>2014-07-02T14:56:25Z</time>
      </trkpt>
      <trkpt lat="46.19037" lon="6.21187">
        <ele>434.17</ele>
        <time>2014-07-02T14:56:32Z</time>
      </trkpt>
      <trkpt lat="46.19054" lon="6.21155">
        <ele>433.69</ele>
        <time>2014-07-02T14:56:43Z</time>
      </trkpt>
      <trkpt lat="46.19053" lon="6.21156">
        <ele>433.69</ele>
        <time>2014-07-02T14:57:04Z</time>
      </trkpt>
      <trkpt lat="46.19049" lon="6.21152">
        <ele>433.69</ele>
        <time>2014-07-02T14:57:28Z</time>
      </trkpt>
      <trkpt lat="46.19062" lon="6.21128">
        <ele>433.69</ele>
        <time>2014-07-02T14:57:38Z</time>
      </trkpt>
      <trkpt lat="46.19109" lon="6.21031">
        <ele>433.21</ele>
        <time>2014-07-02T14:57:55Z</time>
      </trkpt>
      <trkpt lat="46.19163" lon="6.20905">
        <ele>432.25</ele>
        <time>2014-07-02T14:58:15Z</time>
      </trkpt>
      <trkpt lat="46.19173" lon="6.20878">
        <ele>431.77</ele>
        <time>2014-07-02T14:58:20Z</time>
      </trkpt>
      <trkpt lat="46.19194" lon="6.20851">
        <ele>430.33</ele>
        <time>2014-07-02T14:58:30Z</time>
      </trkpt>
      <trkpt lat="46.19195" lon="6.20849">
        <ele>430.81</ele>
        <time>2014-07-02T14:58:34Z</time>
      </trkpt>
      <trkpt lat="46.19201" lon="6.20826">
        <ele>429.85</ele>
        <time>2014-07-02T14:58:44Z</time>
      </trkpt>
      <trkpt lat="46.19208" lon="6.20826">
        <ele>429.37</ele>
        <time>2014-07-02T14:58:51Z</time>
      </trkpt>
      <trkpt lat="46.19208" lon="6.20812">
        <ele>428.89</ele>
        <time>2014-07-02T14:58:54Z</time>
      </trkpt>
      <trkpt lat="46.19221" lon="6.20759">
        <ele>428.4</ele>
        <time>2014-07-02T14:59:01Z</time>
      </trkpt>
      <trkpt lat="46.19224" lon="6.20731">
        <ele>428.4</ele>
        <time>2014-07-02T14:59:05Z</time>
      </trkpt>
      <trkpt lat="46.19241" lon="6.2066">
        <ele>428.4</ele>
        <time>2014-07-02T14:59:17Z</time>
      </trkpt>
      <trkpt lat="46.19246" lon="6.20599">
        <ele>428.4</ele>
        <time>2014-07-02T14:59:29Z</time>
      </trkpt>
      <trkpt lat="46.19249" lon="6.20548">
        <ele>428.4</ele>
        <time>2014-07-02T14:59:39Z</time>
      </trkpt>
      <trkpt lat="46.19256" lon="6.20509">
        <ele>429.37</ele>
        <time>2014-07-02T14:59:50Z</time>
      </trkpt>
      <trkpt lat="46.19252" lon="6.20504">
        <ele>429.37</ele>
        <time>2014-07-02T15:00:03Z</time>
      </trkpt>
      <trkpt lat="46.19255" lon="6.20489">
        <ele>430.33</ele>
        <time>2014-07-02T15:00:09Z</time>
      </trkpt>
      <trkpt lat="46.19274" lon="6.20407">
        <ele>432.25</ele>
        <time>2014-07-02T15:00:28Z</time>
      </trkpt>
      <trkpt lat="46.19291" lon="6.20351">
        <ele>435.13</ele>
        <time>2014-07-02T15:00:40Z</time>
      </trkpt>
      <trkpt lat="46.19297" lon="6.20306">
        <ele>434.17</ele>
        <time>2014-07-02T15:00:52Z</time>
      </trkpt>
      <trkpt lat="46.19296" lon="6.20303">
        <ele>434.17</ele>
        <time>2014-07-02T15:01:20Z</time>
      </trkpt>
      <trkpt lat="46.19295" lon="6.20304">
        <ele>434.65</ele>
        <time>2014-07-02T15:01:46Z</time>
      </trkpt>
      <trkpt lat="46.19295" lon="6.20302">
        <ele>435.13</ele>
        <time>2014-07-02T15:01:55Z</time>
      </trkpt>
      <trkpt lat="46.19297" lon="6.2029">
        <ele>435.13</ele>
        <time>2014-07-02T15:01:59Z</time>
      </trkpt>
      <trkpt lat="46.19304" lon="6.20248">
        <ele>435.13</ele>
        <time>2014-07-02T15:02:08Z</time>
      </trkpt>
      <trkpt lat="46.19325" lon="6.20129">
        <ele>435.13</ele>
        <time>2014-07-02T15:02:27Z</time>
      </trkpt>
      <trkpt lat="46.19335" lon="6.20078">
        <ele>435.13</ele>
        <time>2014-07-02T15:02:39Z</time>
      </trkpt>
      <trkpt lat="46.19355" lon="6.19999">
        <ele>435.61</ele>
        <time>2014-07-02T15:02:54Z</time>
      </trkpt>
      <trkpt lat="46.19356" lon="6.19984">
        <ele>435.61</ele>
        <time>2014-07-02T15:03:05Z</time>
      </trkpt>
      <trkpt lat="46.19355" lon="6.19985">
        <ele>436.1</ele>
        <time>2014-07-02T15:03:21Z</time>
      </trkpt>
      <trkpt lat="46.19351" lon="6.19987">
        <ele>436.58</ele>
        <time>2014-07-02T15:03:47Z</time>
      </trkpt>
      <trkpt lat="46.19355" lon="6.19967">
        <ele>436.58</ele>
        <time>2014-07-02T15:03:53Z</time>
      </trkpt>
      <trkpt lat="46.19366" lon="6.19894">
        <ele>436.58</ele>
        <time>2014-07-02T15:04:05Z</time>
      </trkpt>
      <trkpt lat="46.1937" lon="6.19867">
        <ele>436.58</ele>
        <time>2014-07-02T15:04:09Z</time>
      </trkpt>
      <trkpt lat="46.19375" lon="6.19847">
        <ele>436.1</ele>
        <time>2014-07-02T15:04:12Z</time>
      </trkpt>
      <trkpt lat="46.19381" lon="6.19807">
        <ele>436.58</ele>
        <time>2014-07-02T15:04:18Z</time>
      </trkpt>
      <trkpt lat="46.19405" lon="6.19683">
        <ele>436.58</ele>
        <time>2014-07-02T15:04:37Z</time>
      </trkpt>
      <trkpt lat="46.19426" lon="6.19572">
        <ele>436.58</ele>
        <time>2014-07-02T15:04:54Z</time>
      </trkpt>
      <trkpt lat="46.19437" lon="6.19524">
        <ele>436.1</ele>
        <time>2014-07-02T15:05:04Z</time>
      </trkpt>
      <trkpt lat="46.19458" lon="6.19519">
        <ele>436.58</ele>
        <time>2014-07-02T15:05:13Z</time>
      </trkpt>
      <trkpt lat="46.19482" lon="6.19483">
        <ele>436.58</ele>
        <time>2014-07-02T15:05:22Z</time>
      </trkpt>
      <trkpt lat="46.19511" lon="6.19442">
        <ele>436.58</ele>
        <time>2014-07-02T15:05:34Z</time>
      </trkpt>
      <trkpt lat="46.19533" lon="6.19398">
        <ele>436.58</ele>
        <time>2014-07-02T15:05:46Z</time>
      </trkpt>
      <trkpt lat="46.19553" lon="6.19354">
        <ele>436.58</ele>
        <time>2014-07-02T15:05:55Z</time>
      </trkpt>
      <trkpt lat="46.19555" lon="6.19349">
        <ele>436.1</ele>
        <time>2014-07-02T15:05:56Z</time>
      </trkpt>
      <trkpt lat="46.19568" lon="6.19328">
        <ele>435.61</ele>
        <time>2014-07-02T15:06:01Z</time>
      </trkpt>
      <trkpt lat="46.19575" lon="6.19316">
        <ele>434.65</ele>
        <time>2014-07-02T15:06:10Z</time>
      </trkpt>
      <trkpt lat="46.19555" lon="6.19299">
        <ele>433.69</ele>
        <time>2014-07-02T15:06:25Z</time>
      </trkpt>
      <trkpt lat="46.19555" lon="6.1929">
        <ele>433.69</ele>
        <time>2014-07-02T15:06:29Z</time>
      </trkpt>
      <trkpt lat="46.19554" lon="6.19257">
        <ele>432.73</ele>
        <time>2014-07-02T15:06:39Z</time>
      </trkpt>
      <trkpt lat="46.19579" lon="6.19196">
        <ele>431.77</ele>
        <time>2014-07-02T15:06:55Z</time>
      </trkpt>
      <trkpt lat="46.19604" lon="6.19128">
        <ele>430.81</ele>
        <time>2014-07-02T15:07:09Z</time>
      </trkpt>
      <trkpt lat="46.1964" lon="6.19057">
        <ele>430.81</ele>
        <time>2014-07-02T15:07:24Z</time>
      </trkpt>
      <trkpt lat="46.19645" lon="6.19048">
        <ele>430.81</ele>
        <time>2014-07-02T15:07:27Z</time>
      </trkpt>
      <trkpt lat="46.19648" lon="6.19047">
        <ele>430.81</ele>
        <time>2014-07-02T15:07:28Z</time>
      </trkpt>
      <trkpt lat="46.19668" lon="6.19067">
        <ele>431.29</ele>
        <time>2014-07-02T15:07:38Z</time>
      </trkpt>
      <trkpt lat="46.19697" lon="6.19074">
        <ele>432.25</ele>
        <time>2014-07-02T15:07:49Z</time>
      </trkpt>
      <trkpt lat="46.19708" lon="6.1905">
        <ele>433.69</ele>
        <time>2014-07-02T15:08:00Z</time>
      </trkpt>
      <trkpt lat="46.19721" lon="6.18999">
        <ele>436.1</ele>
        <time>2014-07-02T15:08:15Z</time>
      </trkpt>
      <trkpt lat="46.19745" lon="6.18965">
        <ele>438.02</ele>
        <time>2014-07-02T15:08:32Z</time>
      </trkpt>
      <trkpt lat="46.19742" lon="6.18919">
        <ele>437.54</ele>
        <time>2014-07-02T15:08:43Z</time>
      </trkpt>
      <trkpt lat="46.19739" lon="6.18894">
        <ele>437.54</ele>
        <time>2014-07-02T15:08:52Z</time>
      </trkpt>
      <trkpt lat="46.19764" lon="6.1884">
        <ele>439.46</ele>
        <time>2014-07-02T15:09:06Z</time>
      </trkpt>
      <trkpt lat="46.19774" lon="6.18818">
        <ele>439.94</ele>
        <time>2014-07-02T15:09:12Z</time>
      </trkpt>
      <trkpt lat="46.19784" lon="6.18781">
        <ele>440.42</ele>
        <time>2014-07-02T15:09:24Z</time>
      </trkpt>
      <trkpt lat="46.19811" lon="6.18708">
        <ele>440.9</ele>
        <time>2014-07-02T15:09:39Z</time>
      </trkpt>
      <trkpt lat="46.19837" lon="6.18602">
        <ele>441.38</ele>
        <time>2014-07-02T15:09:58Z</time>
      </trkpt>
      <trkpt lat="46.1985" lon="6.18529">
        <ele>441.86</ele>
        <time>2014-07-02T15:10:10Z</time>
      </trkpt>
      <trkpt lat="46.19855" lon="6.18504">
        <ele>441.86</ele>
        <time>2014-07-02T15:10:14Z</time>
      </trkpt>
      <trkpt lat="46.19862" lon="6.18427">
        <ele>442.34</ele>
        <time>2014-07-02T15:10:25Z</time>
      </trkpt>
      <trkpt lat="46.19862" lon="6.18413">
        <ele>441.86</ele>
        <time>2014-07-02T15:10:27Z</time>
      </trkpt>
      <trkpt lat="46.19867" lon="6.18379">
        <ele>441.86</ele>
        <time>2014-07-02T15:10:32Z</time>
      </trkpt>
      <trkpt lat="46.19884" lon="6.18224">
        <ele>441.86</ele>
        <time>2014-07-02T15:10:53Z</time>
      </trkpt>
      <trkpt lat="46.19893" lon="6.18117">
        <ele>442.34</ele>
        <time>2014-07-02T15:11:08Z</time>
      </trkpt>
      <trkpt lat="46.19901" lon="6.18042">
        <ele>442.34</ele>
        <time>2014-07-02T15:11:18Z</time>
      </trkpt>
      <trkpt lat="46.19905" lon="6.17981">
        <ele>441.86</ele>
        <time>2014-07-02T15:11:26Z</time>
      </trkpt>
      <trkpt lat="46.19906" lon="6.1796">
        <ele>442.34</ele>
        <time>2014-07-02T15:11:29Z</time>
      </trkpt>
      <trkpt lat="46.19919" lon="6.1786">
        <ele>442.34</ele>
        <time>2014-07-02T15:11:43Z</time>
      </trkpt>
      <trkpt lat="46.19923" lon="6.17803">
        <ele>442.34</ele>
        <time>2014-07-02T15:11:51Z</time>
      </trkpt>
      <trkpt lat="46.19939" lon="6.17666">
        <ele>442.82</ele>
        <time>2014-07-02T15:12:10Z</time>
      </trkpt>
      <trkpt lat="46.19945" lon="6.17625">
        <ele>442.82</ele>
        <time>2014-07-02T15:12:16Z</time>
      </trkpt>
      <trkpt lat="46.19947" lon="6.17603">
        <ele>442.82</ele>
        <time>2014-07-02T15:12:19Z</time>
      </trkpt>
      <trkpt lat="46.19975" lon="6.17468">
        <ele>441.86</ele>
        <time>2014-07-02T15:12:38Z</time>
      </trkpt>
      <trkpt lat="46.1998" lon="6.1744">
        <ele>441.38</ele>
        <time>2014-07-02T15:12:43Z</time>
      </trkpt>
      <trkpt lat="46.19982" lon="6.17431">
        <ele>441.38</ele>
        <time>2014-07-02T15:12:54Z</time>
      </trkpt>
      <trkpt lat="46.19973" lon="6.17431">
        <ele>441.86</ele>
        <time>2014-07-02T15:13:15Z</time>
      </trkpt>
      <trkpt lat="46.19971" lon="6.1743">
        <ele>441.86</ele>
        <time>2014-07-02T15:13:33Z</time>
      </trkpt>
      <trkpt lat="46.19982" lon="6.17356">
        <ele>441.38</ele>
        <time>2014-07-02T15:13:47Z</time>
      </trkpt>
      <trkpt lat="46.19992" lon="6.17294">
        <ele>440.42</ele>
        <time>2014-07-02T15:13:56Z</time>
      </trkpt>
      <trkpt lat="46.20015" lon="6.17145">
        <ele>437.54</ele>
        <time>2014-07-02T15:14:13Z</time>
      </trkpt>
      <trkpt lat="46.2002" lon="6.17012">
        <ele>434.17</ele>
        <time>2014-07-02T15:14:26Z</time>
      </trkpt>
      <trkpt lat="46.20015" lon="6.16908">
        <ele>431.29</ele>
        <time>2014-07-02T15:14:37Z</time>
      </trkpt>
      <trkpt lat="46.20018" lon="6.16846">
        <ele>430.81</ele>
        <time>2014-07-02T15:14:47Z</time>
      </trkpt>
      <trkpt lat="46.20015" lon="6.16798">
        <ele>428.4</ele>
        <time>2014-07-02T15:14:54Z</time>
      </trkpt>
      <trkpt lat="46.20007" lon="6.16731">
        <ele>426.48</ele>
        <time>2014-07-02T15:15:07Z</time>
      </trkpt>
      <trkpt lat="46.20007" lon="6.16721">
        <ele>426</ele>
        <time>2014-07-02T15:15:09Z</time>
      </trkpt>
      <trkpt lat="46.20009" lon="6.16709">
        <ele>426</ele>
        <time>2014-07-02T15:15:11Z</time>
      </trkpt>
      <trkpt lat="46.20035" lon="6.1663">
        <ele>423.6</ele>
        <time>2014-07-02T15:15:26Z</time>
      </trkpt>
      <trkpt lat="46.20042" lon="6.16579">
        <ele>422.64</ele>
        <time>2014-07-02T15:15:35Z</time>
      </trkpt>
      <trkpt lat="46.20015" lon="6.16515">
        <ele>421.19</ele>
        <time>2014-07-02T15:15:48Z</time>
      </trkpt>
      <trkpt lat="46.20014" lon="6.16492">
        <ele>420.71</ele>
        <time>2014-07-02T15:15:52Z</time>
      </trkpt>
      <trkpt lat="46.20013" lon="6.16474">
        <ele>420.23</ele>
        <time>2014-07-02T15:15:55Z</time>
      </trkpt>
      <trkpt lat="46.20023" lon="6.16449">
        <ele>419.75</ele>
        <time>2014-07-02T15:16:00Z</time>
      </trkpt>
      <trkpt lat="46.20043" lon="6.16423">
        <ele>419.27</ele>
        <time>2014-07-02T15:16:07Z</time>
      </trkpt>
      <trkpt lat="46.20041" lon="6.16383">
        <ele>417.83</ele>
        <time>2014-07-02T15:16:17Z</time>
      </trkpt>
      <trkpt lat="46.2004" lon="6.16357">
        <ele>416.87</ele>
        <time>2014-07-02T15:16:22Z</time>
      </trkpt>
      <trkpt lat="46.20036" lon="6.16321">
        <ele>415.91</ele>
        <time>2014-07-02T15:16:27Z</time>
      </trkpt>
      <trkpt lat="46.20033" lon="6.16301">
        <ele>414.95</ele>
        <time>2014-07-02T15:16:30Z</time>
      </trkpt>
      <trkpt lat="46.2004" lon="6.16263">
        <ele>413.02</ele>
        <time>2014-07-02T15:16:41Z</time>
      </trkpt>
      <trkpt lat="46.20039" lon="6.16261">
        <ele>413.5</ele>
        <time>2014-07-02T15:16:55Z</time>
      </trkpt>
      <trkpt lat="46.20044" lon="6.16243">
        <ele>412.54</ele>
        <time>2014-07-02T15:17:01Z</time>
      </trkpt>
      <trkpt lat="46.20051" lon="6.1622">
        <ele>411.58</ele>
        <time>2014-07-02T15:17:11Z</time>
      </trkpt>
      <trkpt lat="46.20043" lon="6.16211">
        <ele>411.58</ele>
        <time>2014-07-02T15:17:42Z</time>
      </trkpt>
      <trkpt lat="46.20039" lon="6.16208">
        <ele>411.1</ele>
        <time>2014-07-02T15:18:10Z</time>
      </trkpt>
      <trkpt lat="46.20039" lon="6.16209">
        <ele>411.1</ele>
        <time>2014-07-02T15:18:14Z</time>
      </trkpt>
      <trkpt lat="46.20046" lon="6.16196">
        <ele>411.1</ele>
        <time>2014-07-02T15:18:19Z</time>
      </trkpt>
      <trkpt lat="46.20089" lon="6.16104">
        <ele>407.74</ele>
        <time>2014-07-02T15:18:33Z</time>
      </trkpt>
      <trkpt lat="46.20107" lon="6.16058">
        <ele>405.33</ele>
        <time>2014-07-02T15:18:38Z</time>
      </trkpt>
      <trkpt lat="46.20158" lon="6.15948">
        <ele>401.97</ele>
        <time>2014-07-02T15:18:49Z</time>
      </trkpt>
      <trkpt lat="46.20161" lon="6.15941">
        <ele>401.97</ele>
        <time>2014-07-02T15:18:50Z</time>
      </trkpt>
      <trkpt lat="46.20207" lon="6.15824">
        <ele>399.08</ele>
        <time>2014-07-02T15:19:03Z</time>
      </trkpt>
      <trkpt lat="46.20215" lon="6.1581">
        <ele>398.6</ele>
        <time>2014-07-02T15:19:11Z</time>
      </trkpt>
      <trkpt lat="46.20215" lon="6.15812">
        <ele>398.12</ele>
        <time>2014-07-02T15:19:40Z</time>
      </trkpt>
      <trkpt lat="46.20215" lon="6.1581">
        <ele>398.12</ele>
        <time>2014-07-02T15:20:07Z</time>
      </trkpt>
      <trkpt lat="46.20217" lon="6.15809">
        <ele>398.12</ele>
        <time>2014-07-02T15:20:25Z</time>
      </trkpt>
      <trkpt lat="46.20227" lon="6.15785">
        <ele>397.64</ele>
        <time>2014-07-02T15:20:32Z</time>
      </trkpt>
      <trkpt lat="46.20249" lon="6.15736">
        <ele>397.16</ele>
        <time>2014-07-02T15:20:40Z</time>
      </trkpt>
      <trkpt lat="46.20262" lon="6.15705">
        <ele>396.68</ele>
        <time>2014-07-02T15:20:45Z</time>
      </trkpt>
      <trkpt lat="46.20286" lon="6.15596">
        <ele>397.16</ele>
        <time>2014-07-02T15:20:59Z</time>
      </trkpt>
      <trkpt lat="46.203" lon="6.15511">
        <ele>396.68</ele>
        <time>2014-07-02T15:21:11Z</time>
      </trkpt>
      <trkpt lat="46.20303" lon="6.15492">
        <ele>396.2</ele>
        <time>2014-07-02T15:21:14Z</time>
      </trkpt>
      <trkpt lat="46.20304" lon="6.15465">
        <ele>396.2</ele>
        <time>2014-07-02T15:21:18Z</time>
      </trkpt>
      <trkpt lat="46.20317" lon="6.15429">
        <ele>396.2</ele>
        <time>2014-07-02T15:21:23Z</time>
      </trkpt>
      <trkpt lat="46.20336" lon="6.15396">
        <ele>395.72</ele>
        <time>2014-07-02T15:21:31Z</time>
      </trkpt>
      <trkpt lat="46.20334" lon="6.15382">
        <ele>396.2</ele>
        <time>2014-07-02T15:21:36Z</time>
      </trkpt>
      <trkpt lat="46.20347" lon="6.15349">
        <ele>395.72</ele>
        <time>2014-07-02T15:21:48Z</time>
      </trkpt>
      <trkpt lat="46.20348" lon="6.15354">
        <ele>395.72</ele>
        <time>2014-07-02T15:22:18Z</time>
      </trkpt>
      <trkpt lat="46.20348" lon="6.15356">
        <ele>395.24</ele>
        <time>2014-07-02T15:22:41Z</time>
      </trkpt>
      <trkpt lat="46.20363" lon="6.15312">
        <ele>395.24</ele>
        <time>2014-07-02T15:22:55Z</time>
      </trkpt>
      <trkpt lat="46.20373" lon="6.15251">
        <ele>394.76</ele>
        <time>2014-07-02T15:23:06Z</time>
      </trkpt>
      <trkpt lat="46.20383" lon="6.15207">
        <ele>394.76</ele>
        <time>2014-07-02T15:23:13Z</time>
      </trkpt>
      <trkpt lat="46.20407" lon="6.1517">
        <ele>394.76</ele>
        <time>2014-07-02T15:23:23Z</time>
      </trkpt>
      <trkpt lat="46.20443" lon="6.15139">
        <ele>394.76</ele>
        <time>2014-07-02T15:23:35Z</time>
      </trkpt>
      <trkpt lat="46.20466" lon="6.15127">
        <ele>394.28</ele>
        <time>2014-07-02T15:23:44Z</time>
      </trkpt>
      <trkpt lat="46.20493" lon="6.15097">
        <ele>393.8</ele>
        <time>2014-07-02T15:23:55Z</time>
      </trkpt>
      <trkpt lat="46.20501" lon="6.15049">
        <ele>394.28</ele>
        <time>2014-07-02T15:24:09Z</time>
      </trkpt>
      <trkpt lat="46.20502" lon="6.15036">
        <ele>394.28</ele>
        <time>2014-07-02T15:24:12Z</time>
      </trkpt>
      <trkpt lat="46.20498" lon="6.14985">
        <ele>394.28</ele>
        <time>2014-07-02T15:24:24Z</time>
      </trkpt>
      <trkpt lat="46.20525" lon="6.14954">
        <ele>394.28</ele>
        <time>2014-07-02T15:24:34Z</time>
      </trkpt>
      <trkpt lat="46.2057" lon="6.14914">
        <ele>393.8</ele>
        <time>2014-07-02T15:24:49Z</time>
      </trkpt>
      <trkpt lat="46.20588" lon="6.14895">
        <ele>394.28</ele>
        <time>2014-07-02T15:25:01Z</time>
      </trkpt>
      <trkpt lat="46.20611" lon="6.14872">
        <ele>393.8</ele>
        <time>2014-07-02T15:25:12Z</time>
      </trkpt>
      <trkpt lat="46.20621" lon="6.14863">
        <ele>394.28</ele>
        <time>2014-07-02T15:25:17Z</time>
      </trkpt>
      <trkpt lat="46.20644" lon="6.14843">
        <ele>393.8</ele>
        <time>2014-07-02T15:25:30Z</time>
      </trkpt>
      <trkpt lat="46.20693" lon="6.14798">
        <ele>393.8</ele>
        <time>2014-07-02T15:25:49Z</time>
      </trkpt>
      <trkpt lat="46.20721" lon="6.14824">
        <ele>393.8</ele>
        <time>2014-07-02T15:25:59Z</time>
      </trkpt>
      <trkpt lat="46.20752" lon="6.14853">
        <ele>393.32</ele>
        <time>2014-07-02T15:26:11Z</time>
      </trkpt>
      <trkpt lat="46.20798" lon="6.14908">
        <ele>393.32</ele>
        <time>2014-07-02T15:26:28Z</time>
      </trkpt>
      <trkpt lat="46.20831" lon="6.14948">
        <ele>392.84</ele>
        <time>2014-07-02T15:26:40Z</time>
      </trkpt>
      <trkpt lat="46.20844" lon="6.14961">
        <ele>392.84</ele>
        <time>2014-07-02T15:26:46Z</time>
      </trkpt>
      <trkpt lat="46.20868" lon="6.14989">
        <ele>394.28</ele>
        <time>2014-07-02T15:26:54Z</time>
      </trkpt>
      <trkpt lat="46.20887" lon="6.15013">
        <ele>392.84</ele>
        <time>2014-07-02T15:27:00Z</time>
      </trkpt>
      <trkpt lat="46.2093" lon="6.15057">
        <ele>392.36</ele>
        <time>2014-07-02T15:27:13Z</time>
      </trkpt>
      <trkpt lat="46.20937" lon="6.15065">
        <ele>392.36</ele>
        <time>2014-07-02T15:27:15Z</time>
      </trkpt>
      <trkpt lat="46.20982" lon="6.15119">
        <ele>391.87</ele>
        <time>2014-07-02T15:27:27Z</time>
      </trkpt>
      <trkpt lat="46.2104" lon="6.15192">
        <ele>391.87</ele>
        <time>2014-07-02T15:27:44Z</time>
      </trkpt>
      <trkpt lat="46.21046" lon="6.15198">
        <ele>392.36</ele>
        <time>2014-07-02T15:27:46Z</time>
      </trkpt>
      <trkpt lat="46.21065" lon="6.15212">
        <ele>391.87</ele>
        <time>2014-07-02T15:27:51Z</time>
      </trkpt>
      <trkpt lat="46.21077" lon="6.15221">
        <ele>391.39</ele>
        <time>2014-07-02T15:27:54Z</time>
      </trkpt>
      <trkpt lat="46.21127" lon="6.15279">
        <ele>391.87</ele>
        <time>2014-07-02T15:28:09Z</time>
      </trkpt>
      <trkpt lat="46.21149" lon="6.15307">
        <ele>390.91</ele>
        <time>2014-07-02T15:28:20Z</time>
      </trkpt>
      <trkpt lat="46.21155" lon="6.15313">
        <ele>390.43</ele>
        <time>2014-07-02T15:28:22Z</time>
      </trkpt>
      <trkpt lat="46.21169" lon="6.15305">
        <ele>389.95</ele>
        <time>2014-07-02T15:28:31Z</time>
      </trkpt>
      <trkpt lat="46.21165" lon="6.15303">
        <ele>390.43</ele>
        <time>2014-07-02T15:28:46Z</time>
      </trkpt>
      <trkpt lat="46.21165" lon="6.15297">
        <ele>390.43</ele>
        <time>2014-07-02T15:29:12Z</time>
      </trkpt>
      <trkpt lat="46.21165" lon="6.15297">
        <ele>390.43</ele>
        <time>2014-07-02T15:30:04Z</time>
      </trkpt>
      <trkpt lat="46.21165" lon="6.15297">
        <ele>389.95</ele>
        <time>2014-07-02T15:30:38Z</time>
      </trkpt>
      <trkpt lat="46.21165" lon="6.15297">
        <ele>390.43</ele>
        <time>2014-07-02T15:31:19Z</time>
      </trkpt>
      <trkpt lat="46.21165" lon="6.15295">
        <ele>389.95</ele>
        <time>2014-07-02T15:31:56Z</time>
      </trkpt>
      <trkpt lat="46.21164" lon="6.15295">
        <ele>390.43</ele>
        <time>2014-07-02T15:32:36Z</time>
      </trkpt>
      <trkpt lat="46.21164" lon="6.153">
        <ele>390.43</ele>
        <time>2014-07-02T15:33:05Z</time>
      </trkpt>
      <trkpt lat="46.21166" lon="6.15295">
        <ele>390.43</ele>
        <time>2014-07-02T15:33:43Z</time>
      </trkpt>
      <trkpt lat="46.21166" lon="6.15295">
        <ele>390.43</ele>
        <time>2014-07-02T15:34:08Z</time>
      </trkpt>
      <trkpt lat="46.21165" lon="6.15303">
        <ele>390.43</ele>
        <time>2014-07-02T15:34:25Z</time>
      </trkpt>
      <trkpt lat="46.21169" lon="6.15307">
        <ele>389.95</ele>
        <time>2014-07-02T15:34:35Z</time>
      </trkpt>
      <trkpt lat="46.21169" lon="6.15307">
        <ele>389.95</ele>
        <time>2014-07-02T15:34:40Z</time>
      </trkpt>
      <trkpt lat="46.21194" lon="6.15304">
        <ele>389.95</ele>
        <time>2014-07-02T15:34:53Z</time>
      </trkpt>
      <trkpt lat="46.21251" lon="6.15289">
        <ele>389.95</ele>
        <time>2014-07-02T15:35:10Z</time>
      </trkpt>
      <trkpt lat="46.21307" lon="6.15273">
        <ele>389.95</ele>
        <time>2014-07-02T15:35:26Z</time>
      </trkpt>
      <trkpt lat="46.21376" lon="6.15256">
        <ele>389.47</ele>
        <time>2014-07-02T15:35:46Z</time>
      </trkpt>
      <trkpt lat="46.21409" lon="6.15245">
        <ele>389.47</ele>
        <time>2014-07-02T15:35:59Z</time>
      </trkpt>
      <trkpt lat="46.21463" lon="6.15234">
        <ele>389.47</ele>
        <time>2014-07-02T15:36:17Z</time>
      </trkpt>
      <trkpt lat="46.21529" lon="6.15218">
        <ele>389.47</ele>
        <time>2014-07-02T15:36:38Z</time>
      </trkpt>
      <trkpt lat="46.21569" lon="6.15206">
        <ele>389.47</ele>
        <time>2014-07-02T15:36:52Z</time>
      </trkpt>
      <trkpt lat="46.21634" lon="6.15187">
        <ele>389.47</ele>
        <time>2014-07-02T15:37:13Z</time>
      </trkpt>
      <trkpt lat="46.21656" lon="6.15181">
        <ele>389.47</ele>
        <time>2014-07-02T15:37:20Z</time>
      </trkpt>
      <trkpt lat="46.21662" lon="6.15162">
        <ele>389.95</ele>
        <time>2014-07-02T15:37:25Z</time>
      </trkpt>
      <trkpt lat="46.21659" lon="6.15141">
        <ele>390.91</ele>
        <time>2014-07-02T15:37:30Z</time>
      </trkpt>
      <trkpt lat="46.21669" lon="6.15122">
        <ele>390.43</ele>
        <time>2014-07-02T15:37:36Z</time>
      </trkpt>
      <trkpt lat="46.21731" lon="6.15076">
        <ele>390.91</ele>
        <time>2014-07-02T15:37:55Z</time>
      </trkpt>
      <trkpt lat="46.21788" lon="6.15021">
        <ele>393.8</ele>
        <time>2014-07-02T15:38:16Z</time>
      </trkpt>
      <trkpt lat="46.21821" lon="6.14986">
        <ele>394.76</ele>
        <time>2014-07-02T15:38:30Z</time>
      </trkpt>
      <trkpt lat="46.21856" lon="6.14946">
        <ele>396.2</ele>
        <time>2014-07-02T15:38:46Z</time>
      </trkpt>
      <trkpt lat="46.21895" lon="6.14921">
        <ele>397.64</ele>
        <time>2014-07-02T15:39:03Z</time>
      </trkpt>
      <trkpt lat="46.21941" lon="6.14935">
        <ele>398.6</ele>
        <time>2014-07-02T15:39:19Z</time>
      </trkpt>
      <trkpt lat="46.21989" lon="6.14965">
        <ele>399.08</ele>
        <time>2014-07-02T15:39:35Z</time>
      </trkpt>
      <trkpt lat="46.22037" lon="6.14988">
        <ele>399.57</ele>
        <time>2014-07-02T15:39:48Z</time>
      </trkpt>
      <trkpt lat="46.22068" lon="6.15001">
        <ele>400.53</ele>
        <time>2014-07-02T15:39:56Z</time>
      </trkpt>
      <trkpt lat="46.22086" lon="6.15">
        <ele>400.53</ele>
        <time>2014-07-02T15:40:00Z</time>
      </trkpt>
      <trkpt lat="46.22159" lon="6.14964">
        <ele>400.05</ele>
        <time>2014-07-02T15:40:16Z</time>
      </trkpt>
      <trkpt lat="46.22258" lon="6.14916">
        <ele>398.12</ele>
        <time>2014-07-02T15:40:35Z</time>
      </trkpt>
      <trkpt lat="46.22274" lon="6.14907">
        <ele>398.12</ele>
        <time>2014-07-02T15:40:38Z</time>
      </trkpt>
      <trkpt lat="46.22334" lon="6.1488">
        <ele>396.68</ele>
        <time>2014-07-02T15:40:51Z</time>
      </trkpt>
      <trkpt lat="46.22397" lon="6.14852">
        <ele>395.72</ele>
        <time>2014-07-02T15:41:06Z</time>
      </trkpt>
      <trkpt lat="46.22406" lon="6.14846">
        <ele>395.24</ele>
        <time>2014-07-02T15:41:12Z</time>
      </trkpt>
      <trkpt lat="46.2244" lon="6.14832">
        <ele>395.24</ele>
        <time>2014-07-02T15:41:23Z</time>
      </trkpt>
      <trkpt lat="46.2252" lon="6.14802">
        <ele>393.32</ele>
        <time>2014-07-02T15:41:41Z</time>
      </trkpt>
      <trkpt lat="46.2258" lon="6.14807">
        <ele>393.32</ele>
        <time>2014-07-02T15:41:54Z</time>
      </trkpt>
      <trkpt lat="46.226" lon="6.14815">
        <ele>393.32</ele>
        <time>2014-07-02T15:41:58Z</time>
      </trkpt>
      <trkpt lat="46.22609" lon="6.1482">
        <ele>393.32</ele>
        <time>2014-07-02T15:42:00Z</time>
      </trkpt>
      <trkpt lat="46.22687" lon="6.14853">
        <ele>392.84</ele>
        <time>2014-07-02T15:42:16Z</time>
      </trkpt>
      <trkpt lat="46.22721" lon="6.14866">
        <ele>392.84</ele>
        <time>2014-07-02T15:42:23Z</time>
      </trkpt>
      <trkpt lat="46.22753" lon="6.14881">
        <ele>392.36</ele>
        <time>2014-07-02T15:42:30Z</time>
      </trkpt>
      <trkpt lat="46.2281" lon="6.14899">
        <ele>392.36</ele>
        <time>2014-07-02T15:42:41Z</time>
      </trkpt>
      <trkpt lat="46.22903" lon="6.14923">
        <ele>391.87</ele>
        <time>2014-07-02T15:42:58Z</time>
      </trkpt>
      <trkpt lat="46.22977" lon="6.14937">
        <ele>391.39</ele>
        <time>2014-07-02T15:43:11Z</time>
      </trkpt>
      <trkpt lat="46.23074" lon="6.14949">
        <ele>391.39</ele>
        <time>2014-07-02T15:43:28Z</time>
      </trkpt>
      <trkpt lat="46.23155" lon="6.14955">
        <ele>392.84</ele>
        <time>2014-07-02T15:43:44Z</time>
      </trkpt>
      <trkpt lat="46.23231" lon="6.14955">
        <ele>393.32</ele>
        <time>2014-07-02T15:44:01Z</time>
      </trkpt>
      <trkpt lat="46.23279" lon="6.14953">
        <ele>393.32</ele>
        <time>2014-07-02T15:44:11Z</time>
      </trkpt>
      <trkpt lat="46.23362" lon="6.14943">
        <ele>393.8</ele>
        <time>2014-07-02T15:44:28Z</time>
      </trkpt>
      <trkpt lat="46.23449" lon="6.14935">
        <ele>393.8</ele>
        <time>2014-07-02T15:44:45Z</time>
      </trkpt>
      <trkpt lat="46.23454" lon="6.14935">
        <ele>394.28</ele>
        <time>2014-07-02T15:44:46Z</time>
      </trkpt>
      <trkpt lat="46.23519" lon="6.14927">
        <ele>394.28</ele>
        <time>2014-07-02T15:44:59Z</time>
      </trkpt>
      <trkpt lat="46.23618" lon="6.14917">
        <ele>394.28</ele>
        <time>2014-07-02T15:45:19Z</time>
      </trkpt>
      <trkpt lat="46.23685" lon="6.14912">
        <ele>394.28</ele>
        <time>2014-07-02T15:45:33Z</time>
      </trkpt>
      <trkpt lat="46.23699" lon="6.14913">
        <ele>394.76</ele>
        <time>2014-07-02T15:45:36Z</time>
      </trkpt>
      <trkpt lat="46.23732" lon="6.14916">
        <ele>395.24</ele>
        <time>2014-07-02T15:45:43Z</time>
      </trkpt>
      <trkpt lat="46.23821" lon="6.14924">
        <ele>395.24</ele>
        <time>2014-07-02T15:46:02Z</time>
      </trkpt>
      <trkpt lat="46.23856" lon="6.1493">
        <ele>395.24</ele>
        <time>2014-07-02T15:46:10Z</time>
      </trkpt>
      <trkpt lat="46.23872" lon="6.14927">
        <ele>395.24</ele>
        <time>2014-07-02T15:46:14Z</time>
      </trkpt>
      <trkpt lat="46.23914" lon="6.14945">
        <ele>395.72</ele>
        <time>2014-07-02T15:46:25Z</time>
      </trkpt>
      <trkpt lat="46.23973" lon="6.14976">
        <ele>395.24</ele>
        <time>2014-07-02T15:46:38Z</time>
      </trkpt>
      <trkpt lat="46.24018" lon="6.15004">
        <ele>394.76</ele>
        <time>2014-07-02T15:46:47Z</time>
      </trkpt>
      <trkpt lat="46.24092" lon="6.15061">
        <ele>393.32</ele>
        <time>2014-07-02T15:47:00Z</time>
      </trkpt>
      <trkpt lat="46.24098" lon="6.15066">
        <ele>393.32</ele>
        <time>2014-07-02T15:47:01Z</time>
      </trkpt>
      <trkpt lat="46.24186" lon="6.15133">
        <ele>391.87</ele>
        <time>2014-07-02T15:47:17Z</time>
      </trkpt>
      <trkpt lat="46.2428" lon="6.15181">
        <ele>391.39</ele>
        <time>2014-07-02T15:47:33Z</time>
      </trkpt>
      <trkpt lat="46.24373" lon="6.15209">
        <ele>390.91</ele>
        <time>2014-07-02T15:47:49Z</time>
      </trkpt>
      <trkpt lat="46.2449" lon="6.15216">
        <ele>389.95</ele>
        <time>2014-07-02T15:48:09Z</time>
      </trkpt>
      <trkpt lat="46.24581" lon="6.1519">
        <ele>389.47</ele>
        <time>2014-07-02T15:48:25Z</time>
      </trkpt>
      <trkpt lat="46.24603" lon="6.15182">
        <ele>389.47</ele>
        <time>2014-07-02T15:48:29Z</time>
      </trkpt>
      <trkpt lat="46.24634" lon="6.15162">
        <ele>389.47</ele>
        <time>2014-07-02T15:48:35Z</time>
      </trkpt>
      <trkpt lat="46.24727" lon="6.15135">
        <ele>391.39</ele>
        <time>2014-07-02T15:48:53Z</time>
      </trkpt>
      <trkpt lat="46.24815" lon="6.15101">
        <ele>393.32</ele>
        <time>2014-07-02T15:49:14Z</time>
      </trkpt>
      <trkpt lat="46.24891" lon="6.15093">
        <ele>392.84</ele>
        <time>2014-07-02T15:49:30Z</time>
      </trkpt>
      <trkpt lat="46.24975" lon="6.15105">
        <ele>391.39</ele>
        <time>2014-07-02T15:49:45Z</time>
      </trkpt>
      <trkpt lat="46.2498" lon="6.15106">
        <ele>391.87</ele>
        <time>2014-07-02T15:49:46Z</time>
      </trkpt>
      <trkpt lat="46.25028" lon="6.15111">
        <ele>391.39</ele>
        <time>2014-07-02T15:49:54Z</time>
      </trkpt>
      <trkpt lat="46.25125" lon="6.15127">
        <ele>389.95</ele>
        <time>2014-07-02T15:50:10Z</time>
      </trkpt>
      <trkpt lat="46.25176" lon="6.15148">
        <ele>388.03</ele>
        <time>2014-07-02T15:50:18Z</time>
      </trkpt>
      <trkpt lat="46.25244" lon="6.15214">
        <ele>388.51</ele>
        <time>2014-07-02T15:50:31Z</time>
      </trkpt>
      <trkpt lat="46.25313" lon="6.15298">
        <ele>388.03</ele>
        <time>2014-07-02T15:50:46Z</time>
      </trkpt>
      <trkpt lat="46.25353" lon="6.15347">
        <ele>388.51</ele>
        <time>2014-07-02T15:50:56Z</time>
      </trkpt>
      <trkpt lat="46.25417" lon="6.15424">
        <ele>388.51</ele>
        <time>2014-07-02T15:51:13Z</time>
      </trkpt>
      <trkpt lat="46.25477" lon="6.15496">
        <ele>388.99</ele>
        <time>2014-07-02T15:51:29Z</time>
      </trkpt>
      <trkpt lat="46.25532" lon="6.15561">
        <ele>388.99</ele>
        <time>2014-07-02T15:51:44Z</time>
      </trkpt>
      <trkpt lat="46.25577" lon="6.15604">
        <ele>388.99</ele>
        <time>2014-07-02T15:51:55Z</time>
      </trkpt>
      <trkpt lat="46.25595" lon="6.15616">
        <ele>388.99</ele>
        <time>2014-07-02T15:51:59Z</time>
      </trkpt>
      <trkpt lat="46.25671" lon="6.15641">
        <ele>389.47</ele>
        <time>2014-07-02T15:52:15Z</time>
      </trkpt>
      <trkpt lat="46.25736" lon="6.15664">
        <ele>389.95</ele>
        <time>2014-07-02T15:52:29Z</time>
      </trkpt>
      <trkpt lat="46.25811" lon="6.15703">
        <ele>390.91</ele>
        <time>2014-07-02T15:52:47Z</time>
      </trkpt>
      <trkpt lat="46.25885" lon="6.15758">
        <ele>392.36</ele>
        <time>2014-07-02T15:53:07Z</time>
      </trkpt>
      <trkpt lat="46.25945" lon="6.1581">
        <ele>393.32</ele>
        <time>2014-07-02T15:53:24Z</time>
      </trkpt>
      <trkpt lat="46.26" lon="6.15854">
        <ele>394.28</ele>
        <time>2014-07-02T15:53:40Z</time>
      </trkpt>
      <trkpt lat="46.26015" lon="6.15865">
        <ele>394.28</ele>
        <time>2014-07-02T15:53:44Z</time>
      </trkpt>
      <trkpt lat="46.26074" lon="6.15916">
        <ele>395.24</ele>
        <time>2014-07-02T15:54:01Z</time>
      </trkpt>
      <trkpt lat="46.26126" lon="6.15959">
        <ele>396.2</ele>
        <time>2014-07-02T15:54:17Z</time>
      </trkpt>
      <trkpt lat="46.26192" lon="6.16015">
        <ele>396.68</ele>
        <time>2014-07-02T15:54:35Z</time>
      </trkpt>
      <trkpt lat="46.26238" lon="6.16054">
        <ele>397.16</ele>
        <time>2014-07-02T15:54:49Z</time>
      </trkpt>
      <trkpt lat="46.26297" lon="6.16102">
        <ele>397.64</ele>
        <time>2014-07-02T15:55:06Z</time>
      </trkpt>
      <trkpt lat="46.26368" lon="6.16154">
        <ele>398.12</ele>
        <time>2014-07-02T15:55:25Z</time>
      </trkpt>
      <trkpt lat="46.26383" lon="6.16164">
        <ele>398.12</ele>
        <time>2014-07-02T15:55:29Z</time>
      </trkpt>
      <trkpt lat="46.26446" lon="6.16205">
        <ele>398.6</ele>
        <time>2014-07-02T15:55:45Z</time>
      </trkpt>
      <trkpt lat="46.26513" lon="6.16246">
        <ele>398.12</ele>
        <time>2014-07-02T15:56:03Z</time>
      </trkpt>
      <trkpt lat="46.26583" lon="6.1629">
        <ele>398.12</ele>
        <time>2014-07-02T15:56:22Z</time>
      </trkpt>
      <trkpt lat="46.26663" lon="6.1634">
        <ele>397.64</ele>
        <time>2014-07-02T15:56:42Z</time>
      </trkpt>
      <trkpt lat="46.26752" lon="6.16395">
        <ele>397.16</ele>
        <time>2014-07-02T15:57:03Z</time>
      </trkpt>
      <trkpt lat="46.2676" lon="6.16401">
        <ele>396.68</ele>
        <time>2014-07-02T15:57:05Z</time>
      </trkpt>
      <trkpt lat="46.26779" lon="6.16413">
        <ele>396.68</ele>
        <time>2014-07-02T15:57:10Z</time>
      </trkpt>
      <trkpt lat="46.26803" lon="6.16426">
        <ele>396.68</ele>
        <time>2014-07-02T15:57:16Z</time>
      </trkpt>
      <trkpt lat="46.26867" lon="6.16468">
        <ele>395.72</ele>
        <time>2014-07-02T15:57:30Z</time>
      </trkpt>
      <trkpt lat="46.26923" lon="6.16506">
        <ele>395.72</ele>
        <time>2014-07-02T15:57:43Z</time>
      </trkpt>
      <trkpt lat="46.26981" lon="6.1654">
        <ele>395.24</ele>
        <time>2014-07-02T15:57:55Z</time>
      </trkpt>
      <trkpt lat="46.27063" lon="6.16591">
        <ele>394.76</ele>
        <time>2014-07-02T15:58:11Z</time>
      </trkpt>
      <trkpt lat="46.27087" lon="6.16602">
        <ele>394.28</ele>
        <time>2014-07-02T15:58:16Z</time>
      </trkpt>
      <trkpt lat="46.27164" lon="6.16645">
        <ele>394.28</ele>
        <time>2014-07-02T15:58:33Z</time>
      </trkpt>
      <trkpt lat="46.27197" lon="6.16662">
        <ele>393.8</ele>
        <time>2014-07-02T15:58:40Z</time>
      </trkpt>
      <trkpt lat="46.27268" lon="6.167">
        <ele>394.28</ele>
        <time>2014-07-02T15:58:57Z</time>
      </trkpt>
      <trkpt lat="46.27313" lon="6.16718">
        <ele>394.28</ele>
        <time>2014-07-02T15:59:09Z</time>
      </trkpt>
      <trkpt lat="46.27317" lon="6.1672">
        <ele>394.28</ele>
        <time>2014-07-02T15:59:10Z</time>
      </trkpt>
      <trkpt lat="46.27335" lon="6.16729">
        <ele>394.76</ele>
        <time>2014-07-02T15:59:14Z</time>
      </trkpt>
      <trkpt lat="46.27398" lon="6.16759">
        <ele>392.84</ele>
        <time>2014-07-02T15:59:27Z</time>
      </trkpt>
      <trkpt lat="46.27415" lon="6.16775">
        <ele>392.36</ele>
        <time>2014-07-02T15:59:31Z</time>
      </trkpt>
      <trkpt lat="46.27438" lon="6.16798">
        <ele>391.39</ele>
        <time>2014-07-02T15:59:36Z</time>
      </trkpt>
      <trkpt lat="46.27446" lon="6.16811">
        <ele>390.43</ele>
        <time>2014-07-02T15:59:38Z</time>
      </trkpt>
      <trkpt lat="46.2746" lon="6.16827">
        <ele>389.47</ele>
        <time>2014-07-02T15:59:42Z</time>
      </trkpt>
      <trkpt lat="46.27486" lon="6.1686">
        <ele>388.51</ele>
        <time>2014-07-02T15:59:49Z</time>
      </trkpt>
      <trkpt lat="46.27528" lon="6.16896">
        <ele>388.03</ele>
        <time>2014-07-02T16:00:01Z</time>
      </trkpt>
      <trkpt lat="46.27561" lon="6.16927">
        <ele>385.63</ele>
        <time>2014-07-02T16:00:10Z</time>
      </trkpt>
      <trkpt lat="46.27577" lon="6.16941">
        <ele>385.15</ele>
        <time>2014-07-02T16:00:13Z</time>
      </trkpt>
      <trkpt lat="46.27618" lon="6.16962">
        <ele>384.66</ele>
        <time>2014-07-02T16:00:24Z</time>
      </trkpt>
      <trkpt lat="46.27625" lon="6.16966">
        <ele>384.66</ele>
        <time>2014-07-02T16:00:27Z</time>
      </trkpt>
      <trkpt lat="46.27628" lon="6.16969">
        <ele>384.66</ele>
        <time>2014-07-02T16:00:29Z</time>
      </trkpt>
      <trkpt lat="46.27638" lon="6.17011">
        <ele>384.66</ele>
        <time>2014-07-02T16:00:42Z</time>
      </trkpt>
      <trkpt lat="46.27637" lon="6.17013">
        <ele>384.66</ele>
        <time>2014-07-02T16:00:44Z</time>
      </trkpt>
      <trkpt lat="46.27624" lon="6.1701">
        <ele>384.66</ele>
        <time>2014-07-02T16:00:54Z</time>
      </trkpt>
      <trkpt lat="46.27625" lon="6.17012">
        <ele>384.66</ele>
        <time>2014-07-02T16:01:02Z</time>
      </trkpt>
      <trkpt lat="46.27632" lon="6.17012">
        <ele>384.18</ele>
        <time>2014-07-02T16:01:07Z</time>
      </trkpt>
      <trkpt lat="46.27644" lon="6.17015">
        <ele>384.18</ele>
        <time>2014-07-02T16:01:12Z</time>
      </trkpt>
      <trkpt lat="46.27704" lon="6.16985">
        <ele>384.18</ele>
        <time>2014-07-02T16:01:29Z</time>
      </trkpt>
      <trkpt lat="46.27743" lon="6.16966">
        <ele>384.18</ele>
        <time>2014-07-02T16:01:39Z</time>
      </trkpt>
      <trkpt lat="46.2775" lon="6.16956">
        <ele>384.18</ele>
        <time>2014-07-02T16:01:42Z</time>
      </trkpt>
      <trkpt lat="46.27738" lon="6.16912">
        <ele>384.66</ele>
        <time>2014-07-02T16:01:52Z</time>
      </trkpt>
      <trkpt lat="46.2776" lon="6.16888">
        <ele>385.15</ele>
        <time>2014-07-02T16:02:04Z</time>
      </trkpt>
      <trkpt lat="46.27799" lon="6.1686">
        <ele>385.15</ele>
        <time>2014-07-02T16:02:17Z</time>
      </trkpt>
      <trkpt lat="46.27861" lon="6.16824">
        <ele>385.63</ele>
        <time>2014-07-02T16:02:34Z</time>
      </trkpt>
      <trkpt lat="46.27931" lon="6.16777">
        <ele>386.11</ele>
        <time>2014-07-02T16:02:51Z</time>
      </trkpt>
      <trkpt lat="46.27987" lon="6.16739">
        <ele>387.07</ele>
        <time>2014-07-02T16:03:07Z</time>
      </trkpt>
      <trkpt lat="46.28045" lon="6.16706">
        <ele>388.51</ele>
        <time>2014-07-02T16:03:25Z</time>
      </trkpt>
      <trkpt lat="46.28098" lon="6.16674">
        <ele>390.91</ele>
        <time>2014-07-02T16:03:43Z</time>
      </trkpt>
      <trkpt lat="46.2814" lon="6.16644">
        <ele>391.87</ele>
        <time>2014-07-02T16:03:58Z</time>
      </trkpt>
      <trkpt lat="46.28176" lon="6.16609">
        <ele>393.32</ele>
        <time>2014-07-02T16:04:10Z</time>
      </trkpt>
      <trkpt lat="46.28217" lon="6.16587">
        <ele>394.76</ele>
        <time>2014-07-02T16:04:21Z</time>
      </trkpt>
      <trkpt lat="46.28234" lon="6.16585">
        <ele>394.76</ele>
        <time>2014-07-02T16:04:25Z</time>
      </trkpt>
      <trkpt lat="46.28307" lon="6.16593">
        <ele>394.76</ele>
        <time>2014-07-02T16:04:40Z</time>
      </trkpt>
      <trkpt lat="46.28393" lon="6.16588">
        <ele>394.76</ele>
        <time>2014-07-02T16:04:56Z</time>
      </trkpt>
      <trkpt lat="46.28479" lon="6.16589">
        <ele>395.24</ele>
        <time>2014-07-02T16:05:12Z</time>
      </trkpt>
      <trkpt lat="46.28572" lon="6.16587">
        <ele>397.16</ele>
        <time>2014-07-02T16:05:31Z</time>
      </trkpt>
      <trkpt lat="46.28651" lon="6.16587">
        <ele>396.2</ele>
        <time>2014-07-02T16:05:46Z</time>
      </trkpt>
      <trkpt lat="46.2875" lon="6.16584">
        <ele>395.72</ele>
        <time>2014-07-02T16:06:03Z</time>
      </trkpt>
      <trkpt lat="46.28817" lon="6.1658">
        <ele>396.2</ele>
        <time>2014-07-02T16:06:16Z</time>
      </trkpt>
      <trkpt lat="46.28848" lon="6.16581">
        <ele>396.2</ele>
        <time>2014-07-02T16:06:23Z</time>
      </trkpt>
      <trkpt lat="46.28898" lon="6.16578">
        <ele>397.64</ele>
        <time>2014-07-02T16:06:34Z</time>
      </trkpt>
      <trkpt lat="46.28915" lon="6.16577">
        <ele>398.12</ele>
        <time>2014-07-02T16:06:38Z</time>
      </trkpt>
      <trkpt lat="46.28976" lon="6.16579">
        <ele>399.08</ele>
        <time>2014-07-02T16:06:54Z</time>
      </trkpt>
      <trkpt lat="46.29037" lon="6.16582">
        <ele>399.57</ele>
        <time>2014-07-02T16:07:09Z</time>
      </trkpt>
      <trkpt lat="46.2911" lon="6.16583">
        <ele>400.05</ele>
        <time>2014-07-02T16:07:26Z</time>
      </trkpt>
      <trkpt lat="46.29183" lon="6.16583">
        <ele>400.05</ele>
        <time>2014-07-02T16:07:44Z</time>
      </trkpt>
      <trkpt lat="46.29257" lon="6.16584">
        <ele>400.05</ele>
        <time>2014-07-02T16:07:59Z</time>
      </trkpt>
      <trkpt lat="46.29342" lon="6.16611">
        <ele>397.64</ele>
        <time>2014-07-02T16:08:13Z</time>
      </trkpt>
      <trkpt lat="46.29415" lon="6.16653">
        <ele>395.72</ele>
        <time>2014-07-02T16:08:24Z</time>
      </trkpt>
      <trkpt lat="46.2947" lon="6.16684">
        <ele>395.24</ele>
        <time>2014-07-02T16:08:33Z</time>
      </trkpt>
      <trkpt lat="46.29481" lon="6.16691">
        <ele>395.24</ele>
        <time>2014-07-02T16:08:35Z</time>
      </trkpt>
      <trkpt lat="46.2959" lon="6.1676">
        <ele>394.76</ele>
        <time>2014-07-02T16:08:53Z</time>
      </trkpt>
      <trkpt lat="46.29669" lon="6.16823">
        <ele>395.24</ele>
        <time>2014-07-02T16:09:08Z</time>
      </trkpt>
      <trkpt lat="46.29679" lon="6.16831">
        <ele>395.24</ele>
        <time>2014-07-02T16:09:10Z</time>
      </trkpt>
      <trkpt lat="46.29737" lon="6.169">
        <ele>395.72</ele>
        <time>2014-07-02T16:09:24Z</time>
      </trkpt>
      <trkpt lat="46.29788" lon="6.1695">
        <ele>395.72</ele>
        <time>2014-07-02T16:09:36Z</time>
      </trkpt>
      <trkpt lat="46.29855" lon="6.17043">
        <ele>395.72</ele>
        <time>2014-07-02T16:09:55Z</time>
      </trkpt>
      <trkpt lat="46.29884" lon="6.17088">
        <ele>395.24</ele>
        <time>2014-07-02T16:10:04Z</time>
      </trkpt>
      <trkpt lat="46.29933" lon="6.17173">
        <ele>394.76</ele>
        <time>2014-07-02T16:10:20Z</time>
      </trkpt>
      <trkpt lat="46.29981" lon="6.17273">
        <ele>394.76</ele>
        <time>2014-07-02T16:10:38Z</time>
      </trkpt>
      <trkpt lat="46.30003" lon="6.17318">
        <ele>394.28</ele>
        <time>2014-07-02T16:10:46Z</time>
      </trkpt>
      <trkpt lat="46.3001" lon="6.17337">
        <ele>394.28</ele>
        <time>2014-07-02T16:10:49Z</time>
      </trkpt>
      <trkpt lat="46.30052" lon="6.17424">
        <ele>394.28</ele>
        <time>2014-07-02T16:11:04Z</time>
      </trkpt>
      <trkpt lat="46.30103" lon="6.17513">
        <ele>395.24</ele>
        <time>2014-07-02T16:11:20Z</time>
      </trkpt>
      <trkpt lat="46.30157" lon="6.17607">
        <ele>393.32</ele>
        <time>2014-07-02T16:11:37Z</time>
      </trkpt>
      <trkpt lat="46.30227" lon="6.17717">
        <ele>392.84</ele>
        <time>2014-07-02T16:11:59Z</time>
      </trkpt>
      <trkpt lat="46.30294" lon="6.17812">
        <ele>391.87</ele>
        <time>2014-07-02T16:12:18Z</time>
      </trkpt>
      <trkpt lat="46.30364" lon="6.17903">
        <ele>389.47</ele>
        <time>2014-07-02T16:12:35Z</time>
      </trkpt>
      <trkpt lat="46.30437" lon="6.17993">
        <ele>387.55</ele>
        <time>2014-07-02T16:12:51Z</time>
      </trkpt>
      <trkpt lat="46.30464" lon="6.18022">
        <ele>386.59</ele>
        <time>2014-07-02T16:12:57Z</time>
      </trkpt>
      <trkpt lat="46.30477" lon="6.18036">
        <ele>386.59</ele>
        <time>2014-07-02T16:13:00Z</time>
      </trkpt>
      <trkpt lat="46.30487" lon="6.18048">
        <ele>386.59</ele>
        <time>2014-07-02T16:13:03Z</time>
      </trkpt>
      <trkpt lat="46.30486" lon="6.18068">
        <ele>385.15</ele>
        <time>2014-07-02T16:13:07Z</time>
      </trkpt>
      <trkpt lat="46.30469" lon="6.18102">
        <ele>382.74</ele>
        <time>2014-07-02T16:13:16Z</time>
      </trkpt>
      <trkpt lat="46.30473" lon="6.18101">
        <ele>383.22</ele>
        <time>2014-07-02T16:13:35Z</time>
      </trkpt>
      <trkpt lat="46.30471" lon="6.18102">
        <ele>382.74</ele>
        <time>2014-07-02T16:14:10Z</time>
      </trkpt>
      <trkpt lat="46.30469" lon="6.18101">
        <ele>382.74</ele>
        <time>2014-07-02T16:14:46Z</time>
      </trkpt>
      <trkpt lat="46.30472" lon="6.18104">
        <ele>382.74</ele>
        <time>2014-07-02T16:15:09Z</time>
      </trkpt>
      <trkpt lat="46.3048" lon="6.18112">
        <ele>382.74</ele>
        <time>2014-07-02T16:15:26Z</time>
      </trkpt>
      <trkpt lat="46.30482" lon="6.18113">
        <ele>382.74</ele>
        <time>2014-07-02T16:15:52Z</time>
      </trkpt>
      <trkpt lat="46.30481" lon="6.18113">
        <ele>382.26</ele>
        <time>2014-07-02T16:16:21Z</time>
      </trkpt>
      <trkpt lat="46.30481" lon="6.18113">
        <ele>382.26</ele>
        <time>2014-07-02T16:16:45Z</time>
      </trkpt>
      <trkpt lat="46.30482" lon="6.18113">
        <ele>382.26</ele>
        <time>2014-07-02T16:17:04Z</time>
      </trkpt>
      <trkpt lat="46.30484" lon="6.18111">
        <ele>382.26</ele>
        <time>2014-07-02T16:17:22Z</time>
      </trkpt>
      <trkpt lat="46.30485" lon="6.18113">
        <ele>381.78</ele>
        <time>2014-07-02T16:17:41Z</time>
      </trkpt>
      <trkpt lat="46.30485" lon="6.18113">
        <ele>381.78</ele>
        <time>2014-07-02T16:18:19Z</time>
      </trkpt>
      <trkpt lat="46.30485" lon="6.18113">
        <ele>381.78</ele>
        <time>2014-07-02T16:19:00Z</time>
      </trkpt>
      <trkpt lat="46.30482" lon="6.18109">
        <ele>381.78</ele>
        <time>2014-07-02T16:19:14Z</time>
      </trkpt>
      <trkpt lat="46.30481" lon="6.18108">
        <ele>382.26</ele>
        <time>2014-07-02T16:19:26Z</time>
      </trkpt>
      <trkpt lat="46.3048" lon="6.18089">
        <ele>382.26</ele>
        <time>2014-07-02T16:19:36Z</time>
      </trkpt>
      <trkpt lat="46.30481" lon="6.18088">
        <ele>382.74</ele>
        <time>2014-07-02T16:19:37Z</time>
      </trkpt>
      <trkpt lat="46.30489" lon="6.18058">
        <ele>384.18</ele>
        <time>2014-07-02T16:19:48Z</time>
      </trkpt>
      <trkpt lat="46.30499" lon="6.1806">
        <ele>385.15</ele>
        <time>2014-07-02T16:19:54Z</time>
      </trkpt>
      <trkpt lat="46.30542" lon="6.18103">
        <ele>384.66</ele>
        <time>2014-07-02T16:20:11Z</time>
      </trkpt>
      <trkpt lat="46.30583" lon="6.18141">
        <ele>384.18</ele>
        <time>2014-07-02T16:20:23Z</time>
      </trkpt>
      <trkpt lat="46.30594" lon="6.1815">
        <ele>384.18</ele>
        <time>2014-07-02T16:20:26Z</time>
      </trkpt>
      <trkpt lat="46.30601" lon="6.18157">
        <ele>384.18</ele>
        <time>2014-07-02T16:20:28Z</time>
      </trkpt>
      <trkpt lat="46.30645" lon="6.18199">
        <ele>385.15</ele>
        <time>2014-07-02T16:20:44Z</time>
      </trkpt>
      <trkpt lat="46.30678" lon="6.1823">
        <ele>386.11</ele>
        <time>2014-07-02T16:20:57Z</time>
      </trkpt>
      <trkpt lat="46.30717" lon="6.18264">
        <ele>388.51</ele>
        <time>2014-07-02T16:21:13Z</time>
      </trkpt>
      <trkpt lat="46.30762" lon="6.18306">
        <ele>390.43</ele>
        <time>2014-07-02T16:21:31Z</time>
      </trkpt>
      <trkpt lat="46.3079" lon="6.18332">
        <ele>391.39</ele>
        <time>2014-07-02T16:21:44Z</time>
      </trkpt>
      <trkpt lat="46.30832" lon="6.18369">
        <ele>392.84</ele>
        <time>2014-07-02T16:22:02Z</time>
      </trkpt>
      <trkpt lat="46.30869" lon="6.18406">
        <ele>393.32</ele>
        <time>2014-07-02T16:22:17Z</time>
      </trkpt>
      <trkpt lat="46.30903" lon="6.18438">
        <ele>393.32</ele>
        <time>2014-07-02T16:22:29Z</time>
      </trkpt>
      <trkpt lat="46.30964" lon="6.18496">
        <ele>392.36</ele>
        <time>2014-07-02T16:22:45Z</time>
      </trkpt>
      <trkpt lat="46.31042" lon="6.18567">
        <ele>391.39</ele>
        <time>2014-07-02T16:23:03Z</time>
      </trkpt>
      <trkpt lat="46.31104" lon="6.18624">
        <ele>390.91</ele>
        <time>2014-07-02T16:23:16Z</time>
      </trkpt>
      <trkpt lat="46.31188" lon="6.18701">
        <ele>390.91</ele>
        <time>2014-07-02T16:23:35Z</time>
      </trkpt>
      <trkpt lat="46.31248" lon="6.18756">
        <ele>391.39</ele>
        <time>2014-07-02T16:23:50Z</time>
      </trkpt>
      <trkpt lat="46.31305" lon="6.18814">
        <ele>391.39</ele>
        <time>2014-07-02T16:24:05Z</time>
      </trkpt>
      <trkpt lat="46.31365" lon="6.189">
        <ele>389.95</ele>
        <time>2014-07-02T16:24:21Z</time>
      </trkpt>
      <trkpt lat="46.31427" lon="6.19011">
        <ele>388.51</ele>
        <time>2014-07-02T16:24:40Z</time>
      </trkpt>
      <trkpt lat="46.31436" lon="6.19024">
        <ele>387.55</ele>
        <time>2014-07-02T16:24:44Z</time>
      </trkpt>
      <trkpt lat="46.31462" lon="6.19072">
        <ele>386.59</ele>
        <time>2014-07-02T16:24:55Z</time>
      </trkpt>
      <trkpt lat="46.31516" lon="6.19175">
        <ele>385.15</ele>
        <time>2014-07-02T16:25:10Z</time>
      </trkpt>
      <trkpt lat="46.3157" lon="6.1927">
        <ele>384.18</ele>
        <time>2014-07-02T16:25:25Z</time>
      </trkpt>
      <trkpt lat="46.31631" lon="6.19335">
        <ele>383.22</ele>
        <time>2014-07-02T16:25:40Z</time>
      </trkpt>
      <trkpt lat="46.31691" lon="6.19385">
        <ele>383.7</ele>
        <time>2014-07-02T16:25:52Z</time>
      </trkpt>
      <trkpt lat="46.31749" lon="6.19433">
        <ele>385.15</ele>
        <time>2014-07-02T16:26:05Z</time>
      </trkpt>
      <trkpt lat="46.31801" lon="6.19463">
        <ele>386.59</ele>
        <time>2014-07-02T16:26:19Z</time>
      </trkpt>
      <trkpt lat="46.31846" lon="6.19489">
        <ele>387.55</ele>
        <time>2014-07-02T16:26:33Z</time>
      </trkpt>
      <trkpt lat="46.31886" lon="6.19511">
        <ele>388.03</ele>
        <time>2014-07-02T16:26:47Z</time>
      </trkpt>
      <trkpt lat="46.31922" lon="6.19532">
        <ele>388.51</ele>
        <time>2014-07-02T16:26:59Z</time>
      </trkpt>
      <trkpt lat="46.31988" lon="6.1957">
        <ele>388.99</ele>
        <time>2014-07-02T16:27:17Z</time>
      </trkpt>
      <trkpt lat="46.32031" lon="6.19595">
        <ele>388.99</ele>
        <time>2014-07-02T16:27:27Z</time>
      </trkpt>
      <trkpt lat="46.32103" lon="6.19634">
        <ele>389.47</ele>
        <time>2014-07-02T16:27:44Z</time>
      </trkpt>
      <trkpt lat="46.32186" lon="6.19681">
        <ele>389.47</ele>
        <time>2014-07-02T16:28:02Z</time>
      </trkpt>
      <trkpt lat="46.32263" lon="6.19724">
        <ele>389.47</ele>
        <time>2014-07-02T16:28:19Z</time>
      </trkpt>
      <trkpt lat="46.32308" lon="6.19749">
        <ele>389.95</ele>
        <time>2014-07-02T16:28:30Z</time>
      </trkpt>
      <trkpt lat="46.32368" lon="6.19782">
        <ele>389.47</ele>
        <time>2014-07-02T16:28:44Z</time>
      </trkpt>
      <trkpt lat="46.32397" lon="6.19798">
        <ele>389.47</ele>
        <time>2014-07-02T16:28:50Z</time>
      </trkpt>
      <trkpt lat="46.32481" lon="6.19838">
        <ele>388.03</ele>
        <time>2014-07-02T16:29:06Z</time>
      </trkpt>
      <trkpt lat="46.32561" lon="6.19867">
        <ele>387.07</ele>
        <time>2014-07-02T16:29:20Z</time>
      </trkpt>
      <trkpt lat="46.32639" lon="6.19902">
        <ele>387.07</ele>
        <time>2014-07-02T16:29:34Z</time>
      </trkpt>
      <trkpt lat="46.3267" lon="6.19919">
        <ele>387.55</ele>
        <time>2014-07-02T16:29:40Z</time>
      </trkpt>
      <trkpt lat="46.32739" lon="6.19962">
        <ele>388.99</ele>
        <time>2014-07-02T16:29:56Z</time>
      </trkpt>
      <trkpt lat="46.3277" lon="6.19982">
        <ele>388.51</ele>
        <time>2014-07-02T16:30:04Z</time>
      </trkpt>
      <trkpt lat="46.32848" lon="6.20049">
        <ele>388.51</ele>
        <time>2014-07-02T16:30:22Z</time>
      </trkpt>
      <trkpt lat="46.32942" lon="6.20124">
        <ele>387.07</ele>
        <time>2014-07-02T16:30:42Z</time>
      </trkpt>
      <trkpt lat="46.33054" lon="6.20186">
        <ele>386.11</ele>
        <time>2014-07-02T16:31:03Z</time>
      </trkpt>
      <trkpt lat="46.3314" lon="6.20221">
        <ele>385.15</ele>
        <time>2014-07-02T16:31:19Z</time>
      </trkpt>
      <trkpt lat="46.33236" lon="6.20241">
        <ele>384.66</ele>
        <time>2014-07-02T16:31:36Z</time>
      </trkpt>
      <trkpt lat="46.33302" lon="6.20245">
        <ele>384.18</ele>
        <time>2014-07-02T16:31:48Z</time>
      </trkpt>
      <trkpt lat="46.33323" lon="6.20248">
        <ele>384.18</ele>
        <time>2014-07-02T16:31:52Z</time>
      </trkpt>
      <trkpt lat="46.33416" lon="6.20246">
        <ele>384.18</ele>
        <time>2014-07-02T16:32:10Z</time>
      </trkpt>
      <trkpt lat="46.33501" lon="6.20246">
        <ele>383.22</ele>
        <time>2014-07-02T16:32:26Z</time>
      </trkpt>
      <trkpt lat="46.33533" lon="6.20247">
        <ele>383.22</ele>
        <time>2014-07-02T16:32:32Z</time>
      </trkpt>
      <trkpt lat="46.33634" lon="6.20263">
        <ele>382.74</ele>
        <time>2014-07-02T16:32:50Z</time>
      </trkpt>
      <trkpt lat="46.33702" lon="6.20282">
        <ele>383.7</ele>
        <time>2014-07-02T16:33:04Z</time>
      </trkpt>
      <trkpt lat="46.3376" lon="6.20307">
        <ele>384.66</ele>
        <time>2014-07-02T16:33:17Z</time>
      </trkpt>
      <trkpt lat="46.33811" lon="6.20332">
        <ele>385.15</ele>
        <time>2014-07-02T16:33:31Z</time>
      </trkpt>
      <trkpt lat="46.33867" lon="6.20365">
        <ele>386.11</ele>
        <time>2014-07-02T16:33:47Z</time>
      </trkpt>
      <trkpt lat="46.33907" lon="6.20393">
        <ele>386.59</ele>
        <time>2014-07-02T16:33:59Z</time>
      </trkpt>
      <trkpt lat="46.33958" lon="6.20428">
        <ele>386.59</ele>
        <time>2014-07-02T16:34:13Z</time>
      </trkpt>
      <trkpt lat="46.34003" lon="6.20461">
        <ele>386.59</ele>
        <time>2014-07-02T16:34:26Z</time>
      </trkpt>
      <trkpt lat="46.34045" lon="6.20486">
        <ele>386.11</ele>
        <time>2014-07-02T16:34:38Z</time>
      </trkpt>
      <trkpt lat="46.34104" lon="6.20514">
        <ele>385.63</ele>
        <time>2014-07-02T16:34:53Z</time>
      </trkpt>
      <trkpt lat="46.34155" lon="6.20532">
        <ele>385.15</ele>
        <time>2014-07-02T16:35:05Z</time>
      </trkpt>
      <trkpt lat="46.34183" lon="6.2054">
        <ele>385.15</ele>
        <time>2014-07-02T16:35:11Z</time>
      </trkpt>
      <trkpt lat="46.34248" lon="6.20556">
        <ele>384.66</ele>
        <time>2014-07-02T16:35:24Z</time>
      </trkpt>
      <trkpt lat="46.34323" lon="6.20574">
        <ele>384.18</ele>
        <time>2014-07-02T16:35:39Z</time>
      </trkpt>
      <trkpt lat="46.34397" lon="6.20592">
        <ele>384.18</ele>
        <time>2014-07-02T16:35:53Z</time>
      </trkpt>
      <trkpt lat="46.34477" lon="6.20612">
        <ele>383.7</ele>
        <time>2014-07-02T16:36:08Z</time>
      </trkpt>
      <trkpt lat="46.34546" lon="6.20628">
        <ele>383.22</ele>
        <time>2014-07-02T16:36:22Z</time>
      </trkpt>
      <trkpt lat="46.34611" lon="6.20642">
        <ele>383.22</ele>
        <time>2014-07-02T16:36:36Z</time>
      </trkpt>
      <trkpt lat="46.34677" lon="6.2066">
        <ele>383.7</ele>
        <time>2014-07-02T16:36:51Z</time>
      </trkpt>
      <trkpt lat="46.34736" lon="6.20674">
        <ele>384.18</ele>
        <time>2014-07-02T16:37:06Z</time>
      </trkpt>
      <trkpt lat="46.34761" lon="6.20678">
        <ele>384.18</ele>
        <time>2014-07-02T16:37:12Z</time>
      </trkpt>
      <trkpt lat="46.34782" lon="6.20683">
        <ele>384.18</ele>
        <time>2014-07-02T16:37:17Z</time>
      </trkpt>
      <trkpt lat="46.34846" lon="6.20703">
        <ele>384.66</ele>
        <time>2014-07-02T16:37:32Z</time>
      </trkpt>
      <trkpt lat="46.34906" lon="6.20727">
        <ele>384.66</ele>
        <time>2014-07-02T16:37:47Z</time>
      </trkpt>
      <trkpt lat="46.34975" lon="6.20762">
        <ele>385.15</ele>
        <time>2014-07-02T16:38:05Z</time>
      </trkpt>
      <trkpt lat="46.35038" lon="6.20802">
        <ele>385.15</ele>
        <time>2014-07-02T16:38:22Z</time>
      </trkpt>
      <trkpt lat="46.35093" lon="6.20843">
        <ele>385.63</ele>
        <time>2014-07-02T16:38:37Z</time>
      </trkpt>
      <trkpt lat="46.35149" lon="6.20892">
        <ele>385.15</ele>
        <time>2014-07-02T16:38:52Z</time>
      </trkpt>
      <trkpt lat="46.35197" lon="6.20937">
        <ele>385.63</ele>
        <time>2014-07-02T16:39:05Z</time>
      </trkpt>
      <trkpt lat="46.35251" lon="6.20989">
        <ele>385.15</ele>
        <time>2014-07-02T16:39:18Z</time>
      </trkpt>
      <trkpt lat="46.35319" lon="6.21054">
        <ele>384.66</ele>
        <time>2014-07-02T16:39:34Z</time>
      </trkpt>
      <trkpt lat="46.35364" lon="6.21096">
        <ele>385.15</ele>
        <time>2014-07-02T16:39:45Z</time>
      </trkpt>
      <trkpt lat="46.35371" lon="6.21103">
        <ele>385.15</ele>
        <time>2014-07-02T16:39:47Z</time>
      </trkpt>
      <trkpt lat="46.35438" lon="6.21167">
        <ele>385.15</ele>
        <time>2014-07-02T16:40:04Z</time>
      </trkpt>
      <trkpt lat="46.35503" lon="6.21229">
        <ele>385.63</ele>
        <time>2014-07-02T16:40:20Z</time>
      </trkpt>
      <trkpt lat="46.35568" lon="6.2129">
        <ele>385.63</ele>
        <time>2014-07-02T16:40:36Z</time>
      </trkpt>
      <trkpt lat="46.35646" lon="6.21364">
        <ele>386.59</ele>
        <time>2014-07-02T16:40:57Z</time>
      </trkpt>
      <trkpt lat="46.35715" lon="6.21431">
        <ele>386.59</ele>
        <time>2014-07-02T16:41:15Z</time>
      </trkpt>
      <trkpt lat="46.35729" lon="6.21445">
        <ele>387.07</ele>
        <time>2014-07-02T16:41:19Z</time>
      </trkpt>
      <trkpt lat="46.35789" lon="6.21504">
        <ele>387.07</ele>
        <time>2014-07-02T16:41:34Z</time>
      </trkpt>
      <trkpt lat="46.35842" lon="6.21558">
        <ele>386.11</ele>
        <time>2014-07-02T16:41:47Z</time>
      </trkpt>
      <trkpt lat="46.3586" lon="6.21575">
        <ele>386.11</ele>
        <time>2014-07-02T16:41:52Z</time>
      </trkpt>
      <trkpt lat="46.35873" lon="6.21584">
        <ele>386.11</ele>
        <time>2014-07-02T16:41:55Z</time>
      </trkpt>
      <trkpt lat="46.35885" lon="6.21599">
        <ele>385.63</ele>
        <time>2014-07-02T16:41:58Z</time>
      </trkpt>
      <trkpt lat="46.35955" lon="6.2168">
        <ele>385.63</ele>
        <time>2014-07-02T16:42:16Z</time>
      </trkpt>
      <trkpt lat="46.3602" lon="6.21751">
        <ele>385.63</ele>
        <time>2014-07-02T16:42:33Z</time>
      </trkpt>
      <trkpt lat="46.36083" lon="6.21818">
        <ele>386.59</ele>
        <time>2014-07-02T16:42:50Z</time>
      </trkpt>
      <trkpt lat="46.36147" lon="6.21878">
        <ele>387.55</ele>
        <time>2014-07-02T16:43:07Z</time>
      </trkpt>
      <trkpt lat="46.36196" lon="6.21922">
        <ele>388.03</ele>
        <time>2014-07-02T16:43:20Z</time>
      </trkpt>
      <trkpt lat="46.36256" lon="6.21969">
        <ele>388.51</ele>
        <time>2014-07-02T16:43:36Z</time>
      </trkpt>
      <trkpt lat="46.36296" lon="6.22002">
        <ele>388.99</ele>
        <time>2014-07-02T16:43:47Z</time>
      </trkpt>
      <trkpt lat="46.36341" lon="6.22035">
        <ele>389.47</ele>
        <time>2014-07-02T16:43:59Z</time>
      </trkpt>
      <trkpt lat="46.36389" lon="6.22066">
        <ele>390.43</ele>
        <time>2014-07-02T16:44:13Z</time>
      </trkpt>
      <trkpt lat="46.36447" lon="6.22107">
        <ele>390.91</ele>
        <time>2014-07-02T16:44:29Z</time>
      </trkpt>
      <trkpt lat="46.36472" lon="6.22126">
        <ele>390.91</ele>
        <time>2014-07-02T16:44:37Z</time>
      </trkpt>
      <trkpt lat="46.36517" lon="6.22157">
        <ele>390.91</ele>
        <time>2014-07-02T16:44:51Z</time>
      </trkpt>
      <trkpt lat="46.36559" lon="6.22186">
        <ele>391.39</ele>
        <time>2014-07-02T16:45:05Z</time>
      </trkpt>
      <trkpt lat="46.36593" lon="6.22212">
        <ele>391.39</ele>
        <time>2014-07-02T16:45:17Z</time>
      </trkpt>
      <trkpt lat="46.3664" lon="6.22247">
        <ele>391.39</ele>
        <time>2014-07-02T16:45:30Z</time>
      </trkpt>
      <trkpt lat="46.36691" lon="6.22294">
        <ele>391.87</ele>
        <time>2014-07-02T16:45:45Z</time>
      </trkpt>
      <trkpt lat="46.36734" lon="6.22342">
        <ele>391.87</ele>
        <time>2014-07-02T16:45:59Z</time>
      </trkpt>
      <trkpt lat="46.36743" lon="6.22352">
        <ele>391.87</ele>
        <time>2014-07-02T16:46:02Z</time>
      </trkpt>
      <trkpt lat="46.36784" lon="6.22406">
        <ele>391.87</ele>
        <time>2014-07-02T16:46:15Z</time>
      </trkpt>
      <trkpt lat="46.36818" lon="6.22455">
        <ele>391.87</ele>
        <time>2014-07-02T16:46:27Z</time>
      </trkpt>
      <trkpt lat="46.36858" lon="6.22511">
        <ele>392.84</ele>
        <time>2014-07-02T16:46:41Z</time>
      </trkpt>
      <trkpt lat="46.36897" lon="6.22585">
        <ele>393.8</ele>
        <time>2014-07-02T16:46:59Z</time>
      </trkpt>
      <trkpt lat="46.36934" lon="6.22658">
        <ele>395.24</ele>
        <time>2014-07-02T16:47:18Z</time>
      </trkpt>
      <trkpt lat="46.36968" lon="6.22728">
        <ele>396.2</ele>
        <time>2014-07-02T16:47:37Z</time>
      </trkpt>
      <trkpt lat="46.36997" lon="6.22786">
        <ele>397.16</ele>
        <time>2014-07-02T16:47:53Z</time>
      </trkpt>
      <trkpt lat="46.3703" lon="6.22855">
        <ele>398.6</ele>
        <time>2014-07-02T16:48:11Z</time>
      </trkpt>
      <trkpt lat="46.37066" lon="6.22917">
        <ele>399.57</ele>
        <time>2014-07-02T16:48:28Z</time>
      </trkpt>
      <trkpt lat="46.37095" lon="6.22963">
        <ele>400.05</ele>
        <time>2014-07-02T16:48:43Z</time>
      </trkpt>
      <trkpt lat="46.37122" lon="6.23006">
        <ele>400.53</ele>
        <time>2014-07-02T16:48:58Z</time>
      </trkpt>
      <trkpt lat="46.37167" lon="6.23062">
        <ele>400.53</ele>
        <time>2014-07-02T16:49:17Z</time>
      </trkpt>
      <trkpt lat="46.37213" lon="6.23114">
        <ele>399.57</ele>
        <time>2014-07-02T16:49:32Z</time>
      </trkpt>
      <trkpt lat="46.3726" lon="6.23168">
        <ele>397.64</ele>
        <time>2014-07-02T16:49:46Z</time>
      </trkpt>
      <trkpt lat="46.37303" lon="6.23216">
        <ele>395.24</ele>
        <time>2014-07-02T16:49:57Z</time>
      </trkpt>
      <trkpt lat="46.37369" lon="6.23285">
        <ele>391.87</ele>
        <time>2014-07-02T16:50:08Z</time>
      </trkpt>
      <trkpt lat="46.37452" lon="6.23348">
        <ele>390.91</ele>
        <time>2014-07-02T16:50:21Z</time>
      </trkpt>
      <trkpt lat="46.37532" lon="6.23409">
        <ele>390.43</ele>
        <time>2014-07-02T16:50:36Z</time>
      </trkpt>
      <trkpt lat="46.37617" lon="6.23476">
        <ele>389.95</ele>
        <time>2014-07-02T16:50:53Z</time>
      </trkpt>
      <trkpt lat="46.37695" lon="6.23556">
        <ele>388.99</ele>
        <time>2014-07-02T16:51:10Z</time>
      </trkpt>
      <trkpt lat="46.37749" lon="6.2367">
        <ele>387.55</ele>
        <time>2014-07-02T16:51:27Z</time>
      </trkpt>
      <trkpt lat="46.37802" lon="6.23779">
        <ele>386.59</ele>
        <time>2014-07-02T16:51:45Z</time>
      </trkpt>
      <trkpt lat="46.37808" lon="6.2379">
        <ele>386.11</ele>
        <time>2014-07-02T16:51:47Z</time>
      </trkpt>
      <trkpt lat="46.37831" lon="6.23839">
        <ele>386.11</ele>
        <time>2014-07-02T16:51:58Z</time>
      </trkpt>
      <trkpt lat="46.37842" lon="6.2385">
        <ele>385.63</ele>
        <time>2014-07-02T16:52:05Z</time>
      </trkpt>
      <trkpt lat="46.37856" lon="6.23866">
        <ele>385.15</ele>
        <time>2014-07-02T16:52:19Z</time>
      </trkpt>
      <trkpt lat="46.37857" lon="6.23866">
        <ele>385.15</ele>
        <time>2014-07-02T16:52:31Z</time>
      </trkpt>
      <trkpt lat="46.37873" lon="6.23887">
        <ele>384.66</ele>
        <time>2014-07-02T16:52:39Z</time>
      </trkpt>
      <trkpt lat="46.37938" lon="6.23978">
        <ele>383.22</ele>
        <time>2014-07-02T16:52:58Z</time>
      </trkpt>
      <trkpt lat="46.38005" lon="6.24068">
        <ele>382.26</ele>
        <time>2014-07-02T16:53:17Z</time>
      </trkpt>
      <trkpt lat="46.38008" lon="6.24073">
        <ele>382.26</ele>
        <time>2014-07-02T16:53:18Z</time>
      </trkpt>
      <trkpt lat="46.38018" lon="6.24094">
        <ele>382.26</ele>
        <time>2014-07-02T16:53:22Z</time>
      </trkpt>
      <trkpt lat="46.38039" lon="6.24098">
        <ele>382.26</ele>
        <time>2014-07-02T16:53:30Z</time>
      </trkpt>
      <trkpt lat="46.38043" lon="6.24101">
        <ele>382.26</ele>
        <time>2014-07-02T16:53:32Z</time>
      </trkpt>
      <trkpt lat="46.38066" lon="6.24119">
        <ele>382.26</ele>
        <time>2014-07-02T16:53:43Z</time>
      </trkpt>
      <trkpt lat="46.3808" lon="6.24126">
        <ele>382.74</ele>
        <time>2014-07-02T16:53:50Z</time>
      </trkpt>
      <trkpt lat="46.38118" lon="6.24159">
        <ele>383.22</ele>
        <time>2014-07-02T16:54:04Z</time>
      </trkpt>
      <trkpt lat="46.38143" lon="6.24176">
        <ele>383.7</ele>
        <time>2014-07-02T16:54:16Z</time>
      </trkpt>
      <trkpt lat="46.38159" lon="6.24182">
        <ele>383.7</ele>
        <time>2014-07-02T16:54:24Z</time>
      </trkpt>
      <trkpt lat="46.38169" lon="6.24185">
        <ele>383.22</ele>
        <time>2014-07-02T16:54:28Z</time>
      </trkpt>
      <trkpt lat="46.38206" lon="6.24217">
        <ele>382.74</ele>
        <time>2014-07-02T16:54:44Z</time>
      </trkpt>
      <trkpt lat="46.38218" lon="6.24225">
        <ele>382.74</ele>
        <time>2014-07-02T16:54:50Z</time>
      </trkpt>
      <trkpt lat="46.38211" lon="6.24259">
        <ele>382.26</ele>
        <time>2014-07-02T16:55:01Z</time>
      </trkpt>
      <trkpt lat="46.38215" lon="6.24266">
        <ele>381.78</ele>
        <time>2014-07-02T16:55:03Z</time>
      </trkpt>
      <trkpt lat="46.38257" lon="6.24309">
        <ele>380.82</ele>
        <time>2014-07-02T16:55:18Z</time>
      </trkpt>
      <trkpt lat="46.38265" lon="6.24342">
        <ele>381.3</ele>
        <time>2014-07-02T16:55:28Z</time>
      </trkpt>
      <trkpt lat="46.38302" lon="6.24368">
        <ele>381.78</ele>
        <time>2014-07-02T16:55:43Z</time>
      </trkpt>
      <trkpt lat="46.3831" lon="6.24359">
        <ele>382.26</ele>
        <time>2014-07-02T16:55:47Z</time>
      </trkpt>
      <trkpt lat="46.38331" lon="6.24316">
        <ele>384.18</ele>
        <time>2014-07-02T16:56:03Z</time>
      </trkpt>
      <trkpt lat="46.38348" lon="6.24285">
        <ele>385.63</ele>
        <time>2014-07-02T16:56:16Z</time>
      </trkpt>
      <trkpt lat="46.38361" lon="6.2425">
        <ele>388.03</ele>
        <time>2014-07-02T16:56:31Z</time>
      </trkpt>
      <trkpt lat="46.38362" lon="6.24242">
        <ele>388.51</ele>
        <time>2014-07-02T16:56:34Z</time>
      </trkpt>
      <trkpt lat="46.38366" lon="6.2421">
        <ele>390.91</ele>
        <time>2014-07-02T16:56:48Z</time>
      </trkpt>
      <trkpt lat="46.38365" lon="6.24209">
        <ele>390.91</ele>
        <time>2014-07-02T16:56:49Z</time>
      </trkpt>
      <trkpt lat="46.38346" lon="6.24177">
        <ele>393.32</ele>
        <time>2014-07-02T16:57:06Z</time>
      </trkpt>
      <trkpt lat="46.38321" lon="6.24143">
        <ele>395.72</ele>
        <time>2014-07-02T16:57:25Z</time>
      </trkpt>
      <trkpt lat="46.3832" lon="6.24096">
        <ele>397.64</ele>
        <time>2014-07-02T16:57:42Z</time>
      </trkpt>
      <trkpt lat="46.38323" lon="6.24053">
        <ele>399.57</ele>
        <time>2014-07-02T16:57:58Z</time>
      </trkpt>
      <trkpt lat="46.38324" lon="6.2404">
        <ele>399.57</ele>
        <time>2014-07-02T16:58:03Z</time>
      </trkpt>
      <trkpt lat="46.38327" lon="6.24032">
        <ele>400.05</ele>
        <time>2014-07-02T16:58:07Z</time>
      </trkpt>
      <trkpt lat="46.38344" lon="6.23989">
        <ele>402.45</ele>
        <time>2014-07-02T16:58:25Z</time>
      </trkpt>
      <trkpt lat="46.38354" lon="6.23969">
        <ele>403.41</ele>
        <time>2014-07-02T16:58:34Z</time>
      </trkpt>
      <trkpt lat="46.38348" lon="6.23962">
        <ele>403.89</ele>
        <time>2014-07-02T16:58:39Z</time>
      </trkpt>
      <trkpt lat="46.38347" lon="6.23955">
        <ele>403.89</ele>
        <time>2014-07-02T16:58:42Z</time>
      </trkpt>
      <trkpt lat="46.38345" lon="6.23952">
        <ele>404.37</ele>
        <time>2014-07-02T16:58:55Z</time>
      </trkpt>
      <trkpt lat="46.38349" lon="6.23952">
        <ele>404.37</ele>
        <time>2014-07-02T16:59:21Z</time>
      </trkpt>
      <trkpt lat="46.38346" lon="6.23949">
        <ele>404.37</ele>
        <time>2014-07-02T16:59:34Z</time>
      </trkpt>
      <trkpt lat="46.38338" lon="6.23936">
        <ele>404.85</ele>
        <time>2014-07-02T16:59:40Z</time>
      </trkpt>
      <trkpt lat="46.38343" lon="6.23893">
        <ele>405.33</ele>
        <time>2014-07-02T16:59:52Z</time>
      </trkpt>
      <trkpt lat="46.38377" lon="6.23825">
        <ele>408.22</ele>
        <time>2014-07-02T17:00:14Z</time>
      </trkpt>
      <trkpt lat="46.384" lon="6.23813">
        <ele>409.18</ele>
        <time>2014-07-02T17:00:26Z</time>
      </trkpt>
      <trkpt lat="46.38414" lon="6.23832">
        <ele>409.18</ele>
        <time>2014-07-02T17:00:40Z</time>
      </trkpt>
      <trkpt lat="46.38446" lon="6.23862">
        <ele>409.18</ele>
        <time>2014-07-02T17:00:53Z</time>
      </trkpt>
      <trkpt lat="46.38461" lon="6.23876">
        <ele>409.18</ele>
        <time>2014-07-02T17:00:59Z</time>
      </trkpt>
      <trkpt lat="46.38481" lon="6.23896">
        <ele>409.18</ele>
        <time>2014-07-02T17:01:07Z</time>
      </trkpt>
      <trkpt lat="46.38494" lon="6.23886">
        <ele>409.18</ele>
        <time>2014-07-02T17:01:11Z</time>
      </trkpt>
      <trkpt lat="46.38515" lon="6.23835">
        <ele>410.14</ele>
        <time>2014-07-02T17:01:24Z</time>
      </trkpt>
      <trkpt lat="46.38543" lon="6.23768">
        <ele>411.58</ele>
        <time>2014-07-02T17:01:40Z</time>
      </trkpt>
      <trkpt lat="46.38533" lon="6.23737">
        <ele>413.02</ele>
        <time>2014-07-02T17:01:50Z</time>
      </trkpt>
      <trkpt lat="46.385" lon="6.23703">
        <ele>411.58</ele>
        <time>2014-07-02T17:02:03Z</time>
      </trkpt>
      <trkpt lat="46.38475" lon="6.23666">
        <ele>411.58</ele>
        <time>2014-07-02T17:02:16Z</time>
      </trkpt>
      <trkpt lat="46.38458" lon="6.23637">
        <ele>411.58</ele>
        <time>2014-07-02T17:02:26Z</time>
      </trkpt>
      <trkpt lat="46.38461" lon="6.23627">
        <ele>412.06</ele>
        <time>2014-07-02T17:02:30Z</time>
      </trkpt>
      <trkpt lat="46.38458" lon="6.23617">
        <ele>412.06</ele>
        <time>2014-07-02T17:02:45Z</time>
      </trkpt>
      <trkpt lat="46.38459" lon="6.23605">
        <ele>411.58</ele>
        <time>2014-07-02T17:02:59Z</time>
      </trkpt>
      <trkpt lat="46.38458" lon="6.23585">
        <ele>412.06</ele>
        <time>2014-07-02T17:03:17Z</time>
      </trkpt>
      <trkpt lat="46.38453" lon="6.2358">
        <ele>411.58</ele>
        <time>2014-07-02T17:03:33Z</time>
      </trkpt>
      <trkpt lat="46.38457" lon="6.23576">
        <ele>411.58</ele>
        <time>2014-07-02T17:04:02Z</time>
      </trkpt>
      <trkpt lat="46.38478" lon="6.23583">
        <ele>412.06</ele>
        <time>2014-07-02T17:04:29Z</time>
      </trkpt>
      <trkpt lat="46.38491" lon="6.23586">
        <ele>412.06</ele>
        <time>2014-07-02T17:04:59Z</time>
      </trkpt>
      <trkpt lat="46.38479" lon="6.23594">
        <ele>412.06</ele>
        <time>2014-07-02T17:05:23Z</time>
      </trkpt>
      <trkpt lat="46.38439" lon="6.23572">
        <ele>412.06</ele>
        <time>2014-07-02T17:05:55Z</time>
      </trkpt>
      <trkpt lat="46.38452" lon="6.23582">
        <ele>412.06</ele>
        <time>2014-07-02T17:06:19Z</time>
      </trkpt>
      <trkpt lat="46.38524" lon="6.23598">
        <ele>412.54</ele>
        <time>2014-07-02T17:06:46Z</time>
      </trkpt>
      <trkpt lat="46.38562" lon="6.23613">
        <ele>413.02</ele>
        <time>2014-07-02T17:07:15Z</time>
      </trkpt>
      <trkpt lat="46.3855" lon="6.23604">
        <ele>413.5</ele>
        <time>2014-07-02T17:07:40Z</time>
      </trkpt>
      <trkpt lat="46.38536" lon="6.23621">
        <ele>413.5</ele>
        <time>2014-07-02T17:08:05Z</time>
      </trkpt>
      <trkpt lat="46.38479" lon="6.23592">
        <ele>413.5</ele>
        <time>2014-07-02T17:08:34Z</time>
      </trkpt>
      <trkpt lat="46.38431" lon="6.23565">
        <ele>413.98</ele>
        <time>2014-07-02T17:08:55Z</time>
      </trkpt>
      <trkpt lat="46.38445" lon="6.2358">
        <ele>413.98</ele>
        <time>2014-07-02T17:09:12Z</time>
      </trkpt>
      <trkpt lat="46.38462" lon="6.23605">
        <ele>413.98</ele>
        <time>2014-07-02T17:09:26Z</time>
      </trkpt>
      <trkpt lat="46.38456" lon="6.23629">
        <ele>413.98</ele>
        <time>2014-07-02T17:09:32Z</time>
      </trkpt>
      <trkpt lat="46.38435" lon="6.23619">
        <ele>413.98</ele>
        <time>2014-07-02T17:09:47Z</time>
      </trkpt>
      <trkpt lat="46.38412" lon="6.23615">
        <ele>413.02</ele>
        <time>2014-07-02T17:10:04Z</time>
      </trkpt>
      <trkpt lat="46.38396" lon="6.23582">
        <ele>412.06</ele>
        <time>2014-07-02T17:10:21Z</time>
      </trkpt>
      <trkpt lat="46.3838" lon="6.2355">
        <ele>410.62</ele>
        <time>2014-07-02T17:10:37Z</time>
      </trkpt>
      <trkpt lat="46.3838" lon="6.23547">
        <ele>410.62</ele>
        <time>2014-07-02T17:10:39Z</time>
      </trkpt>
      <trkpt lat="46.38389" lon="6.23553">
        <ele>410.14</ele>
        <time>2014-07-02T17:10:45Z</time>
      </trkpt>
      <trkpt lat="46.38397" lon="6.23557">
        <ele>409.66</ele>
        <time>2014-07-02T17:10:50Z</time>
      </trkpt>
      <trkpt lat="46.38404" lon="6.23547">
        <ele>409.66</ele>
        <time>2014-07-02T17:11:09Z</time>
      </trkpt>
      <trkpt lat="46.38429" lon="6.23472">
        <ele>409.66</ele>
        <time>2014-07-02T17:11:26Z</time>
      </trkpt>
      <trkpt lat="46.38438" lon="6.23478">
        <ele>410.14</ele>
        <time>2014-07-02T17:11:30Z</time>
      </trkpt>
      <trkpt lat="46.3845" lon="6.23485">
        <ele>410.14</ele>
        <time>2014-07-02T17:11:45Z</time>
      </trkpt>
      <trkpt lat="46.38443" lon="6.23488">
        <ele>407.26</ele>
        <time>2014-07-02T17:12:02Z</time>
      </trkpt>
      <trkpt lat="46.38443" lon="6.23487">
        <ele>405.33</ele>
        <time>2014-07-02T17:12:10Z</time>
      </trkpt>
      <trkpt lat="46.3844" lon="6.23484">
        <ele>404.85</ele>
        <time>2014-07-02T17:12:14Z</time>
      </trkpt>
      <trkpt lat="46.38428" lon="6.23483">
        <ele>405.81</ele>
        <time>2014-07-02T17:12:40Z</time>
      </trkpt>
      <trkpt lat="46.38423" lon="6.235">
        <ele>406.77</ele>
        <time>2014-07-02T17:13:07Z</time>
      </trkpt>
      <trkpt lat="46.46521" lon="6.07344">
        <ele>1139.78</ele>
        <time>2014-07-02T18:47:48Z</time>
      </trkpt>
      <trkpt lat="46.4652" lon="6.07343">
        <ele>1139.3</ele>
        <time>2014-07-02T18:47:49Z</time>
      </trkpt>
      <trkpt lat="46.46516" lon="6.07339">
        <ele>1142.66</ele>
        <time>2014-07-02T18:47:59Z</time>
      </trkpt>
      <trkpt lat="46.46516" lon="6.07338">
        <ele>1143.14</ele>
        <time>2014-07-02T18:48:00Z</time>
      </trkpt>
      <trkpt lat="46.46517" lon="6.07336">
        <ele>1146.99</ele>
        <time>2014-07-02T18:48:06Z</time>
      </trkpt>
      <trkpt lat="46.46517" lon="6.07338">
        <ele>1150.35</ele>
        <time>2014-07-02T18:48:13Z</time>
      </trkpt>
      <trkpt lat="46.46516" lon="6.07338">
        <ele>1153.72</ele>
        <time>2014-07-02T18:48:21Z</time>
      </trkpt>
      <trkpt lat="46.46517" lon="6.07336">
        <ele>1157.08</ele>
        <time>2014-07-02T18:48:34Z</time>
      </trkpt>
      <trkpt lat="46.46517" lon="6.07335">
        <ele>1157.08</ele>
        <time>2014-07-02T18:48:35Z</time>
      </trkpt>
      <trkpt lat="46.46511" lon="6.07321">
        <ele>1158.05</ele>
        <time>2014-07-02T18:48:41Z</time>
      </trkpt>
      <trkpt lat="46.46505" lon="6.07303">
        <ele>1158.53</ele>
        <time>2014-07-02T18:48:53Z</time>
      </trkpt>
      <trkpt lat="46.46508" lon="6.07304">
        <ele>1159.49</ele>
        <time>2014-07-02T18:49:14Z</time>
      </trkpt>
      <trkpt lat="46.46507" lon="6.07304">
        <ele>1161.41</ele>
        <time>2014-07-02T18:49:38Z</time>
      </trkpt>
      <trkpt lat="46.46505" lon="6.07303">
        <ele>1159.97</ele>
        <time>2014-07-02T18:49:54Z</time>
      </trkpt>
      <trkpt lat="46.46501" lon="6.07295">
        <ele>1159.49</ele>
        <time>2014-07-02T18:50:00Z</time>
      </trkpt>
      <trkpt lat="46.46499" lon="6.07269">
        <ele>1158.53</ele>
        <time>2014-07-02T18:50:10Z</time>
      </trkpt>
      <trkpt lat="46.46484" lon="6.0727">
        <ele>1159.01</ele>
        <time>2014-07-02T18:50:16Z</time>
      </trkpt>
      <trkpt lat="46.4645" lon="6.07272">
        <ele>1160.45</ele>
        <time>2014-07-02T18:50:31Z</time>
      </trkpt>
      <trkpt lat="46.46422" lon="6.07271">
        <ele>1162.37</ele>
        <time>2014-07-02T18:50:46Z</time>
      </trkpt>
      <trkpt lat="46.46388" lon="6.07266">
        <ele>1164.29</ele>
        <time>2014-07-02T18:51:04Z</time>
      </trkpt>
      <trkpt lat="46.46338" lon="6.07252">
        <ele>1163.81</ele>
        <time>2014-07-02T18:51:22Z</time>
      </trkpt>
      <trkpt lat="46.46313" lon="6.07244">
        <ele>1162.85</ele>
        <time>2014-07-02T18:51:29Z</time>
      </trkpt>
      <trkpt lat="46.46299" lon="6.07197">
        <ele>1162.85</ele>
        <time>2014-07-02T18:51:39Z</time>
      </trkpt>
      <trkpt lat="46.46296" lon="6.07195">
        <ele>1161.89</ele>
        <time>2014-07-02T18:51:40Z</time>
      </trkpt>
      <trkpt lat="46.46285" lon="6.07187">
        <ele>1160.93</ele>
        <time>2014-07-02T18:51:50Z</time>
      </trkpt>
      <trkpt lat="46.46254" lon="6.07178">
        <ele>1160.45</ele>
        <time>2014-07-02T18:52:02Z</time>
      </trkpt>
      <trkpt lat="46.46234" lon="6.07177">
        <ele>1159.97</ele>
        <time>2014-07-02T18:52:07Z</time>
      </trkpt>
      <trkpt lat="46.46195" lon="6.07139">
        <ele>1157.08</ele>
        <time>2014-07-02T18:52:15Z</time>
      </trkpt>
      <trkpt lat="46.46182" lon="6.07114">
        <ele>1156.12</ele>
        <time>2014-07-02T18:52:18Z</time>
      </trkpt>
      <trkpt lat="46.4615" lon="6.07081">
        <ele>1154.2</ele>
        <time>2014-07-02T18:52:23Z</time>
      </trkpt>
      <trkpt lat="46.46123" lon="6.07039">
        <ele>1152.28</ele>
        <time>2014-07-02T18:52:28Z</time>
      </trkpt>
      <trkpt lat="46.46109" lon="6.06994">
        <ele>1150.84</ele>
        <time>2014-07-02T18:52:32Z</time>
      </trkpt>
      <trkpt lat="46.46096" lon="6.06963">
        <ele>1149.87</ele>
        <time>2014-07-02T18:52:35Z</time>
      </trkpt>
      <trkpt lat="46.46037" lon="6.06924">
        <ele>1147.47</ele>
        <time>2014-07-02T18:52:43Z</time>
      </trkpt>
      <trkpt lat="46.46029" lon="6.06925">
        <ele>1146.99</ele>
        <time>2014-07-02T18:52:44Z</time>
      </trkpt>
      <trkpt lat="46.46004" lon="6.06934">
        <ele>1145.55</ele>
        <time>2014-07-02T18:52:47Z</time>
      </trkpt>
      <trkpt lat="46.45957" lon="6.06957">
        <ele>1143.14</ele>
        <time>2014-07-02T18:52:53Z</time>
      </trkpt>
      <trkpt lat="46.45924" lon="6.06992">
        <ele>1140.74</ele>
        <time>2014-07-02T18:52:58Z</time>
      </trkpt>
      <trkpt lat="46.45901" lon="6.07029">
        <ele>1139.3</ele>
        <time>2014-07-02T18:53:02Z</time>
      </trkpt>
      <trkpt lat="46.45855" lon="6.07033">
        <ele>1136.42</ele>
        <time>2014-07-02T18:53:08Z</time>
      </trkpt>
      <trkpt lat="46.45848" lon="6.07024">
        <ele>1135.45</ele>
        <time>2014-07-02T18:53:09Z</time>
      </trkpt>
      <trkpt lat="46.45812" lon="6.06966">
        <ele>1133.53</ele>
        <time>2014-07-02T18:53:15Z</time>
      </trkpt>
      <trkpt lat="46.458" lon="6.06947">
        <ele>1132.57</ele>
        <time>2014-07-02T18:53:17Z</time>
      </trkpt>
      <trkpt lat="46.45772" lon="6.06901">
        <ele>1131.13</ele>
        <time>2014-07-02T18:53:22Z</time>
      </trkpt>
      <trkpt lat="46.45723" lon="6.06775">
        <ele>1130.17</ele>
        <time>2014-07-02T18:53:36Z</time>
      </trkpt>
      <trkpt lat="46.45708" lon="6.06734">
        <ele>1130.17</ele>
        <time>2014-07-02T18:53:41Z</time>
      </trkpt>
      <trkpt lat="46.45686" lon="6.0666">
        <ele>1129.69</ele>
        <time>2014-07-02T18:53:50Z</time>
      </trkpt>
      <trkpt lat="46.45661" lon="6.06517">
        <ele>1129.21</ele>
        <time>2014-07-02T18:54:08Z</time>
      </trkpt>
      <trkpt lat="46.45644" lon="6.06416">
        <ele>1130.17</ele>
        <time>2014-07-02T18:54:22Z</time>
      </trkpt>
      <trkpt lat="46.45615" lon="6.06372">
        <ele>1132.09</ele>
        <time>2014-07-02T18:54:36Z</time>
      </trkpt>
      <trkpt lat="46.45592" lon="6.06317">
        <ele>1133.53</ele>
        <time>2014-07-02T18:54:52Z</time>
      </trkpt>
      <trkpt lat="46.45591" lon="6.06262">
        <ele>1134.97</ele>
        <time>2014-07-02T18:55:08Z</time>
      </trkpt>
      <trkpt lat="46.45592" lon="6.06205">
        <ele>1137.86</ele>
        <time>2014-07-02T18:55:27Z</time>
      </trkpt>
      <trkpt lat="46.45596" lon="6.06161">
        <ele>1141.22</ele>
        <time>2014-07-02T18:55:42Z</time>
      </trkpt>
      <trkpt lat="46.45607" lon="6.06105">
        <ele>1142.18</ele>
        <time>2014-07-02T18:56:02Z</time>
      </trkpt>
      <trkpt lat="46.45629" lon="6.06066">
        <ele>1144.59</ele>
        <time>2014-07-02T18:56:19Z</time>
      </trkpt>
      <trkpt lat="46.45648" lon="6.06021">
        <ele>1146.51</ele>
        <time>2014-07-02T18:56:37Z</time>
      </trkpt>
      <trkpt lat="46.45662" lon="6.05981">
        <ele>1148.43</ele>
        <time>2014-07-02T18:56:52Z</time>
      </trkpt>
      <trkpt lat="46.45678" lon="6.05939">
        <ele>1151.32</ele>
        <time>2014-07-02T18:57:09Z</time>
      </trkpt>
      <trkpt lat="46.45685" lon="6.05891">
        <ele>1152.76</ele>
        <time>2014-07-02T18:57:25Z</time>
      </trkpt>
      <trkpt lat="46.45692" lon="6.0584">
        <ele>1156.12</ele>
        <time>2014-07-02T18:57:43Z</time>
      </trkpt>
      <trkpt lat="46.45703" lon="6.05793">
        <ele>1157.08</ele>
        <time>2014-07-02T18:57:59Z</time>
      </trkpt>
      <trkpt lat="46.45719" lon="6.05736">
        <ele>1159.01</ele>
        <time>2014-07-02T18:58:18Z</time>
      </trkpt>
      <trkpt lat="46.45729" lon="6.05673">
        <ele>1160.93</ele>
        <time>2014-07-02T18:58:37Z</time>
      </trkpt>
      <trkpt lat="46.45729" lon="6.05631">
        <ele>1161.41</ele>
        <time>2014-07-02T18:58:52Z</time>
      </trkpt>
      <trkpt lat="46.45728" lon="6.05622">
        <ele>1161.89</ele>
        <time>2014-07-02T18:58:56Z</time>
      </trkpt>
      <trkpt lat="46.45728" lon="6.05617">
        <ele>1161.41</ele>
        <time>2014-07-02T18:58:58Z</time>
      </trkpt>
      <trkpt lat="46.45722" lon="6.05587">
        <ele>1161.41</ele>
        <time>2014-07-02T18:59:10Z</time>
      </trkpt>
      <trkpt lat="46.45722" lon="6.05585">
        <ele>1161.41</ele>
        <time>2014-07-02T18:59:11Z</time>
      </trkpt>
      <trkpt lat="46.45717" lon="6.05569">
        <ele>1161.41</ele>
        <time>2014-07-02T18:59:19Z</time>
      </trkpt>
      <trkpt lat="46.457" lon="6.05525">
        <ele>1160.45</ele>
        <time>2014-07-02T18:59:35Z</time>
      </trkpt>
      <trkpt lat="46.45675" lon="6.0546">
        <ele>1158.53</ele>
        <time>2014-07-02T18:59:47Z</time>
      </trkpt>
      <trkpt lat="46.45639" lon="6.05374">
        <ele>1155.16</ele>
        <time>2014-07-02T18:59:59Z</time>
      </trkpt>
      <trkpt lat="46.45607" lon="6.05295">
        <ele>1152.28</ele>
        <time>2014-07-02T19:00:08Z</time>
      </trkpt>
      <trkpt lat="46.45553" lon="6.05173">
        <ele>1151.32</ele>
        <time>2014-07-02T19:00:23Z</time>
      </trkpt>
      <trkpt lat="46.45501" lon="6.05096">
        <ele>1152.76</ele>
        <time>2014-07-02T19:00:40Z</time>
      </trkpt>
      <trkpt lat="46.45441" lon="6.05045">
        <ele>1152.76</ele>
        <time>2014-07-02T19:00:58Z</time>
      </trkpt>
      <trkpt lat="46.45366" lon="6.05017">
        <ele>1151.8</ele>
        <time>2014-07-02T19:01:16Z</time>
      </trkpt>
      <trkpt lat="46.45279" lon="6.04989">
        <ele>1148.43</ele>
        <time>2014-07-02T19:01:32Z</time>
      </trkpt>
      <trkpt lat="46.45239" lon="6.04973">
        <ele>1146.51</ele>
        <time>2014-07-02T19:01:38Z</time>
      </trkpt>
      <trkpt lat="46.45207" lon="6.04947">
        <ele>1144.59</ele>
        <time>2014-07-02T19:01:43Z</time>
      </trkpt>
      <trkpt lat="46.45166" lon="6.04875">
        <ele>1141.7</ele>
        <time>2014-07-02T19:01:51Z</time>
      </trkpt>
      <trkpt lat="46.45133" lon="6.04783">
        <ele>1140.26</ele>
        <time>2014-07-02T19:02:03Z</time>
      </trkpt>
      <trkpt lat="46.45114" lon="6.04737">
        <ele>1141.22</ele>
        <time>2014-07-02T19:02:16Z</time>
      </trkpt>
      <trkpt lat="46.45091" lon="6.0469">
        <ele>1141.22</ele>
        <time>2014-07-02T19:02:29Z</time>
      </trkpt>
      <trkpt lat="46.45063" lon="6.04654">
        <ele>1140.74</ele>
        <time>2014-07-02T19:02:42Z</time>
      </trkpt>
      <trkpt lat="46.45049" lon="6.04662">
        <ele>1140.26</ele>
        <time>2014-07-02T19:02:49Z</time>
      </trkpt>
      <trkpt lat="46.45044" lon="6.04675">
        <ele>1140.74</ele>
        <time>2014-07-02T19:03:00Z</time>
      </trkpt>
      <trkpt lat="46.45046" lon="6.04676">
        <ele>1140.74</ele>
        <time>2014-07-02T19:03:18Z</time>
      </trkpt>
      <trkpt lat="46.45048" lon="6.04677">
        <ele>1140.74</ele>
        <time>2014-07-02T19:03:56Z</time>
      </trkpt>
      <trkpt lat="46.45049" lon="6.04678">
        <ele>1140.26</ele>
        <time>2014-07-02T19:04:31Z</time>
      </trkpt>
      <trkpt lat="46.4505" lon="6.04676">
        <ele>1140.26</ele>
        <time>2014-07-02T19:05:13Z</time>
      </trkpt>
      <trkpt lat="46.45049" lon="6.04675">
        <ele>1140.74</ele>
        <time>2014-07-02T19:05:51Z</time>
      </trkpt>
      <trkpt lat="46.45051" lon="6.04674">
        <ele>1140.74</ele>
        <time>2014-07-02T19:06:04Z</time>
      </trkpt>
      <trkpt lat="46.45051" lon="6.04635">
        <ele>1140.26</ele>
        <time>2014-07-02T19:06:16Z</time>
      </trkpt>
      <trkpt lat="46.45044" lon="6.04622">
        <ele>1140.26</ele>
        <time>2014-07-02T19:06:19Z</time>
      </trkpt>
      <trkpt lat="46.45031" lon="6.04598">
        <ele>1140.26</ele>
        <time>2014-07-02T19:06:24Z</time>
      </trkpt>
      <trkpt lat="46.44979" lon="6.04546">
        <ele>1139.3</ele>
        <time>2014-07-02T19:06:37Z</time>
      </trkpt>
      <trkpt lat="46.44929" lon="6.04524">
        <ele>1140.26</ele>
        <time>2014-07-02T19:06:48Z</time>
      </trkpt>
      <trkpt lat="46.44883" lon="6.04495">
        <ele>1140.74</ele>
        <time>2014-07-02T19:07:01Z</time>
      </trkpt>
      <trkpt lat="46.44818" lon="6.04461">
        <ele>1143.14</ele>
        <time>2014-07-02T19:07:19Z</time>
      </trkpt>
      <trkpt lat="46.44764" lon="6.04444">
        <ele>1145.07</ele>
        <time>2014-07-02T19:07:35Z</time>
      </trkpt>
      <trkpt lat="46.44705" lon="6.04431">
        <ele>1146.99</ele>
        <time>2014-07-02T19:07:53Z</time>
      </trkpt>
      <trkpt lat="46.44694" lon="6.04441">
        <ele>1146.99</ele>
        <time>2014-07-02T19:08:01Z</time>
      </trkpt>
      <trkpt lat="46.44693" lon="6.04443">
        <ele>1147.47</ele>
        <time>2014-07-02T19:08:29Z</time>
      </trkpt>
      <trkpt lat="46.4469" lon="6.04441">
        <ele>1147.47</ele>
        <time>2014-07-02T19:08:50Z</time>
      </trkpt>
      <trkpt lat="46.44688" lon="6.04439">
        <ele>1147.47</ele>
        <time>2014-07-02T19:09:10Z</time>
      </trkpt>
      <trkpt lat="46.44686" lon="6.04439">
        <ele>1147.95</ele>
        <time>2014-07-02T19:09:26Z</time>
      </trkpt>
      <trkpt lat="46.44697" lon="6.04439">
        <ele>1147.47</ele>
        <time>2014-07-02T19:09:33Z</time>
      </trkpt>
      <trkpt lat="46.44715" lon="6.04441">
        <ele>1147.47</ele>
        <time>2014-07-02T19:09:40Z</time>
      </trkpt>
      <trkpt lat="46.44723" lon="6.04444">
        <ele>1147.47</ele>
        <time>2014-07-02T19:09:42Z</time>
      </trkpt>
      <trkpt lat="46.44779" lon="6.04458">
        <ele>1146.03</ele>
        <time>2014-07-02T19:09:53Z</time>
      </trkpt>
      <trkpt lat="46.44858" lon="6.04488">
        <ele>1142.66</ele>
        <time>2014-07-02T19:10:05Z</time>
      </trkpt>
      <trkpt lat="46.44956" lon="6.04544">
        <ele>1140.74</ele>
        <time>2014-07-02T19:10:20Z</time>
      </trkpt>
      <trkpt lat="46.44976" lon="6.04553">
        <ele>1140.26</ele>
        <time>2014-07-02T19:10:23Z</time>
      </trkpt>
      <trkpt lat="46.45039" lon="6.04628">
        <ele>1141.7</ele>
        <time>2014-07-02T19:10:37Z</time>
      </trkpt>
      <trkpt lat="46.45042" lon="6.04633">
        <ele>1141.7</ele>
        <time>2014-07-02T19:10:38Z</time>
      </trkpt>
      <trkpt lat="46.45046" lon="6.0467">
        <ele>1141.22</ele>
        <time>2014-07-02T19:10:47Z</time>
      </trkpt>
      <trkpt lat="46.45044" lon="6.04669">
        <ele>1141.22</ele>
        <time>2014-07-02T19:11:03Z</time>
      </trkpt>
      <trkpt lat="46.4504" lon="6.04671">
        <ele>1141.22</ele>
        <time>2014-07-02T19:11:07Z</time>
      </trkpt>
      <trkpt lat="46.45016" lon="6.04697">
        <ele>1141.22</ele>
        <time>2014-07-02T19:11:19Z</time>
      </trkpt>
      <trkpt lat="46.45003" lon="6.04719">
        <ele>1141.22</ele>
        <time>2014-07-02T19:11:27Z</time>
      </trkpt>
      <trkpt lat="46.45007" lon="6.0473">
        <ele>1141.7</ele>
        <time>2014-07-02T19:11:37Z</time>
      </trkpt>
      <trkpt lat="46.45006" lon="6.04729">
        <ele>1141.7</ele>
        <time>2014-07-02T19:12:14Z</time>
      </trkpt>
      <trkpt lat="46.45007" lon="6.0473">
        <ele>1141.7</ele>
        <time>2014-07-02T19:12:57Z</time>
      </trkpt>
      <trkpt lat="46.45008" lon="6.04728">
        <ele>1141.7</ele>
        <time>2014-07-02T19:13:47Z</time>
      </trkpt>
      <trkpt lat="46.45007" lon="6.04727">
        <ele>1141.7</ele>
        <time>2014-07-02T19:14:26Z</time>
      </trkpt>
      <trkpt lat="46.45008" lon="6.04726">
        <ele>1142.18</ele>
        <time>2014-07-02T19:15:14Z</time>
      </trkpt>
      <trkpt lat="46.45008" lon="6.04728">
        <ele>1142.18</ele>
        <time>2014-07-02T19:15:50Z</time>
      </trkpt>
      <trkpt lat="46.45007" lon="6.04728">
        <ele>1142.18</ele>
        <time>2014-07-02T19:16:39Z</time>
      </trkpt>
      <trkpt lat="46.45007" lon="6.04727">
        <ele>1142.66</ele>
        <time>2014-07-02T19:17:25Z</time>
      </trkpt>
      <trkpt lat="46.45007" lon="6.04726">
        <ele>1142.66</ele>
        <time>2014-07-02T19:18:10Z</time>
      </trkpt>
      <trkpt lat="46.45007" lon="6.04728">
        <ele>1142.66</ele>
        <time>2014-07-02T19:19:02Z</time>
      </trkpt>
      <trkpt lat="46.45006" lon="6.04728">
        <ele>1142.66</ele>
        <time>2014-07-02T19:19:38Z</time>
      </trkpt>
      <trkpt lat="46.45007" lon="6.04727">
        <ele>1142.66</ele>
        <time>2014-07-02T19:20:24Z</time>
      </trkpt>
      <trkpt lat="46.45007" lon="6.04729">
        <ele>1142.66</ele>
        <time>2014-07-02T19:21:14Z</time>
      </trkpt>
      <trkpt lat="46.45007" lon="6.0473">
        <ele>1142.66</ele>
        <time>2014-07-02T19:21:47Z</time>
      </trkpt>
      <trkpt lat="46.45008" lon="6.04731">
        <ele>1142.66</ele>
        <time>2014-07-02T19:22:23Z</time>
      </trkpt>
      <trkpt lat="46.45009" lon="6.0473">
        <ele>1142.66</ele>
        <time>2014-07-02T19:22:51Z</time>
      </trkpt>
      <trkpt lat="46.45007" lon="6.0473">
        <ele>1142.66</ele>
        <time>2014-07-02T19:23:15Z</time>
      </trkpt>
      <trkpt lat="46.45009" lon="6.04731">
        <ele>1142.66</ele>
        <time>2014-07-02T19:23:56Z</time>
      </trkpt>
      <trkpt lat="46.45008" lon="6.04732">
        <ele>1142.18</ele>
        <time>2014-07-02T19:24:12Z</time>
      </trkpt>
      <trkpt lat="46.45008" lon="6.04731">
        <ele>1142.18</ele>
        <time>2014-07-02T19:24:34Z</time>
      </trkpt>
      <trkpt lat="46.45005" lon="6.04727">
        <ele>1142.18</ele>
        <time>2014-07-02T19:24:39Z</time>
      </trkpt>
      <trkpt lat="46.45005" lon="6.04719">
        <ele>1142.18</ele>
        <time>2014-07-02T19:24:44Z</time>
      </trkpt>
      <trkpt lat="46.45034" lon="6.04678">
        <ele>1142.18</ele>
        <time>2014-07-02T19:24:59Z</time>
      </trkpt>
      <trkpt lat="46.45055" lon="6.04648">
        <ele>1142.18</ele>
        <time>2014-07-02T19:25:10Z</time>
      </trkpt>
      <trkpt lat="46.45039" lon="6.04613">
        <ele>1142.18</ele>
        <time>2014-07-02T19:25:20Z</time>
      </trkpt>
      <trkpt lat="46.44986" lon="6.0455">
        <ele>1141.22</ele>
        <time>2014-07-02T19:25:37Z</time>
      </trkpt>
      <trkpt lat="46.44922" lon="6.04523">
        <ele>1141.7</ele>
        <time>2014-07-02T19:25:51Z</time>
      </trkpt>
      <trkpt lat="46.44849" lon="6.04478">
        <ele>1143.14</ele>
        <time>2014-07-02T19:26:08Z</time>
      </trkpt>
      <trkpt lat="46.44787" lon="6.04453">
        <ele>1145.55</ele>
        <time>2014-07-02T19:26:24Z</time>
      </trkpt>
      <trkpt lat="46.44717" lon="6.04434">
        <ele>1147.95</ele>
        <time>2014-07-02T19:26:43Z</time>
      </trkpt>
      <trkpt lat="46.44698" lon="6.04431">
        <ele>1148.43</ele>
        <time>2014-07-02T19:26:49Z</time>
      </trkpt>
      <trkpt lat="46.44698" lon="6.04454">
        <ele>1148.91</ele>
        <time>2014-07-02T19:26:57Z</time>
      </trkpt>
      <trkpt lat="46.447" lon="6.04454">
        <ele>1148.91</ele>
        <time>2014-07-02T19:27:10Z</time>
      </trkpt>
      <trkpt lat="46.447" lon="6.04456">
        <ele>1149.39</ele>
        <time>2014-07-02T19:27:24Z</time>
      </trkpt>
      <trkpt lat="46.447" lon="6.04456">
        <ele>1146.03</ele>
        <time>2014-07-02T19:27:25Z</time>
      </trkpt>
      <trkpt lat="46.447" lon="6.04456">
        <ele>1150.35</ele>
        <time>2014-07-02T19:27:26Z</time>
      </trkpt>
      <trkpt lat="46.44698" lon="6.04454">
        <ele>1151.8</ele>
        <time>2014-07-02T19:27:33Z</time>
      </trkpt>
      <trkpt lat="46.44693" lon="6.04445">
        <ele>1148.43</ele>
        <time>2014-07-02T19:27:42Z</time>
      </trkpt>
      <trkpt lat="46.44685" lon="6.04444">
        <ele>1148.91</ele>
        <time>2014-07-02T19:27:58Z</time>
      </trkpt>
      <trkpt lat="46.44683" lon="6.04457">
        <ele>1148.91</ele>
        <time>2014-07-02T19:28:03Z</time>
      </trkpt>
      <trkpt lat="46.44686" lon="6.04465">
        <ele>1148.43</ele>
        <time>2014-07-02T19:28:14Z</time>
      </trkpt>
      <trkpt lat="46.44688" lon="6.04467">
        <ele>1148.43</ele>
        <time>2014-07-02T19:28:50Z</time>
      </trkpt>
      <trkpt lat="46.44686" lon="6.04467">
        <ele>1148.43</ele>
        <time>2014-07-02T19:29:21Z</time>
      </trkpt>
      <trkpt lat="46.44684" lon="6.04469">
        <ele>1147.95</ele>
        <time>2014-07-02T19:29:51Z</time>
      </trkpt>
      <trkpt lat="46.44679" lon="6.0448">
        <ele>1147.95</ele>
        <time>2014-07-02T19:30:24Z</time>
      </trkpt>
      <trkpt lat="46.44684" lon="6.04472">
        <ele>1147.95</ele>
        <time>2014-07-02T19:30:51Z</time>
      </trkpt>
      <trkpt lat="46.44685" lon="6.04481">
        <ele>1147.95</ele>
        <time>2014-07-02T19:31:28Z</time>
      </trkpt>
      <trkpt lat="46.44683" lon="6.04477">
        <ele>1148.91</ele>
        <time>2014-07-02T19:32:03Z</time>
      </trkpt>
      <trkpt lat="46.44688" lon="6.04472">
        <ele>1147.47</ele>
        <time>2014-07-02T19:32:40Z</time>
      </trkpt>
      <trkpt lat="46.44685" lon="6.04466">
        <ele>1147.47</ele>
        <time>2014-07-02T19:33:08Z</time>
      </trkpt>
      <trkpt lat="46.44679" lon="6.04464">
        <ele>1147.47</ele>
        <time>2014-07-02T19:33:44Z</time>
      </trkpt>
      <trkpt lat="46.44685" lon="6.04475">
        <ele>1146.99</ele>
        <time>2014-07-02T19:34:15Z</time>
      </trkpt>
      <trkpt lat="46.44689" lon="6.04484">
        <ele>1146.99</ele>
        <time>2014-07-02T19:34:50Z</time>
      </trkpt>
      <trkpt lat="46.44692" lon="6.0448">
        <ele>1146.99</ele>
        <time>2014-07-02T19:35:25Z</time>
      </trkpt>
      <trkpt lat="46.44692" lon="6.04488">
        <ele>1146.51</ele>
        <time>2014-07-02T19:36:04Z</time>
      </trkpt>
      <trkpt lat="46.44688" lon="6.04496">
        <ele>1146.99</ele>
        <time>2014-07-02T19:36:42Z</time>
      </trkpt>
      <trkpt lat="46.44689" lon="6.04494">
        <ele>1146.99</ele>
        <time>2014-07-02T19:37:17Z</time>
      </trkpt>
      <trkpt lat="46.44687" lon="6.04471">
        <ele>1146.99</ele>
        <time>2014-07-02T19:37:52Z</time>
      </trkpt>
      <trkpt lat="46.44687" lon="6.04465">
        <ele>1146.99</ele>
        <time>2014-07-02T19:38:29Z</time>
      </trkpt>
      <trkpt lat="46.44691" lon="6.0446">
        <ele>1146.51</ele>
        <time>2014-07-02T19:39:11Z</time>
      </trkpt>
      <trkpt lat="46.44688" lon="6.04462">
        <ele>1146.51</ele>
        <time>2014-07-02T19:39:44Z</time>
      </trkpt>
      <trkpt lat="46.44687" lon="6.04464">
        <ele>1146.51</ele>
        <time>2014-07-02T19:40:14Z</time>
      </trkpt>
      <trkpt lat="46.44685" lon="6.04464">
        <ele>1146.03</ele>
        <time>2014-07-02T19:40:53Z</time>
      </trkpt>
      <trkpt lat="46.44687" lon="6.04462">
        <ele>1145.55</ele>
        <time>2014-07-02T19:41:32Z</time>
      </trkpt>
      <trkpt lat="46.44688" lon="6.04465">
        <ele>1145.55</ele>
        <time>2014-07-02T19:41:56Z</time>
      </trkpt>
      <trkpt lat="46.45011" lon="6.04701">
        <ele>1130.17</ele>
        <time>2014-07-03T08:31:00Z</time>
      </trkpt>
      <trkpt lat="46.45012" lon="6.047">
        <ele>1129.69</ele>
        <time>2014-07-03T08:31:01Z</time>
      </trkpt>
      <trkpt lat="46.45012" lon="6.04699">
        <ele>1090.75</ele>
        <time>2014-07-03T08:31:02Z</time>
      </trkpt>
      <trkpt lat="46.45014" lon="6.04697">
        <ele>1089.31</ele>
        <time>2014-07-03T08:31:05Z</time>
      </trkpt>
      <trkpt lat="46.45016" lon="6.04701">
        <ele>1133.05</ele>
        <time>2014-07-03T08:31:22Z</time>
      </trkpt>
      <trkpt lat="46.45016" lon="6.04701">
        <ele>1133.05</ele>
        <time>2014-07-03T08:31:23Z</time>
      </trkpt>
      <trkpt lat="46.45022" lon="6.04698">
        <ele>1132.09</ele>
        <time>2014-07-03T08:31:55Z</time>
      </trkpt>
      <trkpt lat="46.45019" lon="6.04697">
        <ele>1132.57</ele>
        <time>2014-07-03T08:32:40Z</time>
      </trkpt>
      <trkpt lat="46.45018" lon="6.04698">
        <ele>1133.05</ele>
        <time>2014-07-03T08:33:20Z</time>
      </trkpt>
      <trkpt lat="46.45017" lon="6.04697">
        <ele>1133.05</ele>
        <time>2014-07-03T08:34:05Z</time>
      </trkpt>
      <trkpt lat="46.45019" lon="6.04697">
        <ele>1133.53</ele>
        <time>2014-07-03T08:34:43Z</time>
      </trkpt>
      <trkpt lat="46.45018" lon="6.04696">
        <ele>1133.53</ele>
        <time>2014-07-03T08:35:20Z</time>
      </trkpt>
      <trkpt lat="46.4502" lon="6.04697">
        <ele>1133.53</ele>
        <time>2014-07-03T08:35:55Z</time>
      </trkpt>
      <trkpt lat="46.45021" lon="6.04699">
        <ele>1134.01</ele>
        <time>2014-07-03T08:36:19Z</time>
      </trkpt>
      <trkpt lat="46.45018" lon="6.04694">
        <ele>1134.01</ele>
        <time>2014-07-03T08:36:49Z</time>
      </trkpt>
      <trkpt lat="46.45016" lon="6.04694">
        <ele>1134.49</ele>
        <time>2014-07-03T08:37:13Z</time>
      </trkpt>
      <trkpt lat="46.45016" lon="6.04691">
        <ele>1134.49</ele>
        <time>2014-07-03T08:37:30Z</time>
      </trkpt>
      <trkpt lat="46.45013" lon="6.04696">
        <ele>1134.01</ele>
        <time>2014-07-03T08:37:35Z</time>
      </trkpt>
      <trkpt lat="46.45005" lon="6.04728">
        <ele>1134.97</ele>
        <time>2014-07-03T08:37:47Z</time>
      </trkpt>
      <trkpt lat="46.45014" lon="6.04734">
        <ele>1134.97</ele>
        <time>2014-07-03T08:37:58Z</time>
      </trkpt>
      <trkpt lat="46.45016" lon="6.04738">
        <ele>1134.97</ele>
        <time>2014-07-03T08:38:05Z</time>
      </trkpt>
      <trkpt lat="46.4501" lon="6.04742">
        <ele>1135.45</ele>
        <time>2014-07-03T08:38:10Z</time>
      </trkpt>
      <trkpt lat="46.45003" lon="6.04739">
        <ele>1135.45</ele>
        <time>2014-07-03T08:38:16Z</time>
      </trkpt>
      <trkpt lat="46.45001" lon="6.04731">
        <ele>1135.45</ele>
        <time>2014-07-03T08:38:29Z</time>
      </trkpt>
      <trkpt lat="46.45006" lon="6.04717">
        <ele>1134.97</ele>
        <time>2014-07-03T08:38:35Z</time>
      </trkpt>
      <trkpt lat="46.45023" lon="6.04691">
        <ele>1134.97</ele>
        <time>2014-07-03T08:38:54Z</time>
      </trkpt>
      <trkpt lat="46.45024" lon="6.04687">
        <ele>1134.97</ele>
        <time>2014-07-03T08:39:21Z</time>
      </trkpt>
      <trkpt lat="46.45024" lon="6.04692">
        <ele>1134.97</ele>
        <time>2014-07-03T08:39:42Z</time>
      </trkpt>
      <trkpt lat="46.45026" lon="6.04691">
        <ele>1134.97</ele>
        <time>2014-07-03T08:40:00Z</time>
      </trkpt>
      <trkpt lat="46.45028" lon="6.04689">
        <ele>1134.97</ele>
        <time>2014-07-03T08:40:02Z</time>
      </trkpt>
      <trkpt lat="46.45057" lon="6.04663">
        <ele>1135.45</ele>
        <time>2014-07-03T08:40:17Z</time>
      </trkpt>
      <trkpt lat="46.45083" lon="6.04693">
        <ele>1135.45</ele>
        <time>2014-07-03T08:40:29Z</time>
      </trkpt>
      <trkpt lat="46.45119" lon="6.04759">
        <ele>1135.94</ele>
        <time>2014-07-03T08:40:48Z</time>
      </trkpt>
      <trkpt lat="46.45127" lon="6.04777">
        <ele>1135.94</ele>
        <time>2014-07-03T08:40:54Z</time>
      </trkpt>
      <trkpt lat="46.45139" lon="6.04773">
        <ele>1135.45</ele>
        <time>2014-07-03T08:40:59Z</time>
      </trkpt>
      <trkpt lat="46.45172" lon="6.0478">
        <ele>1137.38</ele>
        <time>2014-07-03T08:41:13Z</time>
      </trkpt>
      <trkpt lat="46.45221" lon="6.04815">
        <ele>1138.82</ele>
        <time>2014-07-03T08:41:34Z</time>
      </trkpt>
      <trkpt lat="46.45269" lon="6.04839">
        <ele>1139.78</ele>
        <time>2014-07-03T08:41:53Z</time>
      </trkpt>
      <trkpt lat="46.45316" lon="6.04847">
        <ele>1140.74</ele>
        <time>2014-07-03T08:42:10Z</time>
      </trkpt>
      <trkpt lat="46.45363" lon="6.04843">
        <ele>1141.7</ele>
        <time>2014-07-03T08:42:25Z</time>
      </trkpt>
      <trkpt lat="46.45423" lon="6.04832">
        <ele>1142.66</ele>
        <time>2014-07-03T08:42:44Z</time>
      </trkpt>
      <trkpt lat="46.45461" lon="6.04822">
        <ele>1144.11</ele>
        <time>2014-07-03T08:42:57Z</time>
      </trkpt>
      <trkpt lat="46.45511" lon="6.04798">
        <ele>1145.07</ele>
        <time>2014-07-03T08:43:14Z</time>
      </trkpt>
      <trkpt lat="46.45549" lon="6.04764">
        <ele>1146.03</ele>
        <time>2014-07-03T08:43:28Z</time>
      </trkpt>
      <trkpt lat="46.45591" lon="6.04723">
        <ele>1146.03</ele>
        <time>2014-07-03T08:43:44Z</time>
      </trkpt>
      <trkpt lat="46.4565" lon="6.04679">
        <ele>1145.07</ele>
        <time>2014-07-03T08:43:59Z</time>
      </trkpt>
      <trkpt lat="46.45728" lon="6.04622">
        <ele>1144.11</ele>
        <time>2014-07-03T08:44:15Z</time>
      </trkpt>
      <trkpt lat="46.45783" lon="6.04579">
        <ele>1146.51</ele>
        <time>2014-07-03T08:44:30Z</time>
      </trkpt>
      <trkpt lat="46.4581" lon="6.04535">
        <ele>1148.91</ele>
        <time>2014-07-03T08:44:44Z</time>
      </trkpt>
      <trkpt lat="46.45837" lon="6.04476">
        <ele>1149.87</ele>
        <time>2014-07-03T08:45:00Z</time>
      </trkpt>
      <trkpt lat="46.45872" lon="6.04386">
        <ele>1150.35</ele>
        <time>2014-07-03T08:45:18Z</time>
      </trkpt>
      <trkpt lat="46.45915" lon="6.0434">
        <ele>1153.24</ele>
        <time>2014-07-03T08:45:35Z</time>
      </trkpt>
      <trkpt lat="46.4595" lon="6.04281">
        <ele>1155.16</ele>
        <time>2014-07-03T08:45:53Z</time>
      </trkpt>
      <trkpt lat="46.45963" lon="6.04216">
        <ele>1154.2</ele>
        <time>2014-07-03T08:46:05Z</time>
      </trkpt>
      <trkpt lat="46.45977" lon="6.04142">
        <ele>1151.32</ele>
        <time>2014-07-03T08:46:13Z</time>
      </trkpt>
      <trkpt lat="46.46001" lon="6.04074">
        <ele>1147.47</ele>
        <time>2014-07-03T08:46:19Z</time>
      </trkpt>
      <trkpt lat="46.4601" lon="6.04048">
        <ele>1146.51</ele>
        <time>2014-07-03T08:46:21Z</time>
      </trkpt>
      <trkpt lat="46.4603" lon="6.03997">
        <ele>1144.11</ele>
        <time>2014-07-03T08:46:25Z</time>
      </trkpt>
      <trkpt lat="46.46041" lon="6.03974">
        <ele>1142.66</ele>
        <time>2014-07-03T08:46:27Z</time>
      </trkpt>
      <trkpt lat="46.4608" lon="6.03939">
        <ele>1139.78</ele>
        <time>2014-07-03T08:46:32Z</time>
      </trkpt>
      <trkpt lat="46.46097" lon="6.03935">
        <ele>1138.34</ele>
        <time>2014-07-03T08:46:34Z</time>
      </trkpt>
      <trkpt lat="46.46135" lon="6.03875">
        <ele>1134.97</ele>
        <time>2014-07-03T08:46:41Z</time>
      </trkpt>
      <trkpt lat="46.46143" lon="6.03806">
        <ele>1132.09</ele>
        <time>2014-07-03T08:46:46Z</time>
      </trkpt>
      <trkpt lat="46.46161" lon="6.03759">
        <ele>1132.09</ele>
        <time>2014-07-03T08:46:50Z</time>
      </trkpt>
      <trkpt lat="46.46222" lon="6.03675">
        <ele>1132.09</ele>
        <time>2014-07-03T08:47:02Z</time>
      </trkpt>
      <trkpt lat="46.46265" lon="6.0361">
        <ele>1129.69</ele>
        <time>2014-07-03T08:47:11Z</time>
      </trkpt>
      <trkpt lat="46.46286" lon="6.03567">
        <ele>1128.73</ele>
        <time>2014-07-03T08:47:16Z</time>
      </trkpt>
      <trkpt lat="46.46296" lon="6.03519">
        <ele>1128.73</ele>
        <time>2014-07-03T08:47:21Z</time>
      </trkpt>
      <trkpt lat="46.4629" lon="6.0337">
        <ele>1126.32</ele>
        <time>2014-07-03T08:47:37Z</time>
      </trkpt>
      <trkpt lat="46.46289" lon="6.03353">
        <ele>1125.36</ele>
        <time>2014-07-03T08:47:39Z</time>
      </trkpt>
      <trkpt lat="46.46285" lon="6.03315">
        <ele>1124.4</ele>
        <time>2014-07-03T08:47:43Z</time>
      </trkpt>
      <trkpt lat="46.4629" lon="6.03248">
        <ele>1121.03</ele>
        <time>2014-07-03T08:47:50Z</time>
      </trkpt>
      <trkpt lat="46.46276" lon="6.03201">
        <ele>1121.52</ele>
        <time>2014-07-03T08:47:56Z</time>
      </trkpt>
      <trkpt lat="46.46275" lon="6.03195">
        <ele>1121.52</ele>
        <time>2014-07-03T08:47:57Z</time>
      </trkpt>
      <trkpt lat="46.46252" lon="6.03141">
        <ele>1120.55</ele>
        <time>2014-07-03T08:48:06Z</time>
      </trkpt>
      <trkpt lat="46.46223" lon="6.03097">
        <ele>1118.63</ele>
        <time>2014-07-03T08:48:14Z</time>
      </trkpt>
      <trkpt lat="46.46225" lon="6.03053">
        <ele>1117.19</ele>
        <time>2014-07-03T08:48:20Z</time>
      </trkpt>
      <trkpt lat="46.46237" lon="6.03036">
        <ele>1117.19</ele>
        <time>2014-07-03T08:48:23Z</time>
      </trkpt>
      <trkpt lat="46.46306" lon="6.02973">
        <ele>1113.82</ele>
        <time>2014-07-03T08:48:37Z</time>
      </trkpt>
      <trkpt lat="46.46359" lon="6.02944">
        <ele>1110.94</ele>
        <time>2014-07-03T08:48:45Z</time>
      </trkpt>
      <trkpt lat="46.46408" lon="6.02925">
        <ele>1107.1</ele>
        <time>2014-07-03T08:48:51Z</time>
      </trkpt>
      <trkpt lat="46.46425" lon="6.02923">
        <ele>1106.13</ele>
        <time>2014-07-03T08:48:53Z</time>
      </trkpt>
      <trkpt lat="46.46439" lon="6.02926">
        <ele>1105.17</ele>
        <time>2014-07-03T08:48:55Z</time>
      </trkpt>
      <trkpt lat="46.46461" lon="6.02961">
        <ele>1102.77</ele>
        <time>2014-07-03T08:48:59Z</time>
      </trkpt>
      <trkpt lat="46.46464" lon="6.02972">
        <ele>1102.29</ele>
        <time>2014-07-03T08:49:00Z</time>
      </trkpt>
      <trkpt lat="46.46473" lon="6.03035">
        <ele>1101.33</ele>
        <time>2014-07-03T08:49:06Z</time>
      </trkpt>
      <trkpt lat="46.46497" lon="6.03076">
        <ele>1097.96</ele>
        <time>2014-07-03T08:49:11Z</time>
      </trkpt>
      <trkpt lat="46.46506" lon="6.03078">
        <ele>1097.48</ele>
        <time>2014-07-03T08:49:12Z</time>
      </trkpt>
      <trkpt lat="46.46523" lon="6.0308">
        <ele>1096.04</ele>
        <time>2014-07-03T08:49:14Z</time>
      </trkpt>
      <trkpt lat="46.46546" lon="6.03097">
        <ele>1094.6</ele>
        <time>2014-07-03T08:49:17Z</time>
      </trkpt>
      <trkpt lat="46.46554" lon="6.03105">
        <ele>1093.64</ele>
        <time>2014-07-03T08:49:18Z</time>
      </trkpt>
      <trkpt lat="46.46571" lon="6.03117">
        <ele>1092.2</ele>
        <time>2014-07-03T08:49:20Z</time>
      </trkpt>
      <trkpt lat="46.46602" lon="6.03158">
        <ele>1089.31</ele>
        <time>2014-07-03T08:49:25Z</time>
      </trkpt>
      <trkpt lat="46.46639" lon="6.03172">
        <ele>1085.47</ele>
        <time>2014-07-03T08:49:31Z</time>
      </trkpt>
      <trkpt lat="46.46648" lon="6.03152">
        <ele>1084.5</ele>
        <time>2014-07-03T08:49:33Z</time>
      </trkpt>
      <trkpt lat="46.4665" lon="6.0314">
        <ele>1084.02</ele>
        <time>2014-07-03T08:49:34Z</time>
      </trkpt>
      <trkpt lat="46.46666" lon="6.03091">
        <ele>1081.62</ele>
        <time>2014-07-03T08:49:38Z</time>
      </trkpt>
      <trkpt lat="46.467" lon="6.0307">
        <ele>1079.22</ele>
        <time>2014-07-03T08:49:42Z</time>
      </trkpt>
      <trkpt lat="46.4676" lon="6.03066">
        <ele>1074.89</ele>
        <time>2014-07-03T08:49:48Z</time>
      </trkpt>
      <trkpt lat="46.46803" lon="6.03067">
        <ele>1072.49</ele>
        <time>2014-07-03T08:49:52Z</time>
      </trkpt>
      <trkpt lat="46.46857" lon="6.03087">
        <ele>1069.12</ele>
        <time>2014-07-03T08:49:57Z</time>
      </trkpt>
      <trkpt lat="46.46902" lon="6.03109">
        <ele>1065.28</ele>
        <time>2014-07-03T08:50:02Z</time>
      </trkpt>
      <trkpt lat="46.46918" lon="6.03127">
        <ele>1063.84</ele>
        <time>2014-07-03T08:50:04Z</time>
      </trkpt>
      <trkpt lat="46.46972" lon="6.03132">
        <ele>1059.99</ele>
        <time>2014-07-03T08:50:10Z</time>
      </trkpt>
      <trkpt lat="46.47008" lon="6.03109">
        <ele>1057.59</ele>
        <time>2014-07-03T08:50:14Z</time>
      </trkpt>
      <trkpt lat="46.47055" lon="6.03047">
        <ele>1053.74</ele>
        <time>2014-07-03T08:50:20Z</time>
      </trkpt>
      <trkpt lat="46.47109" lon="6.03007">
        <ele>1049.42</ele>
        <time>2014-07-03T08:50:26Z</time>
      </trkpt>
      <trkpt lat="46.4713" lon="6.03007">
        <ele>1048.45</ele>
        <time>2014-07-03T08:50:28Z</time>
      </trkpt>
      <trkpt lat="46.4714" lon="6.03007">
        <ele>1047.97</ele>
        <time>2014-07-03T08:50:29Z</time>
      </trkpt>
      <trkpt lat="46.47193" lon="6.02994">
        <ele>1044.13</ele>
        <time>2014-07-03T08:50:34Z</time>
      </trkpt>
      <trkpt lat="46.47204" lon="6.02992">
        <ele>1043.65</ele>
        <time>2014-07-03T08:50:35Z</time>
      </trkpt>
      <trkpt lat="46.47246" lon="6.02974">
        <ele>1040.28</ele>
        <time>2014-07-03T08:50:39Z</time>
      </trkpt>
      <trkpt lat="46.47266" lon="6.02959">
        <ele>1039.32</ele>
        <time>2014-07-03T08:50:41Z</time>
      </trkpt>
      <trkpt lat="46.47298" lon="6.02922">
        <ele>1036.92</ele>
        <time>2014-07-03T08:50:45Z</time>
      </trkpt>
      <trkpt lat="46.4731" lon="6.02902">
        <ele>1035</ele>
        <time>2014-07-03T08:50:47Z</time>
      </trkpt>
      <trkpt lat="46.47322" lon="6.02885">
        <ele>1033.55</ele>
        <time>2014-07-03T08:50:49Z</time>
      </trkpt>
      <trkpt lat="46.47367" lon="6.02882">
        <ele>1030.67</ele>
        <time>2014-07-03T08:50:55Z</time>
      </trkpt>
      <trkpt lat="46.47396" lon="6.02893">
        <ele>1028.75</ele>
        <time>2014-07-03T08:50:58Z</time>
      </trkpt>
      <trkpt lat="46.47429" lon="6.02912">
        <ele>1025.86</ele>
        <time>2014-07-03T08:51:02Z</time>
      </trkpt>
      <trkpt lat="46.47458" lon="6.02965">
        <ele>1024.9</ele>
        <time>2014-07-03T08:51:06Z</time>
      </trkpt>
      <trkpt lat="46.47486" lon="6.02994">
        <ele>1021.06</ele>
        <time>2014-07-03T08:51:10Z</time>
      </trkpt>
      <trkpt lat="46.47492" lon="6.03002">
        <ele>1020.58</ele>
        <time>2014-07-03T08:51:11Z</time>
      </trkpt>
      <trkpt lat="46.47502" lon="6.03037">
        <ele>1018.65</ele>
        <time>2014-07-03T08:51:14Z</time>
      </trkpt>
      <trkpt lat="46.47513" lon="6.03105">
        <ele>1015.77</ele>
        <time>2014-07-03T08:51:19Z</time>
      </trkpt>
      <trkpt lat="46.47524" lon="6.03173">
        <ele>1012.89</ele>
        <time>2014-07-03T08:51:24Z</time>
      </trkpt>
      <trkpt lat="46.47541" lon="6.03201">
        <ele>1011.44</ele>
        <time>2014-07-03T08:51:27Z</time>
      </trkpt>
      <trkpt lat="46.47576" lon="6.03216">
        <ele>1009.04</ele>
        <time>2014-07-03T08:51:31Z</time>
      </trkpt>
      <trkpt lat="46.4763" lon="6.03216">
        <ele>1005.2</ele>
        <time>2014-07-03T08:51:40Z</time>
      </trkpt>
      <trkpt lat="46.47635" lon="6.03217">
        <ele>1005.2</ele>
        <time>2014-07-03T08:51:49Z</time>
      </trkpt>
      <trkpt lat="46.47637" lon="6.03216">
        <ele>1004.72</ele>
        <time>2014-07-03T08:52:10Z</time>
      </trkpt>
      <trkpt lat="46.47638" lon="6.03216">
        <ele>1005.2</ele>
        <time>2014-07-03T08:52:38Z</time>
      </trkpt>
      <trkpt lat="46.4764" lon="6.03214">
        <ele>1005.68</ele>
        <time>2014-07-03T08:53:08Z</time>
      </trkpt>
      <trkpt lat="46.47665" lon="6.0321">
        <ele>1002.79</ele>
        <time>2014-07-03T08:53:15Z</time>
      </trkpt>
      <trkpt lat="46.47723" lon="6.03207">
        <ele>999.43</ele>
        <time>2014-07-03T08:53:24Z</time>
      </trkpt>
      <trkpt lat="46.47764" lon="6.03203">
        <ele>996.54</ele>
        <time>2014-07-03T08:53:29Z</time>
      </trkpt>
      <trkpt lat="46.47821" lon="6.03192">
        <ele>992.7</ele>
        <time>2014-07-03T08:53:35Z</time>
      </trkpt>
      <trkpt lat="46.47872" lon="6.03176">
        <ele>989.33</ele>
        <time>2014-07-03T08:53:40Z</time>
      </trkpt>
      <trkpt lat="46.47882" lon="6.03171">
        <ele>988.85</ele>
        <time>2014-07-03T08:53:41Z</time>
      </trkpt>
      <trkpt lat="46.47916" lon="6.03137">
        <ele>985.97</ele>
        <time>2014-07-03T08:53:45Z</time>
      </trkpt>
      <trkpt lat="46.47929" lon="6.03114">
        <ele>984.53</ele>
        <time>2014-07-03T08:53:47Z</time>
      </trkpt>
      <trkpt lat="46.47975" lon="6.03084">
        <ele>981.16</ele>
        <time>2014-07-03T08:53:52Z</time>
      </trkpt>
      <trkpt lat="46.48006" lon="6.03086">
        <ele>979.24</ele>
        <time>2014-07-03T08:53:55Z</time>
      </trkpt>
      <trkpt lat="46.48016" lon="6.03091">
        <ele>978.28</ele>
        <time>2014-07-03T08:53:56Z</time>
      </trkpt>
      <trkpt lat="46.48079" lon="6.03126">
        <ele>974.43</ele>
        <time>2014-07-03T08:54:02Z</time>
      </trkpt>
      <trkpt lat="46.48137" lon="6.03166">
        <ele>970.59</ele>
        <time>2014-07-03T08:54:08Z</time>
      </trkpt>
      <trkpt lat="46.48146" lon="6.03172">
        <ele>970.11</ele>
        <time>2014-07-03T08:54:09Z</time>
      </trkpt>
      <trkpt lat="46.48195" lon="6.03156">
        <ele>966.26</ele>
        <time>2014-07-03T08:54:16Z</time>
      </trkpt>
      <trkpt lat="46.48198" lon="6.0313">
        <ele>964.82</ele>
        <time>2014-07-03T08:54:18Z</time>
      </trkpt>
      <trkpt lat="46.48174" lon="6.03039">
        <ele>960.49</ele>
        <time>2014-07-03T08:54:25Z</time>
      </trkpt>
      <trkpt lat="46.4813" lon="6.02974">
        <ele>956.65</ele>
        <time>2014-07-03T08:54:31Z</time>
      </trkpt>
      <trkpt lat="46.48122" lon="6.02964">
        <ele>955.69</ele>
        <time>2014-07-03T08:54:32Z</time>
      </trkpt>
      <trkpt lat="46.48079" lon="6.02934">
        <ele>952.32</ele>
        <time>2014-07-03T08:54:37Z</time>
      </trkpt>
      <trkpt lat="46.48071" lon="6.02933">
        <ele>951.84</ele>
        <time>2014-07-03T08:54:38Z</time>
      </trkpt>
      <trkpt lat="46.48036" lon="6.02927">
        <ele>948.96</ele>
        <time>2014-07-03T08:54:43Z</time>
      </trkpt>
      <trkpt lat="46.48023" lon="6.02917">
        <ele>948</ele>
        <time>2014-07-03T08:54:46Z</time>
      </trkpt>
      <trkpt lat="46.48018" lon="6.02924">
        <ele>948</ele>
        <time>2014-07-03T08:54:53Z</time>
      </trkpt>
      <trkpt lat="46.4802" lon="6.02921">
        <ele>948</ele>
        <time>2014-07-03T08:55:02Z</time>
      </trkpt>
      <trkpt lat="46.4801" lon="6.02903">
        <ele>948</ele>
        <time>2014-07-03T08:55:09Z</time>
      </trkpt>
      <trkpt lat="46.48003" lon="6.02895">
        <ele>946.56</ele>
        <time>2014-07-03T08:55:11Z</time>
      </trkpt>
      <trkpt lat="46.47981" lon="6.02865">
        <ele>945.11</ele>
        <time>2014-07-03T08:55:16Z</time>
      </trkpt>
      <trkpt lat="46.47948" lon="6.02819">
        <ele>941.75</ele>
        <time>2014-07-03T08:55:22Z</time>
      </trkpt>
      <trkpt lat="46.47895" lon="6.02764">
        <ele>938.38</ele>
        <time>2014-07-03T08:55:29Z</time>
      </trkpt>
      <trkpt lat="46.4785" lon="6.02734">
        <ele>934.54</ele>
        <time>2014-07-03T08:55:34Z</time>
      </trkpt>
      <trkpt lat="46.47819" lon="6.02708">
        <ele>932.62</ele>
        <time>2014-07-03T08:55:38Z</time>
      </trkpt>
      <trkpt lat="46.47806" lon="6.02698">
        <ele>931.17</ele>
        <time>2014-07-03T08:55:40Z</time>
      </trkpt>
      <trkpt lat="46.47793" lon="6.02692">
        <ele>930.21</ele>
        <time>2014-07-03T08:55:42Z</time>
      </trkpt>
      <trkpt lat="46.47779" lon="6.02664">
        <ele>927.81</ele>
        <time>2014-07-03T08:55:46Z</time>
      </trkpt>
      <trkpt lat="46.47804" lon="6.02651">
        <ele>924.93</ele>
        <time>2014-07-03T08:55:51Z</time>
      </trkpt>
      <trkpt lat="46.4782" lon="6.02668">
        <ele>923.48</ele>
        <time>2014-07-03T08:55:54Z</time>
      </trkpt>
      <trkpt lat="46.47874" lon="6.02692">
        <ele>920.12</ele>
        <time>2014-07-03T08:56:00Z</time>
      </trkpt>
      <trkpt lat="46.47924" lon="6.02705">
        <ele>916.75</ele>
        <time>2014-07-03T08:56:05Z</time>
      </trkpt>
      <trkpt lat="46.47953" lon="6.02715">
        <ele>914.83</ele>
        <time>2014-07-03T08:56:08Z</time>
      </trkpt>
      <trkpt lat="46.47984" lon="6.0274">
        <ele>912.91</ele>
        <time>2014-07-03T08:56:12Z</time>
      </trkpt>
      <trkpt lat="46.47991" lon="6.02748">
        <ele>911.95</ele>
        <time>2014-07-03T08:56:13Z</time>
      </trkpt>
      <trkpt lat="46.48031" lon="6.02754">
        <ele>909.06</ele>
        <time>2014-07-03T08:56:19Z</time>
      </trkpt>
      <trkpt lat="46.48014" lon="6.0271">
        <ele>906.66</ele>
        <time>2014-07-03T08:56:24Z</time>
      </trkpt>
      <trkpt lat="46.47974" lon="6.02693">
        <ele>903.78</ele>
        <time>2014-07-03T08:56:29Z</time>
      </trkpt>
      <trkpt lat="46.47959" lon="6.0269">
        <ele>902.33</ele>
        <time>2014-07-03T08:56:31Z</time>
      </trkpt>
      <trkpt lat="46.47946" lon="6.02647">
        <ele>899.45</ele>
        <time>2014-07-03T08:56:36Z</time>
      </trkpt>
      <trkpt lat="46.47952" lon="6.02581">
        <ele>896.57</ele>
        <time>2014-07-03T08:56:42Z</time>
      </trkpt>
      <trkpt lat="46.4794" lon="6.02564">
        <ele>895.12</ele>
        <time>2014-07-03T08:56:44Z</time>
      </trkpt>
      <trkpt lat="46.47889" lon="6.02464">
        <ele>890.8</ele>
        <time>2014-07-03T08:56:54Z</time>
      </trkpt>
      <trkpt lat="46.47885" lon="6.02456">
        <ele>890.32</ele>
        <time>2014-07-03T08:56:55Z</time>
      </trkpt>
      <trkpt lat="46.47894" lon="6.02412">
        <ele>886.95</ele>
        <time>2014-07-03T08:57:01Z</time>
      </trkpt>
      <trkpt lat="46.4793" lon="6.02438">
        <ele>884.07</ele>
        <time>2014-07-03T08:57:06Z</time>
      </trkpt>
      <trkpt lat="46.4794" lon="6.02459">
        <ele>883.59</ele>
        <time>2014-07-03T08:57:08Z</time>
      </trkpt>
      <trkpt lat="46.47976" lon="6.02515">
        <ele>880.71</ele>
        <time>2014-07-03T08:57:14Z</time>
      </trkpt>
      <trkpt lat="46.48023" lon="6.02556">
        <ele>876.38</ele>
        <time>2014-07-03T08:57:20Z</time>
      </trkpt>
      <trkpt lat="46.48038" lon="6.0257">
        <ele>875.42</ele>
        <time>2014-07-03T08:57:22Z</time>
      </trkpt>
      <trkpt lat="46.48084" lon="6.026">
        <ele>872.05</ele>
        <time>2014-07-03T08:57:28Z</time>
      </trkpt>
      <trkpt lat="46.48112" lon="6.02614">
        <ele>870.13</ele>
        <time>2014-07-03T08:57:32Z</time>
      </trkpt>
      <trkpt lat="46.48151" lon="6.02599">
        <ele>868.21</ele>
        <time>2014-07-03T08:57:38Z</time>
      </trkpt>
      <trkpt lat="46.48169" lon="6.02577">
        <ele>866.77</ele>
        <time>2014-07-03T08:57:41Z</time>
      </trkpt>
      <trkpt lat="46.48206" lon="6.02561">
        <ele>863.88</ele>
        <time>2014-07-03T08:57:46Z</time>
      </trkpt>
      <trkpt lat="46.48231" lon="6.02556">
        <ele>862.92</ele>
        <time>2014-07-03T08:57:49Z</time>
      </trkpt>
      <trkpt lat="46.48271" lon="6.02524">
        <ele>860.04</ele>
        <time>2014-07-03T08:57:55Z</time>
      </trkpt>
      <trkpt lat="46.483" lon="6.02469">
        <ele>857.15</ele>
        <time>2014-07-03T08:58:02Z</time>
      </trkpt>
      <trkpt lat="46.48349" lon="6.02456">
        <ele>852.83</ele>
        <time>2014-07-03T08:58:09Z</time>
      </trkpt>
      <trkpt lat="46.48375" lon="6.02494">
        <ele>850.9</ele>
        <time>2014-07-03T08:58:13Z</time>
      </trkpt>
      <trkpt lat="46.48395" lon="6.02546">
        <ele>848.02</ele>
        <time>2014-07-03T08:58:18Z</time>
      </trkpt>
      <trkpt lat="46.48404" lon="6.02572">
        <ele>846.58</ele>
        <time>2014-07-03T08:58:21Z</time>
      </trkpt>
      <trkpt lat="46.48409" lon="6.02587">
        <ele>845.62</ele>
        <time>2014-07-03T08:58:23Z</time>
      </trkpt>
      <trkpt lat="46.48413" lon="6.026">
        <ele>845.14</ele>
        <time>2014-07-03T08:58:25Z</time>
      </trkpt>
      <trkpt lat="46.48417" lon="6.02631">
        <ele>843.69</ele>
        <time>2014-07-03T08:58:35Z</time>
      </trkpt>
      <trkpt lat="46.48418" lon="6.02629">
        <ele>843.69</ele>
        <time>2014-07-03T08:59:00Z</time>
      </trkpt>
      <trkpt lat="46.48418" lon="6.02629">
        <ele>843.69</ele>
        <time>2014-07-03T08:59:31Z</time>
      </trkpt>
      <trkpt lat="46.48418" lon="6.02629">
        <ele>843.69</ele>
        <time>2014-07-03T09:00:03Z</time>
      </trkpt>
      <trkpt lat="46.48416" lon="6.02651">
        <ele>843.21</ele>
        <time>2014-07-03T09:00:19Z</time>
      </trkpt>
      <trkpt lat="46.48416" lon="6.02661">
        <ele>842.73</ele>
        <time>2014-07-03T09:00:21Z</time>
      </trkpt>
      <trkpt lat="46.48417" lon="6.02726">
        <ele>839.85</ele>
        <time>2014-07-03T09:00:29Z</time>
      </trkpt>
      <trkpt lat="46.48408" lon="6.02766">
        <ele>837.93</ele>
        <time>2014-07-03T09:00:33Z</time>
      </trkpt>
      <trkpt lat="46.48409" lon="6.02846">
        <ele>834.56</ele>
        <time>2014-07-03T09:00:40Z</time>
      </trkpt>
      <trkpt lat="46.48421" lon="6.02918">
        <ele>831.2</ele>
        <time>2014-07-03T09:00:46Z</time>
      </trkpt>
      <trkpt lat="46.48428" lon="6.02968">
        <ele>829.27</ele>
        <time>2014-07-03T09:00:50Z</time>
      </trkpt>
      <trkpt lat="46.48422" lon="6.03045">
        <ele>825.43</ele>
        <time>2014-07-03T09:00:56Z</time>
      </trkpt>
      <trkpt lat="46.48417" lon="6.03107">
        <ele>822.55</ele>
        <time>2014-07-03T09:01:01Z</time>
      </trkpt>
      <trkpt lat="46.48423" lon="6.03149">
        <ele>820.62</ele>
        <time>2014-07-03T09:01:05Z</time>
      </trkpt>
      <trkpt lat="46.48448" lon="6.03179">
        <ele>818.22</ele>
        <time>2014-07-03T09:01:09Z</time>
      </trkpt>
      <trkpt lat="46.48502" lon="6.03178">
        <ele>814.37</ele>
        <time>2014-07-03T09:01:16Z</time>
      </trkpt>
      <trkpt lat="46.48516" lon="6.03158">
        <ele>813.41</ele>
        <time>2014-07-03T09:01:18Z</time>
      </trkpt>
      <trkpt lat="46.4856" lon="6.03085">
        <ele>809.09</ele>
        <time>2014-07-03T09:01:25Z</time>
      </trkpt>
      <trkpt lat="46.48567" lon="6.03077">
        <ele>809.09</ele>
        <time>2014-07-03T09:01:26Z</time>
      </trkpt>
      <trkpt lat="46.48586" lon="6.02991">
        <ele>805.72</ele>
        <time>2014-07-03T09:01:33Z</time>
      </trkpt>
      <trkpt lat="46.48584" lon="6.02965">
        <ele>805.24</ele>
        <time>2014-07-03T09:01:35Z</time>
      </trkpt>
      <trkpt lat="46.48583" lon="6.02942">
        <ele>804.28</ele>
        <time>2014-07-03T09:01:37Z</time>
      </trkpt>
      <trkpt lat="46.48582" lon="6.02897">
        <ele>802.84</ele>
        <time>2014-07-03T09:01:42Z</time>
      </trkpt>
      <trkpt lat="46.48612" lon="6.02836">
        <ele>799.95</ele>
        <time>2014-07-03T09:01:50Z</time>
      </trkpt>
      <trkpt lat="46.48644" lon="6.02838">
        <ele>798.03</ele>
        <time>2014-07-03T09:01:55Z</time>
      </trkpt>
      <trkpt lat="46.4867" lon="6.02863">
        <ele>796.11</ele>
        <time>2014-07-03T09:01:59Z</time>
      </trkpt>
      <trkpt lat="46.48703" lon="6.02874">
        <ele>793.71</ele>
        <time>2014-07-03T09:02:03Z</time>
      </trkpt>
      <trkpt lat="46.48768" lon="6.02874">
        <ele>789.86</ele>
        <time>2014-07-03T09:02:10Z</time>
      </trkpt>
      <trkpt lat="46.48785" lon="6.02874">
        <ele>788.42</ele>
        <time>2014-07-03T09:02:12Z</time>
      </trkpt>
      <trkpt lat="46.4881" lon="6.02868">
        <ele>786.98</ele>
        <time>2014-07-03T09:02:15Z</time>
      </trkpt>
      <trkpt lat="46.48882" lon="6.02838">
        <ele>785.53</ele>
        <time>2014-07-03T09:02:26Z</time>
      </trkpt>
      <trkpt lat="46.48966" lon="6.02771">
        <ele>783.61</ele>
        <time>2014-07-03T09:02:41Z</time>
      </trkpt>
      <trkpt lat="46.49039" lon="6.02725">
        <ele>781.21</ele>
        <time>2014-07-03T09:02:53Z</time>
      </trkpt>
      <trkpt lat="46.49096" lon="6.02705">
        <ele>780.25</ele>
        <time>2014-07-03T09:03:02Z</time>
      </trkpt>
      <trkpt lat="46.49188" lon="6.02614">
        <ele>777.36</ele>
        <time>2014-07-03T09:03:19Z</time>
      </trkpt>
      <trkpt lat="46.49245" lon="6.02588">
        <ele>774.96</ele>
        <time>2014-07-03T09:03:27Z</time>
      </trkpt>
      <trkpt lat="46.49275" lon="6.02592">
        <ele>774</ele>
        <time>2014-07-03T09:03:31Z</time>
      </trkpt>
      <trkpt lat="46.4931" lon="6.0261">
        <ele>773.04</ele>
        <time>2014-07-03T09:03:36Z</time>
      </trkpt>
      <trkpt lat="46.49391" lon="6.02627">
        <ele>772.56</ele>
        <time>2014-07-03T09:03:49Z</time>
      </trkpt>
      <trkpt lat="46.49403" lon="6.02627">
        <ele>772.08</ele>
        <time>2014-07-03T09:03:51Z</time>
      </trkpt>
      <trkpt lat="46.49431" lon="6.02639">
        <ele>772.08</ele>
        <time>2014-07-03T09:03:56Z</time>
      </trkpt>
      <trkpt lat="46.49514" lon="6.02695">
        <ele>771.6</ele>
        <time>2014-07-03T09:04:11Z</time>
      </trkpt>
      <trkpt lat="46.4962" lon="6.02692">
        <ele>768.23</ele>
        <time>2014-07-03T09:04:27Z</time>
      </trkpt>
      <trkpt lat="46.49705" lon="6.02709">
        <ele>766.31</ele>
        <time>2014-07-03T09:04:40Z</time>
      </trkpt>
      <trkpt lat="46.49775" lon="6.02744">
        <ele>763.9</ele>
        <time>2014-07-03T09:04:51Z</time>
      </trkpt>
      <trkpt lat="46.49796" lon="6.02744">
        <ele>763.42</ele>
        <time>2014-07-03T09:04:55Z</time>
      </trkpt>
      <trkpt lat="46.49812" lon="6.0274">
        <ele>762.94</ele>
        <time>2014-07-03T09:04:58Z</time>
      </trkpt>
      <trkpt lat="46.49871" lon="6.02731">
        <ele>761.98</ele>
        <time>2014-07-03T09:05:09Z</time>
      </trkpt>
      <trkpt lat="46.49981" lon="6.02723">
        <ele>759.58</ele>
        <time>2014-07-03T09:05:27Z</time>
      </trkpt>
      <trkpt lat="46.50049" lon="6.02717">
        <ele>757.66</ele>
        <time>2014-07-03T09:05:38Z</time>
      </trkpt>
      <trkpt lat="46.50075" lon="6.02722">
        <ele>757.18</ele>
        <time>2014-07-03T09:05:46Z</time>
      </trkpt>
      <trkpt lat="46.5009" lon="6.02713">
        <ele>757.18</ele>
        <time>2014-07-03T09:05:50Z</time>
      </trkpt>
      <trkpt lat="46.50175" lon="6.02703">
        <ele>755.25</ele>
        <time>2014-07-03T09:06:06Z</time>
      </trkpt>
      <trkpt lat="46.50255" lon="6.02712">
        <ele>753.81</ele>
        <time>2014-07-03T09:06:19Z</time>
      </trkpt>
      <trkpt lat="46.50342" lon="6.02766">
        <ele>751.89</ele>
        <time>2014-07-03T09:06:35Z</time>
      </trkpt>
      <trkpt lat="46.50421" lon="6.02816">
        <ele>749.97</ele>
        <time>2014-07-03T09:06:51Z</time>
      </trkpt>
      <trkpt lat="46.50508" lon="6.02861">
        <ele>749.49</ele>
        <time>2014-07-03T09:07:09Z</time>
      </trkpt>
      <trkpt lat="46.50595" lon="6.02872">
        <ele>749.49</ele>
        <time>2014-07-03T09:07:27Z</time>
      </trkpt>
      <trkpt lat="46.50688" lon="6.02897">
        <ele>749.97</ele>
        <time>2014-07-03T09:07:47Z</time>
      </trkpt>
      <trkpt lat="46.50771" lon="6.02927">
        <ele>749.97</ele>
        <time>2014-07-03T09:08:04Z</time>
      </trkpt>
      <trkpt lat="46.50852" lon="6.02945">
        <ele>749.49</ele>
        <time>2014-07-03T09:08:20Z</time>
      </trkpt>
      <trkpt lat="46.5094" lon="6.02954">
        <ele>749.97</ele>
        <time>2014-07-03T09:08:37Z</time>
      </trkpt>
      <trkpt lat="46.50992" lon="6.02935">
        <ele>750.93</ele>
        <time>2014-07-03T09:08:49Z</time>
      </trkpt>
      <trkpt lat="46.51001" lon="6.02931">
        <ele>750.93</ele>
        <time>2014-07-03T09:08:51Z</time>
      </trkpt>
      <trkpt lat="46.51014" lon="6.02927">
        <ele>751.41</ele>
        <time>2014-07-03T09:08:54Z</time>
      </trkpt>
      <trkpt lat="46.51036" lon="6.02918">
        <ele>751.41</ele>
        <time>2014-07-03T09:09:00Z</time>
      </trkpt>
      <trkpt lat="46.51042" lon="6.02948">
        <ele>752.37</ele>
        <time>2014-07-03T09:09:10Z</time>
      </trkpt>
      <trkpt lat="46.51045" lon="6.02964">
        <ele>752.37</ele>
        <time>2014-07-03T09:09:31Z</time>
      </trkpt>
      <trkpt lat="46.51057" lon="6.02962">
        <ele>751.89</ele>
        <time>2014-07-03T09:09:36Z</time>
      </trkpt>
      <trkpt lat="46.51141" lon="6.02935">
        <ele>749.49</ele>
        <time>2014-07-03T09:09:50Z</time>
      </trkpt>
      <trkpt lat="46.51197" lon="6.02877">
        <ele>750.93</ele>
        <time>2014-07-03T09:10:02Z</time>
      </trkpt>
      <trkpt lat="46.51261" lon="6.02811">
        <ele>753.33</ele>
        <time>2014-07-03T09:10:20Z</time>
      </trkpt>
      <trkpt lat="46.51325" lon="6.02786">
        <ele>755.73</ele>
        <time>2014-07-03T09:10:38Z</time>
      </trkpt>
      <trkpt lat="46.51383" lon="6.02753">
        <ele>757.18</ele>
        <time>2014-07-03T09:10:56Z</time>
      </trkpt>
      <trkpt lat="46.51434" lon="6.02731">
        <ele>758.14</ele>
        <time>2014-07-03T09:11:11Z</time>
      </trkpt>
      <trkpt lat="46.51498" lon="6.02729">
        <ele>759.58</ele>
        <time>2014-07-03T09:11:30Z</time>
      </trkpt>
      <trkpt lat="46.51573" lon="6.02727">
        <ele>761.5</ele>
        <time>2014-07-03T09:11:51Z</time>
      </trkpt>
      <trkpt lat="46.51628" lon="6.0273">
        <ele>762.46</ele>
        <time>2014-07-03T09:12:06Z</time>
      </trkpt>
      <trkpt lat="46.51694" lon="6.02741">
        <ele>763.9</ele>
        <time>2014-07-03T09:12:25Z</time>
      </trkpt>
      <trkpt lat="46.51764" lon="6.02726">
        <ele>763.9</ele>
        <time>2014-07-03T09:12:43Z</time>
      </trkpt>
      <trkpt lat="46.51862" lon="6.02696">
        <ele>762.94</ele>
        <time>2014-07-03T09:13:02Z</time>
      </trkpt>
      <trkpt lat="46.51873" lon="6.0269">
        <ele>762.46</ele>
        <time>2014-07-03T09:13:04Z</time>
      </trkpt>
      <trkpt lat="46.51939" lon="6.02608">
        <ele>760.54</ele>
        <time>2014-07-03T09:13:18Z</time>
      </trkpt>
      <trkpt lat="46.51959" lon="6.0258">
        <ele>760.06</ele>
        <time>2014-07-03T09:13:22Z</time>
      </trkpt>
      <trkpt lat="46.52043" lon="6.02528">
        <ele>757.66</ele>
        <time>2014-07-03T09:13:35Z</time>
      </trkpt>
      <trkpt lat="46.52061" lon="6.02514">
        <ele>757.18</ele>
        <time>2014-07-03T09:13:38Z</time>
      </trkpt>
      <trkpt lat="46.52124" lon="6.02416">
        <ele>754.29</ele>
        <time>2014-07-03T09:13:51Z</time>
      </trkpt>
      <trkpt lat="46.52129" lon="6.02405">
        <ele>753.81</ele>
        <time>2014-07-03T09:13:52Z</time>
      </trkpt>
      <trkpt lat="46.52142" lon="6.02386">
        <ele>752.85</ele>
        <time>2014-07-03T09:13:54Z</time>
      </trkpt>
      <trkpt lat="46.52176" lon="6.02355">
        <ele>750.45</ele>
        <time>2014-07-03T09:13:58Z</time>
      </trkpt>
      <trkpt lat="46.52205" lon="6.02339">
        <ele>748.52</ele>
        <time>2014-07-03T09:14:01Z</time>
      </trkpt>
      <trkpt lat="46.52256" lon="6.02319">
        <ele>745.64</ele>
        <time>2014-07-03T09:14:06Z</time>
      </trkpt>
      <trkpt lat="46.52288" lon="6.02306">
        <ele>743.24</ele>
        <time>2014-07-03T09:14:09Z</time>
      </trkpt>
      <trkpt lat="46.52354" lon="6.02299">
        <ele>739.39</ele>
        <time>2014-07-03T09:14:15Z</time>
      </trkpt>
      <trkpt lat="46.52364" lon="6.02298">
        <ele>739.39</ele>
        <time>2014-07-03T09:14:16Z</time>
      </trkpt>
      <trkpt lat="46.52414" lon="6.02291">
        <ele>736.03</ele>
        <time>2014-07-03T09:14:22Z</time>
      </trkpt>
      <trkpt lat="46.52446" lon="6.02281">
        <ele>733.62</ele>
        <time>2014-07-03T09:14:27Z</time>
      </trkpt>
      <trkpt lat="46.5246" lon="6.02279">
        <ele>734.1</ele>
        <time>2014-07-03T09:14:35Z</time>
      </trkpt>
      <trkpt lat="46.52458" lon="6.0227">
        <ele>734.1</ele>
        <time>2014-07-03T09:14:40Z</time>
      </trkpt>
      <trkpt lat="46.5245" lon="6.02253">
        <ele>733.14</ele>
        <time>2014-07-03T09:14:48Z</time>
      </trkpt>
      <trkpt lat="46.52415" lon="6.02236">
        <ele>731.22</ele>
        <time>2014-07-03T09:14:57Z</time>
      </trkpt>
      <trkpt lat="46.52392" lon="6.02233">
        <ele>730.26</ele>
        <time>2014-07-03T09:15:02Z</time>
      </trkpt>
      <trkpt lat="46.52329" lon="6.02246">
        <ele>726.89</ele>
        <time>2014-07-03T09:15:12Z</time>
      </trkpt>
      <trkpt lat="46.52283" lon="6.02257">
        <ele>724.01</ele>
        <time>2014-07-03T09:15:19Z</time>
      </trkpt>
      <trkpt lat="46.5226" lon="6.02248">
        <ele>723.05</ele>
        <time>2014-07-03T09:15:23Z</time>
      </trkpt>
      <trkpt lat="46.5224" lon="6.02208">
        <ele>720.16</ele>
        <time>2014-07-03T09:15:31Z</time>
      </trkpt>
      <trkpt lat="46.52225" lon="6.02215">
        <ele>720.16</ele>
        <time>2014-07-03T09:15:35Z</time>
      </trkpt>
      <trkpt lat="46.5221" lon="6.02223">
        <ele>720.65</ele>
        <time>2014-07-03T09:15:40Z</time>
      </trkpt>
      <trkpt lat="46.52201" lon="6.02212">
        <ele>720.65</ele>
        <time>2014-07-03T09:15:44Z</time>
      </trkpt>
      <trkpt lat="46.52179" lon="6.02134">
        <ele>720.65</ele>
        <time>2014-07-03T09:16:00Z</time>
      </trkpt>
      <trkpt lat="46.52163" lon="6.0213">
        <ele>721.13</ele>
        <time>2014-07-03T09:16:05Z</time>
      </trkpt>
      <trkpt lat="46.52104" lon="6.02167">
        <ele>721.61</ele>
        <time>2014-07-03T09:16:23Z</time>
      </trkpt>
      <trkpt lat="46.5206" lon="6.02196">
        <ele>722.09</ele>
        <time>2014-07-03T09:16:37Z</time>
      </trkpt>
      <trkpt lat="46.52015" lon="6.02223">
        <ele>722.57</ele>
        <time>2014-07-03T09:16:50Z</time>
      </trkpt>
      <trkpt lat="46.51993" lon="6.02244">
        <ele>722.57</ele>
        <time>2014-07-03T09:16:58Z</time>
      </trkpt>
      <trkpt lat="46.51987" lon="6.02274">
        <ele>722.57</ele>
        <time>2014-07-03T09:17:08Z</time>
      </trkpt>
      <trkpt lat="46.51932" lon="6.02314">
        <ele>723.05</ele>
        <time>2014-07-03T09:17:25Z</time>
      </trkpt>
      <trkpt lat="46.51893" lon="6.02343">
        <ele>724.01</ele>
        <time>2014-07-03T09:17:41Z</time>
      </trkpt>
      <trkpt lat="46.51892" lon="6.02343">
        <ele>724.01</ele>
        <time>2014-07-03T09:17:55Z</time>
      </trkpt>
      <trkpt lat="46.51891" lon="6.0234">
        <ele>724.01</ele>
        <time>2014-07-03T09:18:24Z</time>
      </trkpt>
      <trkpt lat="46.5189" lon="6.02337">
        <ele>724.01</ele>
        <time>2014-07-03T09:18:57Z</time>
      </trkpt>
      <trkpt lat="46.51895" lon="6.02343">
        <ele>724.01</ele>
        <time>2014-07-03T09:19:30Z</time>
      </trkpt>
      <trkpt lat="46.5189" lon="6.02342">
        <ele>723.53</ele>
        <time>2014-07-03T09:20:05Z</time>
      </trkpt>
      <trkpt lat="46.51888" lon="6.02339">
        <ele>723.53</ele>
        <time>2014-07-03T09:20:30Z</time>
      </trkpt>
      <trkpt lat="46.51885" lon="6.02336">
        <ele>724.01</ele>
        <time>2014-07-03T09:20:59Z</time>
      </trkpt>
      <trkpt lat="46.51885" lon="6.0234">
        <ele>724.01</ele>
        <time>2014-07-03T09:21:34Z</time>
      </trkpt>
      <trkpt lat="46.51889" lon="6.02342">
        <ele>724.01</ele>
        <time>2014-07-03T09:22:04Z</time>
      </trkpt>
      <trkpt lat="46.51889" lon="6.02343">
        <ele>724.49</ele>
        <time>2014-07-03T09:22:32Z</time>
      </trkpt>
      <trkpt lat="46.51891" lon="6.0235">
        <ele>724.49</ele>
        <time>2014-07-03T09:23:07Z</time>
      </trkpt>
      <trkpt lat="46.5189" lon="6.02341">
        <ele>724.49</ele>
        <time>2014-07-03T09:23:33Z</time>
      </trkpt>
      <trkpt lat="46.51887" lon="6.02335">
        <ele>724.49</ele>
        <time>2014-07-03T09:24:02Z</time>
      </trkpt>
      <trkpt lat="46.51888" lon="6.02339">
        <ele>724.49</ele>
        <time>2014-07-03T09:24:36Z</time>
      </trkpt>
      <trkpt lat="46.51893" lon="6.02345">
        <ele>724.49</ele>
        <time>2014-07-03T09:25:15Z</time>
      </trkpt>
      <trkpt lat="46.5189" lon="6.02344">
        <ele>724.49</ele>
        <time>2014-07-03T09:25:47Z</time>
      </trkpt>
      <trkpt lat="46.51894" lon="6.02343">
        <ele>724.49</ele>
        <time>2014-07-03T09:26:18Z</time>
      </trkpt>
      <trkpt lat="46.51892" lon="6.02343">
        <ele>724.49</ele>
        <time>2014-07-03T09:26:54Z</time>
      </trkpt>
      <trkpt lat="46.51891" lon="6.02341">
        <ele>724.01</ele>
        <time>2014-07-03T09:27:28Z</time>
      </trkpt>
      <trkpt lat="46.51893" lon="6.02343">
        <ele>724.01</ele>
        <time>2014-07-03T09:28:06Z</time>
      </trkpt>
      <trkpt lat="46.5189" lon="6.02339">
        <ele>724.01</ele>
        <time>2014-07-03T09:28:33Z</time>
      </trkpt>
      <trkpt lat="46.51891" lon="6.02347">
        <ele>724.01</ele>
        <time>2014-07-03T09:29:09Z</time>
      </trkpt>
      <trkpt lat="46.51888" lon="6.02348">
        <ele>724.01</ele>
        <time>2014-07-03T09:29:41Z</time>
      </trkpt>
      <trkpt lat="46.51887" lon="6.02346">
        <ele>724.01</ele>
        <time>2014-07-03T09:30:07Z</time>
      </trkpt>
      <trkpt lat="46.5189" lon="6.02347">
        <ele>724.01</ele>
        <time>2014-07-03T09:30:41Z</time>
      </trkpt>
      <trkpt lat="46.51888" lon="6.02346">
        <ele>724.01</ele>
        <time>2014-07-03T09:31:16Z</time>
      </trkpt>
      <trkpt lat="46.51886" lon="6.02345">
        <ele>724.49</ele>
        <time>2014-07-03T09:31:49Z</time>
      </trkpt>
      <trkpt lat="46.51885" lon="6.0235">
        <ele>724.01</ele>
        <time>2014-07-03T09:32:28Z</time>
      </trkpt>
      <trkpt lat="46.51882" lon="6.02352">
        <ele>724.49</ele>
        <time>2014-07-03T09:32:55Z</time>
      </trkpt>
      <trkpt lat="46.51882" lon="6.02353">
        <ele>724.01</ele>
        <time>2014-07-03T09:33:15Z</time>
      </trkpt>
      <trkpt lat="46.51882" lon="6.02354">
        <ele>724.01</ele>
        <time>2014-07-03T09:33:16Z</time>
      </trkpt>
      <trkpt lat="46.51877" lon="6.02363">
        <ele>724.01</ele>
        <time>2014-07-03T09:33:20Z</time>
      </trkpt>
      <trkpt lat="46.51864" lon="6.02372">
        <ele>724.97</ele>
        <time>2014-07-03T09:33:31Z</time>
      </trkpt>
      <trkpt lat="46.51855" lon="6.02379">
        <ele>724.97</ele>
        <time>2014-07-03T09:33:39Z</time>
      </trkpt>
      <trkpt lat="46.51853" lon="6.0238">
        <ele>724.97</ele>
        <time>2014-07-03T09:33:41Z</time>
      </trkpt>
      <trkpt lat="46.51851" lon="6.02378">
        <ele>725.45</ele>
        <time>2014-07-03T09:33:42Z</time>
      </trkpt>
      <trkpt lat="46.5184" lon="6.0237">
        <ele>725.45</ele>
        <time>2014-07-03T09:33:54Z</time>
      </trkpt>
      <trkpt lat="46.51836" lon="6.02374">
        <ele>724.97</ele>
        <time>2014-07-03T09:34:06Z</time>
      </trkpt>
      <trkpt lat="46.51845" lon="6.0238">
        <ele>725.93</ele>
        <time>2014-07-03T09:40:12Z</time>
      </trkpt>
      <trkpt lat="46.51845" lon="6.02379">
        <ele>725.45</ele>
        <time>2014-07-03T09:40:13Z</time>
      </trkpt>
      <trkpt lat="46.51851" lon="6.0239">
        <ele>725.93</ele>
        <time>2014-07-03T09:40:19Z</time>
      </trkpt>
      <trkpt lat="46.5186" lon="6.02376">
        <ele>725.45</ele>
        <time>2014-07-03T09:40:36Z</time>
      </trkpt>
      <trkpt lat="46.5187" lon="6.02366">
        <ele>725.45</ele>
        <time>2014-07-03T09:40:52Z</time>
      </trkpt>
      <trkpt lat="46.51885" lon="6.02353">
        <ele>724.97</ele>
        <time>2014-07-03T09:41:09Z</time>
      </trkpt>
      <trkpt lat="46.51887" lon="6.02352">
        <ele>725.45</ele>
        <time>2014-07-03T09:41:22Z</time>
      </trkpt>
      <trkpt lat="46.51887" lon="6.0235">
        <ele>724.97</ele>
        <time>2014-07-03T09:41:38Z</time>
      </trkpt>
      <trkpt lat="46.51888" lon="6.02353">
        <ele>724.97</ele>
        <time>2014-07-03T09:42:09Z</time>
      </trkpt>
      <trkpt lat="46.51887" lon="6.02354">
        <ele>724.97</ele>
        <time>2014-07-03T09:42:33Z</time>
      </trkpt>
      <trkpt lat="46.51886" lon="6.0235">
        <ele>724.97</ele>
        <time>2014-07-03T09:42:52Z</time>
      </trkpt>
      <trkpt lat="46.51877" lon="6.0236">
        <ele>725.45</ele>
        <time>2014-07-03T09:43:00Z</time>
      </trkpt>
      <trkpt lat="46.5187" lon="6.02364">
        <ele>725.45</ele>
        <time>2014-07-03T09:43:04Z</time>
      </trkpt>
      <trkpt lat="46.51861" lon="6.02372">
        <ele>725.93</ele>
        <time>2014-07-03T09:43:10Z</time>
      </trkpt>
      <trkpt lat="46.51857" lon="6.02371">
        <ele>725.45</ele>
        <time>2014-07-03T09:43:12Z</time>
      </trkpt>
      <trkpt lat="46.51848" lon="6.02359">
        <ele>725.93</ele>
        <time>2014-07-03T09:43:22Z</time>
      </trkpt>
      <trkpt lat="46.51851" lon="6.02399">
        <ele>725.93</ele>
        <time>2014-07-03T09:43:34Z</time>
      </trkpt>
      <trkpt lat="46.51865" lon="6.02409">
        <ele>725.45</ele>
        <time>2014-07-03T09:43:39Z</time>
      </trkpt>
      <trkpt lat="46.51911" lon="6.02396">
        <ele>724.97</ele>
        <time>2014-07-03T09:43:52Z</time>
      </trkpt>
      <trkpt lat="46.51966" lon="6.0238">
        <ele>724.49</ele>
        <time>2014-07-03T09:44:05Z</time>
      </trkpt>
      <trkpt lat="46.51981" lon="6.02378">
        <ele>724.01</ele>
        <time>2014-07-03T09:44:09Z</time>
      </trkpt>
      <trkpt lat="46.52058" lon="6.02327">
        <ele>723.05</ele>
        <time>2014-07-03T09:44:27Z</time>
      </trkpt>
      <trkpt lat="46.52072" lon="6.0232">
        <ele>722.57</ele>
        <time>2014-07-03T09:44:30Z</time>
      </trkpt>
      <trkpt lat="46.52127" lon="6.02283">
        <ele>722.09</ele>
        <time>2014-07-03T09:44:43Z</time>
      </trkpt>
      <trkpt lat="46.5217" lon="6.02254">
        <ele>721.61</ele>
        <time>2014-07-03T09:44:53Z</time>
      </trkpt>
      <trkpt lat="46.52179" lon="6.02249">
        <ele>721.61</ele>
        <time>2014-07-03T09:44:55Z</time>
      </trkpt>
      <trkpt lat="46.52205" lon="6.02232">
        <ele>721.61</ele>
        <time>2014-07-03T09:45:01Z</time>
      </trkpt>
      <trkpt lat="46.52244" lon="6.02251">
        <ele>723.05</ele>
        <time>2014-07-03T09:45:11Z</time>
      </trkpt>
      <trkpt lat="46.52275" lon="6.02268">
        <ele>724.97</ele>
        <time>2014-07-03T09:45:25Z</time>
      </trkpt>
      <trkpt lat="46.52302" lon="6.02266">
        <ele>726.89</ele>
        <time>2014-07-03T09:45:37Z</time>
      </trkpt>
      <trkpt lat="46.52307" lon="6.02265">
        <ele>727.86</ele>
        <time>2014-07-03T09:45:39Z</time>
      </trkpt>
      <trkpt lat="46.5234" lon="6.02259">
        <ele>728.34</ele>
        <time>2014-07-03T09:45:54Z</time>
      </trkpt>
      <trkpt lat="46.52369" lon="6.02249">
        <ele>730.26</ele>
        <time>2014-07-03T09:46:08Z</time>
      </trkpt>
      <trkpt lat="46.52406" lon="6.02247">
        <ele>731.7</ele>
        <time>2014-07-03T09:46:26Z</time>
      </trkpt>
      <trkpt lat="46.52438" lon="6.02264">
        <ele>733.62</ele>
        <time>2014-07-03T09:46:41Z</time>
      </trkpt>
      <trkpt lat="46.52456" lon="6.023">
        <ele>735.07</ele>
        <time>2014-07-03T09:46:55Z</time>
      </trkpt>
      <trkpt lat="46.52503" lon="6.02308">
        <ele>736.51</ele>
        <time>2014-07-03T09:47:13Z</time>
      </trkpt>
      <trkpt lat="46.52552" lon="6.02317">
        <ele>737.95</ele>
        <time>2014-07-03T09:47:32Z</time>
      </trkpt>
      <trkpt lat="46.526" lon="6.02308">
        <ele>739.39</ele>
        <time>2014-07-03T09:47:50Z</time>
      </trkpt>
      <trkpt lat="46.52653" lon="6.02293">
        <ele>742.28</ele>
        <time>2014-07-03T09:48:10Z</time>
      </trkpt>
      <trkpt lat="46.52698" lon="6.02286">
        <ele>744.68</ele>
        <time>2014-07-03T09:48:29Z</time>
      </trkpt>
      <trkpt lat="46.52741" lon="6.02299">
        <ele>746.12</ele>
        <time>2014-07-03T09:48:48Z</time>
      </trkpt>
      <trkpt lat="46.52791" lon="6.02284">
        <ele>746.6</ele>
        <time>2014-07-03T09:49:02Z</time>
      </trkpt>
      <trkpt lat="46.52866" lon="6.02234">
        <ele>744.68</ele>
        <time>2014-07-03T09:49:19Z</time>
      </trkpt>
      <trkpt lat="46.52964" lon="6.02202">
        <ele>742.28</ele>
        <time>2014-07-03T09:49:36Z</time>
      </trkpt>
      <trkpt lat="46.5299" lon="6.02205">
        <ele>742.28</ele>
        <time>2014-07-03T09:49:40Z</time>
      </trkpt>
      <trkpt lat="46.53065" lon="6.02259">
        <ele>740.35</ele>
        <time>2014-07-03T09:49:53Z</time>
      </trkpt>
      <trkpt lat="46.53158" lon="6.02331">
        <ele>738.43</ele>
        <time>2014-07-03T09:50:09Z</time>
      </trkpt>
      <trkpt lat="46.53244" lon="6.02404">
        <ele>737.47</ele>
        <time>2014-07-03T09:50:26Z</time>
      </trkpt>
      <trkpt lat="46.53282" lon="6.02441">
        <ele>736.99</ele>
        <time>2014-07-03T09:50:35Z</time>
      </trkpt>
      <trkpt lat="46.53336" lon="6.02487">
        <ele>739.87</ele>
        <time>2014-07-03T09:50:52Z</time>
      </trkpt>
      <trkpt lat="46.53368" lon="6.02526">
        <ele>742.76</ele>
        <time>2014-07-03T09:51:10Z</time>
      </trkpt>
      <trkpt lat="46.53398" lon="6.02552">
        <ele>745.16</ele>
        <time>2014-07-03T09:51:24Z</time>
      </trkpt>
      <trkpt lat="46.53427" lon="6.02589">
        <ele>747.08</ele>
        <time>2014-07-03T09:51:42Z</time>
      </trkpt>
      <trkpt lat="46.53431" lon="6.02594">
        <ele>747.56</ele>
        <time>2014-07-03T09:51:44Z</time>
      </trkpt>
      <trkpt lat="46.5345" lon="6.02633">
        <ele>749.49</ele>
        <time>2014-07-03T09:52:03Z</time>
      </trkpt>
      <trkpt lat="46.53467" lon="6.02665">
        <ele>751.89</ele>
        <time>2014-07-03T09:52:19Z</time>
      </trkpt>
      <trkpt lat="46.53484" lon="6.02705">
        <ele>754.29</ele>
        <time>2014-07-03T09:52:37Z</time>
      </trkpt>
      <trkpt lat="46.53499" lon="6.02744">
        <ele>756.21</ele>
        <time>2014-07-03T09:52:53Z</time>
      </trkpt>
      <trkpt lat="46.53521" lon="6.02775">
        <ele>758.14</ele>
        <time>2014-07-03T09:53:11Z</time>
      </trkpt>
      <trkpt lat="46.5355" lon="6.02782">
        <ele>759.58</ele>
        <time>2014-07-03T09:53:25Z</time>
      </trkpt>
      <trkpt lat="46.53577" lon="6.02755">
        <ele>760.54</ele>
        <time>2014-07-03T09:53:39Z</time>
      </trkpt>
      <trkpt lat="46.53583" lon="6.02703">
        <ele>761.98</ele>
        <time>2014-07-03T09:53:53Z</time>
      </trkpt>
      <trkpt lat="46.53573" lon="6.02663">
        <ele>763.42</ele>
        <time>2014-07-03T09:54:06Z</time>
      </trkpt>
      <trkpt lat="46.53559" lon="6.02616">
        <ele>765.83</ele>
        <time>2014-07-03T09:54:23Z</time>
      </trkpt>
      <trkpt lat="46.53544" lon="6.02569">
        <ele>767.75</ele>
        <time>2014-07-03T09:54:42Z</time>
      </trkpt>
      <trkpt lat="46.53529" lon="6.0253">
        <ele>770.15</ele>
        <time>2014-07-03T09:55:00Z</time>
      </trkpt>
      <trkpt lat="46.53512" lon="6.02494">
        <ele>772.08</ele>
        <time>2014-07-03T09:55:18Z</time>
      </trkpt>
      <trkpt lat="46.53498" lon="6.02453">
        <ele>774.48</ele>
        <time>2014-07-03T09:55:36Z</time>
      </trkpt>
      <trkpt lat="46.53484" lon="6.02419">
        <ele>775.92</ele>
        <time>2014-07-03T09:55:52Z</time>
      </trkpt>
      <trkpt lat="46.53473" lon="6.0239">
        <ele>777.84</ele>
        <time>2014-07-03T09:56:06Z</time>
      </trkpt>
      <trkpt lat="46.53463" lon="6.02367">
        <ele>778.81</ele>
        <time>2014-07-03T09:56:18Z</time>
      </trkpt>
      <trkpt lat="46.53448" lon="6.02335">
        <ele>781.21</ele>
        <time>2014-07-03T09:56:32Z</time>
      </trkpt>
      <trkpt lat="46.53427" lon="6.02304">
        <ele>783.13</ele>
        <time>2014-07-03T09:56:48Z</time>
      </trkpt>
      <trkpt lat="46.53413" lon="6.02286">
        <ele>784.09</ele>
        <time>2014-07-03T09:56:59Z</time>
      </trkpt>
      <trkpt lat="46.53408" lon="6.02278">
        <ele>785.05</ele>
        <time>2014-07-03T09:57:03Z</time>
      </trkpt>
      <trkpt lat="46.53386" lon="6.02246">
        <ele>787.46</ele>
        <time>2014-07-03T09:57:20Z</time>
      </trkpt>
      <trkpt lat="46.53369" lon="6.0222">
        <ele>789.38</ele>
        <time>2014-07-03T09:57:34Z</time>
      </trkpt>
      <trkpt lat="46.53353" lon="6.022">
        <ele>791.78</ele>
        <time>2014-07-03T09:57:46Z</time>
      </trkpt>
      <trkpt lat="46.53336" lon="6.0217">
        <ele>792.26</ele>
        <time>2014-07-03T09:58:00Z</time>
      </trkpt>
      <trkpt lat="46.53319" lon="6.02144">
        <ele>793.71</ele>
        <time>2014-07-03T09:58:13Z</time>
      </trkpt>
      <trkpt lat="46.533" lon="6.02102">
        <ele>796.11</ele>
        <time>2014-07-03T09:58:30Z</time>
      </trkpt>
      <trkpt lat="46.53284" lon="6.02053">
        <ele>798.99</ele>
        <time>2014-07-03T09:58:49Z</time>
      </trkpt>
      <trkpt lat="46.53274" lon="6.02008">
        <ele>801.4</ele>
        <time>2014-07-03T09:59:06Z</time>
      </trkpt>
      <trkpt lat="46.53271" lon="6.0197">
        <ele>803.32</ele>
        <time>2014-07-03T09:59:18Z</time>
      </trkpt>
      <trkpt lat="46.53274" lon="6.01929">
        <ele>805.24</ele>
        <time>2014-07-03T09:59:32Z</time>
      </trkpt>
      <trkpt lat="46.5328" lon="6.01888">
        <ele>808.61</ele>
        <time>2014-07-03T09:59:48Z</time>
      </trkpt>
      <trkpt lat="46.53288" lon="6.01856">
        <ele>809.57</ele>
        <time>2014-07-03T10:00:01Z</time>
      </trkpt>
      <trkpt lat="46.53306" lon="6.01811">
        <ele>811.97</ele>
        <time>2014-07-03T10:00:19Z</time>
      </trkpt>
      <trkpt lat="46.5333" lon="6.01768">
        <ele>814.37</ele>
        <time>2014-07-03T10:00:39Z</time>
      </trkpt>
      <trkpt lat="46.53353" lon="6.01729">
        <ele>816.78</ele>
        <time>2014-07-03T10:00:56Z</time>
      </trkpt>
      <trkpt lat="46.53374" lon="6.01691">
        <ele>818.7</ele>
        <time>2014-07-03T10:01:13Z</time>
      </trkpt>
      <trkpt lat="46.53399" lon="6.01648">
        <ele>821.1</ele>
        <time>2014-07-03T10:01:33Z</time>
      </trkpt>
      <trkpt lat="46.53415" lon="6.01625">
        <ele>822.55</ele>
        <time>2014-07-03T10:01:45Z</time>
      </trkpt>
      <trkpt lat="46.53439" lon="6.01606">
        <ele>823.99</ele>
        <time>2014-07-03T10:02:00Z</time>
      </trkpt>
      <trkpt lat="46.53471" lon="6.016">
        <ele>826.39</ele>
        <time>2014-07-03T10:02:17Z</time>
      </trkpt>
      <trkpt lat="46.53502" lon="6.01597">
        <ele>828.31</ele>
        <time>2014-07-03T10:02:33Z</time>
      </trkpt>
      <trkpt lat="46.53535" lon="6.01596">
        <ele>829.76</ele>
        <time>2014-07-03T10:02:50Z</time>
      </trkpt>
      <trkpt lat="46.53546" lon="6.01593">
        <ele>830.24</ele>
        <time>2014-07-03T10:02:54Z</time>
      </trkpt>
      <trkpt lat="46.53549" lon="6.01595">
        <ele>830.72</ele>
        <time>2014-07-03T10:02:56Z</time>
      </trkpt>
      <trkpt lat="46.53553" lon="6.01592">
        <ele>831.2</ele>
        <time>2014-07-03T10:03:09Z</time>
      </trkpt>
      <trkpt lat="46.53552" lon="6.01592">
        <ele>830.72</ele>
        <time>2014-07-03T10:03:30Z</time>
      </trkpt>
      <trkpt lat="46.53556" lon="6.0159">
        <ele>831.2</ele>
        <time>2014-07-03T10:03:48Z</time>
      </trkpt>
      <trkpt lat="46.53556" lon="6.01588">
        <ele>831.2</ele>
        <time>2014-07-03T10:04:24Z</time>
      </trkpt>
      <trkpt lat="46.53558" lon="6.01589">
        <ele>830.72</ele>
        <time>2014-07-03T10:04:48Z</time>
      </trkpt>
      <trkpt lat="46.53559" lon="6.01587">
        <ele>831.2</ele>
        <time>2014-07-03T10:05:10Z</time>
      </trkpt>
      <trkpt lat="46.53559" lon="6.01587">
        <ele>831.2</ele>
        <time>2014-07-03T10:05:13Z</time>
      </trkpt>
      <trkpt lat="46.5356" lon="6.01587">
        <ele>831.2</ele>
        <time>2014-07-03T10:05:15Z</time>
      </trkpt>
      <trkpt lat="46.53589" lon="6.01591">
        <ele>833.12</ele>
        <time>2014-07-03T10:05:30Z</time>
      </trkpt>
      <trkpt lat="46.53607" lon="6.01597">
        <ele>834.08</ele>
        <time>2014-07-03T10:05:39Z</time>
      </trkpt>
      <trkpt lat="46.53622" lon="6.01603">
        <ele>835.52</ele>
        <time>2014-07-03T10:05:47Z</time>
      </trkpt>
      <trkpt lat="46.53649" lon="6.01599">
        <ele>836.48</ele>
        <time>2014-07-03T10:06:01Z</time>
      </trkpt>
      <trkpt lat="46.53651" lon="6.01597">
        <ele>836.48</ele>
        <time>2014-07-03T10:06:02Z</time>
      </trkpt>
      <trkpt lat="46.53688" lon="6.01606">
        <ele>839.37</ele>
        <time>2014-07-03T10:06:21Z</time>
      </trkpt>
      <trkpt lat="46.53717" lon="6.01614">
        <ele>840.81</ele>
        <time>2014-07-03T10:06:37Z</time>
      </trkpt>
      <trkpt lat="46.53734" lon="6.01623">
        <ele>842.73</ele>
        <time>2014-07-03T10:06:50Z</time>
      </trkpt>
      <trkpt lat="46.53764" lon="6.01615">
        <ele>845.14</ele>
        <time>2014-07-03T10:07:05Z</time>
      </trkpt>
      <trkpt lat="46.53792" lon="6.01605">
        <ele>846.58</ele>
        <time>2014-07-03T10:07:17Z</time>
      </trkpt>
      <trkpt lat="46.53801" lon="6.01603">
        <ele>847.54</ele>
        <time>2014-07-03T10:07:31Z</time>
      </trkpt>
      <trkpt lat="46.53802" lon="6.01603">
        <ele>847.54</ele>
        <time>2014-07-03T10:07:57Z</time>
      </trkpt>
      <trkpt lat="46.53803" lon="6.016">
        <ele>847.06</ele>
        <time>2014-07-03T10:08:13Z</time>
      </trkpt>
      <trkpt lat="46.53811" lon="6.01598">
        <ele>847.54</ele>
        <time>2014-07-03T10:08:18Z</time>
      </trkpt>
      <trkpt lat="46.5383" lon="6.01594">
        <ele>849.46</ele>
        <time>2014-07-03T10:08:27Z</time>
      </trkpt>
      <trkpt lat="46.53861" lon="6.01612">
        <ele>851.87</ele>
        <time>2014-07-03T10:08:43Z</time>
      </trkpt>
      <trkpt lat="46.53867" lon="6.0162">
        <ele>852.83</ele>
        <time>2014-07-03T10:08:47Z</time>
      </trkpt>
      <trkpt lat="46.5387" lon="6.01624">
        <ele>853.31</ele>
        <time>2014-07-03T10:09:01Z</time>
      </trkpt>
      <trkpt lat="46.53869" lon="6.01623">
        <ele>852.83</ele>
        <time>2014-07-03T10:09:21Z</time>
      </trkpt>
      <trkpt lat="46.5387" lon="6.01619">
        <ele>853.31</ele>
        <time>2014-07-03T10:09:45Z</time>
      </trkpt>
      <trkpt lat="46.53873" lon="6.01618">
        <ele>852.83</ele>
        <time>2014-07-03T10:10:01Z</time>
      </trkpt>
      <trkpt lat="46.53888" lon="6.01621">
        <ele>853.79</ele>
        <time>2014-07-03T10:10:09Z</time>
      </trkpt>
      <trkpt lat="46.53898" lon="6.01627">
        <ele>854.27</ele>
        <time>2014-07-03T10:10:14Z</time>
      </trkpt>
      <trkpt lat="46.53903" lon="6.01627">
        <ele>854.75</ele>
        <time>2014-07-03T10:10:29Z</time>
      </trkpt>
      <trkpt lat="46.53904" lon="6.01626">
        <ele>854.75</ele>
        <time>2014-07-03T10:10:33Z</time>
      </trkpt>
      <trkpt lat="46.53909" lon="6.01616">
        <ele>854.75</ele>
        <time>2014-07-03T10:10:38Z</time>
      </trkpt>
      <trkpt lat="46.53911" lon="6.01608">
        <ele>854.27</ele>
        <time>2014-07-03T10:10:40Z</time>
      </trkpt>
      <trkpt lat="46.53936" lon="6.01575">
        <ele>851.87</ele>
        <time>2014-07-03T10:10:47Z</time>
      </trkpt>
      <trkpt lat="46.53947" lon="6.01492">
        <ele>850.9</ele>
        <time>2014-07-03T10:10:56Z</time>
      </trkpt>
      <trkpt lat="46.53931" lon="6.01459">
        <ele>851.87</ele>
        <time>2014-07-03T10:11:01Z</time>
      </trkpt>
      <trkpt lat="46.53875" lon="6.01396">
        <ele>855.23</ele>
        <time>2014-07-03T10:11:18Z</time>
      </trkpt>
      <trkpt lat="46.53821" lon="6.01356">
        <ele>857.15</ele>
        <time>2014-07-03T10:11:36Z</time>
      </trkpt>
      <trkpt lat="46.53778" lon="6.01303">
        <ele>857.63</ele>
        <time>2014-07-03T10:11:51Z</time>
      </trkpt>
      <trkpt lat="46.53742" lon="6.01237">
        <ele>857.63</ele>
        <time>2014-07-03T10:12:07Z</time>
      </trkpt>
      <trkpt lat="46.53704" lon="6.01147">
        <ele>857.63</ele>
        <time>2014-07-03T10:12:27Z</time>
      </trkpt>
      <trkpt lat="46.53682" lon="6.01059">
        <ele>858.11</ele>
        <time>2014-07-03T10:12:45Z</time>
      </trkpt>
      <trkpt lat="46.53664" lon="6.01003">
        <ele>858.11</ele>
        <time>2014-07-03T10:12:58Z</time>
      </trkpt>
      <trkpt lat="46.53638" lon="6.00936">
        <ele>858.59</ele>
        <time>2014-07-03T10:13:13Z</time>
      </trkpt>
      <trkpt lat="46.53607" lon="6.00835">
        <ele>857.63</ele>
        <time>2014-07-03T10:13:31Z</time>
      </trkpt>
      <trkpt lat="46.53604" lon="6.00808">
        <ele>857.15</ele>
        <time>2014-07-03T10:13:35Z</time>
      </trkpt>
      <trkpt lat="46.53607" lon="6.00771">
        <ele>856.19</ele>
        <time>2014-07-03T10:13:40Z</time>
      </trkpt>
      <trkpt lat="46.53626" lon="6.00646">
        <ele>853.31</ele>
        <time>2014-07-03T10:13:54Z</time>
      </trkpt>
      <trkpt lat="46.53617" lon="6.00572">
        <ele>849.94</ele>
        <time>2014-07-03T10:14:01Z</time>
      </trkpt>
      <trkpt lat="46.53599" lon="6.00507">
        <ele>847.06</ele>
        <time>2014-07-03T10:14:07Z</time>
      </trkpt>
      <trkpt lat="46.53596" lon="6.00496">
        <ele>847.06</ele>
        <time>2014-07-03T10:14:08Z</time>
      </trkpt>
      <trkpt lat="46.53588" lon="6.00461">
        <ele>845.62</ele>
        <time>2014-07-03T10:14:11Z</time>
      </trkpt>
      <trkpt lat="46.53573" lon="6.00398">
        <ele>843.21</ele>
        <time>2014-07-03T10:14:16Z</time>
      </trkpt>
      <trkpt lat="46.53566" lon="6.00359">
        <ele>842.25</ele>
        <time>2014-07-03T10:14:19Z</time>
      </trkpt>
      <trkpt lat="46.53532" lon="6.00174">
        <ele>840.81</ele>
        <time>2014-07-03T10:14:35Z</time>
      </trkpt>
      <trkpt lat="46.53483" lon="6.00056">
        <ele>840.33</ele>
        <time>2014-07-03T10:14:49Z</time>
      </trkpt>
      <trkpt lat="46.53439" lon="5.99977">
        <ele>841.77</ele>
        <time>2014-07-03T10:15:03Z</time>
      </trkpt>
      <trkpt lat="46.53402" lon="5.99903">
        <ele>842.73</ele>
        <time>2014-07-03T10:15:19Z</time>
      </trkpt>
      <trkpt lat="46.53384" lon="5.99845">
        <ele>844.18</ele>
        <time>2014-07-03T10:15:33Z</time>
      </trkpt>
      <trkpt lat="46.53384" lon="5.99772">
        <ele>845.62</ele>
        <time>2014-07-03T10:15:50Z</time>
      </trkpt>
      <trkpt lat="46.53374" lon="5.99697">
        <ele>847.06</ele>
        <time>2014-07-03T10:16:07Z</time>
      </trkpt>
      <trkpt lat="46.53351" lon="5.99634">
        <ele>848.98</ele>
        <time>2014-07-03T10:16:23Z</time>
      </trkpt>
      <trkpt lat="46.53318" lon="5.99592">
        <ele>849.94</ele>
        <time>2014-07-03T10:16:37Z</time>
      </trkpt>
      <trkpt lat="46.53278" lon="5.99559">
        <ele>851.38</ele>
        <time>2014-07-03T10:16:52Z</time>
      </trkpt>
      <trkpt lat="46.53244" lon="5.99519">
        <ele>852.83</ele>
        <time>2014-07-03T10:17:07Z</time>
      </trkpt>
      <trkpt lat="46.53216" lon="5.99437">
        <ele>854.27</ele>
        <time>2014-07-03T10:17:28Z</time>
      </trkpt>
      <trkpt lat="46.53184" lon="5.99357">
        <ele>855.71</ele>
        <time>2014-07-03T10:17:47Z</time>
      </trkpt>
      <trkpt lat="46.53157" lon="5.99289">
        <ele>857.63</ele>
        <time>2014-07-03T10:18:05Z</time>
      </trkpt>
      <trkpt lat="46.53139" lon="5.99224">
        <ele>859.56</ele>
        <time>2014-07-03T10:18:23Z</time>
      </trkpt>
      <trkpt lat="46.5312" lon="5.99172">
        <ele>861.96</ele>
        <time>2014-07-03T10:18:40Z</time>
      </trkpt>
      <trkpt lat="46.53102" lon="5.99132">
        <ele>863.4</ele>
        <time>2014-07-03T10:18:54Z</time>
      </trkpt>
      <trkpt lat="46.53073" lon="5.99091">
        <ele>864.84</ele>
        <time>2014-07-03T10:19:11Z</time>
      </trkpt>
      <trkpt lat="46.53046" lon="5.99061">
        <ele>866.29</ele>
        <time>2014-07-03T10:19:26Z</time>
      </trkpt>
      <trkpt lat="46.53016" lon="5.99021">
        <ele>867.73</ele>
        <time>2014-07-03T10:19:42Z</time>
      </trkpt>
      <trkpt lat="46.52987" lon="5.98981">
        <ele>869.17</ele>
        <time>2014-07-03T10:19:59Z</time>
      </trkpt>
      <trkpt lat="46.5296" lon="5.98944">
        <ele>871.09</ele>
        <time>2014-07-03T10:20:15Z</time>
      </trkpt>
      <trkpt lat="46.52936" lon="5.98906">
        <ele>872.53</ele>
        <time>2014-07-03T10:20:30Z</time>
      </trkpt>
      <trkpt lat="46.52892" lon="5.98861">
        <ele>874.94</ele>
        <time>2014-07-03T10:20:50Z</time>
      </trkpt>
      <trkpt lat="46.52849" lon="5.98824">
        <ele>877.34</ele>
        <time>2014-07-03T10:21:08Z</time>
      </trkpt>
      <trkpt lat="46.52819" lon="5.98775">
        <ele>879.26</ele>
        <time>2014-07-03T10:21:25Z</time>
      </trkpt>
      <trkpt lat="46.52799" lon="5.98701">
        <ele>881.19</ele>
        <time>2014-07-03T10:21:47Z</time>
      </trkpt>
      <trkpt lat="46.5279" lon="5.98634">
        <ele>883.11</ele>
        <time>2014-07-03T10:22:06Z</time>
      </trkpt>
      <trkpt lat="46.52783" lon="5.98586">
        <ele>885.03</ele>
        <time>2014-07-03T10:22:20Z</time>
      </trkpt>
      <trkpt lat="46.52772" lon="5.98532">
        <ele>886.47</ele>
        <time>2014-07-03T10:22:37Z</time>
      </trkpt>
      <trkpt lat="46.52752" lon="5.98486">
        <ele>888.4</ele>
        <time>2014-07-03T10:22:52Z</time>
      </trkpt>
      <trkpt lat="46.52725" lon="5.9845">
        <ele>890.32</ele>
        <time>2014-07-03T10:23:07Z</time>
      </trkpt>
      <trkpt lat="46.52699" lon="5.98425">
        <ele>891.76</ele>
        <time>2014-07-03T10:23:19Z</time>
      </trkpt>
      <trkpt lat="46.52662" lon="5.98387">
        <ele>893.68</ele>
        <time>2014-07-03T10:23:36Z</time>
      </trkpt>
      <trkpt lat="46.52629" lon="5.98332">
        <ele>896.09</ele>
        <time>2014-07-03T10:23:55Z</time>
      </trkpt>
      <trkpt lat="46.52607" lon="5.98277">
        <ele>897.53</ele>
        <time>2014-07-03T10:24:11Z</time>
      </trkpt>
      <trkpt lat="46.52589" lon="5.98212">
        <ele>899.45</ele>
        <time>2014-07-03T10:24:29Z</time>
      </trkpt>
      <trkpt lat="46.52577" lon="5.98148">
        <ele>900.41</ele>
        <time>2014-07-03T10:24:45Z</time>
      </trkpt>
      <trkpt lat="46.52555" lon="5.98071">
        <ele>901.37</ele>
        <time>2014-07-03T10:25:04Z</time>
      </trkpt>
      <trkpt lat="46.52525" lon="5.97995">
        <ele>901.85</ele>
        <time>2014-07-03T10:25:24Z</time>
      </trkpt>
      <trkpt lat="46.52505" lon="5.97948">
        <ele>901.85</ele>
        <time>2014-07-03T10:25:37Z</time>
      </trkpt>
      <trkpt lat="46.52468" lon="5.97888">
        <ele>902.33</ele>
        <time>2014-07-03T10:25:53Z</time>
      </trkpt>
      <trkpt lat="46.52415" lon="5.97848">
        <ele>902.82</ele>
        <time>2014-07-03T10:26:10Z</time>
      </trkpt>
      <trkpt lat="46.52374" lon="5.97824">
        <ele>904.74</ele>
        <time>2014-07-03T10:26:25Z</time>
      </trkpt>
      <trkpt lat="46.52342" lon="5.97789">
        <ele>904.26</ele>
        <time>2014-07-03T10:26:39Z</time>
      </trkpt>
      <trkpt lat="46.52318" lon="5.97754">
        <ele>902.33</ele>
        <time>2014-07-03T10:26:51Z</time>
      </trkpt>
      <trkpt lat="46.52315" lon="5.97752">
        <ele>902.33</ele>
        <time>2014-07-03T10:27:06Z</time>
      </trkpt>
      <trkpt lat="46.52315" lon="5.9775">
        <ele>902.82</ele>
        <time>2014-07-03T10:27:36Z</time>
      </trkpt>
      <trkpt lat="46.52315" lon="5.97753">
        <ele>902.33</ele>
        <time>2014-07-03T10:28:08Z</time>
      </trkpt>
      <trkpt lat="46.52314" lon="5.97754">
        <ele>902.33</ele>
        <time>2014-07-03T10:28:53Z</time>
      </trkpt>
      <trkpt lat="46.52313" lon="5.97752">
        <ele>902.33</ele>
        <time>2014-07-03T10:28:56Z</time>
      </trkpt>
      <trkpt lat="46.52308" lon="5.9775">
        <ele>902.33</ele>
        <time>2014-07-03T10:29:10Z</time>
      </trkpt>
      <trkpt lat="46.52307" lon="5.9775">
        <ele>902.33</ele>
        <time>2014-07-03T10:29:41Z</time>
      </trkpt>
      <trkpt lat="46.52309" lon="5.97749">
        <ele>902.33</ele>
        <time>2014-07-03T10:30:10Z</time>
      </trkpt>
      <trkpt lat="46.52309" lon="5.97749">
        <ele>902.33</ele>
        <time>2014-07-03T10:30:43Z</time>
      </trkpt>
      <trkpt lat="46.52308" lon="5.97751">
        <ele>901.85</ele>
        <time>2014-07-03T10:31:14Z</time>
      </trkpt>
      <trkpt lat="46.52308" lon="5.97748">
        <ele>901.85</ele>
        <time>2014-07-03T10:31:40Z</time>
      </trkpt>
      <trkpt lat="46.52308" lon="5.97751">
        <ele>901.85</ele>
        <time>2014-07-03T10:32:17Z</time>
      </trkpt>
      <trkpt lat="46.52306" lon="5.97751">
        <ele>901.85</ele>
        <time>2014-07-03T10:32:42Z</time>
      </trkpt>
      <trkpt lat="46.52305" lon="5.9775">
        <ele>901.85</ele>
        <time>2014-07-03T10:33:13Z</time>
      </trkpt>
      <trkpt lat="46.52304" lon="5.97753">
        <ele>901.85</ele>
        <time>2014-07-03T10:33:29Z</time>
      </trkpt>
      <trkpt lat="46.52303" lon="5.97753">
        <ele>901.37</ele>
        <time>2014-07-03T10:33:57Z</time>
      </trkpt>
      <trkpt lat="46.52302" lon="5.97756">
        <ele>901.85</ele>
        <time>2014-07-03T10:34:28Z</time>
      </trkpt>
      <trkpt lat="46.52302" lon="5.97755">
        <ele>901.37</ele>
        <time>2014-07-03T10:34:46Z</time>
      </trkpt>
      <trkpt lat="46.52306" lon="5.97756">
        <ele>901.85</ele>
        <time>2014-07-03T10:35:13Z</time>
      </trkpt>
      <trkpt lat="46.52306" lon="5.97753">
        <ele>901.85</ele>
        <time>2014-07-03T10:35:53Z</time>
      </trkpt>
      <trkpt lat="46.52308" lon="5.97754">
        <ele>901.37</ele>
        <time>2014-07-03T10:36:21Z</time>
      </trkpt>
      <trkpt lat="46.52308" lon="5.97753">
        <ele>901.85</ele>
        <time>2014-07-03T10:36:43Z</time>
      </trkpt>
      <trkpt lat="46.52306" lon="5.97754">
        <ele>901.37</ele>
        <time>2014-07-03T10:37:17Z</time>
      </trkpt>
      <trkpt lat="46.52308" lon="5.97755">
        <ele>901.37</ele>
        <time>2014-07-03T10:37:53Z</time>
      </trkpt>
      <trkpt lat="46.52309" lon="5.97756">
        <ele>901.85</ele>
        <time>2014-07-03T10:38:22Z</time>
      </trkpt>
      <trkpt lat="46.52308" lon="5.97758">
        <ele>901.85</ele>
        <time>2014-07-03T10:38:47Z</time>
      </trkpt>
      <trkpt lat="46.52311" lon="5.97758">
        <ele>901.85</ele>
        <time>2014-07-03T10:39:22Z</time>
      </trkpt>
      <trkpt lat="46.52311" lon="5.97758">
        <ele>901.85</ele>
        <time>2014-07-03T10:39:48Z</time>
      </trkpt>
      <trkpt lat="46.52312" lon="5.97758">
        <ele>901.85</ele>
        <time>2014-07-03T10:40:26Z</time>
      </trkpt>
      <trkpt lat="46.52311" lon="5.9776">
        <ele>901.85</ele>
        <time>2014-07-03T10:40:52Z</time>
      </trkpt>
      <trkpt lat="46.5231" lon="5.97761">
        <ele>901.85</ele>
        <time>2014-07-03T10:41:26Z</time>
      </trkpt>
      <trkpt lat="46.52309" lon="5.97759">
        <ele>901.85</ele>
        <time>2014-07-03T10:41:56Z</time>
      </trkpt>
      <trkpt lat="46.52311" lon="5.97757">
        <ele>901.85</ele>
        <time>2014-07-03T10:42:22Z</time>
      </trkpt>
      <trkpt lat="46.52307" lon="5.97758">
        <ele>901.85</ele>
        <time>2014-07-03T10:42:58Z</time>
      </trkpt>
      <trkpt lat="46.52309" lon="5.97755">
        <ele>901.85</ele>
        <time>2014-07-03T10:43:31Z</time>
      </trkpt>
      <trkpt lat="46.52309" lon="5.97756">
        <ele>901.85</ele>
        <time>2014-07-03T10:44:00Z</time>
      </trkpt>
      <trkpt lat="46.52308" lon="5.97755">
        <ele>901.85</ele>
        <time>2014-07-03T10:44:32Z</time>
      </trkpt>
      <trkpt lat="46.52308" lon="5.97753">
        <ele>901.85</ele>
        <time>2014-07-03T10:45:05Z</time>
      </trkpt>
      <trkpt lat="46.52306" lon="5.97749">
        <ele>901.85</ele>
        <time>2014-07-03T10:45:46Z</time>
      </trkpt>
      <trkpt lat="46.52307" lon="5.97752">
        <ele>902.33</ele>
        <time>2014-07-03T10:46:13Z</time>
      </trkpt>
      <trkpt lat="46.52305" lon="5.97753">
        <ele>901.85</ele>
        <time>2014-07-03T10:46:36Z</time>
      </trkpt>
      <trkpt lat="46.52306" lon="5.97752">
        <ele>901.85</ele>
        <time>2014-07-03T10:47:07Z</time>
      </trkpt>
      <trkpt lat="46.52307" lon="5.97749">
        <ele>902.33</ele>
        <time>2014-07-03T10:47:26Z</time>
      </trkpt>
      <trkpt lat="46.52308" lon="5.97748">
        <ele>902.33</ele>
        <time>2014-07-03T10:47:30Z</time>
      </trkpt>
      <trkpt lat="46.52305" lon="5.97731">
        <ele>901.85</ele>
        <time>2014-07-03T10:47:37Z</time>
      </trkpt>
      <trkpt lat="46.52274" lon="5.97673">
        <ele>900.89</ele>
        <time>2014-07-03T10:47:51Z</time>
      </trkpt>
      <trkpt lat="46.52243" lon="5.97601">
        <ele>899.45</ele>
        <time>2014-07-03T10:48:05Z</time>
      </trkpt>
      <trkpt lat="46.52204" lon="5.97505">
        <ele>898.97</ele>
        <time>2014-07-03T10:48:25Z</time>
      </trkpt>
      <trkpt lat="46.52174" lon="5.97437">
        <ele>898.97</ele>
        <time>2014-07-03T10:48:39Z</time>
      </trkpt>
      <trkpt lat="46.5212" lon="5.9735">
        <ele>897.53</ele>
        <time>2014-07-03T10:48:56Z</time>
      </trkpt>
      <trkpt lat="46.52105" lon="5.97333">
        <ele>898.01</ele>
        <time>2014-07-03T10:49:00Z</time>
      </trkpt>
      <trkpt lat="46.52069" lon="5.973">
        <ele>897.53</ele>
        <time>2014-07-03T10:49:09Z</time>
      </trkpt>
      <trkpt lat="46.52055" lon="5.97283">
        <ele>898.01</ele>
        <time>2014-07-03T10:49:13Z</time>
      </trkpt>
      <trkpt lat="46.5204" lon="5.97241">
        <ele>897.53</ele>
        <time>2014-07-03T10:49:20Z</time>
      </trkpt>
      <trkpt lat="46.52032" lon="5.97211">
        <ele>897.05</ele>
        <time>2014-07-03T10:49:25Z</time>
      </trkpt>
      <trkpt lat="46.51999" lon="5.97084">
        <ele>894.64</ele>
        <time>2014-07-03T10:49:46Z</time>
      </trkpt>
      <trkpt lat="46.51998" lon="5.97084">
        <ele>895.12</ele>
        <time>2014-07-03T10:49:58Z</time>
      </trkpt>
      <trkpt lat="46.51998" lon="5.97084">
        <ele>895.12</ele>
        <time>2014-07-03T10:50:35Z</time>
      </trkpt>
      <trkpt lat="46.51999" lon="5.97084">
        <ele>895.12</ele>
        <time>2014-07-03T10:51:08Z</time>
      </trkpt>
      <trkpt lat="46.51999" lon="5.97084">
        <ele>895.12</ele>
        <time>2014-07-03T10:51:25Z</time>
      </trkpt>
      <trkpt lat="46.51992" lon="5.97072">
        <ele>895.12</ele>
        <time>2014-07-03T10:51:31Z</time>
      </trkpt>
      <trkpt lat="46.5197" lon="5.97029">
        <ele>894.64</ele>
        <time>2014-07-03T10:51:44Z</time>
      </trkpt>
      <trkpt lat="46.51929" lon="5.96942">
        <ele>893.2</ele>
        <time>2014-07-03T10:52:00Z</time>
      </trkpt>
      <trkpt lat="46.51863" lon="5.9679">
        <ele>890.8</ele>
        <time>2014-07-03T10:52:21Z</time>
      </trkpt>
      <trkpt lat="46.51809" lon="5.96664">
        <ele>888.4</ele>
        <time>2014-07-03T10:52:37Z</time>
      </trkpt>
      <trkpt lat="46.51746" lon="5.96537">
        <ele>885.99</ele>
        <time>2014-07-03T10:52:53Z</time>
      </trkpt>
      <trkpt lat="46.51667" lon="5.96389">
        <ele>883.59</ele>
        <time>2014-07-03T10:53:12Z</time>
      </trkpt>
      <trkpt lat="46.51588" lon="5.96249">
        <ele>883.11</ele>
        <time>2014-07-03T10:53:32Z</time>
      </trkpt>
      <trkpt lat="46.51577" lon="5.9623">
        <ele>884.55</ele>
        <time>2014-07-03T10:53:35Z</time>
      </trkpt>
      <trkpt lat="46.51508" lon="5.96098">
        <ele>883.59</ele>
        <time>2014-07-03T10:53:54Z</time>
      </trkpt>
      <trkpt lat="46.51432" lon="5.95984">
        <ele>883.59</ele>
        <time>2014-07-03T10:54:13Z</time>
      </trkpt>
      <trkpt lat="46.51354" lon="5.95904">
        <ele>883.11</ele>
        <time>2014-07-03T10:54:30Z</time>
      </trkpt>
      <trkpt lat="46.5128" lon="5.95889">
        <ele>882.15</ele>
        <time>2014-07-03T10:54:43Z</time>
      </trkpt>
      <trkpt lat="46.51274" lon="5.95887">
        <ele>882.15</ele>
        <time>2014-07-03T10:54:44Z</time>
      </trkpt>
      <trkpt lat="46.51207" lon="5.95819">
        <ele>880.71</ele>
        <time>2014-07-03T10:54:57Z</time>
      </trkpt>
      <trkpt lat="46.51137" lon="5.9578">
        <ele>880.22</ele>
        <time>2014-07-03T10:55:10Z</time>
      </trkpt>
      <trkpt lat="46.51074" lon="5.95755">
        <ele>880.71</ele>
        <time>2014-07-03T10:55:24Z</time>
      </trkpt>
      <trkpt lat="46.50979" lon="5.95733">
        <ele>879.74</ele>
        <time>2014-07-03T10:55:44Z</time>
      </trkpt>
      <trkpt lat="46.509" lon="5.95697">
        <ele>878.3</ele>
        <time>2014-07-03T10:56:00Z</time>
      </trkpt>
      <trkpt lat="46.50807" lon="5.95602">
        <ele>877.34</ele>
        <time>2014-07-03T10:56:21Z</time>
      </trkpt>
      <trkpt lat="46.50747" lon="5.95517">
        <ele>877.82</ele>
        <time>2014-07-03T10:56:38Z</time>
      </trkpt>
      <trkpt lat="46.50737" lon="5.95484">
        <ele>877.82</ele>
        <time>2014-07-03T10:56:49Z</time>
      </trkpt>
      <trkpt lat="46.50738" lon="5.95485">
        <ele>877.82</ele>
        <time>2014-07-03T10:57:14Z</time>
      </trkpt>
      <trkpt lat="46.50738" lon="5.95487">
        <ele>877.82</ele>
        <time>2014-07-03T10:57:41Z</time>
      </trkpt>
      <trkpt lat="46.50737" lon="5.95486">
        <ele>878.3</ele>
        <time>2014-07-03T10:58:04Z</time>
      </trkpt>
      <trkpt lat="46.50736" lon="5.95484">
        <ele>877.82</ele>
        <time>2014-07-03T10:58:35Z</time>
      </trkpt>
      <trkpt lat="46.50735" lon="5.95485">
        <ele>877.82</ele>
        <time>2014-07-03T10:58:54Z</time>
      </trkpt>
      <trkpt lat="46.50737" lon="5.95484">
        <ele>877.82</ele>
        <time>2014-07-03T10:59:39Z</time>
      </trkpt>
      <trkpt lat="46.50738" lon="5.95485">
        <ele>877.82</ele>
        <time>2014-07-03T11:00:13Z</time>
      </trkpt>
      <trkpt lat="46.50741" lon="5.95485">
        <ele>877.82</ele>
        <time>2014-07-03T11:00:49Z</time>
      </trkpt>
      <trkpt lat="46.50739" lon="5.95485">
        <ele>877.82</ele>
        <time>2014-07-03T11:01:21Z</time>
      </trkpt>
      <trkpt lat="46.5074" lon="5.95483">
        <ele>877.34</ele>
        <time>2014-07-03T11:01:49Z</time>
      </trkpt>
      <trkpt lat="46.5074" lon="5.95483">
        <ele>877.34</ele>
        <time>2014-07-03T11:02:17Z</time>
      </trkpt>
      <trkpt lat="46.50739" lon="5.95485">
        <ele>877.34</ele>
        <time>2014-07-03T11:02:44Z</time>
      </trkpt>
      <trkpt lat="46.50737" lon="5.95485">
        <ele>877.34</ele>
        <time>2014-07-03T11:03:05Z</time>
      </trkpt>
      <trkpt lat="46.50736" lon="5.95482">
        <ele>877.34</ele>
        <time>2014-07-03T11:03:07Z</time>
      </trkpt>
      <trkpt lat="46.50723" lon="5.95452">
        <ele>878.3</ele>
        <time>2014-07-03T11:03:20Z</time>
      </trkpt>
      <trkpt lat="46.50702" lon="5.95397">
        <ele>879.74</ele>
        <time>2014-07-03T11:03:37Z</time>
      </trkpt>
      <trkpt lat="46.50679" lon="5.95323">
        <ele>881.67</ele>
        <time>2014-07-03T11:03:57Z</time>
      </trkpt>
      <trkpt lat="46.50656" lon="5.95267">
        <ele>883.11</ele>
        <time>2014-07-03T11:04:14Z</time>
      </trkpt>
      <trkpt lat="46.50624" lon="5.95201">
        <ele>885.03</ele>
        <time>2014-07-03T11:04:33Z</time>
      </trkpt>
      <trkpt lat="46.50602" lon="5.95133">
        <ele>886.95</ele>
        <time>2014-07-03T11:04:50Z</time>
      </trkpt>
      <trkpt lat="46.50578" lon="5.95068">
        <ele>888.88</ele>
        <time>2014-07-03T11:05:08Z</time>
      </trkpt>
      <trkpt lat="46.50548" lon="5.95021">
        <ele>890.32</ele>
        <time>2014-07-03T11:05:24Z</time>
      </trkpt>
      <trkpt lat="46.5051" lon="5.94955">
        <ele>892.72</ele>
        <time>2014-07-03T11:05:46Z</time>
      </trkpt>
      <trkpt lat="46.50489" lon="5.94889">
        <ele>895.12</ele>
        <time>2014-07-03T11:06:05Z</time>
      </trkpt>
      <trkpt lat="46.50469" lon="5.94828">
        <ele>896.57</ele>
        <time>2014-07-03T11:06:22Z</time>
      </trkpt>
      <trkpt lat="46.50446" lon="5.94763">
        <ele>898.49</ele>
        <time>2014-07-03T11:06:40Z</time>
      </trkpt>
      <trkpt lat="46.50421" lon="5.94707">
        <ele>899.93</ele>
        <time>2014-07-03T11:06:55Z</time>
      </trkpt>
      <trkpt lat="46.50422" lon="5.94636">
        <ele>901.85</ele>
        <time>2014-07-03T11:07:11Z</time>
      </trkpt>
      <trkpt lat="46.50446" lon="5.9457">
        <ele>903.78</ele>
        <time>2014-07-03T11:07:28Z</time>
      </trkpt>
      <trkpt lat="46.50487" lon="5.9454">
        <ele>905.7</ele>
        <time>2014-07-03T11:07:44Z</time>
      </trkpt>
      <trkpt lat="46.50526" lon="5.94502">
        <ele>907.62</ele>
        <time>2014-07-03T11:08:00Z</time>
      </trkpt>
      <trkpt lat="46.50543" lon="5.94448">
        <ele>910.03</ele>
        <time>2014-07-03T11:08:16Z</time>
      </trkpt>
      <trkpt lat="46.50539" lon="5.94381">
        <ele>911.95</ele>
        <time>2014-07-03T11:08:33Z</time>
      </trkpt>
      <trkpt lat="46.50516" lon="5.943">
        <ele>913.39</ele>
        <time>2014-07-03T11:08:53Z</time>
      </trkpt>
      <trkpt lat="46.50497" lon="5.94228">
        <ele>914.35</ele>
        <time>2014-07-03T11:09:10Z</time>
      </trkpt>
      <trkpt lat="46.50505" lon="5.94162">
        <ele>916.27</ele>
        <time>2014-07-03T11:09:25Z</time>
      </trkpt>
      <trkpt lat="46.50546" lon="5.94103">
        <ele>917.72</ele>
        <time>2014-07-03T11:09:43Z</time>
      </trkpt>
      <trkpt lat="46.50546" lon="5.94034">
        <ele>918.68</ele>
        <time>2014-07-03T11:09:58Z</time>
      </trkpt>
      <trkpt lat="46.50528" lon="5.93945">
        <ele>920.12</ele>
        <time>2014-07-03T11:10:17Z</time>
      </trkpt>
      <trkpt lat="46.50508" lon="5.93841">
        <ele>921.08</ele>
        <time>2014-07-03T11:10:38Z</time>
      </trkpt>
      <trkpt lat="46.50485" lon="5.9377">
        <ele>922.52</ele>
        <time>2014-07-03T11:10:55Z</time>
      </trkpt>
      <trkpt lat="46.5048" lon="5.93764">
        <ele>922.52</ele>
        <time>2014-07-03T11:11:07Z</time>
      </trkpt>
      <trkpt lat="46.50478" lon="5.93763">
        <ele>923</ele>
        <time>2014-07-03T11:11:40Z</time>
      </trkpt>
      <trkpt lat="46.50479" lon="5.93763">
        <ele>923</ele>
        <time>2014-07-03T11:12:14Z</time>
      </trkpt>
      <trkpt lat="46.50477" lon="5.93762">
        <ele>923</ele>
        <time>2014-07-03T11:12:26Z</time>
      </trkpt>
      <trkpt lat="46.50445" lon="5.93745">
        <ele>923.96</ele>
        <time>2014-07-03T11:12:40Z</time>
      </trkpt>
      <trkpt lat="46.50389" lon="5.93706">
        <ele>925.41</ele>
        <time>2014-07-03T11:12:58Z</time>
      </trkpt>
      <trkpt lat="46.50348" lon="5.93636">
        <ele>926.37</ele>
        <time>2014-07-03T11:13:16Z</time>
      </trkpt>
      <trkpt lat="46.50306" lon="5.93557">
        <ele>927.33</ele>
        <time>2014-07-03T11:13:35Z</time>
      </trkpt>
      <trkpt lat="46.50268" lon="5.93484">
        <ele>928.77</ele>
        <time>2014-07-03T11:13:52Z</time>
      </trkpt>
      <trkpt lat="46.50214" lon="5.93383">
        <ele>928.77</ele>
        <time>2014-07-03T11:14:14Z</time>
      </trkpt>
      <trkpt lat="46.50159" lon="5.93278">
        <ele>926.37</ele>
        <time>2014-07-03T11:14:31Z</time>
      </trkpt>
      <trkpt lat="46.50118" lon="5.93186">
        <ele>923</ele>
        <time>2014-07-03T11:14:41Z</time>
      </trkpt>
      <trkpt lat="46.50053" lon="5.93034">
        <ele>921.56</ele>
        <time>2014-07-03T11:14:58Z</time>
      </trkpt>
      <trkpt lat="46.49979" lon="5.92944">
        <ele>920.12</ele>
        <time>2014-07-03T11:15:13Z</time>
      </trkpt>
      <trkpt lat="46.499" lon="5.92846">
        <ele>919.16</ele>
        <time>2014-07-03T11:15:30Z</time>
      </trkpt>
      <trkpt lat="46.4984" lon="5.92748">
        <ele>916.27</ele>
        <time>2014-07-03T11:15:43Z</time>
      </trkpt>
      <trkpt lat="46.49788" lon="5.9268">
        <ele>912.91</ele>
        <time>2014-07-03T11:15:51Z</time>
      </trkpt>
      <trkpt lat="46.49759" lon="5.92646">
        <ele>910.99</ele>
        <time>2014-07-03T11:15:55Z</time>
      </trkpt>
      <trkpt lat="46.49666" lon="5.92533">
        <ele>907.62</ele>
        <time>2014-07-03T11:16:09Z</time>
      </trkpt>
      <trkpt lat="46.49663" lon="5.92494">
        <ele>907.62</ele>
        <time>2014-07-03T11:16:13Z</time>
      </trkpt>
      <trkpt lat="46.49666" lon="5.92447">
        <ele>909.54</ele>
        <time>2014-07-03T11:16:20Z</time>
      </trkpt>
      <trkpt lat="46.49642" lon="5.92379">
        <ele>912.91</ele>
        <time>2014-07-03T11:16:36Z</time>
      </trkpt>
      <trkpt lat="46.49632" lon="5.92311">
        <ele>915.31</ele>
        <time>2014-07-03T11:16:54Z</time>
      </trkpt>
      <trkpt lat="46.49626" lon="5.9225">
        <ele>916.75</ele>
        <time>2014-07-03T11:17:10Z</time>
      </trkpt>
      <trkpt lat="46.4963" lon="5.92185">
        <ele>918.68</ele>
        <time>2014-07-03T11:17:27Z</time>
      </trkpt>
      <trkpt lat="46.49648" lon="5.92146">
        <ele>920.6</ele>
        <time>2014-07-03T11:17:41Z</time>
      </trkpt>
      <trkpt lat="46.49672" lon="5.92102">
        <ele>922.04</ele>
        <time>2014-07-03T11:17:57Z</time>
      </trkpt>
      <trkpt lat="46.49696" lon="5.92068">
        <ele>922.52</ele>
        <time>2014-07-03T11:18:09Z</time>
      </trkpt>
      <trkpt lat="46.49729" lon="5.92038">
        <ele>922.52</ele>
        <time>2014-07-03T11:18:21Z</time>
      </trkpt>
      <trkpt lat="46.49761" lon="5.92011">
        <ele>923</ele>
        <time>2014-07-03T11:18:34Z</time>
      </trkpt>
      <trkpt lat="46.4981" lon="5.91974">
        <ele>923.48</ele>
        <time>2014-07-03T11:18:49Z</time>
      </trkpt>
      <trkpt lat="46.49849" lon="5.91948">
        <ele>923.48</ele>
        <time>2014-07-03T11:19:01Z</time>
      </trkpt>
      <trkpt lat="46.4988" lon="5.91928">
        <ele>923.48</ele>
        <time>2014-07-03T11:19:11Z</time>
      </trkpt>
      <trkpt lat="46.4992" lon="5.91896">
        <ele>924.93</ele>
        <time>2014-07-03T11:19:25Z</time>
      </trkpt>
      <trkpt lat="46.49952" lon="5.91863">
        <ele>925.89</ele>
        <time>2014-07-03T11:19:37Z</time>
      </trkpt>
      <trkpt lat="46.49977" lon="5.91824">
        <ele>925.89</ele>
        <time>2014-07-03T11:19:48Z</time>
      </trkpt>
      <trkpt lat="46.50011" lon="5.91779">
        <ele>926.85</ele>
        <time>2014-07-03T11:20:02Z</time>
      </trkpt>
      <trkpt lat="46.50052" lon="5.91732">
        <ele>926.85</ele>
        <time>2014-07-03T11:20:16Z</time>
      </trkpt>
      <trkpt lat="46.50086" lon="5.91681">
        <ele>926.37</ele>
        <time>2014-07-03T11:20:28Z</time>
      </trkpt>
      <trkpt lat="46.50098" lon="5.91606">
        <ele>927.33</ele>
        <time>2014-07-03T11:20:42Z</time>
      </trkpt>
      <trkpt lat="46.50087" lon="5.91522">
        <ele>927.81</ele>
        <time>2014-07-03T11:20:58Z</time>
      </trkpt>
      <trkpt lat="46.50073" lon="5.91444">
        <ele>927.33</ele>
        <time>2014-07-03T11:21:11Z</time>
      </trkpt>
      <trkpt lat="46.50071" lon="5.91432">
        <ele>927.81</ele>
        <time>2014-07-03T11:21:13Z</time>
      </trkpt>
      <trkpt lat="46.5005" lon="5.9134">
        <ele>927.33</ele>
        <time>2014-07-03T11:21:27Z</time>
      </trkpt>
      <trkpt lat="46.50034" lon="5.9125">
        <ele>928.29</ele>
        <time>2014-07-03T11:21:43Z</time>
      </trkpt>
      <trkpt lat="46.50043" lon="5.91185">
        <ele>928.29</ele>
        <time>2014-07-03T11:21:55Z</time>
      </trkpt>
      <trkpt lat="46.5007" lon="5.91125">
        <ele>928.77</ele>
        <time>2014-07-03T11:22:08Z</time>
      </trkpt>
      <trkpt lat="46.50104" lon="5.91057">
        <ele>929.73</ele>
        <time>2014-07-03T11:22:24Z</time>
      </trkpt>
      <trkpt lat="46.50109" lon="5.91049">
        <ele>929.73</ele>
        <time>2014-07-03T11:22:26Z</time>
      </trkpt>
      <trkpt lat="46.50135" lon="5.90958">
        <ele>930.69</ele>
        <time>2014-07-03T11:22:44Z</time>
      </trkpt>
      <trkpt lat="46.50135" lon="5.90879">
        <ele>931.17</ele>
        <time>2014-07-03T11:22:59Z</time>
      </trkpt>
      <trkpt lat="46.50124" lon="5.9082">
        <ele>931.65</ele>
        <time>2014-07-03T11:23:11Z</time>
      </trkpt>
      <trkpt lat="46.50112" lon="5.90763">
        <ele>934.06</ele>
        <time>2014-07-03T11:23:25Z</time>
      </trkpt>
      <trkpt lat="46.50092" lon="5.90713">
        <ele>935.02</ele>
        <time>2014-07-03T11:23:39Z</time>
      </trkpt>
      <trkpt lat="46.50059" lon="5.90669">
        <ele>935.98</ele>
        <time>2014-07-03T11:23:54Z</time>
      </trkpt>
      <trkpt lat="46.50026" lon="5.90617">
        <ele>937.9</ele>
        <time>2014-07-03T11:24:11Z</time>
      </trkpt>
      <trkpt lat="46.49995" lon="5.90565">
        <ele>939.83</ele>
        <time>2014-07-03T11:24:29Z</time>
      </trkpt>
      <trkpt lat="46.49967" lon="5.90516">
        <ele>942.23</ele>
        <time>2014-07-03T11:24:47Z</time>
      </trkpt>
      <trkpt lat="46.49937" lon="5.90462">
        <ele>943.67</ele>
        <time>2014-07-03T11:25:06Z</time>
      </trkpt>
      <trkpt lat="46.49916" lon="5.90401">
        <ele>945.59</ele>
        <time>2014-07-03T11:25:23Z</time>
      </trkpt>
      <trkpt lat="46.49901" lon="5.90335">
        <ele>946.07</ele>
        <time>2014-07-03T11:25:40Z</time>
      </trkpt>
      <trkpt lat="46.49886" lon="5.90275">
        <ele>948</ele>
        <time>2014-07-03T11:25:56Z</time>
      </trkpt>
      <trkpt lat="46.49871" lon="5.90215">
        <ele>949.92</ele>
        <time>2014-07-03T11:26:13Z</time>
      </trkpt>
      <trkpt lat="46.49847" lon="5.90156">
        <ele>951.84</ele>
        <time>2014-07-03T11:26:32Z</time>
      </trkpt>
      <trkpt lat="46.49821" lon="5.90097">
        <ele>953.77</ele>
        <time>2014-07-03T11:26:52Z</time>
      </trkpt>
      <trkpt lat="46.49803" lon="5.9004">
        <ele>954.25</ele>
        <time>2014-07-03T11:27:09Z</time>
      </trkpt>
      <trkpt lat="46.4982" lon="5.89976">
        <ele>953.77</ele>
        <time>2014-07-03T11:27:25Z</time>
      </trkpt>
      <trkpt lat="46.4987" lon="5.89926">
        <ele>953.28</ele>
        <time>2014-07-03T11:27:41Z</time>
      </trkpt>
      <trkpt lat="46.49907" lon="5.89897">
        <ele>952.8</ele>
        <time>2014-07-03T11:27:54Z</time>
      </trkpt>
      <trkpt lat="46.49911" lon="5.89896">
        <ele>952.8</ele>
        <time>2014-07-03T11:28:06Z</time>
      </trkpt>
      <trkpt lat="46.49912" lon="5.89893">
        <ele>952.8</ele>
        <time>2014-07-03T11:28:25Z</time>
      </trkpt>
      <trkpt lat="46.49915" lon="5.89893">
        <ele>952.8</ele>
        <time>2014-07-03T11:28:47Z</time>
      </trkpt>
      <trkpt lat="46.49916" lon="5.89891">
        <ele>952.8</ele>
        <time>2014-07-03T11:29:06Z</time>
      </trkpt>
      <trkpt lat="46.49927" lon="5.89869">
        <ele>952.8</ele>
        <time>2014-07-03T11:29:16Z</time>
      </trkpt>
      <trkpt lat="46.49923" lon="5.89868">
        <ele>952.32</ele>
        <time>2014-07-03T11:29:29Z</time>
      </trkpt>
      <trkpt lat="46.49923" lon="5.89868">
        <ele>952.32</ele>
        <time>2014-07-03T11:29:31Z</time>
      </trkpt>
      <trkpt lat="46.49923" lon="5.8987">
        <ele>952.8</ele>
        <time>2014-07-03T11:29:42Z</time>
      </trkpt>
      <trkpt lat="46.49921" lon="5.89873">
        <ele>952.32</ele>
        <time>2014-07-03T11:30:03Z</time>
      </trkpt>
      <trkpt lat="46.49918" lon="5.89876">
        <ele>952.8</ele>
        <time>2014-07-03T11:30:28Z</time>
      </trkpt>
      <trkpt lat="46.49919" lon="5.89875">
        <ele>952.8</ele>
        <time>2014-07-03T11:30:46Z</time>
      </trkpt>
      <trkpt lat="46.49919" lon="5.89876">
        <ele>952.8</ele>
        <time>2014-07-03T11:31:23Z</time>
      </trkpt>
      <trkpt lat="46.4992" lon="5.89877">
        <ele>952.8</ele>
        <time>2014-07-03T11:31:47Z</time>
      </trkpt>
      <trkpt lat="46.49922" lon="5.8988">
        <ele>952.8</ele>
        <time>2014-07-03T11:32:08Z</time>
      </trkpt>
      <trkpt lat="46.49923" lon="5.8988">
        <ele>952.8</ele>
        <time>2014-07-03T11:32:34Z</time>
      </trkpt>
      <trkpt lat="46.49922" lon="5.89874">
        <ele>952.8</ele>
        <time>2014-07-03T11:32:48Z</time>
      </trkpt>
      <trkpt lat="46.49926" lon="5.89871">
        <ele>952.8</ele>
        <time>2014-07-03T11:33:09Z</time>
      </trkpt>
      <trkpt lat="46.49926" lon="5.89871">
        <ele>952.8</ele>
        <time>2014-07-03T11:33:41Z</time>
      </trkpt>
      <trkpt lat="46.49926" lon="5.89871">
        <ele>952.8</ele>
        <time>2014-07-03T11:33:43Z</time>
      </trkpt>
      <trkpt lat="46.49946" lon="5.89857">
        <ele>952.8</ele>
        <time>2014-07-03T11:33:55Z</time>
      </trkpt>
      <trkpt lat="46.49955" lon="5.89848">
        <ele>952.32</ele>
        <time>2014-07-03T11:34:04Z</time>
      </trkpt>
      <trkpt lat="46.49947" lon="5.89849">
        <ele>952.32</ele>
        <time>2014-07-03T11:34:09Z</time>
      </trkpt>
      <trkpt lat="46.49943" lon="5.89862">
        <ele>952.32</ele>
        <time>2014-07-03T11:34:21Z</time>
      </trkpt>
      <trkpt lat="46.49943" lon="5.89865">
        <ele>952.32</ele>
        <time>2014-07-03T11:34:44Z</time>
      </trkpt>
      <trkpt lat="46.49944" lon="5.89866">
        <ele>952.32</ele>
        <time>2014-07-03T11:34:56Z</time>
      </trkpt>
      <trkpt lat="46.49945" lon="5.89866">
        <ele>952.32</ele>
        <time>2014-07-03T11:35:05Z</time>
      </trkpt>
      <trkpt lat="46.49943" lon="5.89863">
        <ele>952.32</ele>
        <time>2014-07-03T11:35:40Z</time>
      </trkpt>
      <trkpt lat="46.49945" lon="5.89863">
        <ele>952.8</ele>
        <time>2014-07-03T11:36:14Z</time>
      </trkpt>
      <trkpt lat="46.49944" lon="5.89864">
        <ele>952.8</ele>
        <time>2014-07-03T11:36:52Z</time>
      </trkpt>
      <trkpt lat="46.49947" lon="5.8986">
        <ele>952.8</ele>
        <time>2014-07-03T11:37:14Z</time>
      </trkpt>
      <trkpt lat="46.49947" lon="5.89854">
        <ele>952.8</ele>
        <time>2014-07-03T11:37:17Z</time>
      </trkpt>
      <trkpt lat="46.49953" lon="5.89851">
        <ele>952.8</ele>
        <time>2014-07-03T11:37:21Z</time>
      </trkpt>
      <trkpt lat="46.49996" lon="5.89828">
        <ele>951.84</ele>
        <time>2014-07-03T11:37:36Z</time>
      </trkpt>
      <trkpt lat="46.50019" lon="5.89812">
        <ele>950.88</ele>
        <time>2014-07-03T11:37:44Z</time>
      </trkpt>
      <trkpt lat="46.50027" lon="5.89807">
        <ele>950.88</ele>
        <time>2014-07-03T11:37:46Z</time>
      </trkpt>
      <trkpt lat="46.50049" lon="5.89795">
        <ele>949.92</ele>
        <time>2014-07-03T11:37:51Z</time>
      </trkpt>
      <trkpt lat="46.50115" lon="5.89761">
        <ele>946.56</ele>
        <time>2014-07-03T11:38:03Z</time>
      </trkpt>
      <trkpt lat="46.5014" lon="5.89748">
        <ele>945.59</ele>
        <time>2014-07-03T11:38:07Z</time>
      </trkpt>
      <trkpt lat="46.50208" lon="5.89719">
        <ele>941.75</ele>
        <time>2014-07-03T11:38:16Z</time>
      </trkpt>
      <trkpt lat="46.50276" lon="5.89689">
        <ele>938.38</ele>
        <time>2014-07-03T11:38:24Z</time>
      </trkpt>
      <trkpt lat="46.50374" lon="5.89646">
        <ele>936.94</ele>
        <time>2014-07-03T11:38:37Z</time>
      </trkpt>
      <trkpt lat="46.50443" lon="5.89616">
        <ele>933.1</ele>
        <time>2014-07-03T11:38:46Z</time>
      </trkpt>
      <trkpt lat="46.50451" lon="5.89612">
        <ele>933.1</ele>
        <time>2014-07-03T11:38:47Z</time>
      </trkpt>
      <trkpt lat="46.50509" lon="5.89585">
        <ele>929.73</ele>
        <time>2014-07-03T11:38:54Z</time>
      </trkpt>
      <trkpt lat="46.50587" lon="5.89551">
        <ele>931.17</ele>
        <time>2014-07-03T11:39:06Z</time>
      </trkpt>
      <trkpt lat="46.50591" lon="5.89549">
        <ele>931.17</ele>
        <time>2014-07-03T11:39:07Z</time>
      </trkpt>
      <trkpt lat="46.50608" lon="5.89528">
        <ele>931.65</ele>
        <time>2014-07-03T11:39:13Z</time>
      </trkpt>
      <trkpt lat="46.50616" lon="5.89475">
        <ele>933.58</ele>
        <time>2014-07-03T11:39:26Z</time>
      </trkpt>
      <trkpt lat="46.50625" lon="5.89415">
        <ele>935.5</ele>
        <time>2014-07-03T11:39:43Z</time>
      </trkpt>
      <trkpt lat="46.50639" lon="5.89365">
        <ele>936.46</ele>
        <time>2014-07-03T11:39:59Z</time>
      </trkpt>
      <trkpt lat="46.50658" lon="5.8931">
        <ele>937.9</ele>
        <time>2014-07-03T11:40:17Z</time>
      </trkpt>
      <trkpt lat="46.50661" lon="5.89243">
        <ele>939.35</ele>
        <time>2014-07-03T11:40:35Z</time>
      </trkpt>
      <trkpt lat="46.50651" lon="5.8916">
        <ele>941.27</ele>
        <time>2014-07-03T11:40:57Z</time>
      </trkpt>
      <trkpt lat="46.50649" lon="5.89082">
        <ele>942.71</ele>
        <time>2014-07-03T11:41:16Z</time>
      </trkpt>
      <trkpt lat="46.50631" lon="5.89011">
        <ele>944.63</ele>
        <time>2014-07-03T11:41:34Z</time>
      </trkpt>
      <trkpt lat="46.50593" lon="5.88946">
        <ele>946.07</ele>
        <time>2014-07-03T11:41:53Z</time>
      </trkpt>
      <trkpt lat="46.50576" lon="5.88884">
        <ele>946.56</ele>
        <time>2014-07-03T11:42:07Z</time>
      </trkpt>
      <trkpt lat="46.506" lon="5.88827">
        <ele>945.11</ele>
        <time>2014-07-03T11:42:19Z</time>
      </trkpt>
      <trkpt lat="46.50625" lon="5.88787">
        <ele>943.67</ele>
        <time>2014-07-03T11:42:27Z</time>
      </trkpt>
      <trkpt lat="46.50632" lon="5.88768">
        <ele>943.67</ele>
        <time>2014-07-03T11:42:30Z</time>
      </trkpt>
      <trkpt lat="46.5064" lon="5.88722">
        <ele>941.75</ele>
        <time>2014-07-03T11:42:38Z</time>
      </trkpt>
      <trkpt lat="46.50643" lon="5.8871">
        <ele>941.75</ele>
        <time>2014-07-03T11:42:40Z</time>
      </trkpt>
      <trkpt lat="46.50646" lon="5.88684">
        <ele>940.79</ele>
        <time>2014-07-03T11:42:44Z</time>
      </trkpt>
      <trkpt lat="46.50648" lon="5.88671">
        <ele>940.79</ele>
        <time>2014-07-03T11:42:46Z</time>
      </trkpt>
      <trkpt lat="46.50651" lon="5.88654">
        <ele>940.31</ele>
        <time>2014-07-03T11:42:49Z</time>
      </trkpt>
      <trkpt lat="46.50661" lon="5.88628">
        <ele>940.31</ele>
        <time>2014-07-03T11:42:54Z</time>
      </trkpt>
      <trkpt lat="46.50695" lon="5.88582">
        <ele>939.35</ele>
        <time>2014-07-03T11:43:07Z</time>
      </trkpt>
      <trkpt lat="46.50731" lon="5.88568">
        <ele>937.42</ele>
        <time>2014-07-03T11:43:17Z</time>
      </trkpt>
      <trkpt lat="46.50747" lon="5.88567">
        <ele>936.94</ele>
        <time>2014-07-03T11:43:21Z</time>
      </trkpt>
      <trkpt lat="46.50793" lon="5.88574">
        <ele>933.58</ele>
        <time>2014-07-03T11:43:31Z</time>
      </trkpt>
      <trkpt lat="46.50846" lon="5.88593">
        <ele>930.21</ele>
        <time>2014-07-03T11:43:39Z</time>
      </trkpt>
      <trkpt lat="46.50907" lon="5.88628">
        <ele>926.85</ele>
        <time>2014-07-03T11:43:48Z</time>
      </trkpt>
      <trkpt lat="46.50939" lon="5.8862">
        <ele>924.93</ele>
        <time>2014-07-03T11:43:53Z</time>
      </trkpt>
      <trkpt lat="46.50953" lon="5.8858">
        <ele>923.96</ele>
        <time>2014-07-03T11:43:58Z</time>
      </trkpt>
      <trkpt lat="46.50957" lon="5.88544">
        <ele>923.48</ele>
        <time>2014-07-03T11:44:03Z</time>
      </trkpt>
      <trkpt lat="46.50957" lon="5.8852">
        <ele>923.96</ele>
        <time>2014-07-03T11:44:07Z</time>
      </trkpt>
      <trkpt lat="46.50957" lon="5.88495">
        <ele>923.48</ele>
        <time>2014-07-03T11:44:11Z</time>
      </trkpt>
      <trkpt lat="46.50958" lon="5.88469">
        <ele>922.52</ele>
        <time>2014-07-03T11:44:15Z</time>
      </trkpt>
      <trkpt lat="46.50961" lon="5.88353">
        <ele>919.64</ele>
        <time>2014-07-03T11:44:29Z</time>
      </trkpt>
      <trkpt lat="46.50966" lon="5.88264">
        <ele>916.27</ele>
        <time>2014-07-03T11:44:39Z</time>
      </trkpt>
      <trkpt lat="46.5097" lon="5.8822">
        <ele>914.35</ele>
        <time>2014-07-03T11:44:44Z</time>
      </trkpt>
      <trkpt lat="46.50972" lon="5.88202">
        <ele>913.87</ele>
        <time>2014-07-03T11:44:46Z</time>
      </trkpt>
      <trkpt lat="46.50988" lon="5.88127">
        <ele>910.51</ele>
        <time>2014-07-03T11:44:54Z</time>
      </trkpt>
      <trkpt lat="46.50997" lon="5.88058">
        <ele>907.14</ele>
        <time>2014-07-03T11:45:01Z</time>
      </trkpt>
      <trkpt lat="46.50996" lon="5.87948">
        <ele>903.78</ele>
        <time>2014-07-03T11:45:12Z</time>
      </trkpt>
      <trkpt lat="46.51" lon="5.8787">
        <ele>900.89</ele>
        <time>2014-07-03T11:45:20Z</time>
      </trkpt>
      <trkpt lat="46.51003" lon="5.87761">
        <ele>899.45</ele>
        <time>2014-07-03T11:45:33Z</time>
      </trkpt>
      <trkpt lat="46.51012" lon="5.87669">
        <ele>897.53</ele>
        <time>2014-07-03T11:45:44Z</time>
      </trkpt>
      <trkpt lat="46.51022" lon="5.87637">
        <ele>897.05</ele>
        <time>2014-07-03T11:45:48Z</time>
      </trkpt>
      <trkpt lat="46.51053" lon="5.87551">
        <ele>894.16</ele>
        <time>2014-07-03T11:46:02Z</time>
      </trkpt>
      <trkpt lat="46.51053" lon="5.87553">
        <ele>894.16</ele>
        <time>2014-07-03T11:46:29Z</time>
      </trkpt>
      <trkpt lat="46.51052" lon="5.87552">
        <ele>895.12</ele>
        <time>2014-07-03T11:46:43Z</time>
      </trkpt>
      <trkpt lat="46.51052" lon="5.87554">
        <ele>894.16</ele>
        <time>2014-07-03T11:46:45Z</time>
      </trkpt>
      <trkpt lat="46.51053" lon="5.87556">
        <ele>894.16</ele>
        <time>2014-07-03T11:46:57Z</time>
      </trkpt>
      <trkpt lat="46.51054" lon="5.87556">
        <ele>894.16</ele>
        <time>2014-07-03T11:47:26Z</time>
      </trkpt>
      <trkpt lat="46.51054" lon="5.87556">
        <ele>894.16</ele>
        <time>2014-07-03T11:47:48Z</time>
      </trkpt>
      <trkpt lat="46.51053" lon="5.87557">
        <ele>894.16</ele>
        <time>2014-07-03T11:48:29Z</time>
      </trkpt>
      <trkpt lat="46.51053" lon="5.87557">
        <ele>893.68</ele>
        <time>2014-07-03T11:49:03Z</time>
      </trkpt>
      <trkpt lat="46.51053" lon="5.87557">
        <ele>893.68</ele>
        <time>2014-07-03T11:49:44Z</time>
      </trkpt>
      <trkpt lat="46.51053" lon="5.87557">
        <ele>893.68</ele>
        <time>2014-07-03T11:50:21Z</time>
      </trkpt>
      <trkpt lat="46.51053" lon="5.87556">
        <ele>893.2</ele>
        <time>2014-07-03T11:50:52Z</time>
      </trkpt>
      <trkpt lat="46.51052" lon="5.87556">
        <ele>893.2</ele>
        <time>2014-07-03T11:51:26Z</time>
      </trkpt>
      <trkpt lat="46.51053" lon="5.87557">
        <ele>893.2</ele>
        <time>2014-07-03T11:52:02Z</time>
      </trkpt>
      <trkpt lat="46.51052" lon="5.87557">
        <ele>893.2</ele>
        <time>2014-07-03T11:52:33Z</time>
      </trkpt>
      <trkpt lat="46.51053" lon="5.87557">
        <ele>892.72</ele>
        <time>2014-07-03T11:53:06Z</time>
      </trkpt>
      <trkpt lat="46.51053" lon="5.87557">
        <ele>892.72</ele>
        <time>2014-07-03T11:53:44Z</time>
      </trkpt>
      <trkpt lat="46.51052" lon="5.87558">
        <ele>892.72</ele>
        <time>2014-07-03T11:54:21Z</time>
      </trkpt>
      <trkpt lat="46.51052" lon="5.87558">
        <ele>892.72</ele>
        <time>2014-07-03T11:54:53Z</time>
      </trkpt>
      <trkpt lat="46.51052" lon="5.87557">
        <ele>892.72</ele>
        <time>2014-07-03T11:55:41Z</time>
      </trkpt>
      <trkpt lat="46.51053" lon="5.87558">
        <ele>892.72</ele>
        <time>2014-07-03T11:56:17Z</time>
      </trkpt>
      <trkpt lat="46.51052" lon="5.87557">
        <ele>893.68</ele>
        <time>2014-07-03T11:56:48Z</time>
      </trkpt>
      <trkpt lat="46.51052" lon="5.87557">
        <ele>892.72</ele>
        <time>2014-07-03T11:57:20Z</time>
      </trkpt>
      <trkpt lat="46.51052" lon="5.87557">
        <ele>892.24</ele>
        <time>2014-07-03T11:58:03Z</time>
      </trkpt>
      <trkpt lat="46.51052" lon="5.87557">
        <ele>892.24</ele>
        <time>2014-07-03T11:58:39Z</time>
      </trkpt>
      <trkpt lat="46.51053" lon="5.87557">
        <ele>892.24</ele>
        <time>2014-07-03T11:59:12Z</time>
      </trkpt>
      <trkpt lat="46.51052" lon="5.87556">
        <ele>892.24</ele>
        <time>2014-07-03T11:59:50Z</time>
      </trkpt>
      <trkpt lat="46.51051" lon="5.87556">
        <ele>891.76</ele>
        <time>2014-07-03T12:00:17Z</time>
      </trkpt>
      <trkpt lat="46.51052" lon="5.87556">
        <ele>891.76</ele>
        <time>2014-07-03T12:01:00Z</time>
      </trkpt>
      <trkpt lat="46.51052" lon="5.87557">
        <ele>891.76</ele>
        <time>2014-07-03T12:01:46Z</time>
      </trkpt>
      <trkpt lat="46.51053" lon="5.87556">
        <ele>891.76</ele>
        <time>2014-07-03T12:02:32Z</time>
      </trkpt>
      <trkpt lat="46.51052" lon="5.87556">
        <ele>891.28</ele>
        <time>2014-07-03T12:03:29Z</time>
      </trkpt>
      <trkpt lat="46.51052" lon="5.87556">
        <ele>891.76</ele>
        <time>2014-07-03T12:04:22Z</time>
      </trkpt>
      <trkpt lat="46.51052" lon="5.87556">
        <ele>891.28</ele>
        <time>2014-07-03T12:05:00Z</time>
      </trkpt>
      <trkpt lat="46.51052" lon="5.87555">
        <ele>891.28</ele>
        <time>2014-07-03T12:05:40Z</time>
      </trkpt>
      <trkpt lat="46.51053" lon="5.87556">
        <ele>891.28</ele>
        <time>2014-07-03T12:06:19Z</time>
      </trkpt>
      <trkpt lat="46.51053" lon="5.87557">
        <ele>891.28</ele>
        <time>2014-07-03T12:06:59Z</time>
      </trkpt>
      <trkpt lat="46.51052" lon="5.87556">
        <ele>890.8</ele>
        <time>2014-07-03T12:07:39Z</time>
      </trkpt>
      <trkpt lat="46.51053" lon="5.87556">
        <ele>891.28</ele>
        <time>2014-07-03T12:08:14Z</time>
      </trkpt>
      <trkpt lat="46.51052" lon="5.87555">
        <ele>891.28</ele>
        <time>2014-07-03T12:08:52Z</time>
      </trkpt>
      <trkpt lat="46.51052" lon="5.87555">
        <ele>891.28</ele>
        <time>2014-07-03T12:09:29Z</time>
      </trkpt>
      <trkpt lat="46.51053" lon="5.87555">
        <ele>891.28</ele>
        <time>2014-07-03T12:10:00Z</time>
      </trkpt>
      <trkpt lat="46.51052" lon="5.87556">
        <ele>891.28</ele>
        <time>2014-07-03T12:10:38Z</time>
      </trkpt>
      <trkpt lat="46.51053" lon="5.87556">
        <ele>890.8</ele>
        <time>2014-07-03T12:11:20Z</time>
      </trkpt>
      <trkpt lat="46.51053" lon="5.87556">
        <ele>891.28</ele>
        <time>2014-07-03T12:12:00Z</time>
      </trkpt>
      <trkpt lat="46.51054" lon="5.87556">
        <ele>891.28</ele>
        <time>2014-07-03T12:12:37Z</time>
      </trkpt>
      <trkpt lat="46.51053" lon="5.87556">
        <ele>890.8</ele>
        <time>2014-07-03T12:13:23Z</time>
      </trkpt>
      <trkpt lat="46.51054" lon="5.87556">
        <ele>890.8</ele>
        <time>2014-07-03T12:14:04Z</time>
      </trkpt>
      <trkpt lat="46.51054" lon="5.87555">
        <ele>890.8</ele>
        <time>2014-07-03T12:14:42Z</time>
      </trkpt>
      <trkpt lat="46.51053" lon="5.87556">
        <ele>890.8</ele>
        <time>2014-07-03T12:15:21Z</time>
      </trkpt>
      <trkpt lat="46.51052" lon="5.87556">
        <ele>890.8</ele>
        <time>2014-07-03T12:16:15Z</time>
      </trkpt>
      <trkpt lat="46.51053" lon="5.87556">
        <ele>890.8</ele>
        <time>2014-07-03T12:16:58Z</time>
      </trkpt>
      <trkpt lat="46.51053" lon="5.87557">
        <ele>890.8</ele>
        <time>2014-07-03T12:17:37Z</time>
      </trkpt>
      <trkpt lat="46.51053" lon="5.87557">
        <ele>890.8</ele>
        <time>2014-07-03T12:18:10Z</time>
      </trkpt>
      <trkpt lat="46.51054" lon="5.87555">
        <ele>890.8</ele>
        <time>2014-07-03T12:18:49Z</time>
      </trkpt>
      <trkpt lat="46.51053" lon="5.87555">
        <ele>890.8</ele>
        <time>2014-07-03T12:19:29Z</time>
      </trkpt>
      <trkpt lat="46.51053" lon="5.87556">
        <ele>890.8</ele>
        <time>2014-07-03T12:20:11Z</time>
      </trkpt>
      <trkpt lat="46.51054" lon="5.87555">
        <ele>890.8</ele>
        <time>2014-07-03T12:20:52Z</time>
      </trkpt>
      <trkpt lat="46.51053" lon="5.87556">
        <ele>890.8</ele>
        <time>2014-07-03T12:21:29Z</time>
      </trkpt>
      <trkpt lat="46.51053" lon="5.87557">
        <ele>890.8</ele>
        <time>2014-07-03T12:22:17Z</time>
      </trkpt>
      <trkpt lat="46.51052" lon="5.87558">
        <ele>890.8</ele>
        <time>2014-07-03T12:22:55Z</time>
      </trkpt>
      <trkpt lat="46.51052" lon="5.87556">
        <ele>890.8</ele>
        <time>2014-07-03T12:23:35Z</time>
      </trkpt>
      <trkpt lat="46.51052" lon="5.87557">
        <ele>890.8</ele>
        <time>2014-07-03T12:24:14Z</time>
      </trkpt>
      <trkpt lat="46.51052" lon="5.87556">
        <ele>890.8</ele>
        <time>2014-07-03T12:24:54Z</time>
      </trkpt>
      <trkpt lat="46.51053" lon="5.87557">
        <ele>890.8</ele>
        <time>2014-07-03T12:25:31Z</time>
      </trkpt>
      <trkpt lat="46.51053" lon="5.87556">
        <ele>890.32</ele>
        <time>2014-07-03T12:26:11Z</time>
      </trkpt>
      <trkpt lat="46.51053" lon="5.87557">
        <ele>890.32</ele>
        <time>2014-07-03T12:26:56Z</time>
      </trkpt>
      <trkpt lat="46.51052" lon="5.87556">
        <ele>890.32</ele>
        <time>2014-07-03T12:27:34Z</time>
      </trkpt>
      <trkpt lat="46.51053" lon="5.87556">
        <ele>890.32</ele>
        <time>2014-07-03T12:28:07Z</time>
      </trkpt>
      <trkpt lat="46.51053" lon="5.87556">
        <ele>890.32</ele>
        <time>2014-07-03T12:28:49Z</time>
      </trkpt>
      <trkpt lat="46.51051" lon="5.87551">
        <ele>890.8</ele>
        <time>2014-07-03T12:29:11Z</time>
      </trkpt>
      <trkpt lat="46.51051" lon="5.87552">
        <ele>890.8</ele>
        <time>2014-07-03T12:29:36Z</time>
      </trkpt>
      <trkpt lat="46.51051" lon="5.87551">
        <ele>890.8</ele>
        <time>2014-07-03T12:29:48Z</time>
      </trkpt>
      <trkpt lat="46.51052" lon="5.87542">
        <ele>890.8</ele>
        <time>2014-07-03T12:29:53Z</time>
      </trkpt>
      <trkpt lat="46.5107" lon="5.87471">
        <ele>889.36</ele>
        <time>2014-07-03T12:30:09Z</time>
      </trkpt>
      <trkpt lat="46.51093" lon="5.87373">
        <ele>887.43</ele>
        <time>2014-07-03T12:30:25Z</time>
      </trkpt>
      <trkpt lat="46.51097" lon="5.87353">
        <ele>886.95</ele>
        <time>2014-07-03T12:30:28Z</time>
      </trkpt>
      <trkpt lat="46.51132" lon="5.87255">
        <ele>884.55</ele>
        <time>2014-07-03T12:30:43Z</time>
      </trkpt>
      <trkpt lat="46.51144" lon="5.87231">
        <ele>883.11</ele>
        <time>2014-07-03T12:30:46Z</time>
      </trkpt>
      <trkpt lat="46.51181" lon="5.87201">
        <ele>882.63</ele>
        <time>2014-07-03T12:30:52Z</time>
      </trkpt>
      <trkpt lat="46.51205" lon="5.87197">
        <ele>882.63</ele>
        <time>2014-07-03T12:30:56Z</time>
      </trkpt>
      <trkpt lat="46.51226" lon="5.87197">
        <ele>883.11</ele>
        <time>2014-07-03T12:31:00Z</time>
      </trkpt>
      <trkpt lat="46.51287" lon="5.87238">
        <ele>883.59</ele>
        <time>2014-07-03T12:31:16Z</time>
      </trkpt>
      <trkpt lat="46.51334" lon="5.87313">
        <ele>881.67</ele>
        <time>2014-07-03T12:31:29Z</time>
      </trkpt>
      <trkpt lat="46.51359" lon="5.87347">
        <ele>880.22</ele>
        <time>2014-07-03T12:31:35Z</time>
      </trkpt>
      <trkpt lat="46.51384" lon="5.87345">
        <ele>880.22</ele>
        <time>2014-07-03T12:31:41Z</time>
      </trkpt>
      <trkpt lat="46.5139" lon="5.87333">
        <ele>880.22</ele>
        <time>2014-07-03T12:31:43Z</time>
      </trkpt>
      <trkpt lat="46.51411" lon="5.8731">
        <ele>880.22</ele>
        <time>2014-07-03T12:31:48Z</time>
      </trkpt>
      <trkpt lat="46.51485" lon="5.87222">
        <ele>879.26</ele>
        <time>2014-07-03T12:32:07Z</time>
      </trkpt>
      <trkpt lat="46.51533" lon="5.87142">
        <ele>879.26</ele>
        <time>2014-07-03T12:32:24Z</time>
      </trkpt>
      <trkpt lat="46.51583" lon="5.87068">
        <ele>879.26</ele>
        <time>2014-07-03T12:32:42Z</time>
      </trkpt>
      <trkpt lat="46.51616" lon="5.87039">
        <ele>878.78</ele>
        <time>2014-07-03T12:32:51Z</time>
      </trkpt>
      <trkpt lat="46.51675" lon="5.8703">
        <ele>880.22</ele>
        <time>2014-07-03T12:33:05Z</time>
      </trkpt>
      <trkpt lat="46.51728" lon="5.87022">
        <ele>881.67</ele>
        <time>2014-07-03T12:33:23Z</time>
      </trkpt>
      <trkpt lat="46.51775" lon="5.87016">
        <ele>884.07</ele>
        <time>2014-07-03T12:33:42Z</time>
      </trkpt>
      <trkpt lat="46.51814" lon="5.87019">
        <ele>885.99</ele>
        <time>2014-07-03T12:34:01Z</time>
      </trkpt>
      <trkpt lat="46.51847" lon="5.87021">
        <ele>887.91</ele>
        <time>2014-07-03T12:34:17Z</time>
      </trkpt>
      <trkpt lat="46.51892" lon="5.87016">
        <ele>889.84</ele>
        <time>2014-07-03T12:34:36Z</time>
      </trkpt>
      <trkpt lat="46.51925" lon="5.86994">
        <ele>891.76</ele>
        <time>2014-07-03T12:34:52Z</time>
      </trkpt>
      <trkpt lat="46.51964" lon="5.86966">
        <ele>893.2</ele>
        <time>2014-07-03T12:35:11Z</time>
      </trkpt>
      <trkpt lat="46.51993" lon="5.86923">
        <ele>895.61</ele>
        <time>2014-07-03T12:35:29Z</time>
      </trkpt>
      <trkpt lat="46.5201" lon="5.86873">
        <ele>897.53</ele>
        <time>2014-07-03T12:35:46Z</time>
      </trkpt>
      <trkpt lat="46.52032" lon="5.86822">
        <ele>899.93</ele>
        <time>2014-07-03T12:36:05Z</time>
      </trkpt>
      <trkpt lat="46.5205" lon="5.86773">
        <ele>901.37</ele>
        <time>2014-07-03T12:36:22Z</time>
      </trkpt>
      <trkpt lat="46.52054" lon="5.86728">
        <ele>901.85</ele>
        <time>2014-07-03T12:36:36Z</time>
      </trkpt>
      <trkpt lat="46.52043" lon="5.86674">
        <ele>902.33</ele>
        <time>2014-07-03T12:36:54Z</time>
      </trkpt>
      <trkpt lat="46.52037" lon="5.8666">
        <ele>902.33</ele>
        <time>2014-07-03T12:37:00Z</time>
      </trkpt>
      <trkpt lat="46.52036" lon="5.86651">
        <ele>902.33</ele>
        <time>2014-07-03T12:37:04Z</time>
      </trkpt>
      <trkpt lat="46.52033" lon="5.86643">
        <ele>902.33</ele>
        <time>2014-07-03T12:37:09Z</time>
      </trkpt>
      <trkpt lat="46.52031" lon="5.86627">
        <ele>902.33</ele>
        <time>2014-07-03T12:37:19Z</time>
      </trkpt>
      <trkpt lat="46.5203" lon="5.86589">
        <ele>902.33</ele>
        <time>2014-07-03T12:37:33Z</time>
      </trkpt>
      <trkpt lat="46.52044" lon="5.86539">
        <ele>901.85</ele>
        <time>2014-07-03T12:37:48Z</time>
      </trkpt>
      <trkpt lat="46.52049" lon="5.86483">
        <ele>901.37</ele>
        <time>2014-07-03T12:38:02Z</time>
      </trkpt>
      <trkpt lat="46.5204" lon="5.86412">
        <ele>899.93</ele>
        <time>2014-07-03T12:38:14Z</time>
      </trkpt>
      <trkpt lat="46.52043" lon="5.86392">
        <ele>899.45</ele>
        <time>2014-07-03T12:38:17Z</time>
      </trkpt>
      <trkpt lat="46.52058" lon="5.8628">
        <ele>897.05</ele>
        <time>2014-07-03T12:38:32Z</time>
      </trkpt>
      <trkpt lat="46.52069" lon="5.86184">
        <ele>894.64</ele>
        <time>2014-07-03T12:38:42Z</time>
      </trkpt>
      <trkpt lat="46.52077" lon="5.86159">
        <ele>894.16</ele>
        <time>2014-07-03T12:38:45Z</time>
      </trkpt>
      <trkpt lat="46.52089" lon="5.86138">
        <ele>894.16</ele>
        <time>2014-07-03T12:38:48Z</time>
      </trkpt>
      <trkpt lat="46.52139" lon="5.86099">
        <ele>894.64</ele>
        <time>2014-07-03T12:38:59Z</time>
      </trkpt>
      <trkpt lat="46.52217" lon="5.86092">
        <ele>895.12</ele>
        <time>2014-07-03T12:39:16Z</time>
      </trkpt>
      <trkpt lat="46.52294" lon="5.86067">
        <ele>894.64</ele>
        <time>2014-07-03T12:39:34Z</time>
      </trkpt>
      <trkpt lat="46.52307" lon="5.8606">
        <ele>894.64</ele>
        <time>2014-07-03T12:39:37Z</time>
      </trkpt>
      <trkpt lat="46.52374" lon="5.85983">
        <ele>894.64</ele>
        <time>2014-07-03T12:39:55Z</time>
      </trkpt>
      <trkpt lat="46.52421" lon="5.85949">
        <ele>896.57</ele>
        <time>2014-07-03T12:40:10Z</time>
      </trkpt>
      <trkpt lat="46.52479" lon="5.85949">
        <ele>896.09</ele>
        <time>2014-07-03T12:40:27Z</time>
      </trkpt>
      <trkpt lat="46.52492" lon="5.85951">
        <ele>896.09</ele>
        <time>2014-07-03T12:40:30Z</time>
      </trkpt>
      <trkpt lat="46.52515" lon="5.85954">
        <ele>895.61</ele>
        <time>2014-07-03T12:40:35Z</time>
      </trkpt>
      <trkpt lat="46.52539" lon="5.85942">
        <ele>895.61</ele>
        <time>2014-07-03T12:40:40Z</time>
      </trkpt>
      <trkpt lat="46.52552" lon="5.85929">
        <ele>895.12</ele>
        <time>2014-07-03T12:40:43Z</time>
      </trkpt>
      <trkpt lat="46.52583" lon="5.85841">
        <ele>895.61</ele>
        <time>2014-07-03T12:40:57Z</time>
      </trkpt>
      <trkpt lat="46.52605" lon="5.85743">
        <ele>896.57</ele>
        <time>2014-07-03T12:41:14Z</time>
      </trkpt>
      <trkpt lat="46.52601" lon="5.85688">
        <ele>898.49</ele>
        <time>2014-07-03T12:41:28Z</time>
      </trkpt>
      <trkpt lat="46.5259" lon="5.85627">
        <ele>901.37</ele>
        <time>2014-07-03T12:41:49Z</time>
      </trkpt>
      <trkpt lat="46.5258" lon="5.85591">
        <ele>903.3</ele>
        <time>2014-07-03T12:42:06Z</time>
      </trkpt>
      <trkpt lat="46.52572" lon="5.85554">
        <ele>905.7</ele>
        <time>2014-07-03T12:42:24Z</time>
      </trkpt>
      <trkpt lat="46.5257" lon="5.85543">
        <ele>906.18</ele>
        <time>2014-07-03T12:42:29Z</time>
      </trkpt>
      <trkpt lat="46.52568" lon="5.85535">
        <ele>907.14</ele>
        <time>2014-07-03T12:42:33Z</time>
      </trkpt>
      <trkpt lat="46.52556" lon="5.85499">
        <ele>909.06</ele>
        <time>2014-07-03T12:42:52Z</time>
      </trkpt>
      <trkpt lat="46.52546" lon="5.85455">
        <ele>910.51</ele>
        <time>2014-07-03T12:43:10Z</time>
      </trkpt>
      <trkpt lat="46.52535" lon="5.85406">
        <ele>911.95</ele>
        <time>2014-07-03T12:43:26Z</time>
      </trkpt>
      <trkpt lat="46.52515" lon="5.85352">
        <ele>912.91</ele>
        <time>2014-07-03T12:43:42Z</time>
      </trkpt>
      <trkpt lat="46.52492" lon="5.85293">
        <ele>913.39</ele>
        <time>2014-07-03T12:43:59Z</time>
      </trkpt>
      <trkpt lat="46.52469" lon="5.85209">
        <ele>912.91</ele>
        <time>2014-07-03T12:44:15Z</time>
      </trkpt>
      <trkpt lat="46.52457" lon="5.8512">
        <ele>912.91</ele>
        <time>2014-07-03T12:44:31Z</time>
      </trkpt>
      <trkpt lat="46.5243" lon="5.8504">
        <ele>913.39</ele>
        <time>2014-07-03T12:44:47Z</time>
      </trkpt>
      <trkpt lat="46.52379" lon="5.84987">
        <ele>914.35</ele>
        <time>2014-07-03T12:45:05Z</time>
      </trkpt>
      <trkpt lat="46.52344" lon="5.84946">
        <ele>916.75</ele>
        <time>2014-07-03T12:45:21Z</time>
      </trkpt>
      <trkpt lat="46.52322" lon="5.84912">
        <ele>919.64</ele>
        <time>2014-07-03T12:45:37Z</time>
      </trkpt>
      <trkpt lat="46.523" lon="5.84871">
        <ele>922.04</ele>
        <time>2014-07-03T12:45:56Z</time>
      </trkpt>
      <trkpt lat="46.52293" lon="5.84839">
        <ele>923.96</ele>
        <time>2014-07-03T12:46:09Z</time>
      </trkpt>
      <trkpt lat="46.52302" lon="5.8482">
        <ele>925.41</ele>
        <time>2014-07-03T12:46:20Z</time>
      </trkpt>
      <trkpt lat="46.52309" lon="5.84827">
        <ele>925.89</ele>
        <time>2014-07-03T12:46:34Z</time>
      </trkpt>
      <trkpt lat="46.52309" lon="5.84825">
        <ele>925.89</ele>
        <time>2014-07-03T12:46:49Z</time>
      </trkpt>
      <trkpt lat="46.52309" lon="5.84826">
        <ele>925.89</ele>
        <time>2014-07-03T12:47:11Z</time>
      </trkpt>
      <trkpt lat="46.5231" lon="5.84827">
        <ele>925.41</ele>
        <time>2014-07-03T12:47:37Z</time>
      </trkpt>
      <trkpt lat="46.52311" lon="5.84826">
        <ele>925.89</ele>
        <time>2014-07-03T12:47:55Z</time>
      </trkpt>
      <trkpt lat="46.52335" lon="5.84849">
        <ele>926.85</ele>
        <time>2014-07-03T12:48:09Z</time>
      </trkpt>
      <trkpt lat="46.5236" lon="5.84883">
        <ele>928.77</ele>
        <time>2014-07-03T12:48:25Z</time>
      </trkpt>
      <trkpt lat="46.52388" lon="5.84905">
        <ele>931.17</ele>
        <time>2014-07-03T12:48:42Z</time>
      </trkpt>
      <trkpt lat="46.52426" lon="5.84905">
        <ele>933.1</ele>
        <time>2014-07-03T12:49:00Z</time>
      </trkpt>
      <trkpt lat="46.52463" lon="5.84903">
        <ele>935.02</ele>
        <time>2014-07-03T12:49:17Z</time>
      </trkpt>
      <trkpt lat="46.52502" lon="5.84901">
        <ele>937.42</ele>
        <time>2014-07-03T12:49:36Z</time>
      </trkpt>
      <trkpt lat="46.52534" lon="5.84885">
        <ele>939.35</ele>
        <time>2014-07-03T12:49:52Z</time>
      </trkpt>
      <trkpt lat="46.52559" lon="5.84856">
        <ele>940.79</ele>
        <time>2014-07-03T12:50:08Z</time>
      </trkpt>
      <trkpt lat="46.5256" lon="5.84854">
        <ele>941.27</ele>
        <time>2014-07-03T12:50:09Z</time>
      </trkpt>
      <trkpt lat="46.52562" lon="5.84848">
        <ele>941.75</ele>
        <time>2014-07-03T12:50:13Z</time>
      </trkpt>
      <trkpt lat="46.52569" lon="5.8484">
        <ele>942.23</ele>
        <time>2014-07-03T12:50:19Z</time>
      </trkpt>
      <trkpt lat="46.52598" lon="5.84819">
        <ele>943.67</ele>
        <time>2014-07-03T12:50:37Z</time>
      </trkpt>
      <trkpt lat="46.52633" lon="5.84805">
        <ele>943.67</ele>
        <time>2014-07-03T12:50:52Z</time>
      </trkpt>
      <trkpt lat="46.52682" lon="5.84793">
        <ele>944.15</ele>
        <time>2014-07-03T12:51:09Z</time>
      </trkpt>
      <trkpt lat="46.52731" lon="5.8478">
        <ele>944.63</ele>
        <time>2014-07-03T12:51:26Z</time>
      </trkpt>
      <trkpt lat="46.52775" lon="5.8475">
        <ele>946.07</ele>
        <time>2014-07-03T12:51:42Z</time>
      </trkpt>
      <trkpt lat="46.52818" lon="5.84727">
        <ele>947.52</ele>
        <time>2014-07-03T12:51:58Z</time>
      </trkpt>
      <trkpt lat="46.52854" lon="5.84735">
        <ele>947.52</ele>
        <time>2014-07-03T12:52:14Z</time>
      </trkpt>
      <trkpt lat="46.52881" lon="5.84754">
        <ele>947.52</ele>
        <time>2014-07-03T12:52:27Z</time>
      </trkpt>
      <trkpt lat="46.52923" lon="5.84774">
        <ele>948</ele>
        <time>2014-07-03T12:52:42Z</time>
      </trkpt>
      <trkpt lat="46.5297" lon="5.84794">
        <ele>948.48</ele>
        <time>2014-07-03T12:52:55Z</time>
      </trkpt>
      <trkpt lat="46.52985" lon="5.84804">
        <ele>948</ele>
        <time>2014-07-03T12:52:59Z</time>
      </trkpt>
      <trkpt lat="46.52999" lon="5.84817">
        <ele>948.48</ele>
        <time>2014-07-03T12:53:03Z</time>
      </trkpt>
      <trkpt lat="46.53006" lon="5.84824">
        <ele>948.48</ele>
        <time>2014-07-03T12:53:05Z</time>
      </trkpt>
      <trkpt lat="46.53052" lon="5.84856">
        <ele>948.96</ele>
        <time>2014-07-03T12:53:18Z</time>
      </trkpt>
      <trkpt lat="46.53094" lon="5.8488">
        <ele>949.92</ele>
        <time>2014-07-03T12:53:31Z</time>
      </trkpt>
      <trkpt lat="46.53139" lon="5.84907">
        <ele>951.36</ele>
        <time>2014-07-03T12:53:48Z</time>
      </trkpt>
      <trkpt lat="46.53169" lon="5.8492">
        <ele>952.8</ele>
        <time>2014-07-03T12:54:00Z</time>
      </trkpt>
      <trkpt lat="46.532" lon="5.8494">
        <ele>953.77</ele>
        <time>2014-07-03T12:54:14Z</time>
      </trkpt>
      <trkpt lat="46.53228" lon="5.84957">
        <ele>955.21</ele>
        <time>2014-07-03T12:54:27Z</time>
      </trkpt>
      <trkpt lat="46.5326" lon="5.84975">
        <ele>956.17</ele>
        <time>2014-07-03T12:54:41Z</time>
      </trkpt>
      <trkpt lat="46.53296" lon="5.84994">
        <ele>957.61</ele>
        <time>2014-07-03T12:54:55Z</time>
      </trkpt>
      <trkpt lat="46.53328" lon="5.85018">
        <ele>959.05</ele>
        <time>2014-07-03T12:55:08Z</time>
      </trkpt>
      <trkpt lat="46.53369" lon="5.85042">
        <ele>960.49</ele>
        <time>2014-07-03T12:55:25Z</time>
      </trkpt>
      <trkpt lat="46.53405" lon="5.85061">
        <ele>961.94</ele>
        <time>2014-07-03T12:55:40Z</time>
      </trkpt>
      <trkpt lat="46.53448" lon="5.85082">
        <ele>963.86</ele>
        <time>2014-07-03T12:55:56Z</time>
      </trkpt>
      <trkpt lat="46.53485" lon="5.85102">
        <ele>965.3</ele>
        <time>2014-07-03T12:56:10Z</time>
      </trkpt>
      <trkpt lat="46.53517" lon="5.8512">
        <ele>967.7</ele>
        <time>2014-07-03T12:56:24Z</time>
      </trkpt>
      <trkpt lat="46.53545" lon="5.85135">
        <ele>969.63</ele>
        <time>2014-07-03T12:56:38Z</time>
      </trkpt>
      <trkpt lat="46.53557" lon="5.85141">
        <ele>970.11</ele>
        <time>2014-07-03T12:56:44Z</time>
      </trkpt>
      <trkpt lat="46.53567" lon="5.8515">
        <ele>970.59</ele>
        <time>2014-07-03T12:56:49Z</time>
      </trkpt>
      <trkpt lat="46.53595" lon="5.85166">
        <ele>972.51</ele>
        <time>2014-07-03T12:57:03Z</time>
      </trkpt>
      <trkpt lat="46.53618" lon="5.85181">
        <ele>973.95</ele>
        <time>2014-07-03T12:57:14Z</time>
      </trkpt>
      <trkpt lat="46.53628" lon="5.85187">
        <ele>974.43</ele>
        <time>2014-07-03T12:57:19Z</time>
      </trkpt>
      <trkpt lat="46.53656" lon="5.85212">
        <ele>976.36</ele>
        <time>2014-07-03T12:57:33Z</time>
      </trkpt>
      <trkpt lat="46.53692" lon="5.85236">
        <ele>978.28</ele>
        <time>2014-07-03T12:57:50Z</time>
      </trkpt>
      <trkpt lat="46.53723" lon="5.85258">
        <ele>980.2</ele>
        <time>2014-07-03T12:58:04Z</time>
      </trkpt>
      <trkpt lat="46.5375" lon="5.85275">
        <ele>982.6</ele>
        <time>2014-07-03T12:58:17Z</time>
      </trkpt>
      <trkpt lat="46.53782" lon="5.85293">
        <ele>984.05</ele>
        <time>2014-07-03T12:58:31Z</time>
      </trkpt>
      <trkpt lat="46.53817" lon="5.85312">
        <ele>986.45</ele>
        <time>2014-07-03T12:58:47Z</time>
      </trkpt>
      <trkpt lat="46.53845" lon="5.85323">
        <ele>987.89</ele>
        <time>2014-07-03T12:59:01Z</time>
      </trkpt>
      <trkpt lat="46.53875" lon="5.85334">
        <ele>990.3</ele>
        <time>2014-07-03T12:59:16Z</time>
      </trkpt>
      <trkpt lat="46.53908" lon="5.85337">
        <ele>991.74</ele>
        <time>2014-07-03T12:59:32Z</time>
      </trkpt>
      <trkpt lat="46.53936" lon="5.85344">
        <ele>993.66</ele>
        <time>2014-07-03T12:59:47Z</time>
      </trkpt>
      <trkpt lat="46.53956" lon="5.85375">
        <ele>995.58</ele>
        <time>2014-07-03T13:00:02Z</time>
      </trkpt>
      <trkpt lat="46.53958" lon="5.85388">
        <ele>996.06</ele>
        <time>2014-07-03T13:00:05Z</time>
      </trkpt>
      <trkpt lat="46.53966" lon="5.85396">
        <ele>997.02</ele>
        <time>2014-07-03T13:00:10Z</time>
      </trkpt>
      <trkpt lat="46.53994" lon="5.85415">
        <ele>997.99</ele>
        <time>2014-07-03T13:00:25Z</time>
      </trkpt>
      <trkpt lat="46.54026" lon="5.85429">
        <ele>999.91</ele>
        <time>2014-07-03T13:00:41Z</time>
      </trkpt>
      <trkpt lat="46.54051" lon="5.85439">
        <ele>1001.83</ele>
        <time>2014-07-03T13:00:53Z</time>
      </trkpt>
      <trkpt lat="46.54085" lon="5.8546">
        <ele>1004.23</ele>
        <time>2014-07-03T13:01:11Z</time>
      </trkpt>
      <trkpt lat="46.54112" lon="5.8548">
        <ele>1006.16</ele>
        <time>2014-07-03T13:01:26Z</time>
      </trkpt>
      <trkpt lat="46.54144" lon="5.855">
        <ele>1008.08</ele>
        <time>2014-07-03T13:01:41Z</time>
      </trkpt>
      <trkpt lat="46.54179" lon="5.8551">
        <ele>1010</ele>
        <time>2014-07-03T13:01:57Z</time>
      </trkpt>
      <trkpt lat="46.54202" lon="5.85531">
        <ele>1011.93</ele>
        <time>2014-07-03T13:02:12Z</time>
      </trkpt>
      <trkpt lat="46.5423" lon="5.85542">
        <ele>1013.85</ele>
        <time>2014-07-03T13:02:27Z</time>
      </trkpt>
      <trkpt lat="46.54243" lon="5.85528">
        <ele>1014.33</ele>
        <time>2014-07-03T13:02:35Z</time>
      </trkpt>
      <trkpt lat="46.5424" lon="5.85505">
        <ele>1015.29</ele>
        <time>2014-07-03T13:02:43Z</time>
      </trkpt>
      <trkpt lat="46.54211" lon="5.85481">
        <ele>1017.21</ele>
        <time>2014-07-03T13:02:58Z</time>
      </trkpt>
      <trkpt lat="46.54181" lon="5.85452">
        <ele>1018.65</ele>
        <time>2014-07-03T13:03:14Z</time>
      </trkpt>
      <trkpt lat="46.54156" lon="5.85423">
        <ele>1020.58</ele>
        <time>2014-07-03T13:03:29Z</time>
      </trkpt>
      <trkpt lat="46.54134" lon="5.85401">
        <ele>1022.5</ele>
        <time>2014-07-03T13:03:43Z</time>
      </trkpt>
      <trkpt lat="46.54133" lon="5.85399">
        <ele>1022.5</ele>
        <time>2014-07-03T13:03:44Z</time>
      </trkpt>
      <trkpt lat="46.54155" lon="5.85344">
        <ele>1023.94</ele>
        <time>2014-07-03T13:03:57Z</time>
      </trkpt>
      <trkpt lat="46.54149" lon="5.85331">
        <ele>1024.9</ele>
        <time>2014-07-03T13:04:03Z</time>
      </trkpt>
      <trkpt lat="46.54124" lon="5.85311">
        <ele>1026.83</ele>
        <time>2014-07-03T13:04:19Z</time>
      </trkpt>
      <trkpt lat="46.541" lon="5.85286">
        <ele>1028.75</ele>
        <time>2014-07-03T13:04:34Z</time>
      </trkpt>
      <trkpt lat="46.54109" lon="5.85245">
        <ele>1030.19</ele>
        <time>2014-07-03T13:04:48Z</time>
      </trkpt>
      <trkpt lat="46.54114" lon="5.85229">
        <ele>1031.15</ele>
        <time>2014-07-03T13:04:55Z</time>
      </trkpt>
      <trkpt lat="46.54122" lon="5.85202">
        <ele>1032.11</ele>
        <time>2014-07-03T13:05:05Z</time>
      </trkpt>
      <trkpt lat="46.54128" lon="5.85161">
        <ele>1034.04</ele>
        <time>2014-07-03T13:05:21Z</time>
      </trkpt>
      <trkpt lat="46.5413" lon="5.85156">
        <ele>1034.04</ele>
        <time>2014-07-03T13:05:22Z</time>
      </trkpt>
      <trkpt lat="46.54143" lon="5.85108">
        <ele>1035.96</ele>
        <time>2014-07-03T13:05:37Z</time>
      </trkpt>
      <trkpt lat="46.5417" lon="5.85084">
        <ele>1037.4</ele>
        <time>2014-07-03T13:05:51Z</time>
      </trkpt>
      <trkpt lat="46.54194" lon="5.85067">
        <ele>1039.32</ele>
        <time>2014-07-03T13:06:06Z</time>
      </trkpt>
      <trkpt lat="46.54219" lon="5.85078">
        <ele>1040.76</ele>
        <time>2014-07-03T13:06:19Z</time>
      </trkpt>
      <trkpt lat="46.54248" lon="5.85099">
        <ele>1042.21</ele>
        <time>2014-07-03T13:06:35Z</time>
      </trkpt>
      <trkpt lat="46.54259" lon="5.85105">
        <ele>1042.69</ele>
        <time>2014-07-03T13:06:41Z</time>
      </trkpt>
      <trkpt lat="46.54263" lon="5.85108">
        <ele>1042.21</ele>
        <time>2014-07-03T13:06:53Z</time>
      </trkpt>
      <trkpt lat="46.54265" lon="5.85112">
        <ele>1042.21</ele>
        <time>2014-07-03T13:07:18Z</time>
      </trkpt>
      <trkpt lat="46.54266" lon="5.85107">
        <ele>1035.96</ele>
        <time>2014-07-03T13:07:45Z</time>
      </trkpt>
      <trkpt lat="46.54266" lon="5.85107">
        <ele>1035.96</ele>
        <time>2014-07-03T13:07:46Z</time>
      </trkpt>
      <trkpt lat="46.54282" lon="5.85125">
        <ele>1034.52</ele>
        <time>2014-07-03T13:08:02Z</time>
      </trkpt>
      <trkpt lat="46.54284" lon="5.85127">
        <ele>1034.52</ele>
        <time>2014-07-03T13:08:12Z</time>
      </trkpt>
      <trkpt lat="46.5428" lon="5.85131">
        <ele>1034.52</ele>
        <time>2014-07-03T13:08:38Z</time>
      </trkpt>
      <trkpt lat="46.54276" lon="5.85132">
        <ele>1035</ele>
        <time>2014-07-03T13:09:05Z</time>
      </trkpt>
      <trkpt lat="46.54267" lon="5.85142">
        <ele>1035.48</ele>
        <time>2014-07-03T13:09:34Z</time>
      </trkpt>
      <trkpt lat="46.54274" lon="5.85138">
        <ele>1035.96</ele>
        <time>2014-07-03T13:10:03Z</time>
      </trkpt>
      <trkpt lat="46.54276" lon="5.85134">
        <ele>1035.96</ele>
        <time>2014-07-03T13:10:32Z</time>
      </trkpt>
      <trkpt lat="46.5428" lon="5.85129">
        <ele>1036.44</ele>
        <time>2014-07-03T13:11:08Z</time>
      </trkpt>
      <trkpt lat="46.54283" lon="5.85132">
        <ele>1036.92</ele>
        <time>2014-07-03T13:11:38Z</time>
      </trkpt>
      <trkpt lat="46.54285" lon="5.85126">
        <ele>1037.4</ele>
        <time>2014-07-03T13:12:15Z</time>
      </trkpt>
      <trkpt lat="46.54285" lon="5.85123">
        <ele>1037.88</ele>
        <time>2014-07-03T13:12:49Z</time>
      </trkpt>
      <trkpt lat="46.54279" lon="5.8512">
        <ele>1038.36</ele>
        <time>2014-07-03T13:13:22Z</time>
      </trkpt>
      <trkpt lat="46.54293" lon="5.85122">
        <ele>1038.36</ele>
        <time>2014-07-03T13:13:54Z</time>
      </trkpt>
      <trkpt lat="46.54294" lon="5.85117">
        <ele>1039.32</ele>
        <time>2014-07-03T13:14:28Z</time>
      </trkpt>
      <trkpt lat="46.54281" lon="5.85133">
        <ele>1039.8</ele>
        <time>2014-07-03T13:15:06Z</time>
      </trkpt>
      <trkpt lat="46.54269" lon="5.85145">
        <ele>1040.28</ele>
        <time>2014-07-03T13:15:38Z</time>
      </trkpt>
      <trkpt lat="46.54276" lon="5.85141">
        <ele>1040.76</ele>
        <time>2014-07-03T13:16:10Z</time>
      </trkpt>
      <trkpt lat="46.54269" lon="5.85146">
        <ele>1041.25</ele>
        <time>2014-07-03T13:16:37Z</time>
      </trkpt>
      <trkpt lat="46.54266" lon="5.85148">
        <ele>1041.73</ele>
        <time>2014-07-03T13:17:11Z</time>
      </trkpt>
      <trkpt lat="46.54275" lon="5.85141">
        <ele>1042.69</ele>
        <time>2014-07-03T13:17:41Z</time>
      </trkpt>
      <trkpt lat="46.54274" lon="5.85141">
        <ele>1043.17</ele>
        <time>2014-07-03T13:18:17Z</time>
      </trkpt>
      <trkpt lat="46.54272" lon="5.8513">
        <ele>1043.65</ele>
        <time>2014-07-03T13:18:55Z</time>
      </trkpt>
      <trkpt lat="46.54267" lon="5.8514">
        <ele>1044.13</ele>
        <time>2014-07-03T13:19:23Z</time>
      </trkpt>
      <trkpt lat="46.54272" lon="5.85142">
        <ele>1044.61</ele>
        <time>2014-07-03T13:19:51Z</time>
      </trkpt>
      <trkpt lat="46.54273" lon="5.85145">
        <ele>1045.09</ele>
        <time>2014-07-03T13:20:26Z</time>
      </trkpt>
      <trkpt lat="46.5427" lon="5.85154">
        <ele>1045.09</ele>
        <time>2014-07-03T13:20:54Z</time>
      </trkpt>
      <trkpt lat="46.54278" lon="5.85144">
        <ele>1045.09</ele>
        <time>2014-07-03T13:21:19Z</time>
      </trkpt>
      <trkpt lat="46.54283" lon="5.85141">
        <ele>1045.09</ele>
        <time>2014-07-03T13:21:46Z</time>
      </trkpt>
      <trkpt lat="46.54291" lon="5.85136">
        <ele>1045.57</ele>
        <time>2014-07-03T13:22:08Z</time>
      </trkpt>
      <trkpt lat="46.54286" lon="5.8513">
        <ele>1045.57</ele>
        <time>2014-07-03T13:22:29Z</time>
      </trkpt>
      <trkpt lat="46.54286" lon="5.85128">
        <ele>1046.05</ele>
        <time>2014-07-03T13:22:47Z</time>
      </trkpt>
      <trkpt lat="46.54294" lon="5.85126">
        <ele>1045.57</ele>
        <time>2014-07-03T13:22:51Z</time>
      </trkpt>
      <trkpt lat="46.5432" lon="5.85122">
        <ele>1044.61</ele>
        <time>2014-07-03T13:22:58Z</time>
      </trkpt>
      <trkpt lat="46.54338" lon="5.85107">
        <ele>1043.65</ele>
        <time>2014-07-03T13:23:03Z</time>
      </trkpt>
      <trkpt lat="46.54349" lon="5.85099">
        <ele>1043.17</ele>
        <time>2014-07-03T13:23:05Z</time>
      </trkpt>
      <trkpt lat="46.54373" lon="5.85099">
        <ele>1041.73</ele>
        <time>2014-07-03T13:23:09Z</time>
      </trkpt>
      <trkpt lat="46.54446" lon="5.85134">
        <ele>1040.28</ele>
        <time>2014-07-03T13:23:21Z</time>
      </trkpt>
      <trkpt lat="46.54464" lon="5.85144">
        <ele>1039.32</ele>
        <time>2014-07-03T13:23:24Z</time>
      </trkpt>
      <trkpt lat="46.54526" lon="5.85169">
        <ele>1037.88</ele>
        <time>2014-07-03T13:23:34Z</time>
      </trkpt>
      <trkpt lat="46.54582" lon="5.85163">
        <ele>1036.44</ele>
        <time>2014-07-03T13:23:42Z</time>
      </trkpt>
      <trkpt lat="46.54631" lon="5.85171">
        <ele>1034.04</ele>
        <time>2014-07-03T13:23:48Z</time>
      </trkpt>
      <trkpt lat="46.54672" lon="5.85152">
        <ele>1032.59</ele>
        <time>2014-07-03T13:23:53Z</time>
      </trkpt>
      <trkpt lat="46.54712" lon="5.85098">
        <ele>1030.67</ele>
        <time>2014-07-03T13:24:00Z</time>
      </trkpt>
      <trkpt lat="46.54757" lon="5.85085">
        <ele>1029.71</ele>
        <time>2014-07-03T13:24:06Z</time>
      </trkpt>
      <trkpt lat="46.54785" lon="5.85085">
        <ele>1029.23</ele>
        <time>2014-07-03T13:24:10Z</time>
      </trkpt>
      <trkpt lat="46.54796" lon="5.85083">
        <ele>1029.23</ele>
        <time>2014-07-03T13:24:12Z</time>
      </trkpt>
      <trkpt lat="46.5489" lon="5.85032">
        <ele>1027.79</ele>
        <time>2014-07-03T13:24:26Z</time>
      </trkpt>
      <trkpt lat="46.54934" lon="5.85017">
        <ele>1027.31</ele>
        <time>2014-07-03T13:24:34Z</time>
      </trkpt>
      <trkpt lat="46.54954" lon="5.85005">
        <ele>1026.83</ele>
        <time>2014-07-03T13:24:38Z</time>
      </trkpt>
      <trkpt lat="46.54981" lon="5.84996">
        <ele>1025.38</ele>
        <time>2014-07-03T13:24:43Z</time>
      </trkpt>
      <trkpt lat="46.55017" lon="5.85003">
        <ele>1022.98</ele>
        <time>2014-07-03T13:24:48Z</time>
      </trkpt>
      <trkpt lat="46.5503" lon="5.85009">
        <ele>1022.5</ele>
        <time>2014-07-03T13:24:50Z</time>
      </trkpt>
      <trkpt lat="46.5505" lon="5.85024">
        <ele>1021.06</ele>
        <time>2014-07-03T13:24:54Z</time>
      </trkpt>
      <trkpt lat="46.55076" lon="5.85002">
        <ele>1018.65</ele>
        <time>2014-07-03T13:25:01Z</time>
      </trkpt>
      <trkpt lat="46.55058" lon="5.8498">
        <ele>1017.69</ele>
        <time>2014-07-03T13:25:05Z</time>
      </trkpt>
      <trkpt lat="46.54983" lon="5.84941">
        <ele>1013.85</ele>
        <time>2014-07-03T13:25:15Z</time>
      </trkpt>
      <trkpt lat="46.54974" lon="5.84936">
        <ele>1013.85</ele>
        <time>2014-07-03T13:25:16Z</time>
      </trkpt>
      <trkpt lat="46.54966" lon="5.84932">
        <ele>1013.37</ele>
        <time>2014-07-03T13:25:17Z</time>
      </trkpt>
      <trkpt lat="46.54931" lon="5.84892">
        <ele>1011.44</ele>
        <time>2014-07-03T13:25:22Z</time>
      </trkpt>
      <trkpt lat="46.54917" lon="5.84864">
        <ele>1010</ele>
        <time>2014-07-03T13:25:25Z</time>
      </trkpt>
      <trkpt lat="46.54893" lon="5.84832">
        <ele>1008.08</ele>
        <time>2014-07-03T13:25:30Z</time>
      </trkpt>
      <trkpt lat="46.5489" lon="5.84798">
        <ele>1006.64</ele>
        <time>2014-07-03T13:25:36Z</time>
      </trkpt>
      <trkpt lat="46.54965" lon="5.84817">
        <ele>1003.75</ele>
        <time>2014-07-03T13:25:48Z</time>
      </trkpt>
      <trkpt lat="46.54977" lon="5.8482">
        <ele>1002.79</ele>
        <time>2014-07-03T13:25:50Z</time>
      </trkpt>
      <trkpt lat="46.54994" lon="5.84813">
        <ele>1001.83</ele>
        <time>2014-07-03T13:25:52Z</time>
      </trkpt>
      <trkpt lat="46.55038" lon="5.84778">
        <ele>998.47</ele>
        <time>2014-07-03T13:25:57Z</time>
      </trkpt>
      <trkpt lat="46.55056" lon="5.84764">
        <ele>996.54</ele>
        <time>2014-07-03T13:25:59Z</time>
      </trkpt>
      <trkpt lat="46.55089" lon="5.84739">
        <ele>994.14</ele>
        <time>2014-07-03T13:26:02Z</time>
      </trkpt>
      <trkpt lat="46.55108" lon="5.84724">
        <ele>992.7</ele>
        <time>2014-07-03T13:26:04Z</time>
      </trkpt>
      <trkpt lat="46.55114" lon="5.84719">
        <ele>992.22</ele>
        <time>2014-07-03T13:26:05Z</time>
      </trkpt>
      <trkpt lat="46.55126" lon="5.84685">
        <ele>989.81</ele>
        <time>2014-07-03T13:26:08Z</time>
      </trkpt>
      <trkpt lat="46.5514" lon="5.84674">
        <ele>987.89</ele>
        <time>2014-07-03T13:26:10Z</time>
      </trkpt>
      <trkpt lat="46.55176" lon="5.84669">
        <ele>986.45</ele>
        <time>2014-07-03T13:26:14Z</time>
      </trkpt>
      <trkpt lat="46.55215" lon="5.84671">
        <ele>983.09</ele>
        <time>2014-07-03T13:26:18Z</time>
      </trkpt>
      <trkpt lat="46.55224" lon="5.84673">
        <ele>982.6</ele>
        <time>2014-07-03T13:26:19Z</time>
      </trkpt>
      <trkpt lat="46.5525" lon="5.84676">
        <ele>980.68</ele>
        <time>2014-07-03T13:26:22Z</time>
      </trkpt>
      <trkpt lat="46.55285" lon="5.8465">
        <ele>977.8</ele>
        <time>2014-07-03T13:26:27Z</time>
      </trkpt>
      <trkpt lat="46.55297" lon="5.84619">
        <ele>975.88</ele>
        <time>2014-07-03T13:26:30Z</time>
      </trkpt>
      <trkpt lat="46.55312" lon="5.84568">
        <ele>973.47</ele>
        <time>2014-07-03T13:26:35Z</time>
      </trkpt>
      <trkpt lat="46.55337" lon="5.84517">
        <ele>970.59</ele>
        <time>2014-07-03T13:26:40Z</time>
      </trkpt>
      <trkpt lat="46.55386" lon="5.84498">
        <ele>966.74</ele>
        <time>2014-07-03T13:26:46Z</time>
      </trkpt>
      <trkpt lat="46.55404" lon="5.84504">
        <ele>965.78</ele>
        <time>2014-07-03T13:26:48Z</time>
      </trkpt>
      <trkpt lat="46.5544" lon="5.84525">
        <ele>962.42</ele>
        <time>2014-07-03T13:26:52Z</time>
      </trkpt>
      <trkpt lat="46.55501" lon="5.84565">
        <ele>959.53</ele>
        <time>2014-07-03T13:26:59Z</time>
      </trkpt>
      <trkpt lat="46.55531" lon="5.84576">
        <ele>957.13</ele>
        <time>2014-07-03T13:27:03Z</time>
      </trkpt>
      <trkpt lat="46.55548" lon="5.84572">
        <ele>955.69</ele>
        <time>2014-07-03T13:27:06Z</time>
      </trkpt>
      <trkpt lat="46.55539" lon="5.84538">
        <ele>953.28</ele>
        <time>2014-07-03T13:27:11Z</time>
      </trkpt>
      <trkpt lat="46.55514" lon="5.84513">
        <ele>951.84</ele>
        <time>2014-07-03T13:27:15Z</time>
      </trkpt>
      <trkpt lat="46.55473" lon="5.84458">
        <ele>948.96</ele>
        <time>2014-07-03T13:27:23Z</time>
      </trkpt>
      <trkpt lat="46.55442" lon="5.8442">
        <ele>946.56</ele>
        <time>2014-07-03T13:27:29Z</time>
      </trkpt>
      <trkpt lat="46.55432" lon="5.84412">
        <ele>946.07</ele>
        <time>2014-07-03T13:27:31Z</time>
      </trkpt>
      <trkpt lat="46.55425" lon="5.84406">
        <ele>945.11</ele>
        <time>2014-07-03T13:27:32Z</time>
      </trkpt>
      <trkpt lat="46.5541" lon="5.84376">
        <ele>943.67</ele>
        <time>2014-07-03T13:27:36Z</time>
      </trkpt>
      <trkpt lat="46.55408" lon="5.84344">
        <ele>942.71</ele>
        <time>2014-07-03T13:27:39Z</time>
      </trkpt>
      <trkpt lat="46.55438" lon="5.84287">
        <ele>939.83</ele>
        <time>2014-07-03T13:27:46Z</time>
      </trkpt>
      <trkpt lat="46.55453" lon="5.84279">
        <ele>938.86</ele>
        <time>2014-07-03T13:27:48Z</time>
      </trkpt>
      <trkpt lat="46.55485" lon="5.84261">
        <ele>936.46</ele>
        <time>2014-07-03T13:27:52Z</time>
      </trkpt>
      <trkpt lat="46.55547" lon="5.84211">
        <ele>933.58</ele>
        <time>2014-07-03T13:28:00Z</time>
      </trkpt>
      <trkpt lat="46.55568" lon="5.84194">
        <ele>932.14</ele>
        <time>2014-07-03T13:28:03Z</time>
      </trkpt>
      <trkpt lat="46.55592" lon="5.84176">
        <ele>930.21</ele>
        <time>2014-07-03T13:28:07Z</time>
      </trkpt>
      <trkpt lat="46.55597" lon="5.84172">
        <ele>929.73</ele>
        <time>2014-07-03T13:28:08Z</time>
      </trkpt>
      <trkpt lat="46.55629" lon="5.8416">
        <ele>926.85</ele>
        <time>2014-07-03T13:28:13Z</time>
      </trkpt>
      <trkpt lat="46.55662" lon="5.84164">
        <ele>923.96</ele>
        <time>2014-07-03T13:28:18Z</time>
      </trkpt>
      <trkpt lat="46.55677" lon="5.84169">
        <ele>922.52</ele>
        <time>2014-07-03T13:28:20Z</time>
      </trkpt>
      <trkpt lat="46.55718" lon="5.84192">
        <ele>918.68</ele>
        <time>2014-07-03T13:28:25Z</time>
      </trkpt>
      <trkpt lat="46.55742" lon="5.84207">
        <ele>916.27</ele>
        <time>2014-07-03T13:28:28Z</time>
      </trkpt>
      <trkpt lat="46.5579" lon="5.84225">
        <ele>912.43</ele>
        <time>2014-07-03T13:28:34Z</time>
      </trkpt>
      <trkpt lat="46.55822" lon="5.84234">
        <ele>909.54</ele>
        <time>2014-07-03T13:28:38Z</time>
      </trkpt>
      <trkpt lat="46.5583" lon="5.84237">
        <ele>909.06</ele>
        <time>2014-07-03T13:28:39Z</time>
      </trkpt>
      <trkpt lat="46.55837" lon="5.8424">
        <ele>908.58</ele>
        <time>2014-07-03T13:28:40Z</time>
      </trkpt>
      <trkpt lat="46.5587" lon="5.84262">
        <ele>906.18</ele>
        <time>2014-07-03T13:28:45Z</time>
      </trkpt>
      <trkpt lat="46.5588" lon="5.84273">
        <ele>905.22</ele>
        <time>2014-07-03T13:28:47Z</time>
      </trkpt>
      <trkpt lat="46.55892" lon="5.8429">
        <ele>903.78</ele>
        <time>2014-07-03T13:28:49Z</time>
      </trkpt>
      <trkpt lat="46.55932" lon="5.84312">
        <ele>900.41</ele>
        <time>2014-07-03T13:28:54Z</time>
      </trkpt>
      <trkpt lat="46.55986" lon="5.84327">
        <ele>897.05</ele>
        <time>2014-07-03T13:29:01Z</time>
      </trkpt>
      <trkpt lat="46.55993" lon="5.84328">
        <ele>896.57</ele>
        <time>2014-07-03T13:29:02Z</time>
      </trkpt>
      <trkpt lat="46.56047" lon="5.84318">
        <ele>893.2</ele>
        <time>2014-07-03T13:29:09Z</time>
      </trkpt>
      <trkpt lat="46.56069" lon="5.84311">
        <ele>891.76</ele>
        <time>2014-07-03T13:29:12Z</time>
      </trkpt>
      <trkpt lat="46.5609" lon="5.84302">
        <ele>890.8</ele>
        <time>2014-07-03T13:29:15Z</time>
      </trkpt>
      <trkpt lat="46.56115" lon="5.84277">
        <ele>889.36</ele>
        <time>2014-07-03T13:29:20Z</time>
      </trkpt>
      <trkpt lat="46.56141" lon="5.84267">
        <ele>887.91</ele>
        <time>2014-07-03T13:29:24Z</time>
      </trkpt>
      <trkpt lat="46.56154" lon="5.84258">
        <ele>887.43</ele>
        <time>2014-07-03T13:29:26Z</time>
      </trkpt>
      <trkpt lat="46.56166" lon="5.84244">
        <ele>885.99</ele>
        <time>2014-07-03T13:29:28Z</time>
      </trkpt>
      <trkpt lat="46.56166" lon="5.84189">
        <ele>885.03</ele>
        <time>2014-07-03T13:29:34Z</time>
      </trkpt>
      <trkpt lat="46.56134" lon="5.84151">
        <ele>884.55</ele>
        <time>2014-07-03T13:29:40Z</time>
      </trkpt>
      <trkpt lat="46.56063" lon="5.84082">
        <ele>882.15</ele>
        <time>2014-07-03T13:29:52Z</time>
      </trkpt>
      <trkpt lat="46.56026" lon="5.84048">
        <ele>881.19</ele>
        <time>2014-07-03T13:29:59Z</time>
      </trkpt>
      <trkpt lat="46.56008" lon="5.84032">
        <ele>880.71</ele>
        <time>2014-07-03T13:30:03Z</time>
      </trkpt>
      <trkpt lat="46.5597" lon="5.83996">
        <ele>879.26</ele>
        <time>2014-07-03T13:30:11Z</time>
      </trkpt>
      <trkpt lat="46.55937" lon="5.83972">
        <ele>877.82</ele>
        <time>2014-07-03T13:30:23Z</time>
      </trkpt>
      <trkpt lat="46.55927" lon="5.8397">
        <ele>877.34</ele>
        <time>2014-07-03T13:30:29Z</time>
      </trkpt>
      <trkpt lat="46.55916" lon="5.83969">
        <ele>876.86</ele>
        <time>2014-07-03T13:30:37Z</time>
      </trkpt>
      <trkpt lat="46.55893" lon="5.83971">
        <ele>876.38</ele>
        <time>2014-07-03T13:30:51Z</time>
      </trkpt>
      <trkpt lat="46.55865" lon="5.83974">
        <ele>875.42</ele>
        <time>2014-07-03T13:31:06Z</time>
      </trkpt>
      <trkpt lat="46.55829" lon="5.83979">
        <ele>874.46</ele>
        <time>2014-07-03T13:31:19Z</time>
      </trkpt>
      <trkpt lat="46.55794" lon="5.83979">
        <ele>873.98</ele>
        <time>2014-07-03T13:31:29Z</time>
      </trkpt>
      <trkpt lat="46.55764" lon="5.8398">
        <ele>873.01</ele>
        <time>2014-07-03T13:31:36Z</time>
      </trkpt>
      <trkpt lat="46.55732" lon="5.83966">
        <ele>872.05</ele>
        <time>2014-07-03T13:31:44Z</time>
      </trkpt>
      <trkpt lat="46.55718" lon="5.83949">
        <ele>870.61</ele>
        <time>2014-07-03T13:31:47Z</time>
      </trkpt>
      <trkpt lat="46.55702" lon="5.83896">
        <ele>869.65</ele>
        <time>2014-07-03T13:31:53Z</time>
      </trkpt>
      <trkpt lat="46.55702" lon="5.83885">
        <ele>869.65</ele>
        <time>2014-07-03T13:31:54Z</time>
      </trkpt>
      <trkpt lat="46.55725" lon="5.83827">
        <ele>868.21</ele>
        <time>2014-07-03T13:32:02Z</time>
      </trkpt>
      <trkpt lat="46.55751" lon="5.83798">
        <ele>867.25</ele>
        <time>2014-07-03T13:32:07Z</time>
      </trkpt>
      <trkpt lat="46.55807" lon="5.83731">
        <ele>864.84</ele>
        <time>2014-07-03T13:32:18Z</time>
      </trkpt>
      <trkpt lat="46.55828" lon="5.83708">
        <ele>863.88</ele>
        <time>2014-07-03T13:32:22Z</time>
      </trkpt>
      <trkpt lat="46.55854" lon="5.83691">
        <ele>863.4</ele>
        <time>2014-07-03T13:32:26Z</time>
      </trkpt>
      <trkpt lat="46.5588" lon="5.83687">
        <ele>861.96</ele>
        <time>2014-07-03T13:32:30Z</time>
      </trkpt>
      <trkpt lat="46.5591" lon="5.83687">
        <ele>860.52</ele>
        <time>2014-07-03T13:32:34Z</time>
      </trkpt>
      <trkpt lat="46.55917" lon="5.83687">
        <ele>860.04</ele>
        <time>2014-07-03T13:32:35Z</time>
      </trkpt>
      <trkpt lat="46.55969" lon="5.83692">
        <ele>858.59</ele>
        <time>2014-07-03T13:32:42Z</time>
      </trkpt>
      <trkpt lat="46.55999" lon="5.83686">
        <ele>857.15</ele>
        <time>2014-07-03T13:32:46Z</time>
      </trkpt>
      <trkpt lat="46.56075" lon="5.83628">
        <ele>854.75</ele>
        <time>2014-07-03T13:32:57Z</time>
      </trkpt>
      <trkpt lat="46.56085" lon="5.83617">
        <ele>853.79</ele>
        <time>2014-07-03T13:32:59Z</time>
      </trkpt>
      <trkpt lat="46.56155" lon="5.83634">
        <ele>850.9</ele>
        <time>2014-07-03T13:33:08Z</time>
      </trkpt>
      <trkpt lat="46.56201" lon="5.83658">
        <ele>848.98</ele>
        <time>2014-07-03T13:33:14Z</time>
      </trkpt>
      <trkpt lat="46.56218" lon="5.83663">
        <ele>848.02</ele>
        <time>2014-07-03T13:33:16Z</time>
      </trkpt>
      <trkpt lat="46.5626" lon="5.83654">
        <ele>846.58</ele>
        <time>2014-07-03T13:33:21Z</time>
      </trkpt>
      <trkpt lat="46.56343" lon="5.83615">
        <ele>844.66</ele>
        <time>2014-07-03T13:33:33Z</time>
      </trkpt>
      <trkpt lat="46.56363" lon="5.83605">
        <ele>843.69</ele>
        <time>2014-07-03T13:33:36Z</time>
      </trkpt>
      <trkpt lat="46.56442" lon="5.83556">
        <ele>840.81</ele>
        <time>2014-07-03T13:33:48Z</time>
      </trkpt>
      <trkpt lat="46.56504" lon="5.83493">
        <ele>837.93</ele>
        <time>2014-07-03T13:34:00Z</time>
      </trkpt>
      <trkpt lat="46.56542" lon="5.83445">
        <ele>834.56</ele>
        <time>2014-07-03T13:34:07Z</time>
      </trkpt>
      <trkpt lat="46.56636" lon="5.83359">
        <ele>831.68</ele>
        <time>2014-07-03T13:34:23Z</time>
      </trkpt>
      <trkpt lat="46.56726" lon="5.83296">
        <ele>828.79</ele>
        <time>2014-07-03T13:34:39Z</time>
      </trkpt>
      <trkpt lat="46.56758" lon="5.83279">
        <ele>827.35</ele>
        <time>2014-07-03T13:34:45Z</time>
      </trkpt>
      <trkpt lat="46.56844" lon="5.83261">
        <ele>824.47</ele>
        <time>2014-07-03T13:35:00Z</time>
      </trkpt>
      <trkpt lat="46.56865" lon="5.83258">
        <ele>823.99</ele>
        <time>2014-07-03T13:35:04Z</time>
      </trkpt>
      <trkpt lat="46.56907" lon="5.83245">
        <ele>820.62</ele>
        <time>2014-07-03T13:35:17Z</time>
      </trkpt>
      <trkpt lat="46.56934" lon="5.83228">
        <ele>818.7</ele>
        <time>2014-07-03T13:35:30Z</time>
      </trkpt>
      <trkpt lat="46.56937" lon="5.83226">
        <ele>818.7</ele>
        <time>2014-07-03T13:35:31Z</time>
      </trkpt>
      <trkpt lat="46.56954" lon="5.83219">
        <ele>817.74</ele>
        <time>2014-07-03T13:35:35Z</time>
      </trkpt>
      <trkpt lat="46.56973" lon="5.8321">
        <ele>815.82</ele>
        <time>2014-07-03T13:35:39Z</time>
      </trkpt>
      <trkpt lat="46.56993" lon="5.83192">
        <ele>813.89</ele>
        <time>2014-07-03T13:35:43Z</time>
      </trkpt>
      <trkpt lat="46.57017" lon="5.83162">
        <ele>811.49</ele>
        <time>2014-07-03T13:35:48Z</time>
      </trkpt>
      <trkpt lat="46.57025" lon="5.83149">
        <ele>810.53</ele>
        <time>2014-07-03T13:35:50Z</time>
      </trkpt>
      <trkpt lat="46.57044" lon="5.83119">
        <ele>808.61</ele>
        <time>2014-07-03T13:35:55Z</time>
      </trkpt>
      <trkpt lat="46.57076" lon="5.83109">
        <ele>807.64</ele>
        <time>2014-07-03T13:36:02Z</time>
      </trkpt>
      <trkpt lat="46.57086" lon="5.8311">
        <ele>807.16</ele>
        <time>2014-07-03T13:36:04Z</time>
      </trkpt>
      <trkpt lat="46.57096" lon="5.8311">
        <ele>807.16</ele>
        <time>2014-07-03T13:36:06Z</time>
      </trkpt>
      <trkpt lat="46.57129" lon="5.83095">
        <ele>806.2</ele>
        <time>2014-07-03T13:36:17Z</time>
      </trkpt>
      <trkpt lat="46.57164" lon="5.83068">
        <ele>804.28</ele>
        <time>2014-07-03T13:36:31Z</time>
      </trkpt>
      <trkpt lat="46.57171" lon="5.83061">
        <ele>804.28</ele>
        <time>2014-07-03T13:36:33Z</time>
      </trkpt>
      <trkpt lat="46.57199" lon="5.83018">
        <ele>800.92</ele>
        <time>2014-07-03T13:36:43Z</time>
      </trkpt>
      <trkpt lat="46.57203" lon="5.83008">
        <ele>799.95</ele>
        <time>2014-07-03T13:36:46Z</time>
      </trkpt>
      <trkpt lat="46.57205" lon="5.83002">
        <ele>799.47</ele>
        <time>2014-07-03T13:36:59Z</time>
      </trkpt>
      <trkpt lat="46.57211" lon="5.83002">
        <ele>798.99</ele>
        <time>2014-07-03T13:37:20Z</time>
      </trkpt>
      <trkpt lat="46.57213" lon="5.83004">
        <ele>799.47</ele>
        <time>2014-07-03T13:37:43Z</time>
      </trkpt>
      <trkpt lat="46.57214" lon="5.82996">
        <ele>798.99</ele>
        <time>2014-07-03T13:38:03Z</time>
      </trkpt>
      <trkpt lat="46.57218" lon="5.8295">
        <ele>796.59</ele>
        <time>2014-07-03T13:38:14Z</time>
      </trkpt>
      <trkpt lat="46.57216" lon="5.82928">
        <ele>795.63</ele>
        <time>2014-07-03T13:38:18Z</time>
      </trkpt>
      <trkpt lat="46.57215" lon="5.82896">
        <ele>793.71</ele>
        <time>2014-07-03T13:38:23Z</time>
      </trkpt>
      <trkpt lat="46.57204" lon="5.82862">
        <ele>792.26</ele>
        <time>2014-07-03T13:38:29Z</time>
      </trkpt>
      <trkpt lat="46.57194" lon="5.82864">
        <ele>792.26</ele>
        <time>2014-07-03T13:38:39Z</time>
      </trkpt>
      <trkpt lat="46.57203" lon="5.82852">
        <ele>791.78</ele>
        <time>2014-07-03T13:38:46Z</time>
      </trkpt>
      <trkpt lat="46.57202" lon="5.82833">
        <ele>790.82</ele>
        <time>2014-07-03T13:38:50Z</time>
      </trkpt>
      <trkpt lat="46.57211" lon="5.82797">
        <ele>789.38</ele>
        <time>2014-07-03T13:38:55Z</time>
      </trkpt>
      <trkpt lat="46.57222" lon="5.82768">
        <ele>787.94</ele>
        <time>2014-07-03T13:38:59Z</time>
      </trkpt>
      <trkpt lat="46.57225" lon="5.82741">
        <ele>786.5</ele>
        <time>2014-07-03T13:39:02Z</time>
      </trkpt>
      <trkpt lat="46.57223" lon="5.82732">
        <ele>786.02</ele>
        <time>2014-07-03T13:39:03Z</time>
      </trkpt>
      <trkpt lat="46.5721" lon="5.82668">
        <ele>783.61</ele>
        <time>2014-07-03T13:39:09Z</time>
      </trkpt>
      <trkpt lat="46.572" lon="5.8262">
        <ele>781.69</ele>
        <time>2014-07-03T13:39:13Z</time>
      </trkpt>
      <trkpt lat="46.57205" lon="5.8253">
        <ele>778.32</ele>
        <time>2014-07-03T13:39:20Z</time>
      </trkpt>
      <trkpt lat="46.57195" lon="5.82422">
        <ele>774.48</ele>
        <time>2014-07-03T13:39:28Z</time>
      </trkpt>
      <trkpt lat="46.57174" lon="5.82256">
        <ele>771.11</ele>
        <time>2014-07-03T13:39:41Z</time>
      </trkpt>
      <trkpt lat="46.57155" lon="5.82092">
        <ele>769.67</ele>
        <time>2014-07-03T13:39:56Z</time>
      </trkpt>
      <trkpt lat="46.57142" lon="5.81953">
        <ele>770.63</ele>
        <time>2014-07-03T13:40:13Z</time>
      </trkpt>
      <trkpt lat="46.57141" lon="5.81801">
        <ele>768.23</ele>
        <time>2014-07-03T13:40:33Z</time>
      </trkpt>
      <trkpt lat="46.57138" lon="5.81771">
        <ele>768.23</ele>
        <time>2014-07-03T13:40:37Z</time>
      </trkpt>
      <trkpt lat="46.57089" lon="5.81623">
        <ele>766.79</ele>
        <time>2014-07-03T13:40:59Z</time>
      </trkpt>
      <trkpt lat="46.57047" lon="5.8154">
        <ele>763.42</ele>
        <time>2014-07-03T13:41:10Z</time>
      </trkpt>
      <trkpt lat="46.57017" lon="5.81478">
        <ele>760.06</ele>
        <time>2014-07-03T13:41:17Z</time>
      </trkpt>
      <trkpt lat="46.57007" lon="5.8146">
        <ele>759.58</ele>
        <time>2014-07-03T13:41:19Z</time>
      </trkpt>
      <trkpt lat="46.56991" lon="5.81434">
        <ele>758.14</ele>
        <time>2014-07-03T13:41:22Z</time>
      </trkpt>
      <trkpt lat="46.56973" lon="5.81409">
        <ele>756.21</ele>
        <time>2014-07-03T13:41:25Z</time>
      </trkpt>
      <trkpt lat="46.5695" lon="5.81351">
        <ele>752.37</ele>
        <time>2014-07-03T13:41:30Z</time>
      </trkpt>
      <trkpt lat="46.56948" lon="5.81337">
        <ele>751.89</ele>
        <time>2014-07-03T13:41:31Z</time>
      </trkpt>
      <trkpt lat="46.56947" lon="5.81269">
        <ele>748.04</ele>
        <time>2014-07-03T13:41:36Z</time>
      </trkpt>
      <trkpt lat="46.56951" lon="5.81231">
        <ele>746.12</ele>
        <time>2014-07-03T13:41:39Z</time>
      </trkpt>
      <trkpt lat="46.56964" lon="5.81178">
        <ele>743.72</ele>
        <time>2014-07-03T13:41:43Z</time>
      </trkpt>
      <trkpt lat="46.57001" lon="5.81129">
        <ele>739.39</ele>
        <time>2014-07-03T13:41:48Z</time>
      </trkpt>
      <trkpt lat="46.57029" lon="5.81088">
        <ele>736.03</ele>
        <time>2014-07-03T13:41:52Z</time>
      </trkpt>
      <trkpt lat="46.57042" lon="5.81066">
        <ele>735.55</ele>
        <time>2014-07-03T13:41:54Z</time>
      </trkpt>
      <trkpt lat="46.57063" lon="5.81033">
        <ele>732.18</ele>
        <time>2014-07-03T13:41:57Z</time>
      </trkpt>
      <trkpt lat="46.57069" lon="5.81021">
        <ele>732.66</ele>
        <time>2014-07-03T13:41:58Z</time>
      </trkpt>
      <trkpt lat="46.57093" lon="5.80971">
        <ele>730.26</ele>
        <time>2014-07-03T13:42:02Z</time>
      </trkpt>
      <trkpt lat="46.57106" lon="5.80949">
        <ele>729.3</ele>
        <time>2014-07-03T13:42:04Z</time>
      </trkpt>
      <trkpt lat="46.57121" lon="5.80931">
        <ele>728.34</ele>
        <time>2014-07-03T13:42:06Z</time>
      </trkpt>
      <trkpt lat="46.57138" lon="5.80914">
        <ele>726.89</ele>
        <time>2014-07-03T13:42:08Z</time>
      </trkpt>
      <trkpt lat="46.57186" lon="5.80838">
        <ele>723.53</ele>
        <time>2014-07-03T13:42:15Z</time>
      </trkpt>
      <trkpt lat="46.57232" lon="5.80745">
        <ele>719.2</ele>
        <time>2014-07-03T13:42:23Z</time>
      </trkpt>
      <trkpt lat="46.5725" lon="5.80708">
        <ele>717.28</ele>
        <time>2014-07-03T13:42:26Z</time>
      </trkpt>
      <trkpt lat="46.57263" lon="5.80685">
        <ele>716.32</ele>
        <time>2014-07-03T13:42:28Z</time>
      </trkpt>
      <trkpt lat="46.57301" lon="5.80638">
        <ele>713.44</ele>
        <time>2014-07-03T13:42:33Z</time>
      </trkpt>
      <trkpt lat="46.57337" lon="5.80595">
        <ele>711.03</ele>
        <time>2014-07-03T13:42:38Z</time>
      </trkpt>
      <trkpt lat="46.57361" lon="5.80527">
        <ele>708.63</ele>
        <time>2014-07-03T13:42:44Z</time>
      </trkpt>
      <trkpt lat="46.57372" lon="5.8041">
        <ele>704.3</ele>
        <time>2014-07-03T13:42:53Z</time>
      </trkpt>
      <trkpt lat="46.57375" lon="5.80386">
        <ele>702.86</ele>
        <time>2014-07-03T13:42:55Z</time>
      </trkpt>
      <trkpt lat="46.57382" lon="5.80325">
        <ele>700.46</ele>
        <time>2014-07-03T13:43:00Z</time>
      </trkpt>
      <trkpt lat="46.57387" lon="5.80279">
        <ele>698.53</ele>
        <time>2014-07-03T13:43:04Z</time>
      </trkpt>
      <trkpt lat="46.5739" lon="5.80249">
        <ele>696.61</ele>
        <time>2014-07-03T13:43:07Z</time>
      </trkpt>
      <trkpt lat="46.57409" lon="5.80207">
        <ele>695.17</ele>
        <time>2014-07-03T13:43:12Z</time>
      </trkpt>
      <trkpt lat="46.5746" lon="5.80162">
        <ele>695.17</ele>
        <time>2014-07-03T13:43:21Z</time>
      </trkpt>
      <trkpt lat="46.57478" lon="5.80146">
        <ele>694.21</ele>
        <time>2014-07-03T13:43:29Z</time>
      </trkpt>
      <trkpt lat="46.57488" lon="5.80142">
        <ele>693.73</ele>
        <time>2014-07-03T13:43:45Z</time>
      </trkpt>
      <trkpt lat="46.57504" lon="5.80138">
        <ele>693.25</ele>
        <time>2014-07-03T13:43:50Z</time>
      </trkpt>
      <trkpt lat="46.57528" lon="5.80112">
        <ele>691.33</ele>
        <time>2014-07-03T13:43:56Z</time>
      </trkpt>
      <trkpt lat="46.57569" lon="5.80045">
        <ele>687.96</ele>
        <time>2014-07-03T13:44:05Z</time>
      </trkpt>
      <trkpt lat="46.57608" lon="5.79995">
        <ele>684.6</ele>
        <time>2014-07-03T13:44:11Z</time>
      </trkpt>
      <trkpt lat="46.57631" lon="5.79955">
        <ele>682.67</ele>
        <time>2014-07-03T13:44:15Z</time>
      </trkpt>
      <trkpt lat="46.5765" lon="5.79916">
        <ele>679.79</ele>
        <time>2014-07-03T13:44:19Z</time>
      </trkpt>
      <trkpt lat="46.57655" lon="5.79907">
        <ele>678.83</ele>
        <time>2014-07-03T13:44:20Z</time>
      </trkpt>
      <trkpt lat="46.57662" lon="5.79889">
        <ele>677.39</ele>
        <time>2014-07-03T13:44:22Z</time>
      </trkpt>
      <trkpt lat="46.57655" lon="5.79813">
        <ele>673.54</ele>
        <time>2014-07-03T13:44:29Z</time>
      </trkpt>
      <trkpt lat="46.57654" lon="5.79789">
        <ele>672.1</ele>
        <time>2014-07-03T13:44:31Z</time>
      </trkpt>
      <trkpt lat="46.57661" lon="5.79745">
        <ele>670.18</ele>
        <time>2014-07-03T13:44:35Z</time>
      </trkpt>
      <trkpt lat="46.57663" lon="5.79734">
        <ele>669.7</ele>
        <time>2014-07-03T13:44:36Z</time>
      </trkpt>
      <trkpt lat="46.57658" lon="5.79696">
        <ele>667.77</ele>
        <time>2014-07-03T13:44:40Z</time>
      </trkpt>
      <trkpt lat="46.57654" lon="5.79688">
        <ele>666.81</ele>
        <time>2014-07-03T13:44:41Z</time>
      </trkpt>
      <trkpt lat="46.57644" lon="5.7967">
        <ele>665.85</ele>
        <time>2014-07-03T13:44:43Z</time>
      </trkpt>
      <trkpt lat="46.57631" lon="5.79594">
        <ele>662.01</ele>
        <time>2014-07-03T13:44:49Z</time>
      </trkpt>
      <trkpt lat="46.57646" lon="5.79539">
        <ele>658.64</ele>
        <time>2014-07-03T13:44:54Z</time>
      </trkpt>
      <trkpt lat="46.57662" lon="5.79512">
        <ele>657.2</ele>
        <time>2014-07-03T13:44:57Z</time>
      </trkpt>
      <trkpt lat="46.57671" lon="5.79492">
        <ele>655.76</ele>
        <time>2014-07-03T13:44:59Z</time>
      </trkpt>
      <trkpt lat="46.57672" lon="5.79448">
        <ele>653.83</ele>
        <time>2014-07-03T13:45:02Z</time>
      </trkpt>
      <trkpt lat="46.57672" lon="5.79369">
        <ele>649.03</ele>
        <time>2014-07-03T13:45:08Z</time>
      </trkpt>
      <trkpt lat="46.57683" lon="5.79307">
        <ele>645.66</ele>
        <time>2014-07-03T13:45:13Z</time>
      </trkpt>
      <trkpt lat="46.57697" lon="5.79233">
        <ele>642.3</ele>
        <time>2014-07-03T13:45:19Z</time>
      </trkpt>
      <trkpt lat="46.57705" lon="5.79208">
        <ele>640.86</ele>
        <time>2014-07-03T13:45:21Z</time>
      </trkpt>
      <trkpt lat="46.57724" lon="5.79157">
        <ele>637.97</ele>
        <time>2014-07-03T13:45:25Z</time>
      </trkpt>
      <trkpt lat="46.57731" lon="5.79136">
        <ele>637.01</ele>
        <time>2014-07-03T13:45:27Z</time>
      </trkpt>
      <trkpt lat="46.57748" lon="5.79064">
        <ele>633.65</ele>
        <time>2014-07-03T13:45:32Z</time>
      </trkpt>
      <trkpt lat="46.57758" lon="5.79006">
        <ele>630.28</ele>
        <time>2014-07-03T13:45:36Z</time>
      </trkpt>
      <trkpt lat="46.57768" lon="5.78932">
        <ele>626.44</ele>
        <time>2014-07-03T13:45:41Z</time>
      </trkpt>
      <trkpt lat="46.57769" lon="5.78912">
        <ele>625.47</ele>
        <time>2014-07-03T13:45:42Z</time>
      </trkpt>
      <trkpt lat="46.57768" lon="5.78839">
        <ele>621.63</ele>
        <time>2014-07-03T13:45:47Z</time>
      </trkpt>
      <trkpt lat="46.57765" lon="5.78785">
        <ele>618.75</ele>
        <time>2014-07-03T13:45:51Z</time>
      </trkpt>
      <trkpt lat="46.57764" lon="5.78774">
        <ele>618.26</ele>
        <time>2014-07-03T13:45:52Z</time>
      </trkpt>
      <trkpt lat="46.57758" lon="5.78713">
        <ele>615.38</ele>
        <time>2014-07-03T13:45:56Z</time>
      </trkpt>
      <trkpt lat="46.57757" lon="5.787">
        <ele>614.42</ele>
        <time>2014-07-03T13:45:57Z</time>
      </trkpt>
      <trkpt lat="46.57764" lon="5.78568">
        <ele>610.57</ele>
        <time>2014-07-03T13:46:07Z</time>
      </trkpt>
      <trkpt lat="46.57765" lon="5.78515">
        <ele>608.65</ele>
        <time>2014-07-03T13:46:12Z</time>
      </trkpt>
      <trkpt lat="46.5777" lon="5.78504">
        <ele>607.69</ele>
        <time>2014-07-03T13:46:20Z</time>
      </trkpt>
      <trkpt lat="46.57781" lon="5.78515">
        <ele>607.69</ele>
        <time>2014-07-03T13:46:37Z</time>
      </trkpt>
      <trkpt lat="46.57789" lon="5.78521">
        <ele>607.69</ele>
        <time>2014-07-03T13:46:59Z</time>
      </trkpt>
      <trkpt lat="46.57797" lon="5.78492">
        <ele>606.73</ele>
        <time>2014-07-03T13:47:06Z</time>
      </trkpt>
      <trkpt lat="46.57809" lon="5.78425">
        <ele>603.36</ele>
        <time>2014-07-03T13:47:14Z</time>
      </trkpt>
      <trkpt lat="46.57819" lon="5.78375">
        <ele>600.96</ele>
        <time>2014-07-03T13:47:19Z</time>
      </trkpt>
      <trkpt lat="46.5783" lon="5.78313">
        <ele>598.08</ele>
        <time>2014-07-03T13:47:25Z</time>
      </trkpt>
      <trkpt lat="46.57842" lon="5.78241">
        <ele>594.23</ele>
        <time>2014-07-03T13:47:31Z</time>
      </trkpt>
      <trkpt lat="46.57844" lon="5.78228">
        <ele>594.23</ele>
        <time>2014-07-03T13:47:32Z</time>
      </trkpt>
      <trkpt lat="46.5785" lon="5.78159">
        <ele>591.35</ele>
        <time>2014-07-03T13:47:37Z</time>
      </trkpt>
      <trkpt lat="46.5785" lon="5.78126">
        <ele>589.43</ele>
        <time>2014-07-03T13:47:39Z</time>
      </trkpt>
      <trkpt lat="46.57841" lon="5.78081">
        <ele>587.5</ele>
        <time>2014-07-03T13:47:43Z</time>
      </trkpt>
      <trkpt lat="46.57834" lon="5.78059">
        <ele>587.02</ele>
        <time>2014-07-03T13:47:45Z</time>
      </trkpt>
      <trkpt lat="46.57801" lon="5.77933">
        <ele>583.18</ele>
        <time>2014-07-03T13:47:57Z</time>
      </trkpt>
      <trkpt lat="46.57759" lon="5.77807">
        <ele>580.29</ele>
        <time>2014-07-03T13:48:10Z</time>
      </trkpt>
      <trkpt lat="46.57741" lon="5.77774">
        <ele>578.37</ele>
        <time>2014-07-03T13:48:14Z</time>
      </trkpt>
      <trkpt lat="46.57665" lon="5.77709">
        <ele>576.45</ele>
        <time>2014-07-03T13:48:26Z</time>
      </trkpt>
      <trkpt lat="46.57648" lon="5.77697">
        <ele>576.45</ele>
        <time>2014-07-03T13:48:29Z</time>
      </trkpt>
      <trkpt lat="46.57644" lon="5.77693">
        <ele>576.93</ele>
        <time>2014-07-03T13:48:30Z</time>
      </trkpt>
      <trkpt lat="46.5764" lon="5.77689">
        <ele>576.93</ele>
        <time>2014-07-03T13:48:31Z</time>
      </trkpt>
      <trkpt lat="46.57637" lon="5.77683">
        <ele>577.41</ele>
        <time>2014-07-03T13:48:32Z</time>
      </trkpt>
      <trkpt lat="46.57631" lon="5.77642">
        <ele>577.89</ele>
        <time>2014-07-03T13:48:42Z</time>
      </trkpt>
      <trkpt lat="46.57634" lon="5.77606">
        <ele>578.37</ele>
        <time>2014-07-03T13:48:51Z</time>
      </trkpt>
      <trkpt lat="46.57636" lon="5.77552">
        <ele>578.85</ele>
        <time>2014-07-03T13:49:05Z</time>
      </trkpt>
      <trkpt lat="46.57636" lon="5.77522">
        <ele>578.85</ele>
        <time>2014-07-03T13:49:12Z</time>
      </trkpt>
      <trkpt lat="46.57632" lon="5.7748">
        <ele>578.37</ele>
        <time>2014-07-03T13:49:24Z</time>
      </trkpt>
      <trkpt lat="46.57624" lon="5.77406">
        <ele>577.89</ele>
        <time>2014-07-03T13:49:38Z</time>
      </trkpt>
      <trkpt lat="46.57619" lon="5.77361">
        <ele>577.89</ele>
        <time>2014-07-03T13:49:46Z</time>
      </trkpt>
      <trkpt lat="46.57616" lon="5.77316">
        <ele>577.41</ele>
        <time>2014-07-03T13:49:53Z</time>
      </trkpt>
      <trkpt lat="46.57613" lon="5.77284">
        <ele>577.41</ele>
        <time>2014-07-03T13:49:58Z</time>
      </trkpt>
      <trkpt lat="46.57604" lon="5.77228">
        <ele>576.93</ele>
        <time>2014-07-03T13:50:06Z</time>
      </trkpt>
      <trkpt lat="46.57588" lon="5.7711">
        <ele>576.93</ele>
        <time>2014-07-03T13:50:22Z</time>
      </trkpt>
      <trkpt lat="46.57587" lon="5.77096">
        <ele>577.41</ele>
        <time>2014-07-03T13:50:24Z</time>
      </trkpt>
      <trkpt lat="46.57583" lon="5.77012">
        <ele>577.89</ele>
        <time>2014-07-03T13:50:37Z</time>
      </trkpt>
      <trkpt lat="46.57582" lon="5.77005">
        <ele>577.89</ele>
        <time>2014-07-03T13:50:38Z</time>
      </trkpt>
      <trkpt lat="46.57574" lon="5.76954">
        <ele>578.85</ele>
        <time>2014-07-03T13:50:47Z</time>
      </trkpt>
      <trkpt lat="46.57569" lon="5.76944">
        <ele>578.85</ele>
        <time>2014-07-03T13:50:49Z</time>
      </trkpt>
      <trkpt lat="46.57552" lon="5.76878">
        <ele>580.29</ele>
        <time>2014-07-03T13:51:01Z</time>
      </trkpt>
      <trkpt lat="46.57541" lon="5.76824">
        <ele>580.77</ele>
        <time>2014-07-03T13:51:14Z</time>
      </trkpt>
      <trkpt lat="46.5754" lon="5.76766">
        <ele>581.73</ele>
        <time>2014-07-03T13:51:28Z</time>
      </trkpt>
      <trkpt lat="46.57541" lon="5.76706">
        <ele>582.7</ele>
        <time>2014-07-03T13:51:42Z</time>
      </trkpt>
      <trkpt lat="46.57538" lon="5.76641">
        <ele>583.18</ele>
        <time>2014-07-03T13:51:57Z</time>
      </trkpt>
      <trkpt lat="46.57515" lon="5.76579">
        <ele>582.7</ele>
        <time>2014-07-03T13:52:07Z</time>
      </trkpt>
      <trkpt lat="46.57521" lon="5.76507">
        <ele>581.73</ele>
        <time>2014-07-03T13:52:18Z</time>
      </trkpt>
      <trkpt lat="46.57521" lon="5.76489">
        <ele>581.73</ele>
        <time>2014-07-03T13:52:21Z</time>
      </trkpt>
      <trkpt lat="46.57518" lon="5.7647">
        <ele>581.25</ele>
        <time>2014-07-03T13:52:24Z</time>
      </trkpt>
      <trkpt lat="46.57513" lon="5.76449">
        <ele>581.25</ele>
        <time>2014-07-03T13:52:28Z</time>
      </trkpt>
      <trkpt lat="46.57489" lon="5.76346">
        <ele>581.73</ele>
        <time>2014-07-03T13:52:43Z</time>
      </trkpt>
      <trkpt lat="46.57477" lon="5.76316">
        <ele>581.73</ele>
        <time>2014-07-03T13:52:48Z</time>
      </trkpt>
      <trkpt lat="46.57454" lon="5.76249">
        <ele>581.73</ele>
        <time>2014-07-03T13:53:00Z</time>
      </trkpt>
      <trkpt lat="46.574" lon="5.76152">
        <ele>582.22</ele>
        <time>2014-07-03T13:53:15Z</time>
      </trkpt>
      <trkpt lat="46.57376" lon="5.76051">
        <ele>581.73</ele>
        <time>2014-07-03T13:53:31Z</time>
      </trkpt>
      <trkpt lat="46.57359" lon="5.75977">
        <ele>581.25</ele>
        <time>2014-07-03T13:53:44Z</time>
      </trkpt>
      <trkpt lat="46.57368" lon="5.75888">
        <ele>581.25</ele>
        <time>2014-07-03T13:53:57Z</time>
      </trkpt>
      <trkpt lat="46.57365" lon="5.7581">
        <ele>581.73</ele>
        <time>2014-07-03T13:54:12Z</time>
      </trkpt>
      <trkpt lat="46.57335" lon="5.7575">
        <ele>581.73</ele>
        <time>2014-07-03T13:54:26Z</time>
      </trkpt>
      <trkpt lat="46.57327" lon="5.75677">
        <ele>581.73</ele>
        <time>2014-07-03T13:54:41Z</time>
      </trkpt>
      <trkpt lat="46.57335" lon="5.75591">
        <ele>582.22</ele>
        <time>2014-07-03T13:54:58Z</time>
      </trkpt>
      <trkpt lat="46.57325" lon="5.75527">
        <ele>582.22</ele>
        <time>2014-07-03T13:55:12Z</time>
      </trkpt>
      <trkpt lat="46.57314" lon="5.75472">
        <ele>582.7</ele>
        <time>2014-07-03T13:55:24Z</time>
      </trkpt>
      <trkpt lat="46.57327" lon="5.75401">
        <ele>583.18</ele>
        <time>2014-07-03T13:55:40Z</time>
      </trkpt>
      <trkpt lat="46.57325" lon="5.75353">
        <ele>582.7</ele>
        <time>2014-07-03T13:55:52Z</time>
      </trkpt>
      <trkpt lat="46.5732" lon="5.7533">
        <ele>582.22</ele>
        <time>2014-07-03T13:55:58Z</time>
      </trkpt>
      <trkpt lat="46.57319" lon="5.75331">
        <ele>581.73</ele>
        <time>2014-07-03T13:56:14Z</time>
      </trkpt>
      <trkpt lat="46.5732" lon="5.75328">
        <ele>581.73</ele>
        <time>2014-07-03T13:56:32Z</time>
      </trkpt>
      <trkpt lat="46.57307" lon="5.75332">
        <ele>581.73</ele>
        <time>2014-07-03T13:56:38Z</time>
      </trkpt>
      <trkpt lat="46.57262" lon="5.75383">
        <ele>582.22</ele>
        <time>2014-07-03T13:56:56Z</time>
      </trkpt>
      <trkpt lat="46.57218" lon="5.75419">
        <ele>582.7</ele>
        <time>2014-07-03T13:57:12Z</time>
      </trkpt>
      <trkpt lat="46.57167" lon="5.75439">
        <ele>583.18</ele>
        <time>2014-07-03T13:57:28Z</time>
      </trkpt>
      <trkpt lat="46.57104" lon="5.75461">
        <ele>583.18</ele>
        <time>2014-07-03T13:57:48Z</time>
      </trkpt>
      <trkpt lat="46.57057" lon="5.75471">
        <ele>582.22</ele>
        <time>2014-07-03T13:58:01Z</time>
      </trkpt>
      <trkpt lat="46.57008" lon="5.75478">
        <ele>581.25</ele>
        <time>2014-07-03T13:58:12Z</time>
      </trkpt>
      <trkpt lat="46.56943" lon="5.75499">
        <ele>579.33</ele>
        <time>2014-07-03T13:58:25Z</time>
      </trkpt>
      <trkpt lat="46.56925" lon="5.75501">
        <ele>578.85</ele>
        <time>2014-07-03T13:58:29Z</time>
      </trkpt>
      <trkpt lat="46.56901" lon="5.75509">
        <ele>578.37</ele>
        <time>2014-07-03T13:58:35Z</time>
      </trkpt>
      <trkpt lat="46.56881" lon="5.75514">
        <ele>577.89</ele>
        <time>2014-07-03T13:58:40Z</time>
      </trkpt>
      <trkpt lat="46.56873" lon="5.75515">
        <ele>577.41</ele>
        <time>2014-07-03T13:58:42Z</time>
      </trkpt>
      <trkpt lat="46.56861" lon="5.75519">
        <ele>576.93</ele>
        <time>2014-07-03T13:58:45Z</time>
      </trkpt>
      <trkpt lat="46.56824" lon="5.75517">
        <ele>575.01</ele>
        <time>2014-07-03T13:58:56Z</time>
      </trkpt>
      <trkpt lat="46.56822" lon="5.75511">
        <ele>574.53</ele>
        <time>2014-07-03T13:59:11Z</time>
      </trkpt>
      <trkpt lat="46.56819" lon="5.75515">
        <ele>574.53</ele>
        <time>2014-07-03T13:59:28Z</time>
      </trkpt>
      <trkpt lat="46.56821" lon="5.75515">
        <ele>574.53</ele>
        <time>2014-07-03T13:59:52Z</time>
      </trkpt>
      <trkpt lat="46.56837" lon="5.755">
        <ele>572.12</ele>
        <time>2014-07-03T14:00:00Z</time>
      </trkpt>
      <trkpt lat="46.56861" lon="5.75492">
        <ele>570.68</ele>
        <time>2014-07-03T14:00:07Z</time>
      </trkpt>
      <trkpt lat="46.56861" lon="5.75485">
        <ele>570.68</ele>
        <time>2014-07-03T14:00:18Z</time>
      </trkpt>
      <trkpt lat="46.56859" lon="5.75485">
        <ele>570.68</ele>
        <time>2014-07-03T14:00:38Z</time>
      </trkpt>
      <trkpt lat="46.56856" lon="5.75481">
        <ele>570.2</ele>
        <time>2014-07-03T14:01:19Z</time>
      </trkpt>
      <trkpt lat="46.56855" lon="5.75481">
        <ele>569.72</ele>
        <time>2014-07-03T14:01:56Z</time>
      </trkpt>
      <trkpt lat="46.56857" lon="5.75485">
        <ele>569.72</ele>
        <time>2014-07-03T14:02:28Z</time>
      </trkpt>
      <trkpt lat="46.56858" lon="5.75482">
        <ele>569.24</ele>
        <time>2014-07-03T14:03:03Z</time>
      </trkpt>
      <trkpt lat="46.56857" lon="5.75487">
        <ele>568.76</ele>
        <time>2014-07-03T14:03:47Z</time>
      </trkpt>
      <trkpt lat="46.56852" lon="5.7549">
        <ele>568.28</ele>
        <time>2014-07-03T14:04:26Z</time>
      </trkpt>
      <trkpt lat="46.56852" lon="5.75485">
        <ele>568.28</ele>
        <time>2014-07-03T14:05:00Z</time>
      </trkpt>
      <trkpt lat="46.56851" lon="5.75482">
        <ele>568.28</ele>
        <time>2014-07-03T14:05:32Z</time>
      </trkpt>
      <trkpt lat="46.56854" lon="5.75483">
        <ele>567.8</ele>
        <time>2014-07-03T14:06:07Z</time>
      </trkpt>
      <trkpt lat="46.56854" lon="5.75482">
        <ele>567.8</ele>
        <time>2014-07-03T14:06:49Z</time>
      </trkpt>
      <trkpt lat="46.56855" lon="5.75485">
        <ele>567.32</ele>
        <time>2014-07-03T14:07:24Z</time>
      </trkpt>
      <trkpt lat="46.56854" lon="5.75482">
        <ele>567.8</ele>
        <time>2014-07-03T14:07:34Z</time>
      </trkpt>
      <trkpt lat="46.56856" lon="5.75463">
        <ele>565.87</ele>
        <time>2014-07-03T14:07:41Z</time>
      </trkpt>
      <trkpt lat="46.5685" lon="5.7546">
        <ele>564.91</ele>
        <time>2014-07-03T14:07:48Z</time>
      </trkpt>
      <trkpt lat="46.56843" lon="5.7546">
        <ele>564.91</ele>
        <time>2014-07-03T14:07:52Z</time>
      </trkpt>
      <trkpt lat="46.56836" lon="5.75444">
        <ele>564.43</ele>
        <time>2014-07-03T14:07:58Z</time>
      </trkpt>
      <trkpt lat="46.56837" lon="5.75407">
        <ele>562.99</ele>
        <time>2014-07-03T14:08:08Z</time>
      </trkpt>
      <trkpt lat="46.56826" lon="5.75355">
        <ele>561.55</ele>
        <time>2014-07-03T14:08:22Z</time>
      </trkpt>
      <trkpt lat="46.56814" lon="5.75288">
        <ele>559.62</ele>
        <time>2014-07-03T14:08:36Z</time>
      </trkpt>
      <trkpt lat="46.56805" lon="5.75248">
        <ele>556.74</ele>
        <time>2014-07-03T14:08:46Z</time>
      </trkpt>
      <trkpt lat="46.56815" lon="5.75241">
        <ele>556.26</ele>
        <time>2014-07-03T14:08:50Z</time>
      </trkpt>
      <trkpt lat="46.5685" lon="5.75246">
        <ele>556.26</ele>
        <time>2014-07-03T14:09:04Z</time>
      </trkpt>
      <trkpt lat="46.5685" lon="5.75244">
        <ele>556.26</ele>
        <time>2014-07-03T14:09:19Z</time>
      </trkpt>
      <trkpt lat="46.56848" lon="5.75244">
        <ele>556.26</ele>
        <time>2014-07-03T14:09:21Z</time>
      </trkpt>
      <trkpt lat="46.56848" lon="5.75266">
        <ele>557.22</ele>
        <time>2014-07-03T14:09:36Z</time>
      </trkpt>
      <trkpt lat="46.56852" lon="5.75277">
        <ele>557.7</ele>
        <time>2014-07-03T14:09:52Z</time>
      </trkpt>
      <trkpt lat="46.56852" lon="5.75284">
        <ele>557.7</ele>
        <time>2014-07-03T14:10:11Z</time>
      </trkpt>
      <trkpt lat="46.56844" lon="5.75289">
        <ele>557.7</ele>
        <time>2014-07-03T14:10:26Z</time>
      </trkpt>
      <trkpt lat="46.56842" lon="5.75287">
        <ele>557.7</ele>
        <time>2014-07-03T14:10:53Z</time>
      </trkpt>
      <trkpt lat="46.56842" lon="5.75293">
        <ele>557.22</ele>
        <time>2014-07-03T14:11:32Z</time>
      </trkpt>
      <trkpt lat="46.56841" lon="5.75293">
        <ele>557.22</ele>
        <time>2014-07-03T14:12:06Z</time>
      </trkpt>
      <trkpt lat="46.56841" lon="5.75289">
        <ele>556.74</ele>
        <time>2014-07-03T14:12:41Z</time>
      </trkpt>
      <trkpt lat="46.56841" lon="5.75289">
        <ele>556.26</ele>
        <time>2014-07-03T14:13:15Z</time>
      </trkpt>
      <trkpt lat="46.56841" lon="5.75289">
        <ele>556.26</ele>
        <time>2014-07-03T14:13:56Z</time>
      </trkpt>
      <trkpt lat="46.5684" lon="5.75293">
        <ele>556.26</ele>
        <time>2014-07-03T14:14:30Z</time>
      </trkpt>
      <trkpt lat="46.5684" lon="5.75294">
        <ele>555.78</ele>
        <time>2014-07-03T14:14:49Z</time>
      </trkpt>
      <trkpt lat="46.56836" lon="5.75289">
        <ele>555.78</ele>
        <time>2014-07-03T14:15:18Z</time>
      </trkpt>
      <trkpt lat="46.5684" lon="5.75291">
        <ele>555.3</ele>
        <time>2014-07-03T14:15:46Z</time>
      </trkpt>
      <trkpt lat="46.5684" lon="5.75293">
        <ele>554.82</ele>
        <time>2014-07-03T14:16:21Z</time>
      </trkpt>
      <trkpt lat="46.56843" lon="5.75294">
        <ele>554.82</ele>
        <time>2014-07-03T14:16:46Z</time>
      </trkpt>
      <trkpt lat="46.56845" lon="5.75293">
        <ele>554.82</ele>
        <time>2014-07-03T14:17:25Z</time>
      </trkpt>
      <trkpt lat="46.56844" lon="5.75293">
        <ele>554.34</ele>
        <time>2014-07-03T14:18:11Z</time>
      </trkpt>
      <trkpt lat="46.56843" lon="5.75293">
        <ele>553.86</ele>
        <time>2014-07-03T14:18:53Z</time>
      </trkpt>
      <trkpt lat="46.56843" lon="5.75292">
        <ele>553.38</ele>
        <time>2014-07-03T14:19:27Z</time>
      </trkpt>
      <trkpt lat="46.56843" lon="5.75295">
        <ele>553.38</ele>
        <time>2014-07-03T14:20:03Z</time>
      </trkpt>
      <trkpt lat="46.56838" lon="5.75298">
        <ele>553.38</ele>
        <time>2014-07-03T14:20:30Z</time>
      </trkpt>
      <trkpt lat="46.5684" lon="5.753">
        <ele>553.38</ele>
        <time>2014-07-03T14:20:56Z</time>
      </trkpt>
      <trkpt lat="46.56844" lon="5.75295">
        <ele>552.9</ele>
        <time>2014-07-03T14:21:30Z</time>
      </trkpt>
      <trkpt lat="46.56845" lon="5.75293">
        <ele>552.9</ele>
        <time>2014-07-03T14:21:52Z</time>
      </trkpt>
      <trkpt lat="46.56845" lon="5.7529">
        <ele>552.41</ele>
        <time>2014-07-03T14:22:29Z</time>
      </trkpt>
      <trkpt lat="46.56843" lon="5.75292">
        <ele>552.9</ele>
        <time>2014-07-03T14:23:01Z</time>
      </trkpt>
      <trkpt lat="46.56844" lon="5.7529">
        <ele>552.41</ele>
        <time>2014-07-03T14:23:35Z</time>
      </trkpt>
      <trkpt lat="46.56843" lon="5.75293">
        <ele>552.41</ele>
        <time>2014-07-03T14:24:04Z</time>
      </trkpt>
      <trkpt lat="46.56842" lon="5.75294">
        <ele>552.41</ele>
        <time>2014-07-03T14:24:37Z</time>
      </trkpt>
      <trkpt lat="46.56836" lon="5.75294">
        <ele>552.41</ele>
        <time>2014-07-03T14:25:10Z</time>
      </trkpt>
      <trkpt lat="46.56836" lon="5.75294">
        <ele>552.9</ele>
        <time>2014-07-03T14:25:40Z</time>
      </trkpt>
      <trkpt lat="46.56839" lon="5.75292">
        <ele>552.9</ele>
        <time>2014-07-03T14:26:15Z</time>
      </trkpt>
      <trkpt lat="46.5684" lon="5.75293">
        <ele>552.9</ele>
        <time>2014-07-03T14:26:54Z</time>
      </trkpt>
      <trkpt lat="46.5684" lon="5.75294">
        <ele>552.9</ele>
        <time>2014-07-03T14:27:29Z</time>
      </trkpt>
      <trkpt lat="46.56836" lon="5.7529">
        <ele>552.9</ele>
        <time>2014-07-03T14:28:08Z</time>
      </trkpt>
      <trkpt lat="46.56836" lon="5.75293">
        <ele>552.9</ele>
        <time>2014-07-03T14:28:39Z</time>
      </trkpt>
      <trkpt lat="46.56839" lon="5.75293">
        <ele>552.9</ele>
        <time>2014-07-03T14:29:19Z</time>
      </trkpt>
      <trkpt lat="46.56841" lon="5.75293">
        <ele>552.9</ele>
        <time>2014-07-03T14:29:55Z</time>
      </trkpt>
      <trkpt lat="46.56841" lon="5.75293">
        <ele>553.38</ele>
        <time>2014-07-03T14:30:18Z</time>
      </trkpt>
      <trkpt lat="46.5684" lon="5.75291">
        <ele>553.38</ele>
        <time>2014-07-03T14:30:50Z</time>
      </trkpt>
      <trkpt lat="46.56839" lon="5.75291">
        <ele>552.9</ele>
        <time>2014-07-03T14:31:15Z</time>
      </trkpt>
      <trkpt lat="46.56838" lon="5.75292">
        <ele>553.38</ele>
        <time>2014-07-03T14:31:43Z</time>
      </trkpt>
      <trkpt lat="46.56838" lon="5.75294">
        <ele>553.38</ele>
        <time>2014-07-03T14:32:13Z</time>
      </trkpt>
      <trkpt lat="46.56836" lon="5.75292">
        <ele>553.86</ele>
        <time>2014-07-03T14:32:49Z</time>
      </trkpt>
      <trkpt lat="46.56837" lon="5.75293">
        <ele>553.38</ele>
        <time>2014-07-03T14:33:03Z</time>
      </trkpt>
      <trkpt lat="46.56837" lon="5.75294">
        <ele>554.34</ele>
        <time>2014-07-03T16:53:02Z</time>
      </trkpt>
      <trkpt lat="46.56859" lon="5.75302">
        <ele>566.35</ele>
        <time>2014-07-03T16:53:09Z</time>
      </trkpt>
      <trkpt lat="46.56859" lon="5.75301">
        <ele>564.91</ele>
        <time>2014-07-03T16:53:10Z</time>
      </trkpt>
      <trkpt lat="46.56855" lon="5.75281">
        <ele>561.55</ele>
        <time>2014-07-03T16:53:34Z</time>
      </trkpt>
      <trkpt lat="46.56853" lon="5.75282">
        <ele>560.59</ele>
        <time>2014-07-03T16:53:36Z</time>
      </trkpt>
      <trkpt lat="46.56847" lon="5.75283">
        <ele>557.7</ele>
        <time>2014-07-03T16:53:41Z</time>
      </trkpt>
      <trkpt lat="46.56845" lon="5.75284">
        <ele>554.34</ele>
        <time>2014-07-03T16:53:47Z</time>
      </trkpt>
      <trkpt lat="46.56845" lon="5.75285">
        <ele>551.45</ele>
        <time>2014-07-03T16:53:53Z</time>
      </trkpt>
      <trkpt lat="46.56845" lon="5.75285">
        <ele>548.09</ele>
        <time>2014-07-03T16:54:01Z</time>
      </trkpt>
      <trkpt lat="46.56847" lon="5.75287">
        <ele>545.2</ele>
        <time>2014-07-03T16:54:11Z</time>
      </trkpt>
      <trkpt lat="46.56847" lon="5.75285">
        <ele>542.32</ele>
        <time>2014-07-03T16:54:28Z</time>
      </trkpt>
      <trkpt lat="46.56848" lon="5.75283">
        <ele>541.36</ele>
        <time>2014-07-03T16:54:58Z</time>
      </trkpt>
      <trkpt lat="46.56847" lon="5.75283">
        <ele>541.36</ele>
        <time>2014-07-03T16:55:18Z</time>
      </trkpt>
      <trkpt lat="46.56847" lon="5.75281">
        <ele>541.36</ele>
        <time>2014-07-03T16:55:42Z</time>
      </trkpt>
      <trkpt lat="46.56847" lon="5.75283">
        <ele>541.84</ele>
        <time>2014-07-03T16:56:01Z</time>
      </trkpt>
      <trkpt lat="46.56844" lon="5.75281">
        <ele>541.84</ele>
        <time>2014-07-03T16:56:29Z</time>
      </trkpt>
    </trkseg>
  </trk>
</gpx>